<?xml version='1.0' encoding='UTF-8'?><gpx version="1.1" creator="JPX - https://github.com/jenetics/jpx" xmlns="http://www.topografix.com/GPX/1/1"><trk><trkseg><trkpt lat="44.93735683731001" lon="1.6156855772179723"><ele>235.0</ele><time>2026-05-02T07:26:27.894Z</time></trkpt><trkpt lat="44.937323808047914" lon="1.615909335404743"><ele>235.0</ele><time>2026-05-02T07:26:29.678Z</time></trkpt><trkpt lat="44.937197412536364" lon="1.6159461020651356"><ele>235.0</ele><time>2026-05-02T07:26:29.996Z</time></trkpt><trkpt lat="44.937116243829514" lon="1.6163185295530933"><ele>235.6</ele><time>2026-05-02T07:26:31.996Z</time></trkpt><trkpt lat="44.93708685291206" lon="1.616472646940262"><ele>236.2</ele><time>2026-05-02T07:26:32.998Z</time></trkpt><trkpt lat="44.937078610738254" lon="1.616639483917997"><ele>236.8</ele><time>2026-05-02T07:26:33.998Z</time></trkpt><trkpt lat="44.9370755788394" lon="1.6167650368790802"><ele>237.4</ele><time>2026-05-02T07:26:34.999Z</time></trkpt><trkpt lat="44.93707134395803" lon="1.6168739337408007"><ele>238.0</ele><time>2026-05-02T07:26:35.999Z</time></trkpt><trkpt lat="44.93706764316988" lon="1.6169690968610282"><ele>237.75</ele><time>2026-05-02T07:26:36.999Z</time></trkpt><trkpt lat="44.937073322986194" lon="1.617123596371726"><ele>237.5</ele><time>2026-05-02T07:26:38.999Z</time></trkpt><trkpt lat="44.93705047361758" lon="1.6172310106704042"><ele>237.25</ele><time>2026-05-02T07:26:40.999Z</time></trkpt><trkpt lat="44.936933493289246" lon="1.617181802309768"><ele>237.0</ele><time>2026-05-02T07:26:41.999Z</time></trkpt><trkpt lat="44.93676527766417" lon="1.6172339756256344"><ele>236.0</ele><time>2026-05-02T07:26:43.999Z</time></trkpt><trkpt lat="44.93661565603698" lon="1.6172613645757996"><ele>235.0</ele><time>2026-05-02T07:26:44.999Z</time></trkpt><trkpt lat="44.93649003269734" lon="1.6172784765828576"><ele>234.0</ele><time>2026-05-02T07:26:45.999Z</time></trkpt><trkpt lat="44.93637078209006" lon="1.6172910992932217"><ele>233.0</ele><time>2026-05-02T07:26:46.999Z</time></trkpt><trkpt lat="44.9362337965618" lon="1.6173055992621366"><ele>233.0</ele><time>2026-05-02T07:26:47.999Z</time></trkpt><trkpt lat="44.93608490391535" lon="1.6173413336112694"><ele>233.0</ele><time>2026-05-02T07:26:48.999Z</time></trkpt><trkpt lat="44.93592958883783" lon="1.617324052559501"><ele>233.0</ele><time>2026-05-02T07:26:49.999Z</time></trkpt><trkpt lat="44.93581172522869" lon="1.6173183177302193"><ele>233.0</ele><time>2026-05-02T07:26:50.999Z</time></trkpt><trkpt lat="44.9357017309642" lon="1.6173402643550499"><ele>232.16666666666669</ele><time>2026-05-02T07:26:51.999Z</time></trkpt><trkpt lat="44.93562533827912" lon="1.617335934356476"><ele>231.33333333333334</ele><time>2026-05-02T07:26:52.999Z</time></trkpt><trkpt lat="44.93552929006333" lon="1.6173127693055147"><ele>230.5</ele><time>2026-05-02T07:26:53.999Z</time></trkpt><trkpt lat="44.93545031347188" lon="1.6173039407555934"><ele>229.66666666666669</ele><time>2026-05-02T07:26:54.999Z</time></trkpt><trkpt lat="44.935383345283554" lon="1.6172428887267776"><ele>228.83333333333334</ele><time>2026-05-02T07:26:56.999Z</time></trkpt><trkpt lat="44.93539662551833" lon="1.6171070426343335"><ele>228.0</ele><time>2026-05-02T07:26:58.999Z</time></trkpt><trkpt lat="44.9354359477374" lon="1.6170201742518449"><ele>227.8</ele><time>2026-05-02T07:27:00.999Z</time></trkpt><trkpt lat="44.93546176898992" lon="1.6169020063516344"><ele>227.60000000000002</ele><time>2026-05-02T07:27:02.999Z</time></trkpt><trkpt lat="44.93551937848263" lon="1.6168318962475252"><ele>227.39999999999998</ele><time>2026-05-02T07:27:03.999Z</time></trkpt><trkpt lat="44.93561598162099" lon="1.616790820268272"><ele>227.2</ele><time>2026-05-02T07:27:04.999Z</time></trkpt><trkpt lat="44.935762722018644" lon="1.6167095509624274"><ele>227.0</ele><time>2026-05-02T07:27:05.999Z</time></trkpt><trkpt lat="44.93591394101013" lon="1.6165908726293812"><ele>227.75</ele><time>2026-05-02T07:27:06.999Z</time></trkpt><trkpt lat="44.93604491207546" lon="1.6164619521033257"><ele>228.5</ele><time>2026-05-02T07:27:07.999Z</time></trkpt><trkpt lat="44.93613677162669" lon="1.6163130932571859"><ele>229.25</ele><time>2026-05-02T07:27:08.999Z</time></trkpt><trkpt lat="44.93622201548754" lon="1.6161396098303338"><ele>230.0</ele><time>2026-05-02T07:27:09.999Z</time></trkpt><trkpt lat="44.93631043899924" lon="1.6159442632687906"><ele>230.0</ele><time>2026-05-02T07:27:10.999Z</time></trkpt><trkpt lat="44.93641647245478" lon="1.6157294055354061"><ele>230.0</ele><time>2026-05-02T07:27:11.999Z</time></trkpt><trkpt lat="44.936518688008476" lon="1.6155177366937117"><ele>230.0</ele><time>2026-05-02T07:27:12.999Z</time></trkpt><trkpt lat="44.93662117065619" lon="1.6153182365413308"><ele>230.33333333333334</ele><time>2026-05-02T07:27:13.999Z</time></trkpt><trkpt lat="44.936722983588304" lon="1.6151239283417358"><ele>230.66666666666669</ele><time>2026-05-02T07:27:14.999Z</time></trkpt><trkpt lat="44.93682043994585" lon="1.6149215383399904"><ele>231.0</ele><time>2026-05-02T07:27:15.999Z</time></trkpt><trkpt lat="44.93691772866583" lon="1.6147227628773912"><ele>231.0</ele><time>2026-05-02T07:27:16.999Z</time></trkpt><trkpt lat="44.937010342767394" lon="1.6145745249058792"><ele>231.0</ele><time>2026-05-02T07:27:17.999Z</time></trkpt><trkpt lat="44.937074390679314" lon="1.6144098273354153"><ele>231.0</ele><time>2026-05-02T07:27:18.999Z</time></trkpt><trkpt lat="44.93715057769927" lon="1.6142677938582097"><ele>231.0</ele><time>2026-05-02T07:27:19.999Z</time></trkpt><trkpt lat="44.93722094156493" lon="1.6141351090499636"><ele>230.60000000000002</ele><time>2026-05-02T07:27:20.999Z</time></trkpt><trkpt lat="44.93728109536967" lon="1.6140115814708031"><ele>230.20000000000002</ele><time>2026-05-02T07:27:21.999Z</time></trkpt><trkpt lat="44.937330880068906" lon="1.6139080400491987"><ele>229.79999999999998</ele><time>2026-05-02T07:27:22.999Z</time></trkpt><trkpt lat="44.937369725799236" lon="1.613829085929783"><ele>229.39999999999998</ele><time>2026-05-02T07:27:23.999Z</time></trkpt><trkpt lat="44.93746471439353" lon="1.6137641870889352"><ele>229.0</ele><time>2026-05-02T07:27:25.999Z</time></trkpt><trkpt lat="44.93756036942989" lon="1.613877203809831"><ele>229.0</ele><time>2026-05-02T07:27:27.999Z</time></trkpt><trkpt lat="44.93760186112204" lon="1.6139508603103128"><ele>228.99999999999997</ele><time>2026-05-02T07:27:28.999Z</time></trkpt><trkpt lat="44.93764988876253" lon="1.6140781163548594"><ele>228.99999999999997</ele><time>2026-05-02T07:27:29.999Z</time></trkpt><trkpt lat="44.93769831425059" lon="1.614242825083321"><ele>229.0</ele><time>2026-05-02T07:27:30.999Z</time></trkpt><trkpt lat="44.93774577366116" lon="1.614406620104915"><ele>229.0</ele><time>2026-05-02T07:27:31.999Z</time></trkpt><trkpt lat="44.93779907126062" lon="1.6145725215359001"><ele>229.75</ele><time>2026-05-02T07:27:32.999Z</time></trkpt><trkpt lat="44.937852023290915" lon="1.61474260999443"><ele>230.5</ele><time>2026-05-02T07:27:33.999Z</time></trkpt><trkpt lat="44.93790098434428" lon="1.6149294109896852"><ele>231.25</ele><time>2026-05-02T07:27:34.999Z</time></trkpt><trkpt lat="44.937960366075146" lon="1.6151416038849433"><ele>232.0</ele><time>2026-05-02T07:27:35.999Z</time></trkpt><trkpt lat="44.93800754349778" lon="1.6153406345133128"><ele>233.0</ele><time>2026-05-02T07:27:36.999Z</time></trkpt><trkpt lat="44.93804570559627" lon="1.6155456810447277"><ele>234.0</ele><time>2026-05-02T07:27:37.999Z</time></trkpt><trkpt lat="44.93807969222683" lon="1.6157441110170199"><ele>235.0</ele><time>2026-05-02T07:27:38.999Z</time></trkpt><trkpt lat="44.93811800860203" lon="1.6159216731162807"><ele>236.0</ele><time>2026-05-02T07:27:39.999Z</time></trkpt><trkpt lat="44.938161175609466" lon="1.6161071512746104"><ele>237.0</ele><time>2026-05-02T07:27:40.999Z</time></trkpt><trkpt lat="44.93819729805653" lon="1.6162927754290901"><ele>238.0</ele><time>2026-05-02T07:27:41.999Z</time></trkpt><trkpt lat="44.938233255054705" lon="1.6164970094261228"><ele>239.0</ele><time>2026-05-02T07:27:42.999Z</time></trkpt><trkpt lat="44.9382837956209" lon="1.6167256083406067"><ele>239.0</ele><time>2026-05-02T07:27:43.999Z</time></trkpt><trkpt lat="44.93832916286833" lon="1.616940438550161"><ele>239.0</ele><time>2026-05-02T07:27:44.999Z</time></trkpt><trkpt lat="44.938374302545824" lon="1.6171285033143512"><ele>239.0</ele><time>2026-05-02T07:27:45.999Z</time></trkpt><trkpt lat="44.938435266245236" lon="1.6173075258586112"><ele>239.0</ele><time>2026-05-02T07:27:46.999Z</time></trkpt><trkpt lat="44.93852047752431" lon="1.6174597229534742"><ele>240.33333333333334</ele><time>2026-05-02T07:27:47.999Z</time></trkpt><trkpt lat="44.938632523192545" lon="1.6175970701915434"><ele>241.66666666666669</ele><time>2026-05-02T07:27:48.999Z</time></trkpt><trkpt lat="44.93877347220323" lon="1.6177325123080357"><ele>243.0</ele><time>2026-05-02T07:27:49.999Z</time></trkpt><trkpt lat="44.938922443649176" lon="1.617854423485546"><ele>243.0</ele><time>2026-05-02T07:27:50.999Z</time></trkpt><trkpt lat="44.93907271186384" lon="1.6179683101481568"><ele>243.0</ele><time>2026-05-02T07:27:51.999Z</time></trkpt><trkpt lat="44.93923180180414" lon="1.6181021768366433"><ele>243.0</ele><time>2026-05-02T07:27:52.999Z</time></trkpt><trkpt lat="44.93940730621932" lon="1.6182467647898997"><ele>244.0</ele><time>2026-05-02T07:27:53.999Z</time></trkpt><trkpt lat="44.93958793057564" lon="1.6183953339371764"><ele>245.0</ele><time>2026-05-02T07:27:54.999Z</time></trkpt><trkpt lat="44.93976431528797" lon="1.6185513609056026"><ele>246.0</ele><time>2026-05-02T07:27:55.999Z</time></trkpt><trkpt lat="44.93994609355913" lon="1.6187166380754734"><ele>243.33333333333331</ele><time>2026-05-02T07:27:56.999Z</time></trkpt><trkpt lat="44.94012693957099" lon="1.6188838306320104"><ele>240.66666666666666</ele><time>2026-05-02T07:27:57.999Z</time></trkpt><trkpt lat="44.940294246431264" lon="1.619059537983308"><ele>238.0</ele><time>2026-05-02T07:27:58.999Z</time></trkpt><trkpt lat="44.94045219905459" lon="1.6192484285111457"><ele>238.0</ele><time>2026-05-02T07:27:59.999Z</time></trkpt><trkpt lat="44.940600928947084" lon="1.6194643357283385"><ele>238.0</ele><time>2026-05-02T07:28:00.999Z</time></trkpt><trkpt lat="44.940735891553174" lon="1.6196955130013655"><ele>238.0</ele><time>2026-05-02T07:28:01.999Z</time></trkpt><trkpt lat="44.940871286176105" lon="1.6199452034039195"><ele>239.0</ele><time>2026-05-02T07:28:02.999Z</time></trkpt><trkpt lat="44.94100445083264" lon="1.6202134361852993"><ele>240.0</ele><time>2026-05-02T07:28:03.999Z</time></trkpt><trkpt lat="44.94112499903655" lon="1.620495063658534"><ele>241.0</ele><time>2026-05-02T07:28:04.999Z</time></trkpt><trkpt lat="44.94122853722312" lon="1.6207916639131426"><ele>242.0</ele><time>2026-05-02T07:28:05.999Z</time></trkpt><trkpt lat="44.94133578957722" lon="1.6210994470538802"><ele>243.33333333333334</ele><time>2026-05-02T07:28:06.999Z</time></trkpt><trkpt lat="44.94143985644313" lon="1.6213842675398369"><ele>244.66666666666669</ele><time>2026-05-02T07:28:07.999Z</time></trkpt><trkpt lat="44.94153249650594" lon="1.621631267110855"><ele>246.0</ele><time>2026-05-02T07:28:08.999Z</time></trkpt><trkpt lat="44.94162350090085" lon="1.6218729915270855"><ele>245.66666666666669</ele><time>2026-05-02T07:28:09.999Z</time></trkpt><trkpt lat="44.941717142715135" lon="1.6221263809502442"><ele>245.33333333333334</ele><time>2026-05-02T07:28:10.999Z</time></trkpt><trkpt lat="44.94181776343464" lon="1.6223860927274183"><ele>245.0</ele><time>2026-05-02T07:28:11.999Z</time></trkpt><trkpt lat="44.94191437489214" lon="1.6226510663693574"><ele>246.66666666666669</ele><time>2026-05-02T07:28:12.999Z</time></trkpt><trkpt lat="44.94201604793883" lon="1.622910276274563"><ele>248.33333333333331</ele><time>2026-05-02T07:28:13.999Z</time></trkpt><trkpt lat="44.94212178010136" lon="1.6231743793365823"><ele>250.0</ele><time>2026-05-02T07:28:14.999Z</time></trkpt><trkpt lat="44.94223216502907" lon="1.6233986700508993"><ele>250.0</ele><time>2026-05-02T07:28:15.999Z</time></trkpt><trkpt lat="44.942351542594366" lon="1.6235909995008684"><ele>250.0</ele><time>2026-05-02T07:28:16.999Z</time></trkpt><trkpt lat="44.942480368729974" lon="1.6237700464776006"><ele>250.0</ele><time>2026-05-02T07:28:17.999Z</time></trkpt><trkpt lat="44.942607396489876" lon="1.623915836275443"><ele>252.66666666666666</ele><time>2026-05-02T07:28:18.999Z</time></trkpt><trkpt lat="44.94273263730915" lon="1.6240682158148403"><ele>255.33333333333331</ele><time>2026-05-02T07:28:19.999Z</time></trkpt><trkpt lat="44.942832640627955" lon="1.6242154395401402"><ele>258.0</ele><time>2026-05-02T07:28:20.999Z</time></trkpt><trkpt lat="44.94293693198129" lon="1.6243470659634025"><ele>257.5</ele><time>2026-05-02T07:28:21.999Z</time></trkpt><trkpt lat="44.9430200483353" lon="1.6245107969246426"><ele>257.0</ele><time>2026-05-02T07:28:22.999Z</time></trkpt><trkpt lat="44.94306647293843" lon="1.6247089346735009"><ele>256.5</ele><time>2026-05-02T07:28:23.999Z</time></trkpt><trkpt lat="44.9430695292288" lon="1.6249248731590853"><ele>256.0</ele><time>2026-05-02T07:28:24.999Z</time></trkpt><trkpt lat="44.943044688892606" lon="1.62514809026691"><ele>254.33333333333331</ele><time>2026-05-02T07:28:25.999Z</time></trkpt><trkpt lat="44.94303272372485" lon="1.6253746578180217"><ele>252.66666666666669</ele><time>2026-05-02T07:28:26.999Z</time></trkpt><trkpt lat="44.94304205047724" lon="1.6256173389131565"><ele>251.0</ele><time>2026-05-02T07:28:27.999Z</time></trkpt><trkpt lat="44.943063171152716" lon="1.625878227984061"><ele>251.0</ele><time>2026-05-02T07:28:28.999Z</time></trkpt><trkpt lat="44.94308642226716" lon="1.6261212390884738"><ele>251.0</ele><time>2026-05-02T07:28:29.999Z</time></trkpt><trkpt lat="44.94311228676758" lon="1.6263467973535557"><ele>251.0</ele><time>2026-05-02T07:28:30.999Z</time></trkpt><trkpt lat="44.94314292216219" lon="1.6265572959141157"><ele>248.33333333333334</ele><time>2026-05-02T07:28:31.999Z</time></trkpt><trkpt lat="44.943180285588404" lon="1.6267666024474021"><ele>245.66666666666669</ele><time>2026-05-02T07:28:32.999Z</time></trkpt><trkpt lat="44.94318748559477" lon="1.6269821840391938"><ele>243.0</ele><time>2026-05-02T07:28:33.999Z</time></trkpt><trkpt lat="44.94319125357786" lon="1.6271892108986827"><ele>242.0</ele><time>2026-05-02T07:28:34.999Z</time></trkpt><trkpt lat="44.943162658536394" lon="1.6273995291689887"><ele>241.0</ele><time>2026-05-02T07:28:35.999Z</time></trkpt><trkpt lat="44.943098201825414" lon="1.627581254820801"><ele>240.0</ele><time>2026-05-02T07:28:36.999Z</time></trkpt><trkpt lat="44.94304702967953" lon="1.6277633964959903"><ele>239.0</ele><time>2026-05-02T07:28:37.999Z</time></trkpt><trkpt lat="44.94299546149358" lon="1.6279310505991074"><ele>239.0</ele><time>2026-05-02T07:28:38.999Z</time></trkpt><trkpt lat="44.94298866353502" lon="1.628122427127668"><ele>239.0</ele><time>2026-05-02T07:28:39.999Z</time></trkpt><trkpt lat="44.94303306263506" lon="1.628339974400181"><ele>239.0</ele><time>2026-05-02T07:28:40.999Z</time></trkpt><trkpt lat="44.94311664696665" lon="1.6285512544051741"><ele>238.33333333333334</ele><time>2026-05-02T07:28:41.999Z</time></trkpt><trkpt lat="44.943184820399196" lon="1.6287458953217475"><ele>237.66666666666669</ele><time>2026-05-02T07:28:42.999Z</time></trkpt><trkpt lat="44.943256008963694" lon="1.628936081737607"><ele>237.0</ele><time>2026-05-02T07:28:43.999Z</time></trkpt><trkpt lat="44.94331692738982" lon="1.6291597643338547"><ele>234.66666666666669</ele><time>2026-05-02T07:28:44.999Z</time></trkpt><trkpt lat="44.943388597684816" lon="1.629391360125934"><ele>232.33333333333334</ele><time>2026-05-02T07:28:46Z</time></trkpt><trkpt lat="44.94346375071321" lon="1.629633076238799"><ele>230.0</ele><time>2026-05-02T07:28:47Z</time></trkpt><trkpt lat="44.94354189668393" lon="1.6298844185868908"><ele>230.0</ele><time>2026-05-02T07:28:48Z</time></trkpt><trkpt lat="44.94363030750118" lon="1.6301348295871103"><ele>230.0</ele><time>2026-05-02T07:28:49Z</time></trkpt><trkpt lat="44.94370071556929" lon="1.6303969997911356"><ele>230.0</ele><time>2026-05-02T07:28:50Z</time></trkpt><trkpt lat="44.94377644201494" lon="1.6306359947003737"><ele>230.0</ele><time>2026-05-02T07:28:51Z</time></trkpt><trkpt lat="44.94385385301387" lon="1.6308585169085432"><ele>230.0</ele><time>2026-05-02T07:28:52Z</time></trkpt><trkpt lat="44.943921626952275" lon="1.631082580206418"><ele>230.0</ele><time>2026-05-02T07:28:53Z</time></trkpt><trkpt lat="44.94397442163816" lon="1.6313172404649234"><ele>230.0</ele><time>2026-05-02T07:28:54Z</time></trkpt><trkpt lat="44.94398154526308" lon="1.6315561388634499"><ele>230.0</ele><time>2026-05-02T07:28:55Z</time></trkpt><trkpt lat="44.94396723303456" lon="1.6318056443104696"><ele>230.0</ele><time>2026-05-02T07:28:56Z</time></trkpt><trkpt lat="44.94392405338993" lon="1.6320635855494277"><ele>228.0</ele><time>2026-05-02T07:28:57Z</time></trkpt><trkpt lat="44.94385860128137" lon="1.6323008306228612"><ele>226.0</ele><time>2026-05-02T07:28:58Z</time></trkpt><trkpt lat="44.94378414201903" lon="1.6325418911950016"><ele>224.0</ele><time>2026-05-02T07:28:59Z</time></trkpt><trkpt lat="44.94371944284969" lon="1.6327997616159209"><ele>221.66666666666669</ele><time>2026-05-02T07:29:00Z</time></trkpt><trkpt lat="44.94363590898944" lon="1.6330470699344728"><ele>219.33333333333331</ele><time>2026-05-02T07:29:01Z</time></trkpt><trkpt lat="44.943561891209995" lon="1.633296058787665"><ele>217.0</ele><time>2026-05-02T07:29:02Z</time></trkpt><trkpt lat="44.943482902454775" lon="1.6335541361953074"><ele>216.0</ele><time>2026-05-02T07:29:03Z</time></trkpt><trkpt lat="44.943402079935325" lon="1.6338254956640146"><ele>215.0</ele><time>2026-05-02T07:29:04Z</time></trkpt><trkpt lat="44.94332245515234" lon="1.6340907353697047"><ele>214.0</ele><time>2026-05-02T07:29:05Z</time></trkpt><trkpt lat="44.94325806749031" lon="1.6343388795094755"><ele>211.66666666666666</ele><time>2026-05-02T07:29:06Z</time></trkpt><trkpt lat="44.94320314254434" lon="1.6345784870036624"><ele>209.33333333333331</ele><time>2026-05-02T07:29:07Z</time></trkpt><trkpt lat="44.943169798068986" lon="1.6348397826234788"><ele>207.0</ele><time>2026-05-02T07:29:08Z</time></trkpt><trkpt lat="44.94317547373394" lon="1.6351047473149307"><ele>207.66666666666669</ele><time>2026-05-02T07:29:09Z</time></trkpt><trkpt lat="44.94322294455736" lon="1.6353694489657589"><ele>208.33333333333334</ele><time>2026-05-02T07:29:10Z</time></trkpt><trkpt lat="44.94328821925009" lon="1.6356198351220126"><ele>209.0</ele><time>2026-05-02T07:29:11Z</time></trkpt><trkpt lat="44.94336226453753" lon="1.6358487876673038"><ele>208.0</ele><time>2026-05-02T07:29:12Z</time></trkpt><trkpt lat="44.94344102530744" lon="1.6360857928970929"><ele>207.0</ele><time>2026-05-02T07:29:13Z</time></trkpt><trkpt lat="44.94351840216087" lon="1.6363339153242484"><ele>206.0</ele><time>2026-05-02T07:29:13.999Z</time></trkpt><trkpt lat="44.943589102897576" lon="1.6365777087611975"><ele>206.0</ele><time>2026-05-02T07:29:14.999Z</time></trkpt><trkpt lat="44.94366271642163" lon="1.6368371233004615"><ele>206.0</ele><time>2026-05-02T07:29:15.999Z</time></trkpt><trkpt lat="44.943743199523084" lon="1.6371020459798526"><ele>206.0</ele><time>2026-05-02T07:29:16.999Z</time></trkpt><trkpt lat="44.94382877509481" lon="1.6373748406599176"><ele>206.0</ele><time>2026-05-02T07:29:17.999Z</time></trkpt><trkpt lat="44.943921897170426" lon="1.6376993450970991"><ele>206.0</ele><time>2026-05-02T07:29:18.999Z</time></trkpt><trkpt lat="44.94402137797923" lon="1.6380508651049273"><ele>206.5</ele><time>2026-05-02T07:29:19.999Z</time></trkpt><trkpt lat="44.94413387025902" lon="1.6384246163038538"><ele>207.0</ele><time>2026-05-02T07:29:20.999Z</time></trkpt><trkpt lat="44.944250190384686" lon="1.6388110852094464"><ele>208.0</ele><time>2026-05-02T07:29:21.999Z</time></trkpt><trkpt lat="44.94437086396258" lon="1.6392131847959988"><ele>209.0</ele><time>2026-05-02T07:29:22.999Z</time></trkpt><trkpt lat="44.944494238005205" lon="1.6396247713762357"><ele>209.0</ele><time>2026-05-02T07:29:23.999Z</time></trkpt><trkpt lat="44.94462453715763" lon="1.6400008487110538"><ele>209.0</ele><time>2026-05-02T07:29:24.999Z</time></trkpt><trkpt lat="44.944722224873345" lon="1.6403816656798555"><ele>210.5</ele><time>2026-05-02T07:29:25.999Z</time></trkpt><trkpt lat="44.94484037298161" lon="1.640757540047879"><ele>212.0</ele><time>2026-05-02T07:29:26.999Z</time></trkpt><trkpt lat="44.94494839205766" lon="1.6411014904313725"><ele>211.0</ele><time>2026-05-02T07:29:27.999Z</time></trkpt><trkpt lat="44.945051841551916" lon="1.6414457280872505"><ele>210.0</ele><time>2026-05-02T07:29:28.999Z</time></trkpt><trkpt lat="44.94514133931027" lon="1.641775932499672"><ele>210.5</ele><time>2026-05-02T07:29:29.999Z</time></trkpt><trkpt lat="44.94523870253115" lon="1.642091286723266"><ele>211.0</ele><time>2026-05-02T07:29:30.999Z</time></trkpt><trkpt lat="44.945333391963956" lon="1.6424068944587098"><ele>211.0</ele><time>2026-05-02T07:29:31.999Z</time></trkpt><trkpt lat="44.94543141823415" lon="1.6427254143490881"><ele>211.0</ele><time>2026-05-02T07:29:32.999Z</time></trkpt><trkpt lat="44.94552096968167" lon="1.6430289930561799"><ele>211.5</ele><time>2026-05-02T07:29:33.999Z</time></trkpt><trkpt lat="44.94560109598383" lon="1.6433211527763294"><ele>212.0</ele><time>2026-05-02T07:29:34.999Z</time></trkpt><trkpt lat="44.945645656397204" lon="1.6436393979204886"><ele>211.0</ele><time>2026-05-02T07:29:35.999Z</time></trkpt><trkpt lat="44.945655250028395" lon="1.643958809700264"><ele>210.0</ele><time>2026-05-02T07:29:36.999Z</time></trkpt><trkpt lat="44.94565081875187" lon="1.6442980194249939"><ele>209.0</ele><time>2026-05-02T07:29:37.999Z</time></trkpt><trkpt lat="44.94558936051999" lon="1.6446431488194329"><ele>208.0</ele><time>2026-05-02T07:29:38.999Z</time></trkpt><trkpt lat="44.94560197194066" lon="1.645006257544213"><ele>208.5</ele><time>2026-05-02T07:29:39.999Z</time></trkpt><trkpt lat="44.945415463577675" lon="1.6453908381751436"><ele>209.0</ele><time>2026-05-02T07:29:40.999Z</time></trkpt><trkpt lat="44.94534902163833" lon="1.6457730901825787"><ele>209.5</ele><time>2026-05-02T07:29:41.999Z</time></trkpt><trkpt lat="44.94527965595428" lon="1.6461522584498152"><ele>210.0</ele><time>2026-05-02T07:29:42.999Z</time></trkpt><trkpt lat="44.945207762090014" lon="1.646489436333257"><ele>210.0</ele><time>2026-05-02T07:29:43.999Z</time></trkpt><trkpt lat="44.94514005858724" lon="1.646826118187985"><ele>210.0</ele><time>2026-05-02T07:29:44.999Z</time></trkpt><trkpt lat="44.94507603267858" lon="1.647183367885641"><ele>212.0</ele><time>2026-05-02T07:29:45.999Z</time></trkpt><trkpt lat="44.94500738426691" lon="1.6475424146546638"><ele>214.0</ele><time>2026-05-02T07:29:46.999Z</time></trkpt><trkpt lat="44.94493689253218" lon="1.6478936800806778"><ele>215.5</ele><time>2026-05-02T07:29:47.999Z</time></trkpt><trkpt lat="44.94486786257239" lon="1.6482487830240458"><ele>217.0</ele><time>2026-05-02T07:29:48.999Z</time></trkpt><trkpt lat="44.94479929568844" lon="1.6486122860776027"><ele>218.0</ele><time>2026-05-02T07:29:49.999Z</time></trkpt><trkpt lat="44.94473168105562" lon="1.6489836013883659"><ele>219.0</ele><time>2026-05-02T07:29:50.999Z</time></trkpt><trkpt lat="44.94466139421755" lon="1.649362040181523"><ele>218.5</ele><time>2026-05-02T07:29:51.999Z</time></trkpt><trkpt lat="44.94458878398234" lon="1.6497256872241837"><ele>218.0</ele><time>2026-05-02T07:29:52.999Z</time></trkpt><trkpt lat="44.94451551423638" lon="1.6500914917396652"><ele>219.0</ele><time>2026-05-02T07:29:53.999Z</time></trkpt><trkpt lat="44.94444435441642" lon="1.6504583805425908"><ele>220.0</ele><time>2026-05-02T07:29:54.999Z</time></trkpt><trkpt lat="44.94437206542907" lon="1.650836027780795"><ele>220.0</ele><time>2026-05-02T07:29:55.999Z</time></trkpt><trkpt lat="44.944303671488825" lon="1.651188246069903"><ele>220.0</ele><time>2026-05-02T07:29:56.999Z</time></trkpt><trkpt lat="44.94422883481499" lon="1.6515175881436508"><ele>223.33333333333331</ele><time>2026-05-02T07:29:57.999Z</time></trkpt><trkpt lat="44.94417216263599" lon="1.6518189956620366"><ele>226.66666666666669</ele><time>2026-05-02T07:29:58.999Z</time></trkpt><trkpt lat="44.9441277678301" lon="1.652085937908669"><ele>230.0</ele><time>2026-05-02T07:29:59.999Z</time></trkpt><trkpt lat="44.94408755592189" lon="1.6523336436906473"><ele>230.66666666666669</ele><time>2026-05-02T07:30:00.999Z</time></trkpt><trkpt lat="44.94406674910132" lon="1.6525756519234387"><ele>231.33333333333331</ele><time>2026-05-02T07:30:01.999Z</time></trkpt><trkpt lat="44.94408736118291" lon="1.6528454267681478"><ele>232.0</ele><time>2026-05-02T07:30:02.999Z</time></trkpt><trkpt lat="44.94415376070553" lon="1.6531265005311706"><ele>231.66666666666666</ele><time>2026-05-02T07:30:03.999Z</time></trkpt><trkpt lat="44.94423458913087" lon="1.6533925604892543"><ele>231.33333333333331</ele><time>2026-05-02T07:30:04.999Z</time></trkpt><trkpt lat="44.944361023047854" lon="1.6536313565191727"><ele>231.0</ele><time>2026-05-02T07:30:05.999Z</time></trkpt><trkpt lat="44.9445080631225" lon="1.653865290442328"><ele>234.0</ele><time>2026-05-02T07:30:06.999Z</time></trkpt><trkpt lat="44.94467408242862" lon="1.6540934279862378"><ele>237.0</ele><time>2026-05-02T07:30:07.999Z</time></trkpt><trkpt lat="44.94485260596151" lon="1.6542843809633467"><ele>237.0</ele><time>2026-05-02T07:30:08.999Z</time></trkpt><trkpt lat="44.945042059725786" lon="1.6544366449586139"><ele>237.0</ele><time>2026-05-02T07:30:09.999Z</time></trkpt><trkpt lat="44.94525345802423" lon="1.6545909321448615"><ele>241.5</ele><time>2026-05-02T07:30:10.999Z</time></trkpt><trkpt lat="44.94549761190671" lon="1.6547271717402428"><ele>246.0</ele><time>2026-05-02T07:30:11.999Z</time></trkpt><trkpt lat="44.9457620024501" lon="1.654826311088781"><ele>246.0</ele><time>2026-05-02T07:30:12.999Z</time></trkpt><trkpt lat="44.94601771774427" lon="1.6548940024315268"><ele>246.0</ele><time>2026-05-02T07:30:13.999Z</time></trkpt><trkpt lat="44.94624900202078" lon="1.654968196839771"><ele>246.0</ele><time>2026-05-02T07:30:14.999Z</time></trkpt><trkpt lat="44.94645586039611" lon="1.655043601632042"><ele>246.0</ele><time>2026-05-02T07:30:15.999Z</time></trkpt><trkpt lat="44.94664979458249" lon="1.6551164656154984"><ele>246.0</ele><time>2026-05-02T07:30:16.999Z</time></trkpt><trkpt lat="44.946845257163844" lon="1.6551854093632115"><ele>247.33333333333331</ele><time>2026-05-02T07:30:17.999Z</time></trkpt><trkpt lat="44.94703835356858" lon="1.6552528209276403"><ele>248.66666666666666</ele><time>2026-05-02T07:30:18.999Z</time></trkpt><trkpt lat="44.9472266457085" lon="1.655315329460321"><ele>250.0</ele><time>2026-05-02T07:30:19.999Z</time></trkpt><trkpt lat="44.94741482165729" lon="1.6553802783210267"><ele>252.0</ele><time>2026-05-02T07:30:20.999Z</time></trkpt><trkpt lat="44.94759663070824" lon="1.6554459304489217"><ele>254.0</ele><time>2026-05-02T07:30:21.999Z</time></trkpt><trkpt lat="44.947778754941915" lon="1.6555078823944827"><ele>256.0</ele><time>2026-05-02T07:30:22.999Z</time></trkpt><trkpt lat="44.94794505772079" lon="1.6555683120680336"><ele>256.0</ele><time>2026-05-02T07:30:23.999Z</time></trkpt><trkpt lat="44.94808335841401" lon="1.6556176761552461"><ele>256.0</ele><time>2026-05-02T07:30:24.999Z</time></trkpt><trkpt lat="44.94822223457081" lon="1.655682735683278"><ele>256.0</ele><time>2026-05-02T07:30:25.999Z</time></trkpt><trkpt lat="44.94834738598048" lon="1.6557219172910043"><ele>256.0</ele><time>2026-05-02T07:30:26.999Z</time></trkpt><trkpt lat="44.94847676569874" lon="1.655767034718271"><ele>256.0</ele><time>2026-05-02T07:30:27.999Z</time></trkpt><trkpt lat="44.94861199149853" lon="1.6558058131972333"><ele>256.0</ele><time>2026-05-02T07:30:28.999Z</time></trkpt><trkpt lat="44.948751446360646" lon="1.6558239161735337"><ele>256.0</ele><time>2026-05-02T07:30:29.999Z</time></trkpt><trkpt lat="44.94888205448874" lon="1.655826678435432"><ele>256.0</ele><time>2026-05-02T07:30:30.999Z</time></trkpt><trkpt lat="44.949027695561306" lon="1.6558134594502285"><ele>256.0</ele><time>2026-05-02T07:30:31.999Z</time></trkpt><trkpt lat="44.949162811817175" lon="1.6558103250042262"><ele>256.0</ele><time>2026-05-02T07:30:32.999Z</time></trkpt><trkpt lat="44.94931498167373" lon="1.6558222596303127"><ele>256.0</ele><time>2026-05-02T07:30:33.999Z</time></trkpt><trkpt lat="44.94945216692576" lon="1.6558554791550548"><ele>256.0</ele><time>2026-05-02T07:30:34.999Z</time></trkpt><trkpt lat="44.9495790496112" lon="1.655919289863897"><ele>257.0</ele><time>2026-05-02T07:30:35.999Z</time></trkpt><trkpt lat="44.949696761327736" lon="1.6560196099153643"><ele>258.0</ele><time>2026-05-02T07:30:36.999Z</time></trkpt><trkpt lat="44.94978283812104" lon="1.656156014897931"><ele>259.0</ele><time>2026-05-02T07:30:37.999Z</time></trkpt><trkpt lat="44.9498607239926" lon="1.6563062729495863"><ele>260.0</ele><time>2026-05-02T07:30:38.999Z</time></trkpt><trkpt lat="44.949937440303536" lon="1.6564757971837762"><ele>259.0</ele><time>2026-05-02T07:30:39.999Z</time></trkpt><trkpt lat="44.95002308276664" lon="1.6566437470460618"><ele>258.0</ele><time>2026-05-02T07:30:40.999Z</time></trkpt><trkpt lat="44.95012092180023" lon="1.6567950795297257"><ele>257.0</ele><time>2026-05-02T07:30:41.999Z</time></trkpt><trkpt lat="44.950237071422336" lon="1.656944883228026"><ele>256.0</ele><time>2026-05-02T07:30:42.999Z</time></trkpt><trkpt lat="44.95035661721991" lon="1.6570772983552835"><ele>252.0</ele><time>2026-05-02T07:30:43.999Z</time></trkpt><trkpt lat="44.95048351758953" lon="1.6572109859564408"><ele>248.0</ele><time>2026-05-02T07:30:45Z</time></trkpt><trkpt lat="44.95061697153755" lon="1.6573598583616818"><ele>244.0</ele><time>2026-05-02T07:30:46Z</time></trkpt><trkpt lat="44.95075495129478" lon="1.6575005457295944"><ele>244.0</ele><time>2026-05-02T07:30:47Z</time></trkpt><trkpt lat="44.95086635588916" lon="1.6576649242257255"><ele>244.0</ele><time>2026-05-02T07:30:48Z</time></trkpt><trkpt lat="44.950954736583306" lon="1.6578467352571373"><ele>244.0</ele><time>2026-05-02T07:30:49Z</time></trkpt><trkpt lat="44.9510160331708" lon="1.6580226442711137"><ele>243.75</ele><time>2026-05-02T07:30:50Z</time></trkpt><trkpt lat="44.951064425680755" lon="1.6581844200780456"><ele>243.5</ele><time>2026-05-02T07:30:51Z</time></trkpt><trkpt lat="44.95108828304959" lon="1.6583607500585502"><ele>243.25</ele><time>2026-05-02T07:30:52Z</time></trkpt><trkpt lat="44.95108636813132" lon="1.6585197247099792"><ele>243.0</ele><time>2026-05-02T07:30:53Z</time></trkpt><trkpt lat="44.95106123999271" lon="1.6586621937994228"><ele>242.8</ele><time>2026-05-02T07:30:54Z</time></trkpt><trkpt lat="44.95098578643313" lon="1.658802023263744"><ele>242.60000000000002</ele><time>2026-05-02T07:30:55Z</time></trkpt><trkpt lat="44.95088059539835" lon="1.658886408196716"><ele>242.39999999999998</ele><time>2026-05-02T07:30:56Z</time></trkpt><trkpt lat="44.950803372835104" lon="1.6589261880851964"><ele>242.2</ele><time>2026-05-02T07:30:57Z</time></trkpt><trkpt lat="44.95072951967937" lon="1.658957705558103"><ele>242.0</ele><time>2026-05-02T07:30:58Z</time></trkpt><trkpt lat="44.95065443226693" lon="1.6589870439367314"><ele>240.57142857142856</ele><time>2026-05-02T07:30:59Z</time></trkpt><trkpt lat="44.95058855769568" lon="1.6590344664122423"><ele>239.1428571428571</ele><time>2026-05-02T07:31:00Z</time></trkpt><trkpt lat="44.950526765766334" lon="1.6590720149883063"><ele>237.71428571428572</ele><time>2026-05-02T07:31:01Z</time></trkpt><trkpt lat="44.95046467281975" lon="1.6591151951073724"><ele>236.28571428571428</ele><time>2026-05-02T07:31:02Z</time></trkpt><trkpt lat="44.95040222585514" lon="1.6591594868393986"><ele>234.85714285714286</ele><time>2026-05-02T07:31:03Z</time></trkpt><trkpt lat="44.95033989059946" lon="1.6592039824564777"><ele>233.42857142857144</ele><time>2026-05-02T07:31:04Z</time></trkpt><trkpt lat="44.950289957942054" lon="1.659261363220885"><ele>232.00000000000003</ele><time>2026-05-02T07:31:05Z</time></trkpt><trkpt lat="44.950228857058505" lon="1.6593420905991705"><ele>232.0</ele><time>2026-05-02T07:31:06Z</time></trkpt><trkpt lat="44.95015727847699" lon="1.6594331514437102"><ele>232.0</ele><time>2026-05-02T07:31:07Z</time></trkpt><trkpt lat="44.95008660509412" lon="1.6594734921166534"><ele>232.0</ele><time>2026-05-02T07:31:08Z</time></trkpt><trkpt lat="44.95001274035433" lon="1.659456214556753"><ele>232.0</ele><time>2026-05-02T07:31:09Z</time></trkpt><trkpt lat="44.949979210111366" lon="1.6593199217544934"><ele>232.0</ele><time>2026-05-02T07:31:10Z</time></trkpt><trkpt lat="44.95001763295342" lon="1.6591643729009302"><ele>232.0</ele><time>2026-05-02T07:31:11Z</time></trkpt><trkpt lat="44.950116291174254" lon="1.659029713157299"><ele>232.0</ele><time>2026-05-02T07:31:12Z</time></trkpt><trkpt lat="44.950193039386264" lon="1.6589104210995098"><ele>232.0</ele><time>2026-05-02T07:31:13Z</time></trkpt><trkpt lat="44.95021675258576" lon="1.6588128270930544"><ele>232.0</ele><time>2026-05-02T07:31:14Z</time></trkpt><trkpt lat="44.95021176393668" lon="1.658685293164215"><ele>232.0</ele><time>2026-05-02T07:31:15Z</time></trkpt><trkpt lat="44.950182248905044" lon="1.6585513592329795"><ele>232.0</ele><time>2026-05-02T07:31:16Z</time></trkpt><trkpt lat="44.95006961316608" lon="1.6584419414420182"><ele>232.0</ele><time>2026-05-02T07:31:17Z</time></trkpt><trkpt lat="44.949946637060265" lon="1.6584036790081993"><ele>232.0</ele><time>2026-05-02T07:31:18Z</time></trkpt><trkpt lat="44.94981778170259" lon="1.6583881382245576"><ele>232.0</ele><time>2026-05-02T07:31:19Z</time></trkpt><trkpt lat="44.94972702873969" lon="1.658390629298382"><ele>229.5</ele><time>2026-05-02T07:31:20Z</time></trkpt><trkpt lat="44.9496485801916" lon="1.6584016085524609"><ele>227.0</ele><time>2026-05-02T07:31:21Z</time></trkpt><trkpt lat="44.94953402914107" lon="1.658426641728271"><ele>224.5</ele><time>2026-05-02T07:31:22Z</time></trkpt><trkpt lat="44.94940932808115" lon="1.6584937467711187"><ele>222.0</ele><time>2026-05-02T07:31:23Z</time></trkpt><trkpt lat="44.94927631356943" lon="1.658554591753715"><ele>219.75</ele><time>2026-05-02T07:31:24Z</time></trkpt><trkpt lat="44.949142927019366" lon="1.6586318343021609"><ele>217.5</ele><time>2026-05-02T07:31:25Z</time></trkpt><trkpt lat="44.94903245925164" lon="1.6587238511727396"><ele>215.25</ele><time>2026-05-02T07:31:26Z</time></trkpt><trkpt lat="44.94893852308102" lon="1.658843179818657"><ele>213.0</ele><time>2026-05-02T07:31:27Z</time></trkpt><trkpt lat="44.94887413098195" lon="1.658986143595871"><ele>213.0</ele><time>2026-05-02T07:31:28Z</time></trkpt><trkpt lat="44.94884298619679" lon="1.6591698157702661"><ele>213.0</ele><time>2026-05-02T07:31:29Z</time></trkpt><trkpt lat="44.948838791287926" lon="1.659386917400133"><ele>213.0</ele><time>2026-05-02T07:31:30Z</time></trkpt><trkpt lat="44.94884986231264" lon="1.6595923492043838"><ele>213.0</ele><time>2026-05-02T07:31:31Z</time></trkpt><trkpt lat="44.948859413028465" lon="1.6597817781184958"><ele>212.0</ele><time>2026-05-02T07:31:32Z</time></trkpt><trkpt lat="44.94888364063097" lon="1.6599661637260776"><ele>211.0</ele><time>2026-05-02T07:31:33Z</time></trkpt><trkpt lat="44.94887665347454" lon="1.660146201299909"><ele>210.0</ele><time>2026-05-02T07:31:34Z</time></trkpt><trkpt lat="44.94884430052089" lon="1.6603261271414438"><ele>209.0</ele><time>2026-05-02T07:31:35Z</time></trkpt><trkpt lat="44.948800522353224" lon="1.6605188330107026"><ele>205.5</ele><time>2026-05-02T07:31:36Z</time></trkpt><trkpt lat="44.94875018492118" lon="1.660693012323622"><ele>202.0</ele><time>2026-05-02T07:31:37Z</time></trkpt><trkpt lat="44.9487133919052" lon="1.6608657450819"><ele>198.5</ele><time>2026-05-02T07:31:38Z</time></trkpt><trkpt lat="44.94869938108239" lon="1.661042219487963"><ele>195.0</ele><time>2026-05-02T07:31:39Z</time></trkpt><trkpt lat="44.94869319048374" lon="1.6612224999569312"><ele>189.75</ele><time>2026-05-02T07:31:40Z</time></trkpt><trkpt lat="44.948663756570895" lon="1.6614089835701713"><ele>184.5</ele><time>2026-05-02T07:31:41Z</time></trkpt><trkpt lat="44.94861478848504" lon="1.6615904353480349"><ele>179.25</ele><time>2026-05-02T07:31:42Z</time></trkpt><trkpt lat="44.94853562126908" lon="1.6617516075546692"><ele>174.0</ele><time>2026-05-02T07:31:43Z</time></trkpt><trkpt lat="44.94848468312007" lon="1.6619194748529553"><ele>175.0</ele><time>2026-05-02T07:31:44Z</time></trkpt><trkpt lat="44.94839486740777" lon="1.6621143645397838"><ele>176.0</ele><time>2026-05-02T07:31:45Z</time></trkpt><trkpt lat="44.948414516043485" lon="1.6622060251051327"><ele>177.0</ele><time>2026-05-02T07:31:46Z</time></trkpt><trkpt lat="44.94833971701084" lon="1.6622854230254451"><ele>178.0</ele><time>2026-05-02T07:31:46.999Z</time></trkpt><trkpt lat="44.94825612946339" lon="1.6623472796507233"><ele>179.0</ele><time>2026-05-02T07:31:47.999Z</time></trkpt><trkpt lat="44.948160690776135" lon="1.6623792390408005"><ele>179.0</ele><time>2026-05-02T07:31:48.999Z</time></trkpt><trkpt lat="44.94806709023628" lon="1.6623744531950013"><ele>179.0</ele><time>2026-05-02T07:31:49.999Z</time></trkpt><trkpt lat="44.947956993660206" lon="1.6623755660088448"><ele>179.0</ele><time>2026-05-02T07:31:50.999Z</time></trkpt><trkpt lat="44.94784315059497" lon="1.662376974048028"><ele>179.0</ele><time>2026-05-02T07:31:51.999Z</time></trkpt><trkpt lat="44.947740094989854" lon="1.6623789543200527"><ele>179.0</ele><time>2026-05-02T07:31:52.999Z</time></trkpt><trkpt lat="44.94765096469689" lon="1.6623971223646388"><ele>179.0</ele><time>2026-05-02T07:31:53.999Z</time></trkpt><trkpt lat="44.94756252955493" lon="1.6624000792396294"><ele>179.0</ele><time>2026-05-02T07:31:54.999Z</time></trkpt><trkpt lat="44.94747884138725" lon="1.6624049426473402"><ele>179.0</ele><time>2026-05-02T07:31:55.999Z</time></trkpt><trkpt lat="44.94739400061111" lon="1.6624070170582528"><ele>179.0</ele><time>2026-05-02T07:31:56.999Z</time></trkpt><trkpt lat="44.94731828641747" lon="1.6623978368662888"><ele>179.0</ele><time>2026-05-02T07:31:57.999Z</time></trkpt><trkpt lat="44.94724440387258" lon="1.662390565105171"><ele>179.0</ele><time>2026-05-02T07:31:58.999Z</time></trkpt><trkpt lat="44.94717912328153" lon="1.6623831125608346"><ele>179.66666666666666</ele><time>2026-05-02T07:31:59.999Z</time></trkpt><trkpt lat="44.9471165634615" lon="1.6623662221951063"><ele>180.33333333333331</ele><time>2026-05-02T07:32:00.999Z</time></trkpt><trkpt lat="44.9470184049943" lon="1.6623641433865517"><ele>181.0</ele><time>2026-05-02T07:32:02.999Z</time></trkpt><trkpt lat="44.9469376720787" lon="1.6624623057947108"><ele>181.66666666666666</ele><time>2026-05-02T07:32:04.999Z</time></trkpt><trkpt lat="44.946941052711274" lon="1.6625540187146117"><ele>182.33333333333334</ele><time>2026-05-02T07:32:05.999Z</time></trkpt><trkpt lat="44.946984038550845" lon="1.6626227073429416"><ele>183.0</ele><time>2026-05-02T07:32:06.999Z</time></trkpt><trkpt lat="44.947100341306395" lon="1.6626605558573755"><ele>183.0</ele><time>2026-05-02T07:32:07.999Z</time></trkpt><trkpt lat="44.947213798950266" lon="1.6626487534924477"><ele>183.0</ele><time>2026-05-02T07:32:08.999Z</time></trkpt><trkpt lat="44.94730602786769" lon="1.6626394973321486"><ele>183.0</ele><time>2026-05-02T07:32:09.999Z</time></trkpt><trkpt lat="44.94738912129182" lon="1.6626312775808372"><ele>183.0</ele><time>2026-05-02T07:32:10.999Z</time></trkpt><trkpt lat="44.94746971579701" lon="1.6626257484629827"><ele>183.0</ele><time>2026-05-02T07:32:11.999Z</time></trkpt><trkpt lat="44.94757697720899" lon="1.6626123416836114"><ele>182.2</ele><time>2026-05-02T07:32:13.999Z</time></trkpt><trkpt lat="44.94764282779716" lon="1.6627113456516909"><ele>181.4</ele><time>2026-05-02T07:32:15.999Z</time></trkpt><trkpt lat="44.94763376846415" lon="1.662821655260738"><ele>180.6</ele><time>2026-05-02T07:32:16.999Z</time></trkpt><trkpt lat="44.94754302138994" lon="1.6628630294597144"><ele>179.79999999999998</ele><time>2026-05-02T07:32:17.999Z</time></trkpt><trkpt lat="44.94741187258701" lon="1.662824622113779"><ele>179.0</ele><time>2026-05-02T07:32:18.999Z</time></trkpt><trkpt lat="44.94725813359009" lon="1.662822141146035"><ele>170.66666666666666</ele><time>2026-05-02T07:32:19.999Z</time></trkpt><trkpt lat="44.94709712130758" lon="1.6628109256510912"><ele>162.33333333333334</ele><time>2026-05-02T07:32:20.999Z</time></trkpt><trkpt lat="44.946948676820845" lon="1.6628120721987472"><ele>154.0</ele><time>2026-05-02T07:32:21.999Z</time></trkpt><trkpt lat="44.94677948329126" lon="1.6628034697526752"><ele>153.66666666666669</ele><time>2026-05-02T07:32:22.999Z</time></trkpt><trkpt lat="44.94661477153654" lon="1.6627993695142096"><ele>153.33333333333334</ele><time>2026-05-02T07:32:23.999Z</time></trkpt><trkpt lat="44.946466803740044" lon="1.6628090024911706"><ele>153.0</ele><time>2026-05-02T07:32:24.999Z</time></trkpt><trkpt lat="44.94632277928454" lon="1.6628322653547698"><ele>153.0</ele><time>2026-05-02T07:32:25.999Z</time></trkpt><trkpt lat="44.94616243893862" lon="1.6628748780666531"><ele>153.0</ele><time>2026-05-02T07:32:26.999Z</time></trkpt><trkpt lat="44.94599817792974" lon="1.6629340722198125"><ele>153.0</ele><time>2026-05-02T07:32:27.999Z</time></trkpt><trkpt lat="44.94584019227927" lon="1.6630022536254196"><ele>152.5</ele><time>2026-05-02T07:32:28.999Z</time></trkpt><trkpt lat="44.945687510537056" lon="1.663036801715191"><ele>152.0</ele><time>2026-05-02T07:32:29.999Z</time></trkpt><trkpt lat="44.94554269820177" lon="1.6630788426073324"><ele>151.5</ele><time>2026-05-02T07:32:30.999Z</time></trkpt><trkpt lat="44.94540675090694" lon="1.6631350215742993"><ele>151.0</ele><time>2026-05-02T07:32:31.999Z</time></trkpt><trkpt lat="44.94527366659529" lon="1.6631671547124396"><ele>151.0</ele><time>2026-05-02T07:32:32.999Z</time></trkpt><trkpt lat="44.94514793098749" lon="1.663201603268891"><ele>151.0</ele><time>2026-05-02T07:32:33.999Z</time></trkpt><trkpt lat="44.94502964207167" lon="1.6632292609508839"><ele>151.0</ele><time>2026-05-02T07:32:34.999Z</time></trkpt><trkpt lat="44.944926092671096" lon="1.6632497185092374"><ele>151.0</ele><time>2026-05-02T07:32:35.999Z</time></trkpt><trkpt lat="44.94483915241237" lon="1.6632630046047052"><ele>151.0</ele><time>2026-05-02T07:32:36.999Z</time></trkpt><trkpt lat="44.94476940121224" lon="1.6632918498172542"><ele>150.0</ele><time>2026-05-02T07:32:37.999Z</time></trkpt><trkpt lat="44.94467607914435" lon="1.6634070785694584"><ele>149.0</ele><time>2026-05-02T07:32:39.999Z</time></trkpt><trkpt lat="44.944662706278265" lon="1.66352465634474"><ele>148.0</ele><time>2026-05-02T07:32:40.999Z</time></trkpt><trkpt lat="44.94469812847917" lon="1.663639468966285"><ele>147.0</ele><time>2026-05-02T07:32:41.999Z</time></trkpt><trkpt lat="44.944796894910574" lon="1.6637396434654543"><ele>146.0</ele><time>2026-05-02T07:32:42.999Z</time></trkpt><trkpt lat="44.9449193984243" lon="1.6638114250412668"><ele>143.75</ele><time>2026-05-02T07:32:43.999Z</time></trkpt><trkpt lat="44.94504019356236" lon="1.6638679001007977"><ele>141.5</ele><time>2026-05-02T07:32:44.999Z</time></trkpt><trkpt lat="44.945158799371576" lon="1.6639421638786518"><ele>139.25</ele><time>2026-05-02T07:32:45.999Z</time></trkpt><trkpt lat="44.945273394909805" lon="1.6640212708942748"><ele>137.0</ele><time>2026-05-02T07:32:46.999Z</time></trkpt><trkpt lat="44.9453968266756" lon="1.664101394590838"><ele>137.0</ele><time>2026-05-02T07:32:47.999Z</time></trkpt><trkpt lat="44.94554242041824" lon="1.6641909726025834"><ele>137.0</ele><time>2026-05-02T07:32:48.999Z</time></trkpt><trkpt lat="44.94570079313738" lon="1.664305301469475"><ele>137.0</ele><time>2026-05-02T07:32:49.999Z</time></trkpt><trkpt lat="44.94584110680972" lon="1.6643984365318734"><ele>134.75</ele><time>2026-05-02T07:32:51Z</time></trkpt><trkpt lat="44.94596716175357" lon="1.6644778565210046"><ele>132.5</ele><time>2026-05-02T07:32:52Z</time></trkpt><trkpt lat="44.946089930824925" lon="1.6645531111972396"><ele>130.25</ele><time>2026-05-02T07:32:53Z</time></trkpt><trkpt lat="44.94620949213028" lon="1.6646284476818356"><ele>128.0</ele><time>2026-05-02T07:32:54Z</time></trkpt><trkpt lat="44.94633760977625" lon="1.664705716186758"><ele>128.0</ele><time>2026-05-02T07:32:55Z</time></trkpt><trkpt lat="44.94645511086325" lon="1.664793386183294"><ele>128.0</ele><time>2026-05-02T07:32:56Z</time></trkpt><trkpt lat="44.94655592366664" lon="1.6648703693707527"><ele>128.0</ele><time>2026-05-02T07:32:57Z</time></trkpt><trkpt lat="44.94664162201946" lon="1.6649646296435077"><ele>128.0</ele><time>2026-05-02T07:32:58Z</time></trkpt><trkpt lat="44.94671806805005" lon="1.6650516966561988"><ele>128.4</ele><time>2026-05-02T07:32:59Z</time></trkpt><trkpt lat="44.94678030077922" lon="1.6651546492840876"><ele>128.8</ele><time>2026-05-02T07:33:00Z</time></trkpt><trkpt lat="44.94683518198324" lon="1.6652607783098157"><ele>129.2</ele><time>2026-05-02T07:33:01Z</time></trkpt><trkpt lat="44.94686556616771" lon="1.6653853992213692"><ele>129.6</ele><time>2026-05-02T07:33:02Z</time></trkpt><trkpt lat="44.94688966905708" lon="1.6655138684862845"><ele>130.0</ele><time>2026-05-02T07:33:03Z</time></trkpt><trkpt lat="44.94688868100967" lon="1.665663550417359"><ele>128.6</ele><time>2026-05-02T07:33:04Z</time></trkpt><trkpt lat="44.94687531471221" lon="1.6658032716092466"><ele>127.2</ele><time>2026-05-02T07:33:05Z</time></trkpt><trkpt lat="44.946861679640215" lon="1.6659306467284318"><ele>125.80000000000001</ele><time>2026-05-02T07:33:06Z</time></trkpt><trkpt lat="44.94683900292859" lon="1.6660321395736204"><ele>124.4</ele><time>2026-05-02T07:33:07Z</time></trkpt><trkpt lat="44.94679815645515" lon="1.6661923235723628"><ele>123.0</ele><time>2026-05-02T07:33:09Z</time></trkpt><trkpt lat="44.94670888506721" lon="1.6663170226294184"><ele>123.0</ele><time>2026-05-02T07:33:11Z</time></trkpt><trkpt lat="44.94662649539166" lon="1.6662949589547842"><ele>123.0</ele><time>2026-05-02T07:33:12Z</time></trkpt><trkpt lat="44.94655593121946" lon="1.6662368596798491"><ele>123.0</ele><time>2026-05-02T07:33:13Z</time></trkpt><trkpt lat="44.94648597881386" lon="1.666165025762338"><ele>123.0</ele><time>2026-05-02T07:33:14Z</time></trkpt><trkpt lat="44.94640278956282" lon="1.666093174889216"><ele>123.0</ele><time>2026-05-02T07:33:15Z</time></trkpt><trkpt lat="44.9463307891674" lon="1.6660349593857777"><ele>123.0</ele><time>2026-05-02T07:33:16Z</time></trkpt><trkpt lat="44.94626103011393" lon="1.6659800705699035"><ele>123.0</ele><time>2026-05-02T07:33:17Z</time></trkpt><trkpt lat="44.946196481520666" lon="1.6659304370327055"><ele>123.0</ele><time>2026-05-02T07:33:18Z</time></trkpt><trkpt lat="44.946093385334144" lon="1.6658615995759016"><ele>123.0</ele><time>2026-05-02T07:33:20Z</time></trkpt><trkpt lat="44.94603354494092" lon="1.6658193537790276"><ele>123.0</ele><time>2026-05-02T07:33:21Z</time></trkpt><trkpt lat="44.94596372021373" lon="1.665761384282011"><ele>123.0</ele><time>2026-05-02T07:33:22Z</time></trkpt><trkpt lat="44.945898804082404" lon="1.665699058390227"><ele>123.0</ele><time>2026-05-02T07:33:23Z</time></trkpt><trkpt lat="44.94583021237891" lon="1.6656306304240593"><ele>122.60000000000001</ele><time>2026-05-02T07:33:24Z</time></trkpt><trkpt lat="44.945756165232865" lon="1.6655713572802453"><ele>122.20000000000002</ele><time>2026-05-02T07:33:25Z</time></trkpt><trkpt lat="44.945671482378195" lon="1.665523528691777"><ele>121.8</ele><time>2026-05-02T07:33:26Z</time></trkpt><trkpt lat="44.94558232244436" lon="1.6654542632840723"><ele>121.4</ele><time>2026-05-02T07:33:27Z</time></trkpt><trkpt lat="44.94549082444101" lon="1.665413250900584"><ele>121.0</ele><time>2026-05-02T07:33:28Z</time></trkpt><trkpt lat="44.945386996860265" lon="1.6653734464988708"><ele>121.0</ele><time>2026-05-02T07:33:29Z</time></trkpt><trkpt lat="44.94526959112937" lon="1.6653454597635016"><ele>121.0</ele><time>2026-05-02T07:33:30Z</time></trkpt><trkpt lat="44.94512986611856" lon="1.6653358996806435"><ele>121.0</ele><time>2026-05-02T07:33:31Z</time></trkpt><trkpt lat="44.94497173388932" lon="1.6653274917017822"><ele>121.0</ele><time>2026-05-02T07:33:32Z</time></trkpt><trkpt lat="44.944820178965685" lon="1.6653051235160032"><ele>122.0</ele><time>2026-05-02T07:33:33Z</time></trkpt><trkpt lat="44.94469352126601" lon="1.6652567140156893"><ele>123.0</ele><time>2026-05-02T07:33:34Z</time></trkpt><trkpt lat="44.944572927028965" lon="1.665178362110434"><ele>124.0</ele><time>2026-05-02T07:33:35Z</time></trkpt><trkpt lat="44.94445091732552" lon="1.6650705085708877"><ele>125.0</ele><time>2026-05-02T07:33:36Z</time></trkpt><trkpt lat="44.94433433643258" lon="1.6649386518175902"><ele>125.0</ele><time>2026-05-02T07:33:37Z</time></trkpt><trkpt lat="44.94423106470815" lon="1.664809366072092"><ele>125.0</ele><time>2026-05-02T07:33:38Z</time></trkpt><trkpt lat="44.944138362422166" lon="1.664708307969248"><ele>125.0</ele><time>2026-05-02T07:33:39Z</time></trkpt><trkpt lat="44.94405578737878" lon="1.664624423911606"><ele>125.0</ele><time>2026-05-02T07:33:40Z</time></trkpt><trkpt lat="44.94397752671058" lon="1.6645406008332388"><ele>124.33333333333333</ele><time>2026-05-02T07:33:41Z</time></trkpt><trkpt lat="44.94390761252305" lon="1.6644598190321804"><ele>123.66666666666666</ele><time>2026-05-02T07:33:42Z</time></trkpt><trkpt lat="44.94384686461406" lon="1.6643974072621404"><ele>123.0</ele><time>2026-05-02T07:33:43Z</time></trkpt><trkpt lat="44.94378698484154" lon="1.6643564905420813"><ele>122.33333333333334</ele><time>2026-05-02T07:33:44Z</time></trkpt><trkpt lat="44.943724080869615" lon="1.66433796861338"><ele>121.66666666666667</ele><time>2026-05-02T07:33:45Z</time></trkpt><trkpt lat="44.943610347811365" lon="1.664381461010363"><ele>121.0</ele><time>2026-05-02T07:33:47Z</time></trkpt><trkpt lat="44.94353725104145" lon="1.6644635060909274"><ele>121.0</ele><time>2026-05-02T07:33:49Z</time></trkpt><trkpt lat="44.94348615232847" lon="1.6645773445869811"><ele>121.0</ele><time>2026-05-02T07:33:51Z</time></trkpt><trkpt lat="44.94344704132854" lon="1.6646841328864133"><ele>121.0</ele><time>2026-05-02T07:33:53Z</time></trkpt><trkpt lat="44.943392382294114" lon="1.6648460459416374"><ele>121.0</ele><time>2026-05-02T07:33:55Z</time></trkpt><trkpt lat="44.94336463688715" lon="1.6649513105644758"><ele>121.0</ele><time>2026-05-02T07:33:56Z</time></trkpt><trkpt lat="44.94335525564112" lon="1.665070404445254"><ele>120.8</ele><time>2026-05-02T07:33:57Z</time></trkpt><trkpt lat="44.94334953960778" lon="1.6652072995650244"><ele>120.6</ele><time>2026-05-02T07:33:58Z</time></trkpt><trkpt lat="44.94337244412472" lon="1.6653509230251233"><ele>120.4</ele><time>2026-05-02T07:33:59Z</time></trkpt><trkpt lat="44.94341252495201" lon="1.6654786409834734"><ele>120.2</ele><time>2026-05-02T07:34:00Z</time></trkpt><trkpt lat="44.94346053610779" lon="1.6655948529578135"><ele>120.0</ele><time>2026-05-02T07:34:01Z</time></trkpt><trkpt lat="44.94351962548698" lon="1.665691055689138"><ele>120.0</ele><time>2026-05-02T07:34:02Z</time></trkpt><trkpt lat="44.94359733659135" lon="1.6657815202868094"><ele>120.0</ele><time>2026-05-02T07:34:03Z</time></trkpt><trkpt lat="44.94370069509317" lon="1.6658548676141673"><ele>120.0</ele><time>2026-05-02T07:34:04Z</time></trkpt><trkpt lat="44.943813301735645" lon="1.6659135287070226"><ele>120.0</ele><time>2026-05-02T07:34:05Z</time></trkpt><trkpt lat="44.943928918545176" lon="1.6659964971826793"><ele>119.6</ele><time>2026-05-02T07:34:06Z</time></trkpt><trkpt lat="44.944020622860904" lon="1.666128518889818"><ele>119.2</ele><time>2026-05-02T07:34:07Z</time></trkpt><trkpt lat="44.94409793700679" lon="1.6662530192118519"><ele>118.80000000000001</ele><time>2026-05-02T07:34:07.999Z</time></trkpt><trkpt lat="44.94417703380485" lon="1.6663524872802176"><ele>118.4</ele><time>2026-05-02T07:34:08.999Z</time></trkpt><trkpt lat="44.944242957600515" lon="1.666449326361723"><ele>118.0</ele><time>2026-05-02T07:34:09.999Z</time></trkpt><trkpt lat="44.94431696375567" lon="1.6665534431429665"><ele>118.0</ele><time>2026-05-02T07:34:10.999Z</time></trkpt><trkpt lat="44.94442143727152" lon="1.666663843777503"><ele>118.0</ele><time>2026-05-02T07:34:11.999Z</time></trkpt><trkpt lat="44.94455721605137" lon="1.6667704147891533"><ele>118.0</ele><time>2026-05-02T07:34:12.999Z</time></trkpt><trkpt lat="44.94469915950095" lon="1.66686364251133"><ele>118.0</ele><time>2026-05-02T07:34:13.999Z</time></trkpt><trkpt lat="44.94481856920194" lon="1.6669465655863527"><ele>118.0</ele><time>2026-05-02T07:34:14.999Z</time></trkpt><trkpt lat="44.944943538990664" lon="1.6670347008783257"><ele>118.0</ele><time>2026-05-02T07:34:15.999Z</time></trkpt><trkpt lat="44.94507757740284" lon="1.6671134372261187"><ele>118.0</ele><time>2026-05-02T07:34:16.999Z</time></trkpt><trkpt lat="44.945219929567806" lon="1.6671796856383387"><ele>118.0</ele><time>2026-05-02T07:34:17.999Z</time></trkpt><trkpt lat="44.94536935237708" lon="1.6672353832048814"><ele>118.0</ele><time>2026-05-02T07:34:18.999Z</time></trkpt><trkpt lat="44.94550707601566" lon="1.667286038876243"><ele>118.0</ele><time>2026-05-02T07:34:19.999Z</time></trkpt><trkpt lat="44.94563441656649" lon="1.667328764820936"><ele>118.0</ele><time>2026-05-02T07:34:20.999Z</time></trkpt><trkpt lat="44.9457542002563" lon="1.667362070403405"><ele>118.0</ele><time>2026-05-02T07:34:21.999Z</time></trkpt><trkpt lat="44.945885316376916" lon="1.667380255612231"><ele>118.0</ele><time>2026-05-02T07:34:22.999Z</time></trkpt><trkpt lat="44.946001421098075" lon="1.667426615972344"><ele>118.00000000000001</ele><time>2026-05-02T07:34:23.999Z</time></trkpt><trkpt lat="44.94610930740596" lon="1.6674337183416932"><ele>118.00000000000001</ele><time>2026-05-02T07:34:24.999Z</time></trkpt><trkpt lat="44.94620162887924" lon="1.6674729754448425"><ele>118.0</ele><time>2026-05-02T07:34:25.999Z</time></trkpt><trkpt lat="44.94630164896705" lon="1.6674901997435387"><ele>118.0</ele><time>2026-05-02T07:34:26.999Z</time></trkpt><trkpt lat="44.94637825959146" lon="1.667553078946223"><ele>118.00000000000001</ele><time>2026-05-02T07:34:27.999Z</time></trkpt><trkpt lat="44.9464580380046" lon="1.6676333270746664"><ele>118.0</ele><time>2026-05-02T07:34:28.999Z</time></trkpt><trkpt lat="44.94649980953275" lon="1.6677272397394232"><ele>118.0</ele><time>2026-05-02T07:34:29.999Z</time></trkpt><trkpt lat="44.94650756258179" lon="1.6678310439681192"><ele>118.0</ele><time>2026-05-02T07:34:30.999Z</time></trkpt><trkpt lat="44.946488063505285" lon="1.6679366665060011"><ele>118.00000000000001</ele><time>2026-05-02T07:34:31.999Z</time></trkpt><trkpt lat="44.94647554175744" lon="1.6680655542802838"><ele>118.0</ele><time>2026-05-02T07:34:32.999Z</time></trkpt><trkpt lat="44.94646234844086" lon="1.6681868444861814"><ele>118.50000000000001</ele><time>2026-05-02T07:34:33.999Z</time></trkpt><trkpt lat="44.946441480975814" lon="1.6682975327975424"><ele>119.0</ele><time>2026-05-02T07:34:34.999Z</time></trkpt><trkpt lat="44.94640501821436" lon="1.6684032877763806"><ele>119.5</ele><time>2026-05-02T07:34:35.999Z</time></trkpt><trkpt lat="44.94635281621804" lon="1.668507182661998"><ele>120.0</ele><time>2026-05-02T07:34:36.999Z</time></trkpt><trkpt lat="44.94625672992102" lon="1.6684980610138322"><ele>120.50000000000001</ele><time>2026-05-02T07:34:37.999Z</time></trkpt><trkpt lat="44.94617481782441" lon="1.668497089679634"><ele>121.0</ele><time>2026-05-02T07:34:38.999Z</time></trkpt><trkpt lat="44.946084994362735" lon="1.6684826662792616"><ele>121.0</ele><time>2026-05-02T07:34:39.999Z</time></trkpt><trkpt lat="44.94596719633328" lon="1.6684690350447835"><ele>121.0</ele><time>2026-05-02T07:34:40.999Z</time></trkpt><trkpt lat="44.94583831908225" lon="1.668454987867981"><ele>121.0</ele><time>2026-05-02T07:34:41.999Z</time></trkpt><trkpt lat="44.94569746576108" lon="1.668442309498438"><ele>121.0</ele><time>2026-05-02T07:34:42.999Z</time></trkpt><trkpt lat="44.94555927487106" lon="1.6684298707661638"><ele>121.25</ele><time>2026-05-02T07:34:43.999Z</time></trkpt><trkpt lat="44.945436553275954" lon="1.6684188244217506"><ele>121.5</ele><time>2026-05-02T07:34:44.999Z</time></trkpt><trkpt lat="44.94530618405384" lon="1.668419723208381"><ele>121.75</ele><time>2026-05-02T07:34:45.999Z</time></trkpt><trkpt lat="44.945165081629" lon="1.6684097363167003"><ele>122.0</ele><time>2026-05-02T07:34:46.999Z</time></trkpt><trkpt lat="44.94500305280536" lon="1.6683910850058223"><ele>122.66666666666666</ele><time>2026-05-02T07:34:47.999Z</time></trkpt><trkpt lat="44.944822574016165" lon="1.6683815509183875"><ele>123.33333333333334</ele><time>2026-05-02T07:34:48.999Z</time></trkpt><trkpt lat="44.944683120139544" lon="1.6683626491263719"><ele>124.0</ele><time>2026-05-02T07:34:49.999Z</time></trkpt><trkpt lat="44.944548629631434" lon="1.668349325939192"><ele>124.0</ele><time>2026-05-02T07:34:50.999Z</time></trkpt><trkpt lat="44.94440837351301" lon="1.6683391416294047"><ele>124.0</ele><time>2026-05-02T07:34:51.999Z</time></trkpt><trkpt lat="44.94426721931056" lon="1.6683264230875197"><ele>124.0</ele><time>2026-05-02T07:34:52.999Z</time></trkpt><trkpt lat="44.944138435053375" lon="1.6683310877613464"><ele>124.0</ele><time>2026-05-02T07:34:53.999Z</time></trkpt><trkpt lat="44.944022968145894" lon="1.6683340285989323"><ele>124.75</ele><time>2026-05-02T07:34:54.999Z</time></trkpt><trkpt lat="44.9439136876039" lon="1.668342964120228"><ele>125.5</ele><time>2026-05-02T07:34:55.999Z</time></trkpt><trkpt lat="44.94378942597604" lon="1.6683580315945448"><ele>126.25</ele><time>2026-05-02T07:34:57Z</time></trkpt><trkpt lat="44.943650080278616" lon="1.668383067105637"><ele>127.0</ele><time>2026-05-02T07:34:58Z</time></trkpt><trkpt lat="44.943501827859656" lon="1.6684109353444818"><ele>126.25</ele><time>2026-05-02T07:34:59Z</time></trkpt><trkpt lat="44.94336034032279" lon="1.6684420233386397"><ele>125.5</ele><time>2026-05-02T07:35:00Z</time></trkpt><trkpt lat="44.94321383462507" lon="1.6684706850980782"><ele>124.75</ele><time>2026-05-02T07:35:01Z</time></trkpt><trkpt lat="44.943063967735796" lon="1.6685107949142142"><ele>124.0</ele><time>2026-05-02T07:35:02Z</time></trkpt><trkpt lat="44.94290840277916" lon="1.668565098535006"><ele>126.0</ele><time>2026-05-02T07:35:03Z</time></trkpt><trkpt lat="44.942745282271" lon="1.6686260168932583"><ele>128.0</ele><time>2026-05-02T07:35:04Z</time></trkpt><trkpt lat="44.94255338637478" lon="1.6687136833784082"><ele>130.0</ele><time>2026-05-02T07:35:05Z</time></trkpt><trkpt lat="44.94234409124709" lon="1.6688332071462204"><ele>130.0</ele><time>2026-05-02T07:35:06Z</time></trkpt><trkpt lat="44.9421645060396" lon="1.6689590477557947"><ele>130.0</ele><time>2026-05-02T07:35:07Z</time></trkpt><trkpt lat="44.942013208603456" lon="1.6691002856587915"><ele>130.0</ele><time>2026-05-02T07:35:08Z</time></trkpt><trkpt lat="44.941888079571946" lon="1.669258737941527"><ele>130.0</ele><time>2026-05-02T07:35:09Z</time></trkpt><trkpt lat="44.94178834364127" lon="1.6694183135502147"><ele>130.0</ele><time>2026-05-02T07:35:10Z</time></trkpt><trkpt lat="44.9417128134866" lon="1.6695706534109123"><ele>130.0</ele><time>2026-05-02T07:35:11Z</time></trkpt><trkpt lat="44.9416703769358" lon="1.6696938802079735"><ele>130.0</ele><time>2026-05-02T07:35:12Z</time></trkpt><trkpt lat="44.9416416093646" lon="1.669794239614084"><ele>129.33333333333334</ele><time>2026-05-02T07:35:13Z</time></trkpt><trkpt lat="44.94159515848065" lon="1.6698779808200126"><ele>128.66666666666669</ele><time>2026-05-02T07:35:14Z</time></trkpt><trkpt lat="44.94153180969262" lon="1.6699259168159597"><ele>128.0</ele><time>2026-05-02T07:35:15Z</time></trkpt><trkpt lat="44.94145828893698" lon="1.6699419239636555"><ele>127.33333333333334</ele><time>2026-05-02T07:35:16Z</time></trkpt><trkpt lat="44.94137389618979" lon="1.6699416611179083"><ele>126.66666666666667</ele><time>2026-05-02T07:35:17Z</time></trkpt><trkpt lat="44.941287460767235" lon="1.669899753314665"><ele>126.0</ele><time>2026-05-02T07:35:19Z</time></trkpt><trkpt lat="44.94122352642667" lon="1.6698727802340108"><ele>126.0</ele><time>2026-05-02T07:35:54Z</time></trkpt><trkpt lat="44.94115826219233" lon="1.6698613574245953"><ele>126.0</ele><time>2026-05-02T07:35:55Z</time></trkpt><trkpt lat="44.94106495724613" lon="1.6698540057286708"><ele>126.0</ele><time>2026-05-02T07:35:56Z</time></trkpt><trkpt lat="44.940957667641115" lon="1.669846545146985"><ele>126.0</ele><time>2026-05-02T07:35:57Z</time></trkpt><trkpt lat="44.94082629066792" lon="1.6698356568011092"><ele>126.0</ele><time>2026-05-02T07:35:58Z</time></trkpt><trkpt lat="44.940707065696536" lon="1.6698139040560804"><ele>123.8</ele><time>2026-05-02T07:35:59Z</time></trkpt><trkpt lat="44.94060413985414" lon="1.669773641762152"><ele>121.6</ele><time>2026-05-02T07:36:00Z</time></trkpt><trkpt lat="44.940506233154956" lon="1.6697030321978612"><ele>119.4</ele><time>2026-05-02T07:36:01Z</time></trkpt><trkpt lat="44.940420062943154" lon="1.6695918243883985"><ele>117.2</ele><time>2026-05-02T07:36:02Z</time></trkpt><trkpt lat="44.94033568947889" lon="1.669522247323828"><ele>115.0</ele><time>2026-05-02T07:36:03Z</time></trkpt><trkpt lat="44.94026480449658" lon="1.6694654634228134"><ele>115.0</ele><time>2026-05-02T07:36:04Z</time></trkpt><trkpt lat="44.94017068150404" lon="1.6694262287519144"><ele>115.0</ele><time>2026-05-02T07:36:05Z</time></trkpt><trkpt lat="44.94005340214834" lon="1.6695005826357656"><ele>115.0</ele><time>2026-05-02T07:36:06Z</time></trkpt><trkpt lat="44.93992138321064" lon="1.669564565274797"><ele>115.0</ele><time>2026-05-02T07:36:07Z</time></trkpt><trkpt lat="44.93978367180159" lon="1.66966092733754"><ele>115.25</ele><time>2026-05-02T07:36:08Z</time></trkpt><trkpt lat="44.93966982224853" lon="1.6697439426485214"><ele>115.5</ele><time>2026-05-02T07:36:09Z</time></trkpt><trkpt lat="44.93956474417152" lon="1.669815607634635"><ele>115.75</ele><time>2026-05-02T07:36:10Z</time></trkpt><trkpt lat="44.93945327845335" lon="1.669923518874944"><ele>116.0</ele><time>2026-05-02T07:36:11Z</time></trkpt><trkpt lat="44.939307262651305" lon="1.6700084395011356"><ele>115.75</ele><time>2026-05-02T07:36:11.999Z</time></trkpt><trkpt lat="44.93918262245974" lon="1.670052263492802"><ele>115.5</ele><time>2026-05-02T07:36:12.999Z</time></trkpt><trkpt lat="44.93907959540119" lon="1.6700674730974943"><ele>115.25</ele><time>2026-05-02T07:36:13.999Z</time></trkpt><trkpt lat="44.93897473403873" lon="1.670046198651003"><ele>115.0</ele><time>2026-05-02T07:36:14.999Z</time></trkpt><trkpt lat="44.93885935934555" lon="1.6700378358660495"><ele>115.0</ele><time>2026-05-02T07:36:15.999Z</time></trkpt><trkpt lat="44.93871733892781" lon="1.6699939471345326"><ele>115.0</ele><time>2026-05-02T07:36:16.999Z</time></trkpt><trkpt lat="44.93856814074451" lon="1.6699892585806573"><ele>115.0</ele><time>2026-05-02T07:36:17.999Z</time></trkpt><trkpt lat="44.9384318578419" lon="1.6700101677372639"><ele>115.0</ele><time>2026-05-02T07:36:18.999Z</time></trkpt><trkpt lat="44.93829272916717" lon="1.6700085570571765"><ele>115.0</ele><time>2026-05-02T07:36:19.999Z</time></trkpt><trkpt lat="44.938139769527815" lon="1.670038468968427"><ele>115.0</ele><time>2026-05-02T07:36:20.999Z</time></trkpt><trkpt lat="44.937991580137286" lon="1.6700456153897252"><ele>115.0</ele><time>2026-05-02T07:36:21.999Z</time></trkpt><trkpt lat="44.937867809782695" lon="1.6700654892043012"><ele>115.0</ele><time>2026-05-02T07:36:22.999Z</time></trkpt><trkpt lat="44.93774172576152" lon="1.670118650173074"><ele>115.0</ele><time>2026-05-02T07:36:23.999Z</time></trkpt><trkpt lat="44.93760172288028" lon="1.6702156473631298"><ele>115.0</ele><time>2026-05-02T07:36:24.999Z</time></trkpt><trkpt lat="44.93743901901494" lon="1.6703102874592857"><ele>115.0</ele><time>2026-05-02T07:36:25.999Z</time></trkpt><trkpt lat="44.937307121003855" lon="1.670380985850896"><ele>114.75</ele><time>2026-05-02T07:36:26.999Z</time></trkpt><trkpt lat="44.93718346062657" lon="1.670440329748228"><ele>114.5</ele><time>2026-05-02T07:36:27.999Z</time></trkpt><trkpt lat="44.937062434494905" lon="1.670497656066866"><ele>114.25</ele><time>2026-05-02T07:36:28.999Z</time></trkpt><trkpt lat="44.93692736010694" lon="1.6705616367166265"><ele>114.0</ele><time>2026-05-02T07:36:29.999Z</time></trkpt><trkpt lat="44.93680152675818" lon="1.6706218554244723"><ele>114.6</ele><time>2026-05-02T07:36:30.999Z</time></trkpt><trkpt lat="44.936692127602605" lon="1.6706742153831666"><ele>115.2</ele><time>2026-05-02T07:36:31.999Z</time></trkpt><trkpt lat="44.93659104117633" lon="1.6707215402238338"><ele>115.79999999999998</ele><time>2026-05-02T07:36:32.999Z</time></trkpt><trkpt lat="44.9365008665003" lon="1.6707628702849429"><ele>116.39999999999999</ele><time>2026-05-02T07:36:33.999Z</time></trkpt><trkpt lat="44.936401950311044" lon="1.6708213144352855"><ele>117.0</ele><time>2026-05-02T07:36:34.999Z</time></trkpt><trkpt lat="44.93628604206739" lon="1.6708032785620484"><ele>117.0</ele><time>2026-05-02T07:36:35.999Z</time></trkpt><trkpt lat="44.936162015164506" lon="1.6707448489665762"><ele>117.0</ele><time>2026-05-02T07:36:36.999Z</time></trkpt><trkpt lat="44.93601935932419" lon="1.670718585715197"><ele>117.0</ele><time>2026-05-02T07:36:37.999Z</time></trkpt><trkpt lat="44.935859561085714" lon="1.670682830527966"><ele>117.0</ele><time>2026-05-02T07:36:38.999Z</time></trkpt><trkpt lat="44.93568699697097" lon="1.6706558646453353"><ele>116.33333333333334</ele><time>2026-05-02T07:36:39.999Z</time></trkpt><trkpt lat="44.93551460953612" lon="1.6706523768256911"><ele>115.66666666666667</ele><time>2026-05-02T07:36:40.999Z</time></trkpt><trkpt lat="44.93536381254215" lon="1.6706362122831322"><ele>115.0</ele><time>2026-05-02T07:36:41.999Z</time></trkpt><trkpt lat="44.9352112105284" lon="1.6706243607294697"><ele>115.0</ele><time>2026-05-02T07:36:42.999Z</time></trkpt><trkpt lat="44.93505196130295" lon="1.6706330650615093"><ele>115.0</ele><time>2026-05-02T07:36:43.999Z</time></trkpt><trkpt lat="44.93489919940683" lon="1.670642332529342"><ele>115.0</ele><time>2026-05-02T07:36:44.999Z</time></trkpt><trkpt lat="44.934751646082034" lon="1.670649827885039"><ele>115.0</ele><time>2026-05-02T07:36:45.999Z</time></trkpt><trkpt lat="44.93461192928336" lon="1.6706730828960827"><ele>115.0</ele><time>2026-05-02T07:36:46.999Z</time></trkpt><trkpt lat="44.93447631475668" lon="1.6706958830016125"><ele>115.0</ele><time>2026-05-02T07:36:47.999Z</time></trkpt><trkpt lat="44.93435055044664" lon="1.6707297245109543"><ele>115.0</ele><time>2026-05-02T07:36:48.999Z</time></trkpt><trkpt lat="44.93421417235544" lon="1.6707405574169563"><ele>115.25</ele><time>2026-05-02T07:36:49.999Z</time></trkpt><trkpt lat="44.934090362048664" lon="1.6707734945397645"><ele>115.5</ele><time>2026-05-02T07:36:50.999Z</time></trkpt><trkpt lat="44.93397465482775" lon="1.670789696267498"><ele>115.75</ele><time>2026-05-02T07:36:51.999Z</time></trkpt><trkpt lat="44.933852398482834" lon="1.67077025217404"><ele>116.0</ele><time>2026-05-02T07:36:52.999Z</time></trkpt><trkpt lat="44.93372309372345" lon="1.670717141346611"><ele>116.0</ele><time>2026-05-02T07:36:53.999Z</time></trkpt><trkpt lat="44.93359513517503" lon="1.6706560111818949"><ele>116.0</ele><time>2026-05-02T07:36:54.999Z</time></trkpt><trkpt lat="44.933462750808594" lon="1.6706293488430173"><ele>116.0</ele><time>2026-05-02T07:36:55.999Z</time></trkpt><trkpt lat="44.93332754239882" lon="1.6706339345455166"><ele>116.0</ele><time>2026-05-02T07:36:56.999Z</time></trkpt><trkpt lat="44.9331926995533" lon="1.670688113506471"><ele>116.0</ele><time>2026-05-02T07:36:57.999Z</time></trkpt><trkpt lat="44.93305047445908" lon="1.6707714835544123"><ele>116.0</ele><time>2026-05-02T07:36:58.999Z</time></trkpt><trkpt lat="44.93292161243176" lon="1.6708684540807635"><ele>116.0</ele><time>2026-05-02T07:36:59.999Z</time></trkpt><trkpt lat="44.9327900393294" lon="1.6709188791077647"><ele>116.0</ele><time>2026-05-02T07:37:00.999Z</time></trkpt><trkpt lat="44.93267317726189" lon="1.6710009832105912"><ele>116.0</ele><time>2026-05-02T07:37:01.999Z</time></trkpt><trkpt lat="44.93254700757538" lon="1.6710604340868382"><ele>116.0</ele><time>2026-05-02T07:37:03Z</time></trkpt><trkpt lat="44.9324158128752" lon="1.671143408530019"><ele>116.0</ele><time>2026-05-02T07:37:04Z</time></trkpt><trkpt lat="44.93228731357782" lon="1.6712138350729213"><ele>116.0</ele><time>2026-05-02T07:37:05Z</time></trkpt><trkpt lat="44.93217598632871" lon="1.671277384228937"><ele>116.25</ele><time>2026-05-02T07:37:06Z</time></trkpt><trkpt lat="44.93206830130486" lon="1.6713533628926147"><ele>116.5</ele><time>2026-05-02T07:37:07Z</time></trkpt><trkpt lat="44.93196294445852" lon="1.6714286908187903"><ele>116.75</ele><time>2026-05-02T07:37:08Z</time></trkpt><trkpt lat="44.9318560877813" lon="1.6715048841094053"><ele>117.0</ele><time>2026-05-02T07:37:09Z</time></trkpt><trkpt lat="44.93174282100291" lon="1.6715786458945558"><ele>116.75</ele><time>2026-05-02T07:37:10Z</time></trkpt><trkpt lat="44.93162428048635" lon="1.6716217696279474"><ele>116.5</ele><time>2026-05-02T07:37:11Z</time></trkpt><trkpt lat="44.93149080324472" lon="1.671644469702292"><ele>116.25</ele><time>2026-05-02T07:37:12Z</time></trkpt><trkpt lat="44.9313602285615" lon="1.6716064381755826"><ele>116.0</ele><time>2026-05-02T07:37:13Z</time></trkpt><trkpt lat="44.93123955746333" lon="1.6716111537853973"><ele>116.0</ele><time>2026-05-02T07:37:14Z</time></trkpt><trkpt lat="44.93111710215678" lon="1.6715875496340613"><ele>116.0</ele><time>2026-05-02T07:37:15Z</time></trkpt><trkpt lat="44.9309878802339" lon="1.6715673897740342"><ele>116.0</ele><time>2026-05-02T07:37:16Z</time></trkpt><trkpt lat="44.93085493693927" lon="1.6715487663681956"><ele>116.0</ele><time>2026-05-02T07:37:17Z</time></trkpt><trkpt lat="44.93073233825146" lon="1.671558966628998"><ele>116.25</ele><time>2026-05-02T07:37:18Z</time></trkpt><trkpt lat="44.93060588869957" lon="1.6715617910738594"><ele>116.5</ele><time>2026-05-02T07:37:19Z</time></trkpt><trkpt lat="44.93046383672677" lon="1.671571095165493"><ele>116.75</ele><time>2026-05-02T07:37:20Z</time></trkpt><trkpt lat="44.93032420259849" lon="1.6715978451417801"><ele>117.0</ele><time>2026-05-02T07:37:21Z</time></trkpt><trkpt lat="44.930189802854116" lon="1.671611085157488"><ele>117.0</ele><time>2026-05-02T07:37:22Z</time></trkpt><trkpt lat="44.930062155624576" lon="1.671620068018426"><ele>117.0</ele><time>2026-05-02T07:37:23Z</time></trkpt><trkpt lat="44.92993013000572" lon="1.6716000879381847"><ele>117.0</ele><time>2026-05-02T07:37:24Z</time></trkpt><trkpt lat="44.92979577855292" lon="1.6715779940491096"><ele>117.0</ele><time>2026-05-02T07:37:25Z</time></trkpt><trkpt lat="44.929655486802226" lon="1.6715382072257454"><ele>116.75</ele><time>2026-05-02T07:37:26Z</time></trkpt><trkpt lat="44.929530408587794" lon="1.6714854647796247"><ele>116.5</ele><time>2026-05-02T07:37:27Z</time></trkpt><trkpt lat="44.929415952364316" lon="1.671418489805807"><ele>116.25</ele><time>2026-05-02T07:37:28Z</time></trkpt><trkpt lat="44.92930996487184" lon="1.6713261966016322"><ele>116.0</ele><time>2026-05-02T07:37:29Z</time></trkpt><trkpt lat="44.92920720801887" lon="1.671217669304532"><ele>115.5</ele><time>2026-05-02T07:37:30Z</time></trkpt><trkpt lat="44.92911134900776" lon="1.6710979293455381"><ele>115.0</ele><time>2026-05-02T07:37:31Z</time></trkpt><trkpt lat="44.929028014250264" lon="1.6709840478009303"><ele>114.5</ele><time>2026-05-02T07:37:32Z</time></trkpt><trkpt lat="44.928955897418035" lon="1.6708737641830032"><ele>114.0</ele><time>2026-05-02T07:37:33Z</time></trkpt><trkpt lat="44.92889455782173" lon="1.670752629400603"><ele>114.0</ele><time>2026-05-02T07:37:34Z</time></trkpt><trkpt lat="44.92882729147251" lon="1.6706173032427227"><ele>114.0</ele><time>2026-05-02T07:37:35Z</time></trkpt><trkpt lat="44.92875226620193" lon="1.6705053453385725"><ele>114.0</ele><time>2026-05-02T07:37:36Z</time></trkpt><trkpt lat="44.92869978128835" lon="1.6703854498733846"><ele>114.0</ele><time>2026-05-02T07:37:37Z</time></trkpt><trkpt lat="44.92864558412905" lon="1.6702837004222069"><ele>114.0</ele><time>2026-05-02T07:37:38Z</time></trkpt><trkpt lat="44.928599716379296" lon="1.6701879292664288"><ele>114.2</ele><time>2026-05-02T07:37:39Z</time></trkpt><trkpt lat="44.92854680516812" lon="1.6700767759583306"><ele>114.4</ele><time>2026-05-02T07:37:40Z</time></trkpt><trkpt lat="44.928473712630044" lon="1.6699649143502522"><ele>114.6</ele><time>2026-05-02T07:37:41Z</time></trkpt><trkpt lat="44.92838366593469" lon="1.6698874642328128"><ele>114.8</ele><time>2026-05-02T07:37:42Z</time></trkpt><trkpt lat="44.92832104594809" lon="1.6698531602552504"><ele>115.0</ele><time>2026-05-02T07:37:43Z</time></trkpt><trkpt lat="44.92823019272729" lon="1.669833184112999"><ele>115.0</ele><time>2026-05-02T07:37:45Z</time></trkpt><trkpt lat="44.928137967337754" lon="1.6698001538506981"><ele>115.0</ele><time>2026-05-02T07:37:47Z</time></trkpt><trkpt lat="44.928044664088944" lon="1.669799832667741"><ele>115.0</ele><time>2026-05-02T07:37:49Z</time></trkpt><trkpt lat="44.927971769186435" lon="1.6698520224319504"><ele>115.0</ele><time>2026-05-02T07:37:51Z</time></trkpt><trkpt lat="44.92786605328507" lon="1.6698884716693725"><ele>115.0</ele><time>2026-05-02T07:37:53Z</time></trkpt><trkpt lat="44.92776671215676" lon="1.6699523102741327"><ele>115.0</ele><time>2026-05-02T07:37:55Z</time></trkpt><trkpt lat="44.927700629398956" lon="1.6699949998885466"><ele>115.0</ele><time>2026-05-02T07:37:56Z</time></trkpt><trkpt lat="44.927590503538624" lon="1.6700661419525196"><ele>115.0</ele><time>2026-05-02T07:37:58Z</time></trkpt><trkpt lat="44.927475902767384" lon="1.6701405869838852"><ele>115.0</ele><time>2026-05-02T07:38:00Z</time></trkpt><trkpt lat="44.92741243827936" lon="1.670198437054169"><ele>115.0</ele><time>2026-05-02T07:38:02Z</time></trkpt><trkpt lat="44.92731851259946" lon="1.6702634069442845"><ele>114.4</ele><time>2026-05-02T07:38:04Z</time></trkpt><trkpt lat="44.92723139285444" lon="1.670318500427099"><ele>113.8</ele><time>2026-05-02T07:38:06Z</time></trkpt><trkpt lat="44.927153177635624" lon="1.6703688655482456"><ele>113.19999999999999</ele><time>2026-05-02T07:38:08Z</time></trkpt><trkpt lat="44.92707363618448" lon="1.6704144218203612"><ele>112.6</ele><time>2026-05-02T07:38:10Z</time></trkpt><trkpt lat="44.926974242074664" lon="1.6704854634630066"><ele>112.0</ele><time>2026-05-02T07:38:11.999Z</time></trkpt><trkpt lat="44.926901086606556" lon="1.6705252021272847"><ele>112.0</ele><time>2026-05-02T07:38:13.999Z</time></trkpt><trkpt lat="44.92682157407823" lon="1.6705793204990367"><ele>111.99999999999999</ele><time>2026-05-02T07:38:15.999Z</time></trkpt><trkpt lat="44.926757141032276" lon="1.6706195680110114"><ele>111.99999999999999</ele><time>2026-05-02T07:38:17.999Z</time></trkpt><trkpt lat="44.92668920033315" lon="1.6706469205904957"><ele>112.0</ele><time>2026-05-02T07:38:19.999Z</time></trkpt><trkpt lat="44.92657645922952" lon="1.6706667792252858"><ele>112.0</ele><time>2026-05-02T07:38:21.999Z</time></trkpt><trkpt lat="44.92649470130126" lon="1.6705119654789224"><ele>113.33333333333334</ele><time>2026-05-02T07:38:23.999Z</time></trkpt><trkpt lat="44.92644650072387" lon="1.670407971444705"><ele>114.66666666666667</ele><time>2026-05-02T07:38:24.999Z</time></trkpt><trkpt lat="44.92640834297643" lon="1.6703256441410077"><ele>116.0</ele><time>2026-05-02T07:38:25.999Z</time></trkpt><trkpt lat="44.92636411599859" lon="1.6702355291609805"><ele>117.33333333333334</ele><time>2026-05-02T07:38:26.999Z</time></trkpt><trkpt lat="44.92630620688759" lon="1.6701304461510884"><ele>118.66666666666667</ele><time>2026-05-02T07:38:27.999Z</time></trkpt><trkpt lat="44.92625018982196" lon="1.670040293890417"><ele>120.0</ele><time>2026-05-02T07:38:28.999Z</time></trkpt><trkpt lat="44.92619935392211" lon="1.6699627542159412"><ele>120.0</ele><time>2026-05-02T07:38:29.999Z</time></trkpt><trkpt lat="44.92614099946402" lon="1.6698832164032762"><ele>120.0</ele><time>2026-05-02T07:38:30.999Z</time></trkpt><trkpt lat="44.92607737086268" lon="1.6698045750670991"><ele>120.0</ele><time>2026-05-02T07:38:31.999Z</time></trkpt><trkpt lat="44.92600099277743" lon="1.669723795855716"><ele>120.0</ele><time>2026-05-02T07:38:32.999Z</time></trkpt><trkpt lat="44.925901971612525" lon="1.6696651398627245"><ele>120.0</ele><time>2026-05-02T07:38:33.999Z</time></trkpt><trkpt lat="44.925808232412805" lon="1.6695962601096457"><ele>119.8</ele><time>2026-05-02T07:38:34.999Z</time></trkpt><trkpt lat="44.92573570305515" lon="1.669505372623033"><ele>119.6</ele><time>2026-05-02T07:38:35.999Z</time></trkpt><trkpt lat="44.925652063100245" lon="1.6694392595128686"><ele>119.4</ele><time>2026-05-02T07:38:36.999Z</time></trkpt><trkpt lat="44.92557097873707" lon="1.6693431283522506"><ele>119.2</ele><time>2026-05-02T07:38:37.999Z</time></trkpt><trkpt lat="44.92548606934725" lon="1.6692442318469258"><ele>119.0</ele><time>2026-05-02T07:38:38.999Z</time></trkpt><trkpt lat="44.92538329542214" lon="1.6691400882276484"><ele>119.0</ele><time>2026-05-02T07:38:39.999Z</time></trkpt><trkpt lat="44.92527786208695" lon="1.669051477716712"><ele>119.0</ele><time>2026-05-02T07:38:40.999Z</time></trkpt><trkpt lat="44.92517629214661" lon="1.668958076058616"><ele>119.0</ele><time>2026-05-02T07:38:41.999Z</time></trkpt><trkpt lat="44.9250789916208" lon="1.668835254734855"><ele>119.0</ele><time>2026-05-02T07:38:42.999Z</time></trkpt><trkpt lat="44.92498599862635" lon="1.6687067666306339"><ele>119.25</ele><time>2026-05-02T07:38:43.999Z</time></trkpt><trkpt lat="44.92490264869826" lon="1.6685643816680285"><ele>119.5</ele><time>2026-05-02T07:38:44.999Z</time></trkpt><trkpt lat="44.92482901611371" lon="1.6684382170645793"><ele>119.75</ele><time>2026-05-02T07:38:45.999Z</time></trkpt><trkpt lat="44.9247644892407" lon="1.6683091146542866"><ele>120.0</ele><time>2026-05-02T07:38:46.999Z</time></trkpt><trkpt lat="44.92469232964835" lon="1.6681726150062957"><ele>120.0</ele><time>2026-05-02T07:38:47.999Z</time></trkpt><trkpt lat="44.92461407491376" lon="1.6680431026160938"><ele>120.0</ele><time>2026-05-02T07:38:48.999Z</time></trkpt><trkpt lat="44.924550980000284" lon="1.6678959229530135"><ele>120.0</ele><time>2026-05-02T07:38:49.999Z</time></trkpt><trkpt lat="44.92446451605947" lon="1.6677636460803327"><ele>120.0</ele><time>2026-05-02T07:38:50.999Z</time></trkpt><trkpt lat="44.92439627763713" lon="1.6676175679027514"><ele>118.25</ele><time>2026-05-02T07:38:51.999Z</time></trkpt><trkpt lat="44.924318235206634" lon="1.6674716048970293"><ele>116.5</ele><time>2026-05-02T07:38:52.999Z</time></trkpt><trkpt lat="44.92424135046815" lon="1.667311140176967"><ele>114.75</ele><time>2026-05-02T07:38:53.999Z</time></trkpt><trkpt lat="44.92415298077966" lon="1.667139319115904"><ele>113.0</ele><time>2026-05-02T07:38:54.999Z</time></trkpt><trkpt lat="44.9240748667786" lon="1.6669806872282986"><ele>115.0</ele><time>2026-05-02T07:38:55.999Z</time></trkpt><trkpt lat="44.924000462075384" lon="1.6668234808186406"><ele>117.0</ele><time>2026-05-02T07:38:56.999Z</time></trkpt><trkpt lat="44.923923362699306" lon="1.6666580581953785"><ele>119.0</ele><time>2026-05-02T07:38:57.999Z</time></trkpt><trkpt lat="44.92384818726411" lon="1.6665003819040058"><ele>121.0</ele><time>2026-05-02T07:38:58.999Z</time></trkpt><trkpt lat="44.923785495154135" lon="1.6663172007514824"><ele>121.0</ele><time>2026-05-02T07:38:59.999Z</time></trkpt><trkpt lat="44.92370153993963" lon="1.6661434192559015"><ele>121.0</ele><time>2026-05-02T07:39:00.999Z</time></trkpt><trkpt lat="44.9236356567777" lon="1.6659658305371423"><ele>121.0</ele><time>2026-05-02T07:39:01.999Z</time></trkpt><trkpt lat="44.92357666925856" lon="1.6658102888887774"><ele>121.0</ele><time>2026-05-02T07:39:02.999Z</time></trkpt><trkpt lat="44.9235169933077" lon="1.6656415058397942"><ele>119.75</ele><time>2026-05-02T07:39:03.999Z</time></trkpt><trkpt lat="44.923444798272854" lon="1.6654735073893918"><ele>118.5</ele><time>2026-05-02T07:39:04.999Z</time></trkpt><trkpt lat="44.923379619230744" lon="1.6652895158175236"><ele>117.25</ele><time>2026-05-02T07:39:05.999Z</time></trkpt><trkpt lat="44.92332271698037" lon="1.6651007680277714"><ele>116.0</ele><time>2026-05-02T07:39:06.999Z</time></trkpt><trkpt lat="44.92326841022302" lon="1.664923901084247"><ele>116.0</ele><time>2026-05-02T07:39:07.999Z</time></trkpt><trkpt lat="44.92320634986638" lon="1.6647466047175203"><ele>116.0</ele><time>2026-05-02T07:39:09Z</time></trkpt><trkpt lat="44.92312924265651" lon="1.6645787512495265"><ele>116.0</ele><time>2026-05-02T07:39:10Z</time></trkpt><trkpt lat="44.92303158029998" lon="1.6644149549072957"><ele>116.0</ele><time>2026-05-02T07:39:11Z</time></trkpt><trkpt lat="44.92292506193449" lon="1.6642502214054724"><ele>116.0</ele><time>2026-05-02T07:39:12Z</time></trkpt><trkpt lat="44.92283034865142" lon="1.664108206613713"><ele>116.0</ele><time>2026-05-02T07:39:13Z</time></trkpt><trkpt lat="44.92273933220293" lon="1.6639807548088985"><ele>116.0</ele><time>2026-05-02T07:39:14Z</time></trkpt><trkpt lat="44.92263201579736" lon="1.663843862806304"><ele>116.0</ele><time>2026-05-02T07:39:15Z</time></trkpt><trkpt lat="44.92253464732704" lon="1.6637039536718976"><ele>118.0</ele><time>2026-05-02T07:39:16Z</time></trkpt><trkpt lat="44.922438740690176" lon="1.6635845802348836"><ele>120.0</ele><time>2026-05-02T07:39:17Z</time></trkpt><trkpt lat="44.922334332446944" lon="1.6634525330069598"><ele>122.0</ele><time>2026-05-02T07:39:18Z</time></trkpt><trkpt lat="44.92222724349358" lon="1.6633216806574007"><ele>124.0</ele><time>2026-05-02T07:39:19Z</time></trkpt><trkpt lat="44.92210960801849" lon="1.663187590759383"><ele>124.0</ele><time>2026-05-02T07:39:20Z</time></trkpt><trkpt lat="44.92200263399569" lon="1.6630739460440473"><ele>124.0</ele><time>2026-05-02T07:39:21Z</time></trkpt><trkpt lat="44.92190394168423" lon="1.6629631038798307"><ele>124.0</ele><time>2026-05-02T07:39:22Z</time></trkpt><trkpt lat="44.92181747177043" lon="1.6628265659131434"><ele>124.0</ele><time>2026-05-02T07:39:23Z</time></trkpt><trkpt lat="44.921720124045585" lon="1.6627085078853359"><ele>126.25</ele><time>2026-05-02T07:39:24Z</time></trkpt><trkpt lat="44.92164528558135" lon="1.6625407302156656"><ele>128.5</ele><time>2026-05-02T07:39:25Z</time></trkpt><trkpt lat="44.92155751790126" lon="1.662385272339392"><ele>130.75</ele><time>2026-05-02T07:39:26Z</time></trkpt><trkpt lat="44.921470527655956" lon="1.662223161519129"><ele>133.0</ele><time>2026-05-02T07:39:27Z</time></trkpt><trkpt lat="44.921387324721685" lon="1.6620697196764298"><ele>128.5</ele><time>2026-05-02T07:39:28Z</time></trkpt><trkpt lat="44.921300146234174" lon="1.6619350529645545"><ele>124.0</ele><time>2026-05-02T07:39:29Z</time></trkpt><trkpt lat="44.921198975182314" lon="1.6618160719121196"><ele>119.5</ele><time>2026-05-02T07:39:30Z</time></trkpt><trkpt lat="44.92109409912956" lon="1.661704938547558"><ele>115.0</ele><time>2026-05-02T07:39:31Z</time></trkpt><trkpt lat="44.92098102997158" lon="1.6616181283720035"><ele>118.25</ele><time>2026-05-02T07:39:32Z</time></trkpt><trkpt lat="44.92087054128453" lon="1.6615536421414"><ele>121.5</ele><time>2026-05-02T07:39:33Z</time></trkpt><trkpt lat="44.92076250964031" lon="1.6615082791726792"><ele>124.75</ele><time>2026-05-02T07:39:34Z</time></trkpt><trkpt lat="44.92065361244076" lon="1.6614715009615626"><ele>128.0</ele><time>2026-05-02T07:39:35Z</time></trkpt><trkpt lat="44.92054348721287" lon="1.6614353348938056"><ele>128.0</ele><time>2026-05-02T07:39:36Z</time></trkpt><trkpt lat="44.92044574465381" lon="1.6613952446379114"><ele>128.0</ele><time>2026-05-02T07:39:37Z</time></trkpt><trkpt lat="44.9203466576088" lon="1.6613532931843507"><ele>128.0</ele><time>2026-05-02T07:39:38Z</time></trkpt><trkpt lat="44.92026329063121" lon="1.6613241616645416"><ele>128.0</ele><time>2026-05-02T07:39:39Z</time></trkpt><trkpt lat="44.92021241156751" lon="1.6612182835198765"><ele>128.0</ele><time>2026-05-02T07:39:40Z</time></trkpt><trkpt lat="44.92014975970844" lon="1.6611185004287494"><ele>127.0</ele><time>2026-05-02T07:39:41Z</time></trkpt><trkpt lat="44.92010283636791" lon="1.6609505923788306"><ele>126.0</ele><time>2026-05-02T07:39:42Z</time></trkpt><trkpt lat="44.92005703730857" lon="1.660731629271221"><ele>125.0</ele><time>2026-05-02T07:39:43Z</time></trkpt><trkpt lat="44.92001807199053" lon="1.6605155616973295"><ele>124.0</ele><time>2026-05-02T07:39:44Z</time></trkpt><trkpt lat="44.91997688566048" lon="1.66034941479366"><ele>123.5</ele><time>2026-05-02T07:39:45Z</time></trkpt><trkpt lat="44.91995040831617" lon="1.6601967494522858"><ele>123.0</ele><time>2026-05-02T07:39:46Z</time></trkpt><trkpt lat="44.91989319282714" lon="1.6600322453451377"><ele>122.5</ele><time>2026-05-02T07:39:47Z</time></trkpt><trkpt lat="44.919831901753206" lon="1.6598724238115152"><ele>122.0</ele><time>2026-05-02T07:39:48Z</time></trkpt><trkpt lat="44.91975382905781" lon="1.6597414036761104"><ele>122.0</ele><time>2026-05-02T07:39:49Z</time></trkpt><trkpt lat="44.91967459097456" lon="1.6596122116204493"><ele>122.0</ele><time>2026-05-02T07:39:50Z</time></trkpt><trkpt lat="44.919591654406496" lon="1.659480338139263"><ele>122.0</ele><time>2026-05-02T07:39:51Z</time></trkpt><trkpt lat="44.919511188499875" lon="1.6593451871739762"><ele>122.0</ele><time>2026-05-02T07:39:52Z</time></trkpt><trkpt lat="44.91944057484709" lon="1.659214874630501"><ele>122.6</ele><time>2026-05-02T07:39:53Z</time></trkpt><trkpt lat="44.919375585318534" lon="1.6590924004110161"><ele>123.19999999999999</ele><time>2026-05-02T07:39:54Z</time></trkpt><trkpt lat="44.91931538180486" lon="1.6589750580993996"><ele>123.8</ele><time>2026-05-02T07:39:55Z</time></trkpt><trkpt lat="44.919247834768974" lon="1.6588531789814367"><ele>124.4</ele><time>2026-05-02T07:39:56Z</time></trkpt><trkpt lat="44.91917812100217" lon="1.6587078791989491"><ele>125.0</ele><time>2026-05-02T07:39:57Z</time></trkpt><trkpt lat="44.919119656805165" lon="1.6585487004525394"><ele>125.0</ele><time>2026-05-02T07:39:58Z</time></trkpt><trkpt lat="44.91905606966165" lon="1.6583946284264492"><ele>125.0</ele><time>2026-05-02T07:39:59Z</time></trkpt><trkpt lat="44.91898681347748" lon="1.658241076724306"><ele>125.0</ele><time>2026-05-02T07:40:00Z</time></trkpt><trkpt lat="44.918919976602034" lon="1.65810667198816"><ele>125.0</ele><time>2026-05-02T07:40:01Z</time></trkpt><trkpt lat="44.91886632392129" lon="1.6579611526513878"><ele>125.0</ele><time>2026-05-02T07:40:02Z</time></trkpt><trkpt lat="44.91879268559116" lon="1.6578359722627887"><ele>125.0</ele><time>2026-05-02T07:40:03Z</time></trkpt><trkpt lat="44.91874160879616" lon="1.6577124320954206"><ele>125.0</ele><time>2026-05-02T07:40:04Z</time></trkpt><trkpt lat="44.91868979056176" lon="1.6575903287293947"><ele>125.0</ele><time>2026-05-02T07:40:05Z</time></trkpt><trkpt lat="44.91863502585124" lon="1.6574544845921135"><ele>125.0</ele><time>2026-05-02T07:40:06Z</time></trkpt><trkpt lat="44.91857151339087" lon="1.6573108804231995"><ele>124.5</ele><time>2026-05-02T07:40:07Z</time></trkpt><trkpt lat="44.918503664339944" lon="1.6571699309571424"><ele>124.0</ele><time>2026-05-02T07:40:08Z</time></trkpt><trkpt lat="44.91841610778944" lon="1.6570345977271286"><ele>123.5</ele><time>2026-05-02T07:40:09Z</time></trkpt><trkpt lat="44.91832299039706" lon="1.656913405882862"><ele>123.0</ele><time>2026-05-02T07:40:09.999Z</time></trkpt><trkpt lat="44.91823761271152" lon="1.6568131004885716"><ele>125.25</ele><time>2026-05-02T07:40:10.999Z</time></trkpt><trkpt lat="44.91815778511017" lon="1.6567066089961213"><ele>127.5</ele><time>2026-05-02T07:40:11.999Z</time></trkpt><trkpt lat="44.91806396561394" lon="1.6566000483767964"><ele>129.75</ele><time>2026-05-02T07:40:12.999Z</time></trkpt><trkpt lat="44.917966383106396" lon="1.656491306706906"><ele>132.0</ele><time>2026-05-02T07:40:13.999Z</time></trkpt><trkpt lat="44.917881613175595" lon="1.6563937671925868"><ele>132.0</ele><time>2026-05-02T07:40:14.999Z</time></trkpt><trkpt lat="44.917803828950504" lon="1.656292808588246"><ele>132.0</ele><time>2026-05-02T07:40:15.999Z</time></trkpt><trkpt lat="44.917715178502796" lon="1.6561990599760037"><ele>132.0</ele><time>2026-05-02T07:40:16.999Z</time></trkpt><trkpt lat="44.91762559766616" lon="1.65610394824704"><ele>132.0</ele><time>2026-05-02T07:40:17.999Z</time></trkpt><trkpt lat="44.917548884010294" lon="1.6560162142066193"><ele>132.0</ele><time>2026-05-02T07:40:18.999Z</time></trkpt><trkpt lat="44.917483884912045" lon="1.6559423257662873"><ele>132.0</ele><time>2026-05-02T07:40:19.999Z</time></trkpt><trkpt lat="44.91740797044924" lon="1.6558650461608404"><ele>132.0</ele><time>2026-05-02T07:40:20.999Z</time></trkpt><trkpt lat="44.91733484545507" lon="1.655783295963189"><ele>132.0</ele><time>2026-05-02T07:40:21.999Z</time></trkpt><trkpt lat="44.917262851889596" lon="1.6557055351875551"><ele>132.0</ele><time>2026-05-02T07:40:22.999Z</time></trkpt><trkpt lat="44.91720712458249" lon="1.655633366175472"><ele>132.0</ele><time>2026-05-02T07:40:23.999Z</time></trkpt><trkpt lat="44.917106317327864" lon="1.6555472181882838"><ele>132.0</ele><time>2026-05-02T07:40:25.999Z</time></trkpt><trkpt lat="44.91702099890417" lon="1.6555243953984398"><ele>132.0</ele><time>2026-05-02T07:40:27.999Z</time></trkpt><trkpt lat="44.91693966803059" lon="1.655477505380682"><ele>132.0</ele><time>2026-05-02T07:40:30.999Z</time></trkpt><trkpt lat="44.91685670478227" lon="1.655455101532199"><ele>132.0</ele><time>2026-05-02T07:40:32.999Z</time></trkpt><trkpt lat="44.9167611511185" lon="1.6554314778173618"><ele>132.0</ele><time>2026-05-02T07:40:34.999Z</time></trkpt><trkpt lat="44.91668888049228" lon="1.6553900614943218"><ele>132.0</ele><time>2026-05-02T07:40:36.999Z</time></trkpt><trkpt lat="44.916596948244674" lon="1.6553427953942161"><ele>132.66666666666666</ele><time>2026-05-02T07:40:38.999Z</time></trkpt><trkpt lat="44.91653268652353" lon="1.6553097157999537"><ele>133.33333333333334</ele><time>2026-05-02T07:40:40.999Z</time></trkpt><trkpt lat="44.91645667460241" lon="1.655271739697394"><ele>134.0</ele><time>2026-05-02T07:40:42.999Z</time></trkpt><trkpt lat="44.91639583816454" lon="1.6552431166102899"><ele>134.66666666666669</ele><time>2026-05-02T07:40:44.999Z</time></trkpt><trkpt lat="44.91628745523352" lon="1.6552171916303304"><ele>135.33333333333334</ele><time>2026-05-02T07:40:46.999Z</time></trkpt><trkpt lat="44.91619214949279" lon="1.6551899995048691"><ele>136.0</ele><time>2026-05-02T07:40:48.999Z</time></trkpt><trkpt lat="44.91608107948889" lon="1.6551152218137166"><ele>136.0</ele><time>2026-05-02T07:40:50.999Z</time></trkpt><trkpt lat="44.91601651710021" lon="1.6550787868559012"><ele>136.0</ele><time>2026-05-02T07:40:51.999Z</time></trkpt><trkpt lat="44.91589377519611" lon="1.6550222728055628"><ele>136.0</ele><time>2026-05-02T07:40:53.999Z</time></trkpt><trkpt lat="44.91582610542329" lon="1.654993701100359"><ele>136.0</ele><time>2026-05-02T07:40:54.999Z</time></trkpt><trkpt lat="44.915740441571586" lon="1.6549491606413216"><ele>136.0</ele><time>2026-05-02T07:40:56.999Z</time></trkpt><trkpt lat="44.91566029872759" lon="1.6549173015515097"><ele>136.0</ele><time>2026-05-02T07:40:59.999Z</time></trkpt><trkpt lat="44.915579735000485" lon="1.6548553345463386"><ele>136.33333333333334</ele><time>2026-05-02T07:41:01.999Z</time></trkpt><trkpt lat="44.91550811494275" lon="1.654815154490384"><ele>136.66666666666669</ele><time>2026-05-02T07:41:03.999Z</time></trkpt><trkpt lat="44.91541554944692" lon="1.6547915936365802"><ele>137.0</ele><time>2026-05-02T07:41:06.999Z</time></trkpt><trkpt lat="44.915337488054035" lon="1.654766897637183"><ele>137.33333333333334</ele><time>2026-05-02T07:41:09.999Z</time></trkpt><trkpt lat="44.91526589872085" lon="1.6548024042890768"><ele>137.66666666666666</ele><time>2026-05-02T07:41:12.999Z</time></trkpt><trkpt lat="44.91523240917215" lon="1.654879929128667"><ele>138.0</ele><time>2026-05-02T07:41:15Z</time></trkpt><trkpt lat="44.91515054992074" lon="1.6549337809662352"><ele>138.0</ele><time>2026-05-02T07:41:18Z</time></trkpt><trkpt lat="44.91509347828229" lon="1.654986753927417"><ele>138.0</ele><time>2026-05-02T07:41:22Z</time></trkpt><trkpt lat="44.91501385855863" lon="1.6550118757749506"><ele>138.0</ele><time>2026-05-02T07:41:24Z</time></trkpt><trkpt lat="44.91489390977624" lon="1.6551318493914746"><ele>138.0</ele><time>2026-05-02T07:41:26Z</time></trkpt><trkpt lat="44.914890350965365" lon="1.6552390012772025"><ele>138.0</ele><time>2026-05-02T07:41:27Z</time></trkpt><trkpt lat="44.914848574635116" lon="1.6553164002566725"><ele>138.0</ele><time>2026-05-02T07:41:28Z</time></trkpt><trkpt lat="44.914792323084164" lon="1.6554026342467987"><ele>138.5</ele><time>2026-05-02T07:41:29Z</time></trkpt><trkpt lat="44.91473654047926" lon="1.6554854691111225"><ele>139.0</ele><time>2026-05-02T07:41:30Z</time></trkpt><trkpt lat="44.914668148912455" lon="1.6555178000137871"><ele>139.5</ele><time>2026-05-02T07:41:31Z</time></trkpt><trkpt lat="44.914571911672226" lon="1.655631059155647"><ele>140.0</ele><time>2026-05-02T07:41:33Z</time></trkpt><trkpt lat="44.91450097052142" lon="1.6556798440055134"><ele>140.5</ele><time>2026-05-02T07:41:34Z</time></trkpt><trkpt lat="44.91442841397199" lon="1.6557210393169826"><ele>141.0</ele><time>2026-05-02T07:41:35Z</time></trkpt><trkpt lat="44.914311711275204" lon="1.6557858339169254"><ele>141.0</ele><time>2026-05-02T07:41:37Z</time></trkpt><trkpt lat="44.914234578651744" lon="1.6558408145440526"><ele>141.0</ele><time>2026-05-02T07:41:39Z</time></trkpt><trkpt lat="44.91417818963968" lon="1.6559268714817932"><ele>141.0</ele><time>2026-05-02T07:41:41Z</time></trkpt><trkpt lat="44.91416278548151" lon="1.6560339416303613"><ele>141.0</ele><time>2026-05-02T07:41:42Z</time></trkpt><trkpt lat="44.91415849371482" lon="1.6561660529171365"><ele>141.0</ele><time>2026-05-02T07:41:43Z</time></trkpt><trkpt lat="44.91414766638507" lon="1.6562891418849481"><ele>141.0</ele><time>2026-05-02T07:41:44Z</time></trkpt><trkpt lat="44.91413364897104" lon="1.6564041223924229"><ele>141.6</ele><time>2026-05-02T07:41:45Z</time></trkpt><trkpt lat="44.914109046827605" lon="1.6565257624237721"><ele>142.2</ele><time>2026-05-02T07:41:46Z</time></trkpt><trkpt lat="44.91407753192629" lon="1.6566252861891344"><ele>142.8</ele><time>2026-05-02T07:41:47Z</time></trkpt><trkpt lat="44.91404124377843" lon="1.6567045323757954"><ele>143.4</ele><time>2026-05-02T07:41:48Z</time></trkpt><trkpt lat="44.913975163389985" lon="1.656830634276414"><ele>144.0</ele><time>2026-05-02T07:41:50Z</time></trkpt><trkpt lat="44.91390828536148" lon="1.6569727289963947"><ele>144.66666666666666</ele><time>2026-05-02T07:41:52Z</time></trkpt><trkpt lat="44.913869973873574" lon="1.6570541287750868"><ele>145.33333333333334</ele><time>2026-05-02T07:41:53Z</time></trkpt><trkpt lat="44.91382554779541" lon="1.6571393275444288"><ele>146.0</ele><time>2026-05-02T07:41:54Z</time></trkpt><trkpt lat="44.91378558948921" lon="1.6572130022479996"><ele>146.66666666666669</ele><time>2026-05-02T07:41:55Z</time></trkpt><trkpt lat="44.91370608246814" lon="1.6573489532097303"><ele>147.33333333333334</ele><time>2026-05-02T07:41:57Z</time></trkpt><trkpt lat="44.91365008671736" lon="1.6574293717247928"><ele>148.0</ele><time>2026-05-02T07:41:58Z</time></trkpt><trkpt lat="44.91357132753714" lon="1.6575279101597555"><ele>148.0</ele><time>2026-05-02T07:41:59Z</time></trkpt><trkpt lat="44.913470893936505" lon="1.6576431812669146"><ele>148.0</ele><time>2026-05-02T07:42:00Z</time></trkpt><trkpt lat="44.913396657674596" lon="1.6577286967459117"><ele>148.0</ele><time>2026-05-02T07:42:01Z</time></trkpt><trkpt lat="44.91334603936727" lon="1.6577948664947197"><ele>148.0</ele><time>2026-05-02T07:42:02Z</time></trkpt><trkpt lat="44.91329699162657" lon="1.6578528176947722"><ele>148.0</ele><time>2026-05-02T07:42:03Z</time></trkpt><trkpt lat="44.91321348334528" lon="1.65795335689885"><ele>151.0</ele><time>2026-05-02T07:42:05Z</time></trkpt><trkpt lat="44.913143690662345" lon="1.6580245510647866"><ele>154.0</ele><time>2026-05-02T07:42:08Z</time></trkpt><trkpt lat="44.913033612834" lon="1.658121225710182"><ele>157.0</ele><time>2026-05-02T07:42:10Z</time></trkpt><trkpt lat="44.91296480044726" lon="1.6582302799324191"><ele>160.0</ele><time>2026-05-02T07:42:11Z</time></trkpt><trkpt lat="44.91289179268748" lon="1.6583196297664198"><ele>163.0</ele><time>2026-05-02T07:42:12Z</time></trkpt><trkpt lat="44.91279907500148" lon="1.65838609138121"><ele>163.0</ele><time>2026-05-02T07:42:13Z</time></trkpt><trkpt lat="44.91269031684489" lon="1.6584665297318268"><ele>163.0</ele><time>2026-05-02T07:42:14Z</time></trkpt><trkpt lat="44.91253998878534" lon="1.658555936308297"><ele>163.0</ele><time>2026-05-02T07:42:14.999Z</time></trkpt><trkpt lat="44.91235828586912" lon="1.658659193010548"><ele>168.66666666666669</ele><time>2026-05-02T07:42:15.999Z</time></trkpt><trkpt lat="44.91217252719331" lon="1.6587692959178035"><ele>174.33333333333334</ele><time>2026-05-02T07:42:16.999Z</time></trkpt><trkpt lat="44.91201684906208" lon="1.6588723866056112"><ele>180.0</ele><time>2026-05-02T07:42:17.999Z</time></trkpt><trkpt lat="44.911891439568926" lon="1.6589518618916066"><ele>180.0</ele><time>2026-05-02T07:42:18.999Z</time></trkpt><trkpt lat="44.91177703321012" lon="1.6590272891560842"><ele>180.0</ele><time>2026-05-02T07:42:19.999Z</time></trkpt><trkpt lat="44.911652026114915" lon="1.6591086125075856"><ele>180.0</ele><time>2026-05-02T07:42:20.999Z</time></trkpt><trkpt lat="44.91150123235131" lon="1.6592067113390216"><ele>180.0</ele><time>2026-05-02T07:42:21.999Z</time></trkpt><trkpt lat="44.9113781783239" lon="1.6592867641344367"><ele>180.2</ele><time>2026-05-02T07:42:22.999Z</time></trkpt><trkpt lat="44.91127990479858" lon="1.6593506959394886"><ele>180.4</ele><time>2026-05-02T07:42:23.999Z</time></trkpt><trkpt lat="44.91120769901919" lon="1.6594349476083337"><ele>180.60000000000002</ele><time>2026-05-02T07:42:24.999Z</time></trkpt><trkpt lat="44.91113916718709" lon="1.6595032355298922"><ele>180.8</ele><time>2026-05-02T07:42:25.999Z</time></trkpt><trkpt lat="44.91107020474205" lon="1.6595707620243019"><ele>181.0</ele><time>2026-05-02T07:42:26.999Z</time></trkpt><trkpt lat="44.911049746839566" lon="1.6596843193503457"><ele>183.0</ele><time>2026-05-02T07:42:27.999Z</time></trkpt><trkpt lat="44.911062567773676" lon="1.6597717016145865"><ele>185.0</ele><time>2026-05-02T07:42:28.999Z</time></trkpt><trkpt lat="44.91108004139043" lon="1.6598684294797452"><ele>187.0</ele><time>2026-05-02T07:42:29.999Z</time></trkpt><trkpt lat="44.91115204518336" lon="1.6599345006824917"><ele>189.0</ele><time>2026-05-02T07:42:30.999Z</time></trkpt><trkpt lat="44.91113428634433" lon="1.6600773968199662"><ele>190.99999999999997</ele><time>2026-05-02T07:42:32.999Z</time></trkpt><trkpt lat="44.91108963538553" lon="1.660212126641426"><ele>193.0</ele><time>2026-05-02T07:42:33.999Z</time></trkpt><trkpt lat="44.91104366431314" lon="1.66040898669229"><ele>196.0</ele><time>2026-05-02T07:42:34.999Z</time></trkpt><trkpt lat="44.91100690229376" lon="1.6605590287095755"><ele>199.0</ele><time>2026-05-02T07:42:35.999Z</time></trkpt><trkpt lat="44.91099202747283" lon="1.6607598113390811"><ele>202.0</ele><time>2026-05-02T07:42:36.999Z</time></trkpt><trkpt lat="44.9109560521076" lon="1.6609847717258754"><ele>205.0</ele><time>2026-05-02T07:42:37.999Z</time></trkpt><trkpt lat="44.9109408420474" lon="1.6611536429436846"><ele>206.75</ele><time>2026-05-02T07:42:38.999Z</time></trkpt><trkpt lat="44.91092007847596" lon="1.6613000524076271"><ele>208.5</ele><time>2026-05-02T07:42:39.999Z</time></trkpt><trkpt lat="44.91088389927784" lon="1.661465352984001"><ele>210.25</ele><time>2026-05-02T07:42:40.999Z</time></trkpt><trkpt lat="44.91082432488146" lon="1.6616679359644162"><ele>212.0</ele><time>2026-05-02T07:42:41.999Z</time></trkpt><trkpt lat="44.91075624069337" lon="1.6618738683722802"><ele>212.0</ele><time>2026-05-02T07:42:42.999Z</time></trkpt><trkpt lat="44.910693945625354" lon="1.662037983354774"><ele>212.0</ele><time>2026-05-02T07:42:43.999Z</time></trkpt><trkpt lat="44.91062394926862" lon="1.6621834825422397"><ele>212.0</ele><time>2026-05-02T07:42:44.999Z</time></trkpt><trkpt lat="44.910540623955626" lon="1.6623257006885992"><ele>212.0</ele><time>2026-05-02T07:42:45.999Z</time></trkpt><trkpt lat="44.91044573086679" lon="1.662477506139825"><ele>212.0</ele><time>2026-05-02T07:42:46.999Z</time></trkpt><trkpt lat="44.910347919671885" lon="1.6626188340596175"><ele>212.0</ele><time>2026-05-02T07:42:47.999Z</time></trkpt><trkpt lat="44.91025576451202" lon="1.6627463284477757"><ele>212.0</ele><time>2026-05-02T07:42:48.999Z</time></trkpt><trkpt lat="44.91017925403562" lon="1.662856323536049"><ele>212.0</ele><time>2026-05-02T07:42:49.999Z</time></trkpt><trkpt lat="44.91011989928255" lon="1.6629813040858714"><ele>209.39999999999998</ele><time>2026-05-02T07:42:50.999Z</time></trkpt><trkpt lat="44.91005977031623" lon="1.6630927653165604"><ele>206.79999999999998</ele><time>2026-05-02T07:42:51.999Z</time></trkpt><trkpt lat="44.910020174781124" lon="1.6632071750832773"><ele>204.2</ele><time>2026-05-02T07:42:52.999Z</time></trkpt><trkpt lat="44.9100068832663" lon="1.6633225841383994"><ele>201.6</ele><time>2026-05-02T07:42:53.999Z</time></trkpt><trkpt lat="44.91000537562778" lon="1.6634533441101282"><ele>199.0</ele><time>2026-05-02T07:42:54.999Z</time></trkpt><trkpt lat="44.91001646405757" lon="1.6636079759085731"><ele>202.66666666666666</ele><time>2026-05-02T07:42:55.999Z</time></trkpt><trkpt lat="44.9099993040505" lon="1.6637964015459192"><ele>206.33333333333331</ele><time>2026-05-02T07:42:56.999Z</time></trkpt><trkpt lat="44.90998295926103" lon="1.6640071861581103"><ele>210.0</ele><time>2026-05-02T07:42:57.999Z</time></trkpt><trkpt lat="44.909953177122595" lon="1.6642407762342475"><ele>210.0</ele><time>2026-05-02T07:42:58.999Z</time></trkpt><trkpt lat="44.90992083676061" lon="1.6644330064159816"><ele>210.0</ele><time>2026-05-02T07:42:59.999Z</time></trkpt><trkpt lat="44.90988415584885" lon="1.6646080620948087"><ele>210.0</ele><time>2026-05-02T07:43:00.999Z</time></trkpt><trkpt lat="44.90983394671308" lon="1.664794361289091"><ele>210.0</ele><time>2026-05-02T07:43:01.999Z</time></trkpt><trkpt lat="44.90976569766853" lon="1.6650220965095797"><ele>212.6</ele><time>2026-05-02T07:43:02.999Z</time></trkpt><trkpt lat="44.90971621223069" lon="1.6651802478017381"><ele>215.2</ele><time>2026-05-02T07:43:03.999Z</time></trkpt><trkpt lat="44.90968522334534" lon="1.665285981891645"><ele>217.8</ele><time>2026-05-02T07:43:04.999Z</time></trkpt><trkpt lat="44.90967661657729" lon="1.6653780226888943"><ele>220.4</ele><time>2026-05-02T07:43:05.999Z</time></trkpt><trkpt lat="44.90965752770348" lon="1.6654898535243239"><ele>223.0</ele><time>2026-05-02T07:43:06.999Z</time></trkpt><trkpt lat="44.90965120200742" lon="1.6656342160496942"><ele>226.5</ele><time>2026-05-02T07:43:07.999Z</time></trkpt><trkpt lat="44.909667452314785" lon="1.6658148378624669"><ele>230.0</ele><time>2026-05-02T07:43:08.999Z</time></trkpt><trkpt lat="44.9096893890821" lon="1.6659929097760826"><ele>233.5</ele><time>2026-05-02T07:43:09.999Z</time></trkpt><trkpt lat="44.909668377446984" lon="1.6661322017057416"><ele>237.0</ele><time>2026-05-02T07:43:10.999Z</time></trkpt><trkpt lat="44.90964522465934" lon="1.6662594730538864"><ele>239.0</ele><time>2026-05-02T07:43:11.999Z</time></trkpt><trkpt lat="44.90959525985313" lon="1.6663839283759105"><ele>241.0</ele><time>2026-05-02T07:43:12.999Z</time></trkpt><trkpt lat="44.9095327212785" lon="1.666494415075574"><ele>243.0</ele><time>2026-05-02T07:43:13.999Z</time></trkpt><trkpt lat="44.909442160115944" lon="1.6666219025390996"><ele>245.0</ele><time>2026-05-02T07:43:14.999Z</time></trkpt><trkpt lat="44.90935114883029" lon="1.6667207650340155"><ele>247.0</ele><time>2026-05-02T07:43:15.999Z</time></trkpt><trkpt lat="44.909251883386915" lon="1.6668163172134314"><ele>247.5</ele><time>2026-05-02T07:43:16.999Z</time></trkpt><trkpt lat="44.909134595518914" lon="1.666902291076245"><ele>248.0</ele><time>2026-05-02T07:43:17.999Z</time></trkpt><trkpt lat="44.90899720815061" lon="1.666985991870809"><ele>248.5</ele><time>2026-05-02T07:43:18.999Z</time></trkpt><trkpt lat="44.90889198931463" lon="1.6670666730617834"><ele>249.0</ele><time>2026-05-02T07:43:19.999Z</time></trkpt><trkpt lat="44.908800075307376" lon="1.667116687091699"><ele>249.0</ele><time>2026-05-02T07:43:21Z</time></trkpt><trkpt lat="44.908736368591725" lon="1.6671463527090262"><ele>249.0</ele><time>2026-05-02T07:43:22Z</time></trkpt><trkpt lat="44.90863400858784" lon="1.66718276129049"><ele>249.0</ele><time>2026-05-02T07:43:24Z</time></trkpt><trkpt lat="44.90856498489951" lon="1.6671571339283102"><ele>249.0</ele><time>2026-05-02T07:43:25Z</time></trkpt><trkpt lat="44.90850030045307" lon="1.6670830893108115"><ele>249.0</ele><time>2026-05-02T07:43:26Z</time></trkpt><trkpt lat="44.90850832288176" lon="1.6669356609154855"><ele>249.0</ele><time>2026-05-02T07:43:27Z</time></trkpt><trkpt lat="44.90852987689026" lon="1.6667933918940505"><ele>246.39999999999998</ele><time>2026-05-02T07:43:28Z</time></trkpt><trkpt lat="44.90854641909286" lon="1.666623686078957"><ele>243.79999999999998</ele><time>2026-05-02T07:43:29Z</time></trkpt><trkpt lat="44.908540638639984" lon="1.6664989507251877"><ele>241.20000000000002</ele><time>2026-05-02T07:43:30Z</time></trkpt><trkpt lat="44.9085446291506" lon="1.6663925087709572"><ele>238.60000000000002</ele><time>2026-05-02T07:43:31Z</time></trkpt><trkpt lat="44.90853915611916" lon="1.6662607499658604"><ele>236.0</ele><time>2026-05-02T07:43:32Z</time></trkpt><trkpt lat="44.90851707299565" lon="1.6661159401036805"><ele>237.0</ele><time>2026-05-02T07:43:33Z</time></trkpt><trkpt lat="44.908473819903655" lon="1.6659978631036012"><ele>238.00000000000003</ele><time>2026-05-02T07:43:34Z</time></trkpt><trkpt lat="44.908393168974456" lon="1.6659140098067295"><ele>239.00000000000003</ele><time>2026-05-02T07:43:35Z</time></trkpt><trkpt lat="44.90829283458424" lon="1.665834395989451"><ele>240.0</ele><time>2026-05-02T07:43:36Z</time></trkpt><trkpt lat="44.908183753702936" lon="1.6657834971961407"><ele>241.0</ele><time>2026-05-02T07:43:37Z</time></trkpt><trkpt lat="44.9080699317981" lon="1.665731828326115"><ele>241.0</ele><time>2026-05-02T07:43:38Z</time></trkpt><trkpt lat="44.90794036709282" lon="1.6657028234938573"><ele>241.0</ele><time>2026-05-02T07:43:39Z</time></trkpt><trkpt lat="44.90780241222654" lon="1.6656975736062045"><ele>241.0</ele><time>2026-05-02T07:43:40Z</time></trkpt><trkpt lat="44.90765058852211" lon="1.6657202722928397"><ele>241.0</ele><time>2026-05-02T07:43:41Z</time></trkpt><trkpt lat="44.907476758765405" lon="1.6657535415836995"><ele>242.75</ele><time>2026-05-02T07:43:42Z</time></trkpt><trkpt lat="44.90731383099826" lon="1.665785121272229"><ele>244.5</ele><time>2026-05-02T07:43:43Z</time></trkpt><trkpt lat="44.9071804665727" lon="1.665813375433378"><ele>246.25</ele><time>2026-05-02T07:43:44Z</time></trkpt><trkpt lat="44.90705187396238" lon="1.66586228359805"><ele>248.0</ele><time>2026-05-02T07:43:45Z</time></trkpt><trkpt lat="44.90692234762111" lon="1.6659280162357712"><ele>248.0</ele><time>2026-05-02T07:43:46Z</time></trkpt><trkpt lat="44.90678472101635" lon="1.6660098296761503"><ele>248.0</ele><time>2026-05-02T07:43:47Z</time></trkpt><trkpt lat="44.906651854473914" lon="1.6660862136786716"><ele>248.0</ele><time>2026-05-02T07:43:48Z</time></trkpt><trkpt lat="44.90654126493726" lon="1.6661538584820104"><ele>248.0</ele><time>2026-05-02T07:43:49Z</time></trkpt><trkpt lat="44.90644298120812" lon="1.6662306804754845"><ele>251.0</ele><time>2026-05-02T07:43:50Z</time></trkpt><trkpt lat="44.90633402034498" lon="1.6663428314582724"><ele>254.0</ele><time>2026-05-02T07:43:51Z</time></trkpt><trkpt lat="44.90623224006191" lon="1.6664814156681462"><ele>257.0</ele><time>2026-05-02T07:43:52Z</time></trkpt><trkpt lat="44.9061538152994" lon="1.6665971398175266"><ele>260.0</ele><time>2026-05-02T07:43:53Z</time></trkpt><trkpt lat="44.906089136084496" lon="1.6667140085695173"><ele>260.0</ele><time>2026-05-02T07:43:54Z</time></trkpt><trkpt lat="44.906054404098235" lon="1.6668582355803316"><ele>260.0</ele><time>2026-05-02T07:43:55Z</time></trkpt><trkpt lat="44.90602531429782" lon="1.6669905045297024"><ele>260.0</ele><time>2026-05-02T07:43:56Z</time></trkpt><trkpt lat="44.90603540524119" lon="1.6671190737599277"><ele>260.0</ele><time>2026-05-02T07:43:57Z</time></trkpt><trkpt lat="44.906073692641485" lon="1.6672489852855987"><ele>260.0</ele><time>2026-05-02T07:43:58Z</time></trkpt><trkpt lat="44.90613402513903" lon="1.667379307613817"><ele>261.0</ele><time>2026-05-02T07:43:59Z</time></trkpt><trkpt lat="44.90619294321488" lon="1.6675037485764108"><ele>262.0</ele><time>2026-05-02T07:44:00Z</time></trkpt><trkpt lat="44.90622638788917" lon="1.6676476726113"><ele>263.0</ele><time>2026-05-02T07:44:01Z</time></trkpt><trkpt lat="44.90625793159447" lon="1.6678090909869605"><ele>264.0</ele><time>2026-05-02T07:44:02Z</time></trkpt><trkpt lat="44.9062697860907" lon="1.6679941011447235"><ele>264.2</ele><time>2026-05-02T07:44:03Z</time></trkpt><trkpt lat="44.906274480113154" lon="1.668153649631377"><ele>264.4</ele><time>2026-05-02T07:44:04Z</time></trkpt><trkpt lat="44.9062539404664" lon="1.6682647871493546"><ele>264.6</ele><time>2026-05-02T07:44:05Z</time></trkpt><trkpt lat="44.906225157757085" lon="1.6683692590361852"><ele>264.8</ele><time>2026-05-02T07:44:06Z</time></trkpt><trkpt lat="44.906155899518076" lon="1.6684756123536386"><ele>265.0</ele><time>2026-05-02T07:44:07Z</time></trkpt><trkpt lat="44.90606386788218" lon="1.6685490735443824"><ele>265.0</ele><time>2026-05-02T07:44:08Z</time></trkpt><trkpt lat="44.90598634485616" lon="1.6685918046978923"><ele>265.0</ele><time>2026-05-02T07:44:09Z</time></trkpt><trkpt lat="44.905910212047466" lon="1.668607033239267"><ele>265.0</ele><time>2026-05-02T07:44:10Z</time></trkpt><trkpt lat="44.90581737898372" lon="1.6686029065366623"><ele>265.0</ele><time>2026-05-02T07:44:11Z</time></trkpt><trkpt lat="44.905705171079624" lon="1.668596075696892"><ele>265.0</ele><time>2026-05-02T07:44:12Z</time></trkpt><trkpt lat="44.9055943161928" lon="1.6686003068453277"><ele>268.0</ele><time>2026-05-02T07:44:13Z</time></trkpt><trkpt lat="44.90551100487698" lon="1.6686120837348173"><ele>271.0</ele><time>2026-05-02T07:44:14Z</time></trkpt><trkpt lat="44.90542248519334" lon="1.6686352321724927"><ele>274.0</ele><time>2026-05-02T07:44:15Z</time></trkpt><trkpt lat="44.905325184363214" lon="1.6686774034565746"><ele>277.0</ele><time>2026-05-02T07:44:15.999Z</time></trkpt><trkpt lat="44.90523851359306" lon="1.6687566189326288"><ele>280.0</ele><time>2026-05-02T07:44:16.999Z</time></trkpt><trkpt lat="44.905134108213886" lon="1.668824249342253"><ele>280.75</ele><time>2026-05-02T07:44:17.999Z</time></trkpt><trkpt lat="44.90501387398806" lon="1.6689175229354984"><ele>281.5</ele><time>2026-05-02T07:44:18.999Z</time></trkpt><trkpt lat="44.9048977147429" lon="1.6690113469265646"><ele>282.25</ele><time>2026-05-02T07:44:19.999Z</time></trkpt><trkpt lat="44.904800443630485" lon="1.6690983270987028"><ele>283.0</ele><time>2026-05-02T07:44:20.999Z</time></trkpt><trkpt lat="44.90470208494753" lon="1.6691978339338995"><ele>283.0</ele><time>2026-05-02T07:44:21.999Z</time></trkpt><trkpt lat="44.90457356098798" lon="1.6693290527713112"><ele>283.0</ele><time>2026-05-02T07:44:22.999Z</time></trkpt><trkpt lat="44.90441595138133" lon="1.6695121675911504"><ele>283.0</ele><time>2026-05-02T07:44:23.999Z</time></trkpt><trkpt lat="44.90422569684093" lon="1.6696895641901006"><ele>284.66666666666663</ele><time>2026-05-02T07:44:24.999Z</time></trkpt><trkpt lat="44.90406660004532" lon="1.6698584594745773"><ele>286.3333333333333</ele><time>2026-05-02T07:44:25.999Z</time></trkpt><trkpt lat="44.90392786272245" lon="1.670007585551661"><ele>288.0</ele><time>2026-05-02T07:44:26.999Z</time></trkpt><trkpt lat="44.90378084083893" lon="1.6701958880349999"><ele>290.0</ele><time>2026-05-02T07:44:27.999Z</time></trkpt><trkpt lat="44.90360556732704" lon="1.6703601095622895"><ele>292.0</ele><time>2026-05-02T07:44:28.999Z</time></trkpt><trkpt lat="44.90346196384618" lon="1.670514303004175"><ele>294.0</ele><time>2026-05-02T07:44:29.999Z</time></trkpt><trkpt lat="44.90332991134806" lon="1.670654850112828"><ele>294.0</ele><time>2026-05-02T07:44:30.999Z</time></trkpt><trkpt lat="44.90319575551302" lon="1.670805928008352"><ele>294.0</ele><time>2026-05-02T07:44:31.999Z</time></trkpt><trkpt lat="44.90305732144177" lon="1.670971476582635"><ele>294.0</ele><time>2026-05-02T07:44:32.999Z</time></trkpt><trkpt lat="44.90291480656725" lon="1.6711619327952354"><ele>293.6666666666667</ele><time>2026-05-02T07:44:33.999Z</time></trkpt><trkpt lat="44.902793337831" lon="1.671350252473663"><ele>293.33333333333337</ele><time>2026-05-02T07:44:34.999Z</time></trkpt><trkpt lat="44.90268128538553" lon="1.6715405247521007"><ele>293.0</ele><time>2026-05-02T07:44:35.999Z</time></trkpt><trkpt lat="44.90257714906644" lon="1.6717248248535368"><ele>293.0</ele><time>2026-05-02T07:44:36.999Z</time></trkpt><trkpt lat="44.90248300344375" lon="1.671886710685343"><ele>293.0</ele><time>2026-05-02T07:44:37.999Z</time></trkpt><trkpt lat="44.902380399266036" lon="1.6720552640347348"><ele>293.0</ele><time>2026-05-02T07:44:38.999Z</time></trkpt><trkpt lat="44.902251152058355" lon="1.6722253355353458"><ele>294.0</ele><time>2026-05-02T07:44:39.999Z</time></trkpt><trkpt lat="44.90211356017603" lon="1.6723797680748476"><ele>295.0</ele><time>2026-05-02T07:44:40.999Z</time></trkpt><trkpt lat="44.9019820498857" lon="1.6724983631847359"><ele>296.0</ele><time>2026-05-02T07:44:41.999Z</time></trkpt><trkpt lat="44.901842958006796" lon="1.6726077995519941"><ele>296.0</ele><time>2026-05-02T07:44:42.999Z</time></trkpt><trkpt lat="44.901694941856015" lon="1.6727279474111976"><ele>296.0</ele><time>2026-05-02T07:44:43.999Z</time></trkpt><trkpt lat="44.901541621062904" lon="1.67285989257407"><ele>296.0</ele><time>2026-05-02T07:44:44.999Z</time></trkpt><trkpt lat="44.90139389085331" lon="1.6729876776127621"><ele>295.33333333333337</ele><time>2026-05-02T07:44:45.999Z</time></trkpt><trkpt lat="44.90126109605754" lon="1.6731082766847583"><ele>294.6666666666667</ele><time>2026-05-02T07:44:46.999Z</time></trkpt><trkpt lat="44.90112991772006" lon="1.6732249519295284"><ele>294.0</ele><time>2026-05-02T07:44:47.999Z</time></trkpt><trkpt lat="44.901001400121515" lon="1.6733351732718347"><ele>295.5</ele><time>2026-05-02T07:44:48.999Z</time></trkpt><trkpt lat="44.90086720068221" lon="1.6734454326159058"><ele>297.0</ele><time>2026-05-02T07:44:49.999Z</time></trkpt><trkpt lat="44.90073510072088" lon="1.6735665246268312"><ele>298.5</ele><time>2026-05-02T07:44:50.999Z</time></trkpt><trkpt lat="44.90061822197704" lon="1.6736636626552701"><ele>300.0</ele><time>2026-05-02T07:44:51.999Z</time></trkpt><trkpt lat="44.90051096691157" lon="1.6737617955394883"><ele>300.0</ele><time>2026-05-02T07:44:52.999Z</time></trkpt><trkpt lat="44.90040088094201" lon="1.6738843692201246"><ele>300.0</ele><time>2026-05-02T07:44:53.999Z</time></trkpt><trkpt lat="44.90029137317155" lon="1.6740406607195677"><ele>300.0</ele><time>2026-05-02T07:44:54.999Z</time></trkpt><trkpt lat="44.9001953794273" lon="1.6742302516635799"><ele>300.0</ele><time>2026-05-02T07:44:55.999Z</time></trkpt><trkpt lat="44.90011665731548" lon="1.6744079495868107"><ele>300.0</ele><time>2026-05-02T07:44:56.999Z</time></trkpt><trkpt lat="44.90006000936699" lon="1.6745799354816246"><ele>300.0</ele><time>2026-05-02T07:44:57.999Z</time></trkpt><trkpt lat="44.90000105190204" lon="1.6747352389504961"><ele>300.0</ele><time>2026-05-02T07:44:58.999Z</time></trkpt><trkpt lat="44.8999458538674" lon="1.6748805324024347"><ele>302.0</ele><time>2026-05-02T07:44:59.999Z</time></trkpt><trkpt lat="44.89989979170532" lon="1.6750584972537015"><ele>304.0</ele><time>2026-05-02T07:45:00.999Z</time></trkpt><trkpt lat="44.89986168709852" lon="1.6752955903684583"><ele>306.0</ele><time>2026-05-02T07:45:01.999Z</time></trkpt><trkpt lat="44.89984719010563" lon="1.6755226047271112"><ele>306.25</ele><time>2026-05-02T07:45:02.999Z</time></trkpt><trkpt lat="44.8998339771853" lon="1.6757183535906173"><ele>306.5</ele><time>2026-05-02T07:45:03.999Z</time></trkpt><trkpt lat="44.89980142818362" lon="1.6758742131027684"><ele>306.75</ele><time>2026-05-02T07:45:04.999Z</time></trkpt><trkpt lat="44.89978183041549" lon="1.6760335913311593"><ele>307.0</ele><time>2026-05-02T07:45:05.999Z</time></trkpt><trkpt lat="44.89975020148831" lon="1.6762133140928106"><ele>307.66666666666663</ele><time>2026-05-02T07:45:06.999Z</time></trkpt><trkpt lat="44.899672224640454" lon="1.6763959001624407"><ele>308.3333333333333</ele><time>2026-05-02T07:45:07.999Z</time></trkpt><trkpt lat="44.89957466936094" lon="1.6765889333746715"><ele>309.0</ele><time>2026-05-02T07:45:08.999Z</time></trkpt><trkpt lat="44.89946331771865" lon="1.6768007928062905"><ele>310.3333333333333</ele><time>2026-05-02T07:45:09.999Z</time></trkpt><trkpt lat="44.89932056080575" lon="1.6770003122391979"><ele>311.66666666666663</ele><time>2026-05-02T07:45:10.999Z</time></trkpt><trkpt lat="44.8992093214503" lon="1.6771713752771953"><ele>313.0</ele><time>2026-05-02T07:45:11.999Z</time></trkpt><trkpt lat="44.899102089677484" lon="1.6773425231707122"><ele>313.0</ele><time>2026-05-02T07:45:12.999Z</time></trkpt><trkpt lat="44.898992249487826" lon="1.6775277525391334"><ele>313.0</ele><time>2026-05-02T07:45:13.999Z</time></trkpt><trkpt lat="44.89887799895726" lon="1.6777095817947398"><ele>313.0</ele><time>2026-05-02T07:45:14.999Z</time></trkpt><trkpt lat="44.89874824904958" lon="1.677893229037562"><ele>313.3333333333333</ele><time>2026-05-02T07:45:15.999Z</time></trkpt><trkpt lat="44.8986159613007" lon="1.6780577869069964"><ele>313.6666666666667</ele><time>2026-05-02T07:45:16.999Z</time></trkpt><trkpt lat="44.8984759516657" lon="1.6782115644409796"><ele>314.0</ele><time>2026-05-02T07:45:17.999Z</time></trkpt><trkpt lat="44.8983362871585" lon="1.6783782228658848"><ele>314.0</ele><time>2026-05-02T07:45:18.999Z</time></trkpt><trkpt lat="44.89819544450222" lon="1.6785539605694408"><ele>314.0</ele><time>2026-05-02T07:45:19.999Z</time></trkpt><trkpt lat="44.89805055396638" lon="1.6787407835261874"><ele>314.0</ele><time>2026-05-02T07:45:20.999Z</time></trkpt><trkpt lat="44.897906503094916" lon="1.6789416595071278"><ele>316.0</ele><time>2026-05-02T07:45:21.999Z</time></trkpt><trkpt lat="44.897777276694185" lon="1.6791388709929513"><ele>318.0</ele><time>2026-05-02T07:45:22.999Z</time></trkpt><trkpt lat="44.89766945192127" lon="1.679320331752096"><ele>320.0</ele><time>2026-05-02T07:45:23.999Z</time></trkpt><trkpt lat="44.897575393742706" lon="1.6794792816372952"><ele>320.33333333333337</ele><time>2026-05-02T07:45:24.999Z</time></trkpt><trkpt lat="44.897461231449704" lon="1.6796522238156106"><ele>320.6666666666667</ele><time>2026-05-02T07:45:25.999Z</time></trkpt><trkpt lat="44.89733306646189" lon="1.6797952842813788"><ele>321.0</ele><time>2026-05-02T07:45:27Z</time></trkpt><trkpt lat="44.89719709698107" lon="1.6799417435341357"><ele>321.0</ele><time>2026-05-02T07:45:28Z</time></trkpt><trkpt lat="44.897049621392576" lon="1.6800863416216265"><ele>321.0</ele><time>2026-05-02T07:45:29Z</time></trkpt><trkpt lat="44.89691927966375" lon="1.6802070967771887"><ele>321.0</ele><time>2026-05-02T07:45:30Z</time></trkpt><trkpt lat="44.896796999795" lon="1.6803020276716987"><ele>322.25</ele><time>2026-05-02T07:45:31Z</time></trkpt><trkpt lat="44.89668193163067" lon="1.680355605088276"><ele>323.5</ele><time>2026-05-02T07:45:32Z</time></trkpt><trkpt lat="44.89654816169038" lon="1.6803996111686015"><ele>324.75</ele><time>2026-05-02T07:45:33Z</time></trkpt><trkpt lat="44.89639399462649" lon="1.6804354482425898"><ele>326.0</ele><time>2026-05-02T07:45:34Z</time></trkpt><trkpt lat="44.8962379110102" lon="1.6804776222049864"><ele>326.0</ele><time>2026-05-02T07:45:35Z</time></trkpt><trkpt lat="44.89606658721497" lon="1.6805072598569124"><ele>326.0</ele><time>2026-05-02T07:45:36Z</time></trkpt><trkpt lat="44.89588870538145" lon="1.6805292767268871"><ele>326.0</ele><time>2026-05-02T07:45:37Z</time></trkpt><trkpt lat="44.89571449647367" lon="1.6805478833080936"><ele>327.0</ele><time>2026-05-02T07:45:38Z</time></trkpt><trkpt lat="44.895558395808614" lon="1.6805769873077483"><ele>328.0</ele><time>2026-05-02T07:45:39Z</time></trkpt><trkpt lat="44.89540075525174" lon="1.6806382716807327"><ele>329.0</ele><time>2026-05-02T07:45:40Z</time></trkpt><trkpt lat="44.895243168728676" lon="1.6807326286652646"><ele>328.6666666666667</ele><time>2026-05-02T07:45:41Z</time></trkpt><trkpt lat="44.89507785752777" lon="1.6808092317405123"><ele>328.3333333333333</ele><time>2026-05-02T07:45:42Z</time></trkpt><trkpt lat="44.894914166956596" lon="1.6809288983057162"><ele>328.0</ele><time>2026-05-02T07:45:43Z</time></trkpt><trkpt lat="44.89474512664363" lon="1.6810244249949882"><ele>329.66666666666663</ele><time>2026-05-02T07:45:44Z</time></trkpt><trkpt lat="44.89457576097747" lon="1.6811257116644465"><ele>331.3333333333333</ele><time>2026-05-02T07:45:45Z</time></trkpt><trkpt lat="44.894433519097554" lon="1.6812480120211193"><ele>333.0</ele><time>2026-05-02T07:45:46Z</time></trkpt><trkpt lat="44.894294263933645" lon="1.6813602256311555"><ele>331.3333333333333</ele><time>2026-05-02T07:45:47Z</time></trkpt><trkpt lat="44.89417927855731" lon="1.6814815305328936"><ele>329.66666666666663</ele><time>2026-05-02T07:45:48Z</time></trkpt><trkpt lat="44.89407548769663" lon="1.6816406834831061"><ele>328.0</ele><time>2026-05-02T07:45:49Z</time></trkpt><trkpt lat="44.893944867874175" lon="1.6818092678470489"><ele>329.3333333333333</ele><time>2026-05-02T07:45:50Z</time></trkpt><trkpt lat="44.893816314728326" lon="1.6819909793730625"><ele>330.6666666666667</ele><time>2026-05-02T07:45:51Z</time></trkpt><trkpt lat="44.89368413830768" lon="1.6821596091506095"><ele>332.0</ele><time>2026-05-02T07:45:52Z</time></trkpt><trkpt lat="44.89355747948645" lon="1.682305838021509"><ele>332.0</ele><time>2026-05-02T07:45:53Z</time></trkpt><trkpt lat="44.8934358067775" lon="1.6824386072112416"><ele>332.0</ele><time>2026-05-02T07:45:54Z</time></trkpt><trkpt lat="44.893312935155826" lon="1.6825577478664944"><ele>332.0</ele><time>2026-05-02T07:45:55Z</time></trkpt><trkpt lat="44.89317313116506" lon="1.6826594147664693"><ele>331.33333333333337</ele><time>2026-05-02T07:45:56Z</time></trkpt><trkpt lat="44.89301473119394" lon="1.6827490143797006"><ele>330.6666666666667</ele><time>2026-05-02T07:45:57Z</time></trkpt><trkpt lat="44.892850744294336" lon="1.6828400779518573"><ele>330.0</ele><time>2026-05-02T07:45:58Z</time></trkpt><trkpt lat="44.89268410809516" lon="1.6829365759489587"><ele>329.6666666666667</ele><time>2026-05-02T07:45:59Z</time></trkpt><trkpt lat="44.89251177164449" lon="1.683036800718932"><ele>329.33333333333337</ele><time>2026-05-02T07:46:00Z</time></trkpt><trkpt lat="44.89234202763877" lon="1.6831378215915749"><ele>329.0</ele><time>2026-05-02T07:46:01Z</time></trkpt><trkpt lat="44.89218512370647" lon="1.6832304302408265"><ele>329.0</ele><time>2026-05-02T07:46:02Z</time></trkpt><trkpt lat="44.89202548964198" lon="1.6833205331389"><ele>329.0</ele><time>2026-05-02T07:46:03Z</time></trkpt><trkpt lat="44.89186224401127" lon="1.6834263611911757"><ele>329.0</ele><time>2026-05-02T07:46:04Z</time></trkpt><trkpt lat="44.89169125184425" lon="1.6835336605791396"><ele>327.33333333333337</ele><time>2026-05-02T07:46:05Z</time></trkpt><trkpt lat="44.89152409275934" lon="1.6836474434987339"><ele>325.6666666666667</ele><time>2026-05-02T07:46:06Z</time></trkpt><trkpt lat="44.891357731929105" lon="1.6837616811398985"><ele>324.0</ele><time>2026-05-02T07:46:07Z</time></trkpt><trkpt lat="44.891204083324276" lon="1.6838620629832632"><ele>324.0</ele><time>2026-05-02T07:46:08Z</time></trkpt><trkpt lat="44.89104712584884" lon="1.68395757696751"><ele>324.0</ele><time>2026-05-02T07:46:09Z</time></trkpt><trkpt lat="44.890881293170395" lon="1.6840574421342"><ele>324.0</ele><time>2026-05-02T07:46:10Z</time></trkpt><trkpt lat="44.89071643407912" lon="1.6841567207336003"><ele>323.6666666666667</ele><time>2026-05-02T07:46:11Z</time></trkpt><trkpt lat="44.8905629736114" lon="1.6842491396600296"><ele>323.33333333333337</ele><time>2026-05-02T07:46:12Z</time></trkpt><trkpt lat="44.890409244977725" lon="1.6843374664177015"><ele>323.0</ele><time>2026-05-02T07:46:13Z</time></trkpt><trkpt lat="44.89026585679352" lon="1.6844198518289473"><ele>322.25</ele><time>2026-05-02T07:46:14Z</time></trkpt><trkpt lat="44.89012386021243" lon="1.684495369853065"><ele>321.5</ele><time>2026-05-02T07:46:15Z</time></trkpt><trkpt lat="44.88998867585319" lon="1.684564553536833"><ele>320.75</ele><time>2026-05-02T07:46:16Z</time></trkpt><trkpt lat="44.88987045920912" lon="1.6846299104097056"><ele>320.0</ele><time>2026-05-02T07:46:17Z</time></trkpt><trkpt lat="44.8897793648968" lon="1.6847054304456603"><ele>320.0</ele><time>2026-05-02T07:46:18Z</time></trkpt><trkpt lat="44.88969350049529" lon="1.6848009419693795"><ele>320.0</ele><time>2026-05-02T07:46:19Z</time></trkpt><trkpt lat="44.889604836442864" lon="1.6849601368898977"><ele>320.0</ele><time>2026-05-02T07:46:20Z</time></trkpt><trkpt lat="44.8895047213081" lon="1.685173549255656"><ele>320.0</ele><time>2026-05-02T07:46:21Z</time></trkpt><trkpt lat="44.88939585041864" lon="1.6853928933720452"><ele>320.0</ele><time>2026-05-02T07:46:22Z</time></trkpt><trkpt lat="44.88931540923563" lon="1.685578186422808"><ele>320.0</ele><time>2026-05-02T07:46:23Z</time></trkpt><trkpt lat="44.88923666194831" lon="1.685758453943133"><ele>320.0</ele><time>2026-05-02T07:46:24Z</time></trkpt><trkpt lat="44.889154999184186" lon="1.6859378089942867"><ele>318.6666666666667</ele><time>2026-05-02T07:46:25Z</time></trkpt><trkpt lat="44.88907088593498" lon="1.6861302151830109"><ele>317.3333333333333</ele><time>2026-05-02T07:46:26Z</time></trkpt><trkpt lat="44.88898195917169" lon="1.6863384916445054"><ele>316.0</ele><time>2026-05-02T07:46:26.999Z</time></trkpt><trkpt lat="44.88890600433253" lon="1.686562536870178"><ele>316.0</ele><time>2026-05-02T07:46:27.999Z</time></trkpt><trkpt lat="44.8888731489568" lon="1.6867839496753319"><ele>316.0</ele><time>2026-05-02T07:46:28.999Z</time></trkpt><trkpt lat="44.888843322479026" lon="1.6870176404776835"><ele>316.0</ele><time>2026-05-02T07:46:29.999Z</time></trkpt><trkpt lat="44.88880697464415" lon="1.6872670154099796"><ele>316.3333333333333</ele><time>2026-05-02T07:46:30.999Z</time></trkpt><trkpt lat="44.888786136995066" lon="1.6875393847523548"><ele>316.6666666666667</ele><time>2026-05-02T07:46:31.999Z</time></trkpt><trkpt lat="44.88876734760425" lon="1.6878137921376677"><ele>317.0</ele><time>2026-05-02T07:46:32.999Z</time></trkpt><trkpt lat="44.88874838580983" lon="1.6881027699809545"><ele>317.6666666666667</ele><time>2026-05-02T07:46:33.999Z</time></trkpt><trkpt lat="44.88872653867352" lon="1.6884094076424547"><ele>318.3333333333333</ele><time>2026-05-02T07:46:34.999Z</time></trkpt><trkpt lat="44.8887039698529" lon="1.6887261746649331"><ele>319.0</ele><time>2026-05-02T07:46:35.999Z</time></trkpt><trkpt lat="44.88868022581705" lon="1.6890656130672146"><ele>319.0</ele><time>2026-05-02T07:46:36.999Z</time></trkpt><trkpt lat="44.88865641597027" lon="1.689423497907759"><ele>319.0</ele><time>2026-05-02T07:46:37.999Z</time></trkpt><trkpt lat="44.888631503622" lon="1.6897526816999984"><ele>318.3333333333333</ele><time>2026-05-02T07:46:38.999Z</time></trkpt><trkpt lat="44.888610189095054" lon="1.6900304249512437"><ele>317.6666666666667</ele><time>2026-05-02T07:46:39.999Z</time></trkpt><trkpt lat="44.88859164150672" lon="1.690292702973182"><ele>317.0</ele><time>2026-05-02T07:46:40.999Z</time></trkpt><trkpt lat="44.888570210690695" lon="1.690552892597793"><ele>316.6666666666667</ele><time>2026-05-02T07:46:41.999Z</time></trkpt><trkpt lat="44.88853558112012" lon="1.690819317597223"><ele>316.3333333333333</ele><time>2026-05-02T07:46:42.999Z</time></trkpt><trkpt lat="44.88849076347441" lon="1.6910691249760579"><ele>316.0</ele><time>2026-05-02T07:46:43.999Z</time></trkpt><trkpt lat="44.888431051871315" lon="1.6913142391374627"><ele>314.0</ele><time>2026-05-02T07:46:44.999Z</time></trkpt><trkpt lat="44.888353555177595" lon="1.6915707346652256"><ele>312.0</ele><time>2026-05-02T07:46:45.999Z</time></trkpt><trkpt lat="44.88826855582969" lon="1.6918050044535888"><ele>310.0</ele><time>2026-05-02T07:46:46.999Z</time></trkpt><trkpt lat="44.88817876727325" lon="1.6920199742298228"><ele>310.0</ele><time>2026-05-02T07:46:47.999Z</time></trkpt><trkpt lat="44.88808631826851" lon="1.6922170345840812"><ele>310.0</ele><time>2026-05-02T07:46:48.999Z</time></trkpt><trkpt lat="44.887985744020995" lon="1.6923979081342806"><ele>310.0</ele><time>2026-05-02T07:46:49.999Z</time></trkpt><trkpt lat="44.887860577180234" lon="1.6925972542238727"><ele>310.0</ele><time>2026-05-02T07:46:50.999Z</time></trkpt><trkpt lat="44.8877209738355" lon="1.6928066456692459"><ele>310.0</ele><time>2026-05-02T07:46:51.999Z</time></trkpt><trkpt lat="44.88758885601732" lon="1.6929949992015314"><ele>310.0</ele><time>2026-05-02T07:46:52.999Z</time></trkpt><trkpt lat="44.88747182166308" lon="1.6931818994991796"><ele>307.66666666666663</ele><time>2026-05-02T07:46:53.999Z</time></trkpt><trkpt lat="44.88736085026817" lon="1.6933796273427382"><ele>305.3333333333333</ele><time>2026-05-02T07:46:54.999Z</time></trkpt><trkpt lat="44.887248758012696" lon="1.6935999626161673"><ele>303.0</ele><time>2026-05-02T07:46:55.999Z</time></trkpt><trkpt lat="44.88713578301398" lon="1.693839153403532"><ele>303.0</ele><time>2026-05-02T07:46:56.999Z</time></trkpt><trkpt lat="44.88701833942486" lon="1.694101138560401"><ele>303.0</ele><time>2026-05-02T07:46:57.999Z</time></trkpt><trkpt lat="44.88691091504522" lon="1.694360459690585"><ele>303.0</ele><time>2026-05-02T07:46:58.999Z</time></trkpt><trkpt lat="44.88682364583219" lon="1.6945948891302012"><ele>299.6666666666667</ele><time>2026-05-02T07:46:59.999Z</time></trkpt><trkpt lat="44.886742438867124" lon="1.6948159255373048"><ele>296.33333333333337</ele><time>2026-05-02T07:47:00.999Z</time></trkpt><trkpt lat="44.886656283408925" lon="1.6950160930940044"><ele>293.0</ele><time>2026-05-02T07:47:01.999Z</time></trkpt><trkpt lat="44.886557429009635" lon="1.695214063526755"><ele>293.0</ele><time>2026-05-02T07:47:02.999Z</time></trkpt><trkpt lat="44.88642844801996" lon="1.6953996240113696"><ele>293.0</ele><time>2026-05-02T07:47:03.999Z</time></trkpt><trkpt lat="44.886280076999896" lon="1.6955993070904798"><ele>293.0</ele><time>2026-05-02T07:47:04.999Z</time></trkpt><trkpt lat="44.88612438874382" lon="1.6957947013052634"><ele>293.0</ele><time>2026-05-02T07:47:05.999Z</time></trkpt><trkpt lat="44.885987752317895" lon="1.6959393573697812"><ele>293.0</ele><time>2026-05-02T07:47:06.999Z</time></trkpt><trkpt lat="44.885845014188064" lon="1.6960528480343011"><ele>293.0</ele><time>2026-05-02T07:47:07.999Z</time></trkpt><trkpt lat="44.88566885476641" lon="1.696154373957703"><ele>290.0</ele><time>2026-05-02T07:47:08.999Z</time></trkpt><trkpt lat="44.88545661432746" lon="1.6962720147108137"><ele>287.0</ele><time>2026-05-02T07:47:09.999Z</time></trkpt><trkpt lat="44.885248422637844" lon="1.6963790219344086"><ele>286.0</ele><time>2026-05-02T07:47:10.999Z</time></trkpt><trkpt lat="44.88507256072607" lon="1.696471632664796"><ele>285.0</ele><time>2026-05-02T07:47:11.999Z</time></trkpt><trkpt lat="44.88491472774384" lon="1.6965669759300965"><ele>284.0</ele><time>2026-05-02T07:47:12.999Z</time></trkpt><trkpt lat="44.884741522084106" lon="1.6966911325196758"><ele>284.0</ele><time>2026-05-02T07:47:13.999Z</time></trkpt><trkpt lat="44.88458275450505" lon="1.6968165563404545"><ele>284.0</ele><time>2026-05-02T07:47:14.999Z</time></trkpt><trkpt lat="44.884443162987274" lon="1.6969424352951232"><ele>284.0</ele><time>2026-05-02T07:47:15.999Z</time></trkpt><trkpt lat="44.88430211262366" lon="1.6970939203751085"><ele>283.33333333333337</ele><time>2026-05-02T07:47:16.999Z</time></trkpt><trkpt lat="44.88415416009442" lon="1.6972798098349309"><ele>282.6666666666667</ele><time>2026-05-02T07:47:17.999Z</time></trkpt><trkpt lat="44.884019557645374" lon="1.697459937374361"><ele>282.0</ele><time>2026-05-02T07:47:18.999Z</time></trkpt><trkpt lat="44.88390126758208" lon="1.6976152876687036"><ele>282.0</ele><time>2026-05-02T07:47:19.999Z</time></trkpt><trkpt lat="44.88380423037702" lon="1.6977456956633985"><ele>282.0</ele><time>2026-05-02T07:47:20.999Z</time></trkpt><trkpt lat="44.883721795779124" lon="1.6978600832474535"><ele>282.0</ele><time>2026-05-02T07:47:21.999Z</time></trkpt><trkpt lat="44.88365974935841" lon="1.6979365599290597"><ele>282.0</ele><time>2026-05-02T07:47:22.999Z</time></trkpt><trkpt lat="44.88359668004056" lon="1.697999385367935"><ele>282.0</ele><time>2026-05-02T07:47:23.999Z</time></trkpt><trkpt lat="44.88351477303656" lon="1.6980646083520232"><ele>281.5</ele><time>2026-05-02T07:47:24.999Z</time></trkpt><trkpt lat="44.8834174632994" lon="1.698044719362777"><ele>281.0</ele><time>2026-05-02T07:47:25.999Z</time></trkpt><trkpt lat="44.88330288021634" lon="1.698000089813081"><ele>280.5</ele><time>2026-05-02T07:47:26.999Z</time></trkpt><trkpt lat="44.883165884575696" lon="1.6979334810489402"><ele>280.0</ele><time>2026-05-02T07:47:27.999Z</time></trkpt><trkpt lat="44.88301165052946" lon="1.6978429499250318"><ele>280.3333333333333</ele><time>2026-05-02T07:47:28.999Z</time></trkpt><trkpt lat="44.88286026996389" lon="1.6977483151700488"><ele>280.6666666666667</ele><time>2026-05-02T07:47:29.999Z</time></trkpt><trkpt lat="44.88271947855549" lon="1.6976895475647922"><ele>281.0</ele><time>2026-05-02T07:47:30.999Z</time></trkpt><trkpt lat="44.88257873767164" lon="1.6975949882133337"><ele>281.0</ele><time>2026-05-02T07:47:31.999Z</time></trkpt><trkpt lat="44.88242202632469" lon="1.6974926289739454"><ele>281.0</ele><time>2026-05-02T07:47:33Z</time></trkpt><trkpt lat="44.88226494786167" lon="1.6973611441552163"><ele>281.0</ele><time>2026-05-02T07:47:34Z</time></trkpt><trkpt lat="44.882082824574546" lon="1.6972374024211077"><ele>281.0</ele><time>2026-05-02T07:47:35Z</time></trkpt><trkpt lat="44.88187683397155" lon="1.6971011437061279"><ele>281.0</ele><time>2026-05-02T07:47:36Z</time></trkpt><trkpt lat="44.88168556996075" lon="1.6969747533297246"><ele>281.0</ele><time>2026-05-02T07:47:37Z</time></trkpt><trkpt lat="44.881511952715776" lon="1.6968575044046146"><ele>279.6666666666667</ele><time>2026-05-02T07:47:38Z</time></trkpt><trkpt lat="44.881339882670545" lon="1.696744274932595"><ele>278.3333333333333</ele><time>2026-05-02T07:47:39Z</time></trkpt><trkpt lat="44.88116865669455" lon="1.696630530677137"><ele>277.0</ele><time>2026-05-02T07:47:40Z</time></trkpt><trkpt lat="44.88100328866313" lon="1.6965192752143756"><ele>275.0</ele><time>2026-05-02T07:47:41Z</time></trkpt><trkpt lat="44.88083734716562" lon="1.6964076321817985"><ele>273.0</ele><time>2026-05-02T07:47:42Z</time></trkpt><trkpt lat="44.880661635012935" lon="1.6962864318224071"><ele>271.0</ele><time>2026-05-02T07:47:43Z</time></trkpt><trkpt lat="44.88048165648281" lon="1.6961616852224966"><ele>271.0</ele><time>2026-05-02T07:47:44Z</time></trkpt><trkpt lat="44.88032052195589" lon="1.6960435819400574"><ele>271.0</ele><time>2026-05-02T07:47:45Z</time></trkpt><trkpt lat="44.880163708488624" lon="1.6959241672155727"><ele>271.0</ele><time>2026-05-02T07:47:46Z</time></trkpt><trkpt lat="44.880008944433484" lon="1.6958063131311745"><ele>271.0</ele><time>2026-05-02T07:47:47Z</time></trkpt><trkpt lat="44.87987526755026" lon="1.6957073079630542"><ele>271.0</ele><time>2026-05-02T07:47:48Z</time></trkpt><trkpt lat="44.87975596248134" lon="1.6956272757315074"><ele>271.0</ele><time>2026-05-02T07:47:49Z</time></trkpt><trkpt lat="44.87964787106291" lon="1.6956082814156865"><ele>271.0</ele><time>2026-05-02T07:47:50Z</time></trkpt><trkpt lat="44.879550003782825" lon="1.6956009667419576"><ele>271.0</ele><time>2026-05-02T07:47:51Z</time></trkpt><trkpt lat="44.87943320946136" lon="1.6956455680267113"><ele>271.0</ele><time>2026-05-02T07:47:52Z</time></trkpt><trkpt lat="44.87931700148824" lon="1.6957538284628726"><ele>271.0</ele><time>2026-05-02T07:47:53Z</time></trkpt><trkpt lat="44.87917497234791" lon="1.6958708330010837"><ele>271.0</ele><time>2026-05-02T07:47:54Z</time></trkpt><trkpt lat="44.87906334530274" lon="1.6960322274649218"><ele>271.25</ele><time>2026-05-02T07:47:55Z</time></trkpt><trkpt lat="44.878979285791424" lon="1.6961795829767605"><ele>271.5</ele><time>2026-05-02T07:47:56Z</time></trkpt><trkpt lat="44.878905585159735" lon="1.6963512440345374"><ele>271.75</ele><time>2026-05-02T07:47:57Z</time></trkpt><trkpt lat="44.87881888542551" lon="1.6965067222231764"><ele>272.0</ele><time>2026-05-02T07:47:58Z</time></trkpt><trkpt lat="44.87873628556965" lon="1.6966390006471574"><ele>272.0</ele><time>2026-05-02T07:47:59Z</time></trkpt><trkpt lat="44.878647724151136" lon="1.6967405512003342"><ele>272.0</ele><time>2026-05-02T07:48:00Z</time></trkpt><trkpt lat="44.8785442564081" lon="1.6968011602089228"><ele>272.0</ele><time>2026-05-02T07:48:01Z</time></trkpt><trkpt lat="44.87841961624563" lon="1.6968726505473128"><ele>272.0</ele><time>2026-05-02T07:48:02Z</time></trkpt><trkpt lat="44.87828123001187" lon="1.6969558074189455"><ele>272.6666666666667</ele><time>2026-05-02T07:48:03Z</time></trkpt><trkpt lat="44.87813619072033" lon="1.697049941024378"><ele>273.3333333333333</ele><time>2026-05-02T07:48:04Z</time></trkpt><trkpt lat="44.87797000783891" lon="1.6971623404970044"><ele>274.0</ele><time>2026-05-02T07:48:05Z</time></trkpt><trkpt lat="44.877835571913366" lon="1.697258580651244"><ele>274.0</ele><time>2026-05-02T07:48:06Z</time></trkpt><trkpt lat="44.877708056007506" lon="1.6973577011811312"><ele>274.0</ele><time>2026-05-02T07:48:07Z</time></trkpt><trkpt lat="44.87758119888932" lon="1.6974742334650879"><ele>274.0</ele><time>2026-05-02T07:48:08Z</time></trkpt><trkpt lat="44.877454284873004" lon="1.6976135680284123"><ele>275.0</ele><time>2026-05-02T07:48:09Z</time></trkpt><trkpt lat="44.877320395967566" lon="1.6977601999509537"><ele>276.0</ele><time>2026-05-02T07:48:10Z</time></trkpt><trkpt lat="44.8772269398538" lon="1.6979175821896546"><ele>277.0</ele><time>2026-05-02T07:48:11Z</time></trkpt><trkpt lat="44.87715341080697" lon="1.6981021138079877"><ele>277.0</ele><time>2026-05-02T07:48:12Z</time></trkpt><trkpt lat="44.87710838482838" lon="1.6982696417606666"><ele>277.0</ele><time>2026-05-02T07:48:13Z</time></trkpt><trkpt lat="44.87708488992075" lon="1.6983524853386047"><ele>277.0</ele><time>2026-05-02T07:48:14Z</time></trkpt><trkpt lat="44.87702957018545" lon="1.698475256290874"><ele>277.0</ele><time>2026-05-02T07:48:16Z</time></trkpt><trkpt lat="44.87697601970244" lon="1.698605635979528"><ele>277.0</ele><time>2026-05-02T07:48:17.999Z</time></trkpt><trkpt lat="44.876941167848706" lon="1.6986857141500686"><ele>277.4</ele><time>2026-05-02T07:48:18.999Z</time></trkpt><trkpt lat="44.87688805624453" lon="1.6987796291753063"><ele>277.79999999999995</ele><time>2026-05-02T07:48:19.999Z</time></trkpt><trkpt lat="44.87680125692453" lon="1.6988876392491843"><ele>278.2</ele><time>2026-05-02T07:48:20.999Z</time></trkpt><trkpt lat="44.87670513303446" lon="1.6989983379582498"><ele>278.59999999999997</ele><time>2026-05-02T07:48:21.999Z</time></trkpt><trkpt lat="44.87664164332819" lon="1.6991068761378691"><ele>279.0</ele><time>2026-05-02T07:48:22.999Z</time></trkpt><trkpt lat="44.87658254581049" lon="1.6992090064584227"><ele>279.25</ele><time>2026-05-02T07:48:23.999Z</time></trkpt><trkpt lat="44.876532603625705" lon="1.699358534558062"><ele>279.5</ele><time>2026-05-02T07:48:24.999Z</time></trkpt><trkpt lat="44.87648966360249" lon="1.6995449469492914"><ele>279.75</ele><time>2026-05-02T07:48:25.999Z</time></trkpt><trkpt lat="44.87644833312689" lon="1.6996858873162057"><ele>280.0</ele><time>2026-05-02T07:48:26.999Z</time></trkpt><trkpt lat="44.87639867706561" lon="1.6998135928629248"><ele>280.0</ele><time>2026-05-02T07:48:27.999Z</time></trkpt><trkpt lat="44.8763426400677" lon="1.6999482286595686"><ele>280.0</ele><time>2026-05-02T07:48:28.999Z</time></trkpt><trkpt lat="44.8762901060857" lon="1.7000726264102903"><ele>280.0</ele><time>2026-05-02T07:48:29.999Z</time></trkpt><trkpt lat="44.876249897845135" lon="1.7001704429441897"><ele>280.0</ele><time>2026-05-02T07:48:30.999Z</time></trkpt><trkpt lat="44.87622278016161" lon="1.700291941720768"><ele>280.0</ele><time>2026-05-02T07:48:32.999Z</time></trkpt><trkpt lat="44.876161645815785" lon="1.7004171252915936"><ele>279.25</ele><time>2026-05-02T07:48:35.999Z</time></trkpt><trkpt lat="44.87605035331693" lon="1.7004789876925226"><ele>278.5</ele><time>2026-05-02T07:48:36.999Z</time></trkpt><trkpt lat="44.875955413063295" lon="1.700588333384534"><ele>277.75</ele><time>2026-05-02T07:48:37.999Z</time></trkpt><trkpt lat="44.87579465785821" lon="1.7007179868233517"><ele>277.0</ele><time>2026-05-02T07:48:38.999Z</time></trkpt><trkpt lat="44.87561950558532" lon="1.700885740638002"><ele>277.0</ele><time>2026-05-02T07:48:39.999Z</time></trkpt><trkpt lat="44.87544126577478" lon="1.7010805248704222"><ele>277.0</ele><time>2026-05-02T07:48:40.999Z</time></trkpt><trkpt lat="44.87525402364511" lon="1.7012593296190852"><ele>276.0</ele><time>2026-05-02T07:48:41.999Z</time></trkpt><trkpt lat="44.87509283476856" lon="1.7014641318632748"><ele>275.0</ele><time>2026-05-02T07:48:42.999Z</time></trkpt><trkpt lat="44.87495356657063" lon="1.701674458056978"><ele>274.0</ele><time>2026-05-02T07:48:43.999Z</time></trkpt><trkpt lat="44.8748229816907" lon="1.7018811870830497"><ele>274.3333333333333</ele><time>2026-05-02T07:48:44.999Z</time></trkpt><trkpt lat="44.874706395571856" lon="1.702047709892459"><ele>274.6666666666667</ele><time>2026-05-02T07:48:45.999Z</time></trkpt><trkpt lat="44.87456726629231" lon="1.7021783099686154"><ele>275.0</ele><time>2026-05-02T07:48:46.999Z</time></trkpt><trkpt lat="44.874386828926475" lon="1.702184325072643"><ele>272.5</ele><time>2026-05-02T07:48:47.999Z</time></trkpt><trkpt lat="44.87417700821985" lon="1.7021605674355789"><ele>270.0</ele><time>2026-05-02T07:48:48.999Z</time></trkpt><trkpt lat="44.87393554614522" lon="1.7021165552380157"><ele>270.0</ele><time>2026-05-02T07:48:49.999Z</time></trkpt><trkpt lat="44.87369192922715" lon="1.7020747865048964"><ele>270.0</ele><time>2026-05-02T07:48:50.999Z</time></trkpt><trkpt lat="44.87345907594463" lon="1.7020356873006235"><ele>270.6666666666667</ele><time>2026-05-02T07:48:51.999Z</time></trkpt><trkpt lat="44.87323480633407" lon="1.7019995011691216"><ele>271.33333333333337</ele><time>2026-05-02T07:48:52.999Z</time></trkpt><trkpt lat="44.8730168460523" lon="1.701987024706896"><ele>272.0</ele><time>2026-05-02T07:48:53.999Z</time></trkpt><trkpt lat="44.87279418159978" lon="1.7019515692868286"><ele>272.33333333333337</ele><time>2026-05-02T07:48:54.999Z</time></trkpt><trkpt lat="44.87258634650537" lon="1.7019163305371354"><ele>272.6666666666667</ele><time>2026-05-02T07:48:55.999Z</time></trkpt><trkpt lat="44.87237246367357" lon="1.701881347763788"><ele>273.0</ele><time>2026-05-02T07:48:56.999Z</time></trkpt><trkpt lat="44.87215945237398" lon="1.7018463538969004"><ele>273.0</ele><time>2026-05-02T07:48:57.999Z</time></trkpt><trkpt lat="44.87194816819721" lon="1.7018117196360785"><ele>273.0</ele><time>2026-05-02T07:48:58.999Z</time></trkpt><trkpt lat="44.8717282094123" lon="1.7017749801271866"><ele>273.0</ele><time>2026-05-02T07:48:59.999Z</time></trkpt><trkpt lat="44.8715023570647" lon="1.7017129275175584"><ele>276.5</ele><time>2026-05-02T07:49:00.999Z</time></trkpt><trkpt lat="44.8712685822585" lon="1.7016707512636928"><ele>280.0</ele><time>2026-05-02T07:49:01.999Z</time></trkpt><trkpt lat="44.87103479949071" lon="1.7016462411453313"><ele>281.5</ele><time>2026-05-02T07:49:02.999Z</time></trkpt><trkpt lat="44.87080598076565" lon="1.7016020745585612"><ele>283.0</ele><time>2026-05-02T07:49:03.999Z</time></trkpt><trkpt lat="44.87056675134783" lon="1.701572290205299"><ele>283.0</ele><time>2026-05-02T07:49:04.999Z</time></trkpt><trkpt lat="44.87033743537623" lon="1.7015751907536336"><ele>283.0</ele><time>2026-05-02T07:49:05.999Z</time></trkpt><trkpt lat="44.870100973276635" lon="1.7016164297793681"><ele>285.0</ele><time>2026-05-02T07:49:06.999Z</time></trkpt><trkpt lat="44.86985324943669" lon="1.7017098562775446"><ele>287.0</ele><time>2026-05-02T07:49:07.999Z</time></trkpt><trkpt lat="44.86960601506948" lon="1.7018472268858353"><ele>288.0</ele><time>2026-05-02T07:49:08.999Z</time></trkpt><trkpt lat="44.869348011455685" lon="1.7020001205453688"><ele>289.0</ele><time>2026-05-02T07:49:09.999Z</time></trkpt><trkpt lat="44.86910570848331" lon="1.7021970154999957"><ele>289.5</ele><time>2026-05-02T07:49:10.999Z</time></trkpt><trkpt lat="44.86886987093822" lon="1.7024337000819354"><ele>290.0</ele><time>2026-05-02T07:49:11.999Z</time></trkpt><trkpt lat="44.86864106417445" lon="1.7027047218340883"><ele>291.5</ele><time>2026-05-02T07:49:12.999Z</time></trkpt><trkpt lat="44.86842345459143" lon="1.7030006158760969"><ele>293.0</ele><time>2026-05-02T07:49:13.999Z</time></trkpt><trkpt lat="44.86821810220125" lon="1.703314112172655"><ele>297.0</ele><time>2026-05-02T07:49:14.999Z</time></trkpt><trkpt lat="44.868040042328204" lon="1.7036510299542797"><ele>301.0</ele><time>2026-05-02T07:49:15.999Z</time></trkpt><trkpt lat="44.86789335908522" lon="1.7040282908988862"><ele>304.0</ele><time>2026-05-02T07:49:16.999Z</time></trkpt><trkpt lat="44.86776557899913" lon="1.7044322323682024"><ele>307.0</ele><time>2026-05-02T07:49:17.999Z</time></trkpt><trkpt lat="44.86762065059935" lon="1.7047843153476157"><ele>308.0</ele><time>2026-05-02T07:49:18.999Z</time></trkpt><trkpt lat="44.86750121855775" lon="1.7050951296012056"><ele>309.0</ele><time>2026-05-02T07:49:19.999Z</time></trkpt><trkpt lat="44.86736889694511" lon="1.705345869722558"><ele>309.0</ele><time>2026-05-02T07:49:20.999Z</time></trkpt><trkpt lat="44.86720885270588" lon="1.7055571560736071"><ele>309.0</ele><time>2026-05-02T07:49:21.999Z</time></trkpt><trkpt lat="44.867013160401775" lon="1.705752589922954"><ele>309.0</ele><time>2026-05-02T07:49:22.999Z</time></trkpt><trkpt lat="44.86679071335745" lon="1.7059196165947133"><ele>309.0</ele><time>2026-05-02T07:49:23.999Z</time></trkpt><trkpt lat="44.866562642786306" lon="1.7060341993329053"><ele>311.0</ele><time>2026-05-02T07:49:24.999Z</time></trkpt><trkpt lat="44.86635034887014" lon="1.7060884558423772"><ele>313.0</ele><time>2026-05-02T07:49:25.999Z</time></trkpt><trkpt lat="44.86610790546224" lon="1.706117026007567"><ele>313.5</ele><time>2026-05-02T07:49:26.999Z</time></trkpt><trkpt lat="44.86584477988698" lon="1.7061436470010611"><ele>314.0</ele><time>2026-05-02T07:49:27.999Z</time></trkpt><trkpt lat="44.865567182734786" lon="1.7061898670968574"><ele>314.0</ele><time>2026-05-02T07:49:28.999Z</time></trkpt><trkpt lat="44.86529747012744" lon="1.706214094330338"><ele>314.0</ele><time>2026-05-02T07:49:29.999Z</time></trkpt><trkpt lat="44.86505846256508" lon="1.7062101543116988"><ele>315.0</ele><time>2026-05-02T07:49:30.999Z</time></trkpt><trkpt lat="44.86484108065176" lon="1.706208096722772"><ele>316.0</ele><time>2026-05-02T07:49:31.999Z</time></trkpt><trkpt lat="44.86462344048367" lon="1.7062362538918663"><ele>317.0</ele><time>2026-05-02T07:49:32.999Z</time></trkpt><trkpt lat="44.864421819447905" lon="1.7062603779382426"><ele>318.0</ele><time>2026-05-02T07:49:33.999Z</time></trkpt><trkpt lat="44.86422461430698" lon="1.7063081847194754"><ele>319.0</ele><time>2026-05-02T07:49:34.999Z</time></trkpt><trkpt lat="44.86402732943755" lon="1.7063910775491062"><ele>320.0</ele><time>2026-05-02T07:49:35.999Z</time></trkpt><trkpt lat="44.863836417660956" lon="1.7065042798617207"><ele>320.0</ele><time>2026-05-02T07:49:36.999Z</time></trkpt><trkpt lat="44.863651153669856" lon="1.7066078277342176"><ele>320.0</ele><time>2026-05-02T07:49:37.999Z</time></trkpt><trkpt lat="44.863473441695064" lon="1.7066971822268917"><ele>320.0</ele><time>2026-05-02T07:49:39Z</time></trkpt><trkpt lat="44.86330144434095" lon="1.7067744045929578"><ele>319.6666666666667</ele><time>2026-05-02T07:49:40Z</time></trkpt><trkpt lat="44.86313341356262" lon="1.7068453206030214"><ele>319.3333333333333</ele><time>2026-05-02T07:49:41Z</time></trkpt><trkpt lat="44.8629690276946" lon="1.706890047476612"><ele>319.0</ele><time>2026-05-02T07:49:42Z</time></trkpt><trkpt lat="44.862793080827956" lon="1.7069601387581024"><ele>320.0</ele><time>2026-05-02T07:49:43Z</time></trkpt><trkpt lat="44.862621492262846" lon="1.707026344896103"><ele>321.0</ele><time>2026-05-02T07:49:44Z</time></trkpt><trkpt lat="44.862458024550385" lon="1.7071093859716204"><ele>322.0</ele><time>2026-05-02T07:49:45Z</time></trkpt><trkpt lat="44.86229301667446" lon="1.707200182808702"><ele>322.0</ele><time>2026-05-02T07:49:46Z</time></trkpt><trkpt lat="44.86212776000919" lon="1.7072896035086553"><ele>322.0</ele><time>2026-05-02T07:49:47Z</time></trkpt><trkpt lat="44.86195500859185" lon="1.7073907057881341"><ele>322.0</ele><time>2026-05-02T07:49:48Z</time></trkpt><trkpt lat="44.86179141842375" lon="1.7074834988178333"><ele>322.0</ele><time>2026-05-02T07:49:49Z</time></trkpt><trkpt lat="44.86164374638799" lon="1.7075628440152317"><ele>322.0</ele><time>2026-05-02T07:49:50Z</time></trkpt><trkpt lat="44.86150939909623" lon="1.7076407478774944"><ele>322.0</ele><time>2026-05-02T07:49:51Z</time></trkpt><trkpt lat="44.8613804599012" lon="1.7077221282228803"><ele>322.0</ele><time>2026-05-02T07:49:52Z</time></trkpt><trkpt lat="44.861240811244194" lon="1.707801126507598"><ele>324.0</ele><time>2026-05-02T07:49:53Z</time></trkpt><trkpt lat="44.86109238974026" lon="1.7078849955807054"><ele>326.0</ele><time>2026-05-02T07:49:54Z</time></trkpt><trkpt lat="44.86094012419691" lon="1.707972477466035"><ele>328.0</ele><time>2026-05-02T07:49:55Z</time></trkpt><trkpt lat="44.860785317342796" lon="1.7080556531622744"><ele>328.0</ele><time>2026-05-02T07:49:56Z</time></trkpt><trkpt lat="44.86063195909249" lon="1.7081352600603918"><ele>328.0</ele><time>2026-05-02T07:49:57Z</time></trkpt><trkpt lat="44.86047895887429" lon="1.7082140935159884"><ele>328.0</ele><time>2026-05-02T07:49:58Z</time></trkpt><trkpt lat="44.860330779338355" lon="1.7082907579339066"><ele>328.0</ele><time>2026-05-02T07:49:59Z</time></trkpt><trkpt lat="44.86017881397359" lon="1.7083577628077342"><ele>328.0</ele><time>2026-05-02T07:50:00Z</time></trkpt><trkpt lat="44.860024286039334" lon="1.7083972528354723"><ele>328.0</ele><time>2026-05-02T07:50:01Z</time></trkpt><trkpt lat="44.85986470875147" lon="1.7084029933782885"><ele>328.3333333333333</ele><time>2026-05-02T07:50:02Z</time></trkpt><trkpt lat="44.8597028015533" lon="1.7083978516150304"><ele>328.6666666666667</ele><time>2026-05-02T07:50:03Z</time></trkpt><trkpt lat="44.859530486588156" lon="1.7083966085770537"><ele>329.0</ele><time>2026-05-02T07:50:04Z</time></trkpt><trkpt lat="44.85936793906846" lon="1.708403910968816"><ele>330.0</ele><time>2026-05-02T07:50:05Z</time></trkpt><trkpt lat="44.85921042050511" lon="1.7084215379557528"><ele>331.0</ele><time>2026-05-02T07:50:06Z</time></trkpt><trkpt lat="44.85904786093495" lon="1.7084384509428079"><ele>332.0</ele><time>2026-05-02T07:50:07Z</time></trkpt><trkpt lat="44.85888742779558" lon="1.708449833472512"><ele>332.0</ele><time>2026-05-02T07:50:08Z</time></trkpt><trkpt lat="44.858719895613895" lon="1.7084636070132855"><ele>332.0</ele><time>2026-05-02T07:50:09Z</time></trkpt><trkpt lat="44.85854971171837" lon="1.7084682828822377"><ele>332.0</ele><time>2026-05-02T07:50:10Z</time></trkpt><trkpt lat="44.8583908783669" lon="1.708453920603022"><ele>333.33333333333337</ele><time>2026-05-02T07:50:11Z</time></trkpt><trkpt lat="44.858243395569296" lon="1.7084085921021896"><ele>334.6666666666667</ele><time>2026-05-02T07:50:12Z</time></trkpt><trkpt lat="44.8580877957251" lon="1.7083542228435917"><ele>336.0</ele><time>2026-05-02T07:50:13Z</time></trkpt><trkpt lat="44.85793963700176" lon="1.7082789085089265"><ele>336.0</ele><time>2026-05-02T07:50:14Z</time></trkpt><trkpt lat="44.85780855037542" lon="1.7081831327788293"><ele>336.0</ele><time>2026-05-02T07:50:15Z</time></trkpt><trkpt lat="44.85771308770586" lon="1.7080801476255636"><ele>336.0</ele><time>2026-05-02T07:50:16Z</time></trkpt><trkpt lat="44.85765602394729" lon="1.708022329021596"><ele>336.0</ele><time>2026-05-02T07:50:17Z</time></trkpt><trkpt lat="44.85758874249972" lon="1.7080042237595363"><ele>336.0</ele><time>2026-05-02T07:50:19Z</time></trkpt><trkpt lat="44.857514937102756" lon="1.707950723778259"><ele>335.5</ele><time>2026-05-02T07:50:22Z</time></trkpt><trkpt lat="44.857421250434335" lon="1.707865865797416"><ele>335.0</ele><time>2026-05-02T07:50:27Z</time></trkpt><trkpt lat="44.85734472533338" lon="1.707814247627043"><ele>334.5</ele><time>2026-05-02T07:50:28Z</time></trkpt><trkpt lat="44.857237323115534" lon="1.7077306775841912"><ele>334.0</ele><time>2026-05-02T07:50:29Z</time></trkpt><trkpt lat="44.85709597710977" lon="1.707629327057781"><ele>333.75</ele><time>2026-05-02T07:50:30Z</time></trkpt><trkpt lat="44.85695167055269" lon="1.7075262330365513"><ele>333.5</ele><time>2026-05-02T07:50:31Z</time></trkpt><trkpt lat="44.856816528145345" lon="1.707443451475333"><ele>333.25</ele><time>2026-05-02T07:50:32Z</time></trkpt><trkpt lat="44.856693120257425" lon="1.7073523104044528"><ele>333.0</ele><time>2026-05-02T07:50:33Z</time></trkpt><trkpt lat="44.856567373269655" lon="1.7072596192250862"><ele>333.0</ele><time>2026-05-02T07:50:34Z</time></trkpt><trkpt lat="44.85643262852813" lon="1.7071648913550135"><ele>333.0</ele><time>2026-05-02T07:50:35Z</time></trkpt><trkpt lat="44.856309679216054" lon="1.7070817238494622"><ele>333.0</ele><time>2026-05-02T07:50:36Z</time></trkpt><trkpt lat="44.85619843071755" lon="1.7070303997595309"><ele>333.0</ele><time>2026-05-02T07:50:37Z</time></trkpt><trkpt lat="44.85610027209853" lon="1.7069925507114079"><ele>333.0</ele><time>2026-05-02T07:50:38Z</time></trkpt><trkpt lat="44.85599918132238" lon="1.7069731714659269"><ele>333.0</ele><time>2026-05-02T07:50:39Z</time></trkpt><trkpt lat="44.85589716060402" lon="1.706946943857144"><ele>333.0</ele><time>2026-05-02T07:50:40Z</time></trkpt><trkpt lat="44.85580617030669" lon="1.7069522168097033"><ele>333.0</ele><time>2026-05-02T07:50:41Z</time></trkpt><trkpt lat="44.85569812970523" lon="1.706970148001196"><ele>333.0</ele><time>2026-05-02T07:50:42Z</time></trkpt><trkpt lat="44.855592700222765" lon="1.7069958962832503"><ele>334.25</ele><time>2026-05-02T07:50:42.999Z</time></trkpt><trkpt lat="44.85547130711331" lon="1.707035060547906"><ele>335.5</ele><time>2026-05-02T07:50:43.999Z</time></trkpt><trkpt lat="44.85534881251432" lon="1.7070305536755803"><ele>336.75</ele><time>2026-05-02T07:50:44.999Z</time></trkpt><trkpt lat="44.85524560663322" lon="1.7070739064840181"><ele>338.0</ele><time>2026-05-02T07:50:45.999Z</time></trkpt><trkpt lat="44.85514147733372" lon="1.7070728758541696"><ele>339.4</ele><time>2026-05-02T07:50:46.999Z</time></trkpt><trkpt lat="44.855038553794195" lon="1.7071104425252872"><ele>340.79999999999995</ele><time>2026-05-02T07:50:47.999Z</time></trkpt><trkpt lat="44.85492414622225" lon="1.7071248925410016"><ele>342.2</ele><time>2026-05-02T07:50:48.999Z</time></trkpt><trkpt lat="44.854814358660256" lon="1.7071527690462018"><ele>343.6</ele><time>2026-05-02T07:50:49.999Z</time></trkpt><trkpt lat="44.85470400733023" lon="1.7071670886411399"><ele>345.0</ele><time>2026-05-02T07:50:50.999Z</time></trkpt><trkpt lat="44.8545930894731" lon="1.7071858794797972"><ele>345.0</ele><time>2026-05-02T07:50:51.999Z</time></trkpt><trkpt lat="44.854470711713454" lon="1.7072153342972092"><ele>345.0</ele><time>2026-05-02T07:50:52.999Z</time></trkpt><trkpt lat="44.85434088839646" lon="1.7072341264170943"><ele>345.0</ele><time>2026-05-02T07:50:53.999Z</time></trkpt><trkpt lat="44.85420602963116" lon="1.7072569245188804"><ele>345.0</ele><time>2026-05-02T07:50:54.999Z</time></trkpt><trkpt lat="44.85409469629838" lon="1.7072769190937587"><ele>345.6</ele><time>2026-05-02T07:50:55.999Z</time></trkpt><trkpt lat="44.85400503643607" lon="1.707289242476544"><ele>346.2</ele><time>2026-05-02T07:50:56.999Z</time></trkpt><trkpt lat="44.85391764976057" lon="1.7072926931229935"><ele>346.79999999999995</ele><time>2026-05-02T07:50:57.999Z</time></trkpt><trkpt lat="44.85385365073689" lon="1.7073036060393139"><ele>347.4</ele><time>2026-05-02T07:50:58.999Z</time></trkpt><trkpt lat="44.85377013018944" lon="1.707351224281604"><ele>348.0</ele><time>2026-05-02T07:51:00.999Z</time></trkpt><trkpt lat="44.853641639139504" lon="1.707353578522939"><ele>348.0</ele><time>2026-05-02T07:51:04.999Z</time></trkpt><trkpt lat="44.85357023097247" lon="1.7074115253071664"><ele>348.0</ele><time>2026-05-02T07:51:05.999Z</time></trkpt><trkpt lat="44.8534872890853" lon="1.7074330668001356"><ele>348.0</ele><time>2026-05-02T07:51:06.999Z</time></trkpt><trkpt lat="44.853390215753066" lon="1.7074459870411824"><ele>348.0</ele><time>2026-05-02T07:51:07.999Z</time></trkpt><trkpt lat="44.853281756656294" lon="1.7074492241611516"><ele>348.0</ele><time>2026-05-02T07:51:08.999Z</time></trkpt><trkpt lat="44.85318829201958" lon="1.7074554381107865"><ele>349.59999999999997</ele><time>2026-05-02T07:51:09.999Z</time></trkpt><trkpt lat="44.85310186462675" lon="1.7074671104860006"><ele>351.2</ele><time>2026-05-02T07:51:10.999Z</time></trkpt><trkpt lat="44.85300642917892" lon="1.7074947667841067"><ele>352.8</ele><time>2026-05-02T07:51:11.999Z</time></trkpt><trkpt lat="44.852910883412676" lon="1.7075047513828074"><ele>354.4</ele><time>2026-05-02T07:51:12.999Z</time></trkpt><trkpt lat="44.85282333500109" lon="1.7075126948153323"><ele>356.0</ele><time>2026-05-02T07:51:13.999Z</time></trkpt><trkpt lat="44.852734192254985" lon="1.7075054035744457"><ele>356.0</ele><time>2026-05-02T07:51:14.999Z</time></trkpt><trkpt lat="44.852640678681325" lon="1.7074880189504862"><ele>356.0</ele><time>2026-05-02T07:51:15.999Z</time></trkpt><trkpt lat="44.852579170798506" lon="1.7074605122276445"><ele>356.0</ele><time>2026-05-02T07:51:16.999Z</time></trkpt><trkpt lat="44.8524591201453" lon="1.7074408655445044"><ele>356.0</ele><time>2026-05-02T07:51:18.999Z</time></trkpt><trkpt lat="44.85237719485963" lon="1.7074385594452524"><ele>356.0</ele><time>2026-05-02T07:51:19.999Z</time></trkpt><trkpt lat="44.8522864080726" lon="1.707440114377634"><ele>356.8</ele><time>2026-05-02T07:51:20.999Z</time></trkpt><trkpt lat="44.852187143807924" lon="1.7074404292510565"><ele>357.6</ele><time>2026-05-02T07:51:21.999Z</time></trkpt><trkpt lat="44.85210947920645" lon="1.7074289691648505"><ele>358.4</ele><time>2026-05-02T07:51:22.999Z</time></trkpt><trkpt lat="44.85202870620704" lon="1.7074338789877566"><ele>359.2</ele><time>2026-05-02T07:51:23.999Z</time></trkpt><trkpt lat="44.85190940010957" lon="1.7074288684770322"><ele>360.0</ele><time>2026-05-02T07:51:25.999Z</time></trkpt><trkpt lat="44.85182588164632" lon="1.7074003133986089"><ele>361.2</ele><time>2026-05-02T07:51:27.999Z</time></trkpt><trkpt lat="44.8517431892968" lon="1.707418795240341"><ele>362.4</ele><time>2026-05-02T07:51:28.999Z</time></trkpt><trkpt lat="44.851664375436236" lon="1.7074364282475685"><ele>363.6</ele><time>2026-05-02T07:51:29.999Z</time></trkpt><trkpt lat="44.85158157043116" lon="1.707450436205872"><ele>364.8</ele><time>2026-05-02T07:51:30.999Z</time></trkpt><trkpt lat="44.85146834906792" lon="1.7074574362179504"><ele>366.0</ele><time>2026-05-02T07:51:31.999Z</time></trkpt><trkpt lat="44.85132019014338" lon="1.707460539945425"><ele>366.0</ele><time>2026-05-02T07:51:32.999Z</time></trkpt><trkpt lat="44.85116174541752" lon="1.7074124606772587"><ele>366.0</ele><time>2026-05-02T07:51:33.999Z</time></trkpt><trkpt lat="44.851004824745765" lon="1.7073762144895894"><ele>366.0</ele><time>2026-05-02T07:51:34.999Z</time></trkpt><trkpt lat="44.85083902838481" lon="1.7073833314128601"><ele>366.6666666666667</ele><time>2026-05-02T07:51:35.999Z</time></trkpt><trkpt lat="44.85068197389771" lon="1.7074076288966435"><ele>367.33333333333337</ele><time>2026-05-02T07:51:36.999Z</time></trkpt><trkpt lat="44.8505299689659" lon="1.7074710209342037"><ele>368.0</ele><time>2026-05-02T07:51:37.999Z</time></trkpt><trkpt lat="44.850377954479356" lon="1.707561588669406"><ele>368.0</ele><time>2026-05-02T07:51:38.999Z</time></trkpt><trkpt lat="44.85023231614617" lon="1.7076510374482177"><ele>368.0</ele><time>2026-05-02T07:51:39.999Z</time></trkpt><trkpt lat="44.85010247439246" lon="1.7077277064752294"><ele>368.0</ele><time>2026-05-02T07:51:40.999Z</time></trkpt><trkpt lat="44.849979236491876" lon="1.707804753898442"><ele>368.0</ele><time>2026-05-02T07:51:41.999Z</time></trkpt><trkpt lat="44.849839360303825" lon="1.707892203437123"><ele>368.0</ele><time>2026-05-02T07:51:42.999Z</time></trkpt><trkpt lat="44.84968798100396" lon="1.7079757837054859"><ele>368.0</ele><time>2026-05-02T07:51:43.999Z</time></trkpt><trkpt lat="44.849554592499196" lon="1.708085324290811"><ele>368.0</ele><time>2026-05-02T07:51:45Z</time></trkpt><trkpt lat="44.84942415963101" lon="1.7081455631975433"><ele>368.0</ele><time>2026-05-02T07:51:46Z</time></trkpt><trkpt lat="44.84931318086119" lon="1.708214801351311"><ele>368.0</ele><time>2026-05-02T07:51:47Z</time></trkpt><trkpt lat="44.84921182068651" lon="1.7082737470494642"><ele>368.0</ele><time>2026-05-02T07:51:48Z</time></trkpt><trkpt lat="44.84911422080372" lon="1.7083648901810227"><ele>368.0</ele><time>2026-05-02T07:51:49Z</time></trkpt><trkpt lat="44.84901639084723" lon="1.7084892547719528"><ele>372.0</ele><time>2026-05-02T07:51:50Z</time></trkpt><trkpt lat="44.848898839864496" lon="1.7086574095657971"><ele>376.0</ele><time>2026-05-02T07:51:51Z</time></trkpt><trkpt lat="44.84877760454011" lon="1.7087907407110956"><ele>380.0</ele><time>2026-05-02T07:51:52Z</time></trkpt><trkpt lat="44.84867387858993" lon="1.7089581968361458"><ele>380.0</ele><time>2026-05-02T07:51:53Z</time></trkpt><trkpt lat="44.84857829658909" lon="1.709106542124963"><ele>380.0</ele><time>2026-05-02T07:51:54Z</time></trkpt><trkpt lat="44.848495714180984" lon="1.7092703120066444"><ele>380.0</ele><time>2026-05-02T07:51:55Z</time></trkpt><trkpt lat="44.84843691645482" lon="1.7094434503350782"><ele>380.0</ele><time>2026-05-02T07:51:56Z</time></trkpt><trkpt lat="44.84840264769199" lon="1.7096034516484777"><ele>381.75</ele><time>2026-05-02T07:51:57Z</time></trkpt><trkpt lat="44.84837739753654" lon="1.709760395919028"><ele>383.5</ele><time>2026-05-02T07:51:58Z</time></trkpt><trkpt lat="44.84834701203353" lon="1.7099601630731014"><ele>385.25</ele><time>2026-05-02T07:51:59Z</time></trkpt><trkpt lat="44.8482966201862" lon="1.7101669459980051"><ele>387.0</ele><time>2026-05-02T07:52:00Z</time></trkpt><trkpt lat="44.848247869625105" lon="1.7103496298132639"><ele>387.66666666666663</ele><time>2026-05-02T07:52:01Z</time></trkpt><trkpt lat="44.84819726579399" lon="1.7105396179885308"><ele>388.3333333333333</ele><time>2026-05-02T07:52:02Z</time></trkpt><trkpt lat="44.84813294939487" lon="1.7107742084464062"><ele>389.0</ele><time>2026-05-02T07:52:03Z</time></trkpt><trkpt lat="44.84806337307214" lon="1.7110242952369044"><ele>390.3333333333333</ele><time>2026-05-02T07:52:04Z</time></trkpt><trkpt lat="44.84800016535835" lon="1.711264510795051"><ele>391.66666666666663</ele><time>2026-05-02T07:52:05Z</time></trkpt><trkpt lat="44.84794468158162" lon="1.711475129885442"><ele>393.0</ele><time>2026-05-02T07:52:06Z</time></trkpt><trkpt lat="44.84789192749136" lon="1.711664640226355"><ele>393.0</ele><time>2026-05-02T07:52:07Z</time></trkpt><trkpt lat="44.84782830634916" lon="1.7118836541438869"><ele>393.0</ele><time>2026-05-02T07:52:08Z</time></trkpt><trkpt lat="44.84775710304152" lon="1.7121214963085807"><ele>393.0</ele><time>2026-05-02T07:52:09Z</time></trkpt><trkpt lat="44.84767744612198" lon="1.712383496853757"><ele>394.33333333333337</ele><time>2026-05-02T07:52:10Z</time></trkpt><trkpt lat="44.84759906422285" lon="1.7126405333871315"><ele>395.6666666666667</ele><time>2026-05-02T07:52:11Z</time></trkpt><trkpt lat="44.8475336199454" lon="1.7128487887753645"><ele>397.0</ele><time>2026-05-02T07:52:12Z</time></trkpt><trkpt lat="44.847465319432416" lon="1.7130543820008441"><ele>398.0</ele><time>2026-05-02T07:52:13Z</time></trkpt><trkpt lat="44.847399119997995" lon="1.713227897357449"><ele>399.0</ele><time>2026-05-02T07:52:14Z</time></trkpt><trkpt lat="44.84731520247737" lon="1.7134210239663061"><ele>400.0</ele><time>2026-05-02T07:52:15Z</time></trkpt><trkpt lat="44.847224961228775" lon="1.713645485656237"><ele>400.33333333333337</ele><time>2026-05-02T07:52:16Z</time></trkpt><trkpt lat="44.84711911745202" lon="1.7138538777210475"><ele>400.66666666666663</ele><time>2026-05-02T07:52:17Z</time></trkpt><trkpt lat="44.84702809331014" lon="1.7140432229212155"><ele>401.0</ele><time>2026-05-02T07:52:18Z</time></trkpt><trkpt lat="44.8469397683485" lon="1.7141875879419604"><ele>401.0</ele><time>2026-05-02T07:52:19Z</time></trkpt><trkpt lat="44.84687681181081" lon="1.7143465148414678"><ele>401.0</ele><time>2026-05-02T07:52:20Z</time></trkpt><trkpt lat="44.84682649269737" lon="1.71452192609142"><ele>401.0</ele><time>2026-05-02T07:52:21Z</time></trkpt><trkpt lat="44.84678077374455" lon="1.714704191280023"><ele>401.0</ele><time>2026-05-02T07:52:22Z</time></trkpt><trkpt lat="44.846732587881306" lon="1.7148639920406992"><ele>401.5</ele><time>2026-05-02T07:52:23Z</time></trkpt><trkpt lat="44.84666240703941" lon="1.7150007856952647"><ele>402.0</ele><time>2026-05-02T07:52:24Z</time></trkpt><trkpt lat="44.84656381238004" lon="1.7151275790504696"><ele>402.5</ele><time>2026-05-02T07:52:25Z</time></trkpt><trkpt lat="44.84643765047597" lon="1.7152739002713044"><ele>403.0</ele><time>2026-05-02T07:52:26Z</time></trkpt><trkpt lat="44.84632271219549" lon="1.7154049497520707"><ele>403.0</ele><time>2026-05-02T07:52:27Z</time></trkpt><trkpt lat="44.846221349675396" lon="1.7155205225225003"><ele>403.0</ele><time>2026-05-02T07:52:28Z</time></trkpt><trkpt lat="44.84611704177494" lon="1.7156429138733713"><ele>403.0</ele><time>2026-05-02T07:52:29Z</time></trkpt><trkpt lat="44.84602492129043" lon="1.7157731402447596"><ele>403.0</ele><time>2026-05-02T07:52:30Z</time></trkpt><trkpt lat="44.84595640197922" lon="1.715960694536239"><ele>400.6666666666667</ele><time>2026-05-02T07:52:31Z</time></trkpt><trkpt lat="44.84589436483354" lon="1.7161762865916925"><ele>398.33333333333337</ele><time>2026-05-02T07:52:32Z</time></trkpt><trkpt lat="44.84581537258675" lon="1.716413502932976"><ele>396.0</ele><time>2026-05-02T07:52:33Z</time></trkpt><trkpt lat="44.845757290088955" lon="1.7166131707698244"><ele>396.0</ele><time>2026-05-02T07:52:34Z</time></trkpt><trkpt lat="44.845690351169615" lon="1.7168098383374055"><ele>396.0</ele><time>2026-05-02T07:52:35Z</time></trkpt><trkpt lat="44.845624642840534" lon="1.7170344168197813"><ele>396.0</ele><time>2026-05-02T07:52:36Z</time></trkpt><trkpt lat="44.84559605444335" lon="1.7172890521023685"><ele>396.0</ele><time>2026-05-02T07:52:37Z</time></trkpt><trkpt lat="44.84559774939036" lon="1.7175460876270963"><ele>396.0</ele><time>2026-05-02T07:52:38Z</time></trkpt><trkpt lat="44.845601660864624" lon="1.717788188248743"><ele>396.0</ele><time>2026-05-02T07:52:39Z</time></trkpt><trkpt lat="44.84560116931795" lon="1.7180373253697745"><ele>396.0</ele><time>2026-05-02T07:52:40Z</time></trkpt><trkpt lat="44.84561600804068" lon="1.7182806559934327"><ele>396.0</ele><time>2026-05-02T07:52:41Z</time></trkpt><trkpt lat="44.8456147714759" lon="1.718517037166553"><ele>396.0</ele><time>2026-05-02T07:52:42Z</time></trkpt><trkpt lat="44.845609881931026" lon="1.7187557080924334"><ele>396.66666666666663</ele><time>2026-05-02T07:52:43Z</time></trkpt><trkpt lat="44.8456186658046" lon="1.7190093224941494"><ele>397.3333333333333</ele><time>2026-05-02T07:52:44Z</time></trkpt><trkpt lat="44.84565065527142" lon="1.7192608458130918"><ele>398.0</ele><time>2026-05-02T07:52:45Z</time></trkpt><trkpt lat="44.845664703666486" lon="1.7195052588401962"><ele>398.3333333333333</ele><time>2026-05-02T07:52:45.999Z</time></trkpt><trkpt lat="44.84567996129165" lon="1.719725376901033"><ele>398.66666666666663</ele><time>2026-05-02T07:52:46.999Z</time></trkpt><trkpt lat="44.845699063896404" lon="1.7199513628304006"><ele>399.0</ele><time>2026-05-02T07:52:47.999Z</time></trkpt><trkpt lat="44.84571748159608" lon="1.7201768580667465"><ele>400.5</ele><time>2026-05-02T07:52:48.999Z</time></trkpt><trkpt lat="44.84573057985185" lon="1.7203966927165146"><ele>402.0</ele><time>2026-05-02T07:52:49.999Z</time></trkpt><trkpt lat="44.845743587103556" lon="1.7206020794546288"><ele>403.5</ele><time>2026-05-02T07:52:50.999Z</time></trkpt><trkpt lat="44.84576209039123" lon="1.7207992003095283"><ele>405.0</ele><time>2026-05-02T07:52:51.999Z</time></trkpt><trkpt lat="44.84578215554342" lon="1.7209961465183943"><ele>406.33333333333337</ele><time>2026-05-02T07:52:52.999Z</time></trkpt><trkpt lat="44.845784727150175" lon="1.7212058342299772"><ele>407.6666666666667</ele><time>2026-05-02T07:52:53.999Z</time></trkpt><trkpt lat="44.84574656021449" lon="1.7214144619453633"><ele>409.0</ele><time>2026-05-02T07:52:54.999Z</time></trkpt><trkpt lat="44.84571703223442" lon="1.7216243781238876"><ele>409.0</ele><time>2026-05-02T07:52:55.999Z</time></trkpt><trkpt lat="44.845684652691105" lon="1.7218442503367177"><ele>409.0</ele><time>2026-05-02T07:52:56.999Z</time></trkpt><trkpt lat="44.84565043002192" lon="1.7220729219774877"><ele>409.0</ele><time>2026-05-02T07:52:57.999Z</time></trkpt><trkpt lat="44.845624573641715" lon="1.7223147472934897"><ele>409.0</ele><time>2026-05-02T07:52:58.999Z</time></trkpt><trkpt lat="44.845589994217924" lon="1.7225295824935256"><ele>409.0</ele><time>2026-05-02T07:52:59.999Z</time></trkpt><trkpt lat="44.8455533307413" lon="1.7227487200542155"><ele>409.0</ele><time>2026-05-02T07:53:00.999Z</time></trkpt><trkpt lat="44.845513281822775" lon="1.722968233289069"><ele>409.0</ele><time>2026-05-02T07:53:01.999Z</time></trkpt><trkpt lat="44.84547172510082" lon="1.7231851272727237"><ele>409.0</ele><time>2026-05-02T07:53:02.999Z</time></trkpt><trkpt lat="44.84542770983863" lon="1.7234094997363947"><ele>409.0</ele><time>2026-05-02T07:53:03.999Z</time></trkpt><trkpt lat="44.845383488302794" lon="1.723638666288083"><ele>408.6666666666667</ele><time>2026-05-02T07:53:04.999Z</time></trkpt><trkpt lat="44.84534663386109" lon="1.723853880502938"><ele>408.33333333333337</ele><time>2026-05-02T07:53:05.999Z</time></trkpt><trkpt lat="44.84526069986808" lon="1.7240240799429796"><ele>408.0</ele><time>2026-05-02T07:53:06.999Z</time></trkpt><trkpt lat="44.84515116301213" lon="1.7241867406292133"><ele>408.25</ele><time>2026-05-02T07:53:07.999Z</time></trkpt><trkpt lat="44.8450535196332" lon="1.7243613813532441"><ele>408.5</ele><time>2026-05-02T07:53:08.999Z</time></trkpt><trkpt lat="44.84497201589459" lon="1.7244968118464976"><ele>408.75</ele><time>2026-05-02T07:53:09.999Z</time></trkpt><trkpt lat="44.84491771062419" lon="1.7246748162594752"><ele>409.0</ele><time>2026-05-02T07:53:10.999Z</time></trkpt><trkpt lat="44.84486018739366" lon="1.724903243974407"><ele>409.6666666666667</ele><time>2026-05-02T07:53:11.999Z</time></trkpt><trkpt lat="44.84479993396861" lon="1.7251333398138549"><ele>410.33333333333337</ele><time>2026-05-02T07:53:12.999Z</time></trkpt><trkpt lat="44.84473621791407" lon="1.7253594294419894"><ele>411.0</ele><time>2026-05-02T07:53:13.999Z</time></trkpt><trkpt lat="44.84467765719616" lon="1.7255773577572011"><ele>412.33333333333337</ele><time>2026-05-02T07:53:14.999Z</time></trkpt><trkpt lat="44.844620750331956" lon="1.7257880799955398"><ele>413.6666666666667</ele><time>2026-05-02T07:53:15.999Z</time></trkpt><trkpt lat="44.84455807290663" lon="1.726000513660684"><ele>415.0</ele><time>2026-05-02T07:53:16.999Z</time></trkpt><trkpt lat="44.844486581987475" lon="1.7262155992841104"><ele>415.0</ele><time>2026-05-02T07:53:17.999Z</time></trkpt><trkpt lat="44.844394315825035" lon="1.7264412392225412"><ele>415.0</ele><time>2026-05-02T07:53:18.999Z</time></trkpt><trkpt lat="44.84426840344887" lon="1.7266340427438382"><ele>415.0</ele><time>2026-05-02T07:53:19.999Z</time></trkpt><trkpt lat="44.84415334021185" lon="1.726801654085063"><ele>415.33333333333337</ele><time>2026-05-02T07:53:20.999Z</time></trkpt><trkpt lat="44.844017527517934" lon="1.7269686114353677"><ele>415.66666666666663</ele><time>2026-05-02T07:53:21.999Z</time></trkpt><trkpt lat="44.84387231582608" lon="1.7271297771507976"><ele>416.0</ele><time>2026-05-02T07:53:22.999Z</time></trkpt><trkpt lat="44.84373233546054" lon="1.7272979367473646"><ele>416.0</ele><time>2026-05-02T07:53:23.999Z</time></trkpt><trkpt lat="44.84360267571064" lon="1.7274206470917024"><ele>416.0</ele><time>2026-05-02T07:53:24.999Z</time></trkpt><trkpt lat="44.84349236887832" lon="1.727551113830808"><ele>416.0</ele><time>2026-05-02T07:53:25.999Z</time></trkpt><trkpt lat="44.84337558504533" lon="1.7277192728443567"><ele>416.0</ele><time>2026-05-02T07:53:26.999Z</time></trkpt><trkpt lat="44.84330185268012" lon="1.7279128427842285"><ele>416.0</ele><time>2026-05-02T07:53:27.999Z</time></trkpt><trkpt lat="44.84324678103634" lon="1.728125767509102"><ele>416.0</ele><time>2026-05-02T07:53:28.999Z</time></trkpt><trkpt lat="44.843191647180795" lon="1.7283391103369858"><ele>416.0</ele><time>2026-05-02T07:53:29.999Z</time></trkpt><trkpt lat="44.84308875359468" lon="1.728512246359658"><ele>416.0</ele><time>2026-05-02T07:53:30.999Z</time></trkpt><trkpt lat="44.84299257097932" lon="1.7286802070144387"><ele>416.0</ele><time>2026-05-02T07:53:31.999Z</time></trkpt><trkpt lat="44.84288093804692" lon="1.7288290593714541"><ele>416.66666666666663</ele><time>2026-05-02T07:53:32.999Z</time></trkpt><trkpt lat="44.84275500699769" lon="1.7289671816426797"><ele>417.33333333333337</ele><time>2026-05-02T07:53:33.999Z</time></trkpt><trkpt lat="44.84261809844136" lon="1.7290875862843376"><ele>418.0</ele><time>2026-05-02T07:53:34.999Z</time></trkpt><trkpt lat="44.84249255849215" lon="1.7292061857290086"><ele>418.0</ele><time>2026-05-02T07:53:35.999Z</time></trkpt><trkpt lat="44.84233159917907" lon="1.7293194087248316"><ele>418.0</ele><time>2026-05-02T07:53:36.999Z</time></trkpt><trkpt lat="44.842190689328184" lon="1.7294476522476543"><ele>418.0</ele><time>2026-05-02T07:53:37.999Z</time></trkpt><trkpt lat="44.84207081254921" lon="1.7295863709786565"><ele>418.33333333333337</ele><time>2026-05-02T07:53:38.999Z</time></trkpt><trkpt lat="44.841955783906556" lon="1.7297443296805353"><ele>418.66666666666663</ele><time>2026-05-02T07:53:39.999Z</time></trkpt><trkpt lat="44.841847607077746" lon="1.7299302470153888"><ele>419.0</ele><time>2026-05-02T07:53:40.999Z</time></trkpt><trkpt lat="44.841744904248095" lon="1.730136174923732"><ele>418.0</ele><time>2026-05-02T07:53:41.999Z</time></trkpt><trkpt lat="44.841650814546064" lon="1.7303680499059062"><ele>417.0</ele><time>2026-05-02T07:53:42.999Z</time></trkpt><trkpt lat="44.84155215793519" lon="1.7306023048816048"><ele>416.0</ele><time>2026-05-02T07:53:43.999Z</time></trkpt><trkpt lat="44.84142519594479" lon="1.7308415805488482"><ele>414.5</ele><time>2026-05-02T07:53:44.999Z</time></trkpt><trkpt lat="44.84129978913537" lon="1.731115092659849"><ele>413.0</ele><time>2026-05-02T07:53:45.999Z</time></trkpt><trkpt lat="44.84116333928187" lon="1.7314118256579651"><ele>413.0</ele><time>2026-05-02T07:53:46.999Z</time></trkpt><trkpt lat="44.84102704336486" lon="1.7317066376599575"><ele>413.0</ele><time>2026-05-02T07:53:47.999Z</time></trkpt><trkpt lat="44.84089854645625" lon="1.7319852659848534"><ele>415.0</ele><time>2026-05-02T07:53:48.999Z</time></trkpt><trkpt lat="44.8407862578491" lon="1.7322389848445925"><ele>417.0</ele><time>2026-05-02T07:53:49.999Z</time></trkpt><trkpt lat="44.84067152089291" lon="1.732487689967896"><ele>419.0</ele><time>2026-05-02T07:53:51Z</time></trkpt><trkpt lat="44.84055601120469" lon="1.7327315109342216"><ele>419.3333333333333</ele><time>2026-05-02T07:53:52Z</time></trkpt><trkpt lat="44.84044012248122" lon="1.7329741977860413"><ele>419.66666666666663</ele><time>2026-05-02T07:53:53Z</time></trkpt><trkpt lat="44.84032536701568" lon="1.733213104753557"><ele>420.0</ele><time>2026-05-02T07:53:54Z</time></trkpt><trkpt lat="44.84021361606834" lon="1.7334636892176631"><ele>419.33333333333337</ele><time>2026-05-02T07:53:55Z</time></trkpt><trkpt lat="44.840103665738745" lon="1.7337093442744267"><ele>418.6666666666667</ele><time>2026-05-02T07:53:56Z</time></trkpt><trkpt lat="44.839991872395984" lon="1.7339495921675383"><ele>418.0</ele><time>2026-05-02T07:53:57Z</time></trkpt><trkpt lat="44.839876656493544" lon="1.7341845817965675"><ele>418.0</ele><time>2026-05-02T07:53:58Z</time></trkpt><trkpt lat="44.83976845444317" lon="1.7344144291592651"><ele>418.0</ele><time>2026-05-02T07:53:59Z</time></trkpt><trkpt lat="44.83966469238156" lon="1.7346444087842985"><ele>418.0</ele><time>2026-05-02T07:54:00Z</time></trkpt><trkpt lat="44.839559317942324" lon="1.7348792215166957"><ele>418.0</ele><time>2026-05-02T07:54:01Z</time></trkpt><trkpt lat="44.83945708655137" lon="1.7351023352837376"><ele>418.0</ele><time>2026-05-02T07:54:02Z</time></trkpt><trkpt lat="44.83936297472393" lon="1.735302423516942"><ele>418.0</ele><time>2026-05-02T07:54:03Z</time></trkpt><trkpt lat="44.839280009555026" lon="1.735486480580141"><ele>418.75</ele><time>2026-05-02T07:54:04Z</time></trkpt><trkpt lat="44.83920082196761" lon="1.735651817914304"><ele>419.5</ele><time>2026-05-02T07:54:05Z</time></trkpt><trkpt lat="44.83913064078449" lon="1.7358064786788026"><ele>420.25</ele><time>2026-05-02T07:54:06Z</time></trkpt><trkpt lat="44.83906331838088" lon="1.7359591046090308"><ele>421.0</ele><time>2026-05-02T07:54:07Z</time></trkpt><trkpt lat="44.838989182031895" lon="1.7361073663822"><ele>421.6</ele><time>2026-05-02T07:54:08Z</time></trkpt><trkpt lat="44.838911047514735" lon="1.7362391890180757"><ele>422.20000000000005</ele><time>2026-05-02T07:54:09Z</time></trkpt><trkpt lat="44.8388341488558" lon="1.7363587303130112"><ele>422.79999999999995</ele><time>2026-05-02T07:54:10Z</time></trkpt><trkpt lat="44.83875855178513" lon="1.7364578661621863"><ele>423.4</ele><time>2026-05-02T07:54:11Z</time></trkpt><trkpt lat="44.83867831373854" lon="1.7365575599636025"><ele>424.0</ele><time>2026-05-02T07:54:12Z</time></trkpt><trkpt lat="44.838592568185014" lon="1.7366210735176424"><ele>424.00000000000006</ele><time>2026-05-02T07:54:13Z</time></trkpt><trkpt lat="44.83850960223806" lon="1.736680145219849"><ele>424.0</ele><time>2026-05-02T07:54:14Z</time></trkpt><trkpt lat="44.83842462165991" lon="1.7367314062686818"><ele>424.0</ele><time>2026-05-02T07:54:15Z</time></trkpt><trkpt lat="44.83836928478798" lon="1.7367829285891099"><ele>424.0</ele><time>2026-05-02T07:54:16Z</time></trkpt><trkpt lat="44.838254149039834" lon="1.736808514527995"><ele>424.00000000000006</ele><time>2026-05-02T07:54:18Z</time></trkpt><trkpt lat="44.83817978453228" lon="1.736833663275435"><ele>424.0</ele><time>2026-05-02T07:54:20Z</time></trkpt><trkpt lat="44.83807529877893" lon="1.7368668431685454"><ele>423.5</ele><time>2026-05-02T07:54:23Z</time></trkpt><trkpt lat="44.83795271509869" lon="1.7369005206449222"><ele>423.0</ele><time>2026-05-02T07:54:24Z</time></trkpt><trkpt lat="44.8378047537409" lon="1.7369597891403445"><ele>422.5</ele><time>2026-05-02T07:54:25Z</time></trkpt><trkpt lat="44.83763807258543" lon="1.7369840285945533"><ele>422.0</ele><time>2026-05-02T07:54:26Z</time></trkpt><trkpt lat="44.837447540093585" lon="1.7370324206330747"><ele>420.66666666666663</ele><time>2026-05-02T07:54:27Z</time></trkpt><trkpt lat="44.83725421995613" lon="1.7370813555491735"><ele>419.33333333333337</ele><time>2026-05-02T07:54:28Z</time></trkpt><trkpt lat="44.83705423498364" lon="1.7371288825830669"><ele>418.0</ele><time>2026-05-02T07:54:29Z</time></trkpt><trkpt lat="44.836875585687984" lon="1.7371699973863168"><ele>417.6666666666667</ele><time>2026-05-02T07:54:30Z</time></trkpt><trkpt lat="44.83670139114749" lon="1.7372023772213094"><ele>417.33333333333337</ele><time>2026-05-02T07:54:31Z</time></trkpt><trkpt lat="44.836530316496706" lon="1.737237564662329"><ele>417.0</ele><time>2026-05-02T07:54:32Z</time></trkpt><trkpt lat="44.83637410323178" lon="1.7372852650577795"><ele>417.0</ele><time>2026-05-02T07:54:33Z</time></trkpt><trkpt lat="44.83621912243745" lon="1.7373260581674308"><ele>417.0</ele><time>2026-05-02T07:54:34Z</time></trkpt><trkpt lat="44.836057031859575" lon="1.7373685104605003"><ele>417.0</ele><time>2026-05-02T07:54:35Z</time></trkpt><trkpt lat="44.83590146424771" lon="1.7374092543496398"><ele>416.25</ele><time>2026-05-02T07:54:36Z</time></trkpt><trkpt lat="44.83575992117487" lon="1.7374473765126544"><ele>415.5</ele><time>2026-05-02T07:54:37Z</time></trkpt><trkpt lat="44.83563495507053" lon="1.7374815390320064"><ele>414.75</ele><time>2026-05-02T07:54:38Z</time></trkpt><trkpt lat="44.83552771366794" lon="1.737511475407574"><ele>414.0</ele><time>2026-05-02T07:54:39Z</time></trkpt><trkpt lat="44.83543802469297" lon="1.7375398329536007"><ele>414.0</ele><time>2026-05-02T07:54:40Z</time></trkpt><trkpt lat="44.83535943215171" lon="1.73756061871193"><ele>414.0</ele><time>2026-05-02T07:54:41Z</time></trkpt><trkpt lat="44.83527055536015" lon="1.7375923467512122"><ele>414.0</ele><time>2026-05-02T07:54:47Z</time></trkpt><trkpt lat="44.83515187478249" lon="1.7376135673917392"><ele>414.0</ele><time>2026-05-02T07:54:48Z</time></trkpt><trkpt lat="44.83500470088355" lon="1.73762124990736"><ele>414.0</ele><time>2026-05-02T07:54:49Z</time></trkpt><trkpt lat="44.834836133032326" lon="1.7376488150418428"><ele>412.66666666666663</ele><time>2026-05-02T07:54:49.999Z</time></trkpt><trkpt lat="44.83464609789252" lon="1.7376761547191641"><ele>411.3333333333333</ele><time>2026-05-02T07:54:50.999Z</time></trkpt><trkpt lat="44.83445788787375" lon="1.7376902048692473"><ele>410.0</ele><time>2026-05-02T07:54:51.999Z</time></trkpt><trkpt lat="44.83429282382289" lon="1.7376794440932428"><ele>408.3333333333333</ele><time>2026-05-02T07:54:52.999Z</time></trkpt><trkpt lat="44.834113557682336" lon="1.7376619878353854"><ele>406.66666666666663</ele><time>2026-05-02T07:54:53.999Z</time></trkpt><trkpt lat="44.83392156808831" lon="1.7376588796741737"><ele>405.0</ele><time>2026-05-02T07:54:54.999Z</time></trkpt><trkpt lat="44.83372558280337" lon="1.737706442867663"><ele>405.0</ele><time>2026-05-02T07:54:55.999Z</time></trkpt><trkpt lat="44.833499730263156" lon="1.7377861453810837"><ele>405.0</ele><time>2026-05-02T07:54:56.999Z</time></trkpt><trkpt lat="44.83326722092251" lon="1.7379056744128758"><ele>404.0</ele><time>2026-05-02T07:54:57.999Z</time></trkpt><trkpt lat="44.83303573915793" lon="1.7380554528750585"><ele>403.0</ele><time>2026-05-02T07:54:58.999Z</time></trkpt><trkpt lat="44.83278891841263" lon="1.738240207308468"><ele>401.0</ele><time>2026-05-02T07:54:59.999Z</time></trkpt><trkpt lat="44.83253186452912" lon="1.7383995812098123"><ele>399.0</ele><time>2026-05-02T07:55:00.999Z</time></trkpt><trkpt lat="44.832289625704554" lon="1.7385701958189312"><ele>399.0</ele><time>2026-05-02T07:55:01.999Z</time></trkpt><trkpt lat="44.832064783066265" lon="1.7387255912815314"><ele>399.0</ele><time>2026-05-02T07:55:02.999Z</time></trkpt><trkpt lat="44.831852295631826" lon="1.7388592378520407"><ele>396.0</ele><time>2026-05-02T07:55:03.999Z</time></trkpt><trkpt lat="44.83164002893362" lon="1.7389851751203618"><ele>393.0</ele><time>2026-05-02T07:55:04.999Z</time></trkpt><trkpt lat="44.83143616252603" lon="1.7391091071939806"><ele>393.0</ele><time>2026-05-02T07:55:05.999Z</time></trkpt><trkpt lat="44.83122335987698" lon="1.7392372976793937"><ele>393.0</ele><time>2026-05-02T07:55:06.999Z</time></trkpt><trkpt lat="44.83099770332776" lon="1.7393704949480517"><ele>387.0</ele><time>2026-05-02T07:55:07.999Z</time></trkpt><trkpt lat="44.830782190071176" lon="1.7394961618020983"><ele>381.0</ele><time>2026-05-02T07:55:08.999Z</time></trkpt><trkpt lat="44.83057495743465" lon="1.7396137264484508"><ele>381.0</ele><time>2026-05-02T07:55:09.999Z</time></trkpt><trkpt lat="44.83037396849457" lon="1.7397347993361383"><ele>381.0</ele><time>2026-05-02T07:55:10.999Z</time></trkpt><trkpt lat="44.83016612000864" lon="1.739874038445447"><ele>381.0</ele><time>2026-05-02T07:55:11.999Z</time></trkpt><trkpt lat="44.82997753774366" lon="1.7400511976635937"><ele>379.0</ele><time>2026-05-02T07:55:12.999Z</time></trkpt><trkpt lat="44.82981609735534" lon="1.7402236760241006"><ele>377.0</ele><time>2026-05-02T07:55:13.999Z</time></trkpt><trkpt lat="44.82965909971605" lon="1.7403680661734604"><ele>375.0</ele><time>2026-05-02T07:55:14.999Z</time></trkpt><trkpt lat="44.8295157602343" lon="1.7404384779494178"><ele>375.0</ele><time>2026-05-02T07:55:15.999Z</time></trkpt><trkpt lat="44.82937467847561" lon="1.7404880852180398"><ele>375.0</ele><time>2026-05-02T07:55:16.999Z</time></trkpt><trkpt lat="44.82921347543805" lon="1.7405356245636812"><ele>375.0</ele><time>2026-05-02T07:55:17.999Z</time></trkpt><trkpt lat="44.82906581067538" lon="1.7405954419851053"><ele>374.6666666666667</ele><time>2026-05-02T07:55:18.999Z</time></trkpt><trkpt lat="44.82891705093809" lon="1.7406651583629469"><ele>374.33333333333337</ele><time>2026-05-02T07:55:19.999Z</time></trkpt><trkpt lat="44.828784807666395" lon="1.7407936496901055"><ele>374.0</ele><time>2026-05-02T07:55:20.999Z</time></trkpt><trkpt lat="44.82866434087509" lon="1.740943139992458"><ele>374.0</ele><time>2026-05-02T07:55:21.999Z</time></trkpt><trkpt lat="44.82854270126044" lon="1.7410447253851633"><ele>374.0</ele><time>2026-05-02T07:55:22.999Z</time></trkpt><trkpt lat="44.82842177945163" lon="1.7411314028337372"><ele>374.0</ele><time>2026-05-02T07:55:23.999Z</time></trkpt><trkpt lat="44.82829457887433" lon="1.741191051788006"><ele>374.0</ele><time>2026-05-02T07:55:24.999Z</time></trkpt><trkpt lat="44.82814880680632" lon="1.7412391513945322"><ele>373.0</ele><time>2026-05-02T07:55:25.999Z</time></trkpt><trkpt lat="44.827992330755315" lon="1.7412736655710215"><ele>372.0</ele><time>2026-05-02T07:55:26.999Z</time></trkpt><trkpt lat="44.82783585682741" lon="1.7413372670698015"><ele>371.0</ele><time>2026-05-02T07:55:27.999Z</time></trkpt><trkpt lat="44.82771850040988" lon="1.741429870655555"><ele>369.33333333333337</ele><time>2026-05-02T07:55:28.999Z</time></trkpt><trkpt lat="44.827620210561584" lon="1.7415681217357302"><ele>367.6666666666667</ele><time>2026-05-02T07:55:29.999Z</time></trkpt><trkpt lat="44.82750721123754" lon="1.7417242451948232"><ele>366.0</ele><time>2026-05-02T07:55:30.999Z</time></trkpt><trkpt lat="44.827377143603755" lon="1.7419011205172406"><ele>365.6666666666667</ele><time>2026-05-02T07:55:31.999Z</time></trkpt><trkpt lat="44.8272557877657" lon="1.7420836861959237"><ele>365.33333333333337</ele><time>2026-05-02T07:55:32.999Z</time></trkpt><trkpt lat="44.82717363460826" lon="1.7422914723016967"><ele>365.0</ele><time>2026-05-02T07:55:33.999Z</time></trkpt><trkpt lat="44.827102043375305" lon="1.7425187417938635"><ele>365.0</ele><time>2026-05-02T07:55:34.999Z</time></trkpt><trkpt lat="44.82703315961148" lon="1.7427230837358805"><ele>365.0</ele><time>2026-05-02T07:55:35.999Z</time></trkpt><trkpt lat="44.82698542270117" lon="1.742930846962593"><ele>365.0</ele><time>2026-05-02T07:55:36.999Z</time></trkpt><trkpt lat="44.82691304280983" lon="1.7431264273424252"><ele>365.0</ele><time>2026-05-02T07:55:37.999Z</time></trkpt><trkpt lat="44.82683730533068" lon="1.7433307178523263"><ele>365.0</ele><time>2026-05-02T07:55:38.999Z</time></trkpt><trkpt lat="44.82676963578212" lon="1.7435413047192372"><ele>365.0</ele><time>2026-05-02T07:55:39.999Z</time></trkpt><trkpt lat="44.826695820906295" lon="1.7437245890450448"><ele>366.0</ele><time>2026-05-02T07:55:40.999Z</time></trkpt><trkpt lat="44.8266207086814" lon="1.7438787822834843"><ele>367.0</ele><time>2026-05-02T07:55:41.999Z</time></trkpt><trkpt lat="44.82655097571283" lon="1.7440169761783162"><ele>368.0</ele><time>2026-05-02T07:55:42.999Z</time></trkpt><trkpt lat="44.82647864987344" lon="1.744142068424356"><ele>369.0</ele><time>2026-05-02T07:55:43.999Z</time></trkpt><trkpt lat="44.82638896649176" lon="1.7442459907509107"><ele>369.0</ele><time>2026-05-02T07:55:44.999Z</time></trkpt><trkpt lat="44.8262817635135" lon="1.744341362382141"><ele>369.0</ele><time>2026-05-02T07:55:45.999Z</time></trkpt><trkpt lat="44.826175342514865" lon="1.7444467912995711"><ele>369.0</ele><time>2026-05-02T07:55:46.999Z</time></trkpt><trkpt lat="44.826080197800856" lon="1.7445780263071327"><ele>369.0</ele><time>2026-05-02T07:55:47.999Z</time></trkpt><trkpt lat="44.82599799466995" lon="1.7447392650187783"><ele>369.0</ele><time>2026-05-02T07:55:48.999Z</time></trkpt><trkpt lat="44.825935699583844" lon="1.7448979053328215"><ele>369.0</ele><time>2026-05-02T07:55:49.999Z</time></trkpt><trkpt lat="44.82588482456989" lon="1.7450402161714624"><ele>369.0</ele><time>2026-05-02T07:55:50.999Z</time></trkpt><trkpt lat="44.82583410897439" lon="1.7451679921851628"><ele>369.0</ele><time>2026-05-02T07:55:51.999Z</time></trkpt><trkpt lat="44.825782995195226" lon="1.7452886331513906"><ele>369.0</ele><time>2026-05-02T07:55:52.999Z</time></trkpt><trkpt lat="44.82573097758369" lon="1.7454126882159842"><ele>369.0</ele><time>2026-05-02T07:55:53.999Z</time></trkpt><trkpt lat="44.82567662107644" lon="1.7455327881532832"><ele>369.0</ele><time>2026-05-02T07:55:54.999Z</time></trkpt><trkpt lat="44.8256232910136" lon="1.745645920522831"><ele>369.0</ele><time>2026-05-02T07:55:55.999Z</time></trkpt><trkpt lat="44.82557406592321" lon="1.7457548697379595"><ele>369.0</ele><time>2026-05-02T07:55:57Z</time></trkpt><trkpt lat="44.82553397566181" lon="1.7458577893173968"><ele>369.0</ele><time>2026-05-02T07:55:58Z</time></trkpt><trkpt lat="44.8255083278601" lon="1.7459588762139948"><ele>369.0</ele><time>2026-05-02T07:55:59Z</time></trkpt><trkpt lat="44.8254906994261" lon="1.7460714685925702"><ele>369.5</ele><time>2026-05-02T07:56:00Z</time></trkpt><trkpt lat="44.825474747033844" lon="1.7461914031915804"><ele>370.0</ele><time>2026-05-02T07:56:01Z</time></trkpt><trkpt lat="44.82547280377683" lon="1.7463069525473052"><ele>370.5</ele><time>2026-05-02T07:56:02Z</time></trkpt><trkpt lat="44.825485515754345" lon="1.7464186990323411"><ele>371.0</ele><time>2026-05-02T07:56:03Z</time></trkpt><trkpt lat="44.82550021638709" lon="1.7465281335368534"><ele>371.5</ele><time>2026-05-02T07:56:04Z</time></trkpt><trkpt lat="44.82550686179192" lon="1.7466326811223156"><ele>372.0</ele><time>2026-05-02T07:56:05Z</time></trkpt><trkpt lat="44.82550125920047" lon="1.7467318705458703"><ele>372.00000000000006</ele><time>2026-05-02T07:56:06Z</time></trkpt><trkpt lat="44.82549532941283" lon="1.7468430988633172"><ele>372.0</ele><time>2026-05-02T07:56:07Z</time></trkpt><trkpt lat="44.82547998633276" lon="1.7469463187060212"><ele>372.0</ele><time>2026-05-02T07:56:08Z</time></trkpt><trkpt lat="44.825445494700254" lon="1.7470405580838992"><ele>372.0</ele><time>2026-05-02T07:56:09Z</time></trkpt><trkpt lat="44.82540503681906" lon="1.747130368904973"><ele>372.0</ele><time>2026-05-02T07:56:10Z</time></trkpt><trkpt lat="44.825364463741224" lon="1.747211919536165"><ele>372.00000000000006</ele><time>2026-05-02T07:56:11Z</time></trkpt><trkpt lat="44.82532484339856" lon="1.7472966495506594"><ele>372.0</ele><time>2026-05-02T07:56:12Z</time></trkpt><trkpt lat="44.825287840336124" lon="1.7473851045669073"><ele>372.0</ele><time>2026-05-02T07:56:13Z</time></trkpt><trkpt lat="44.82524554398164" lon="1.7474660037510408"><ele>372.0</ele><time>2026-05-02T07:56:14Z</time></trkpt><trkpt lat="44.82520770169573" lon="1.747546314931779"><ele>372.0</ele><time>2026-05-02T07:56:15Z</time></trkpt><trkpt lat="44.82517752040044" lon="1.747627976283917"><ele>372.0</ele><time>2026-05-02T07:56:16Z</time></trkpt><trkpt lat="44.82512565906979" lon="1.7477713721347918"><ele>372.0</ele><time>2026-05-02T07:56:18Z</time></trkpt><trkpt lat="44.825062018843106" lon="1.747906135089419"><ele>372.0</ele><time>2026-05-02T07:56:20Z</time></trkpt><trkpt lat="44.825005014867116" lon="1.7480427814081525"><ele>370.0</ele><time>2026-05-02T07:56:22Z</time></trkpt><trkpt lat="44.82495787311915" lon="1.74813350205622"><ele>368.0</ele><time>2026-05-02T07:56:23Z</time></trkpt><trkpt lat="44.82490970871501" lon="1.7482436053014596"><ele>366.0</ele><time>2026-05-02T07:56:24Z</time></trkpt><trkpt lat="44.82486091696948" lon="1.748373623295872"><ele>364.0</ele><time>2026-05-02T07:56:25Z</time></trkpt><trkpt lat="44.82481078036113" lon="1.748528412700916"><ele>362.0</ele><time>2026-05-02T07:56:26Z</time></trkpt><trkpt lat="44.824746260663574" lon="1.7486967705858056"><ele>362.0</ele><time>2026-05-02T07:56:27Z</time></trkpt><trkpt lat="44.8246910916996" lon="1.7488880189670448"><ele>362.0</ele><time>2026-05-02T07:56:28Z</time></trkpt><trkpt lat="44.824639906423734" lon="1.7490676954530422"><ele>362.0</ele><time>2026-05-02T07:56:29Z</time></trkpt><trkpt lat="44.82457212268799" lon="1.7492551600690158"><ele>362.0</ele><time>2026-05-02T07:56:30Z</time></trkpt><trkpt lat="44.824505977996516" lon="1.7494532197889998"><ele>362.0</ele><time>2026-05-02T07:56:31Z</time></trkpt><trkpt lat="44.82444674314437" lon="1.7496569381466898"><ele>362.0</ele><time>2026-05-02T07:56:32Z</time></trkpt><trkpt lat="44.82439411926169" lon="1.7498813732683332"><ele>362.0</ele><time>2026-05-02T07:56:33Z</time></trkpt><trkpt lat="44.82435360586237" lon="1.7501242886875494"><ele>361.33333333333337</ele><time>2026-05-02T07:56:34Z</time></trkpt><trkpt lat="44.82432556579147" lon="1.7503825576099126"><ele>360.6666666666667</ele><time>2026-05-02T07:56:35Z</time></trkpt><trkpt lat="44.82426386582796" lon="1.7506242647105348"><ele>360.0</ele><time>2026-05-02T07:56:36Z</time></trkpt><trkpt lat="44.82418222347829" lon="1.7508276605460078"><ele>357.6666666666667</ele><time>2026-05-02T07:56:37Z</time></trkpt><trkpt lat="44.82407240493677" lon="1.7510130166962659"><ele>355.33333333333337</ele><time>2026-05-02T07:56:38Z</time></trkpt><trkpt lat="44.823940013232914" lon="1.7511628232481948"><ele>353.0</ele><time>2026-05-02T07:56:39Z</time></trkpt><trkpt lat="44.823813415338066" lon="1.751325218630184"><ele>353.0</ele><time>2026-05-02T07:56:40Z</time></trkpt><trkpt lat="44.823659130250576" lon="1.7514782656079262"><ele>353.0</ele><time>2026-05-02T07:56:41Z</time></trkpt><trkpt lat="44.823487703785254" lon="1.7516648861331254"><ele>353.0</ele><time>2026-05-02T07:56:42Z</time></trkpt><trkpt lat="44.82333475239917" lon="1.7518524945103948"><ele>351.0</ele><time>2026-05-02T07:56:43Z</time></trkpt><trkpt lat="44.823211167654485" lon="1.752044942891114"><ele>349.0</ele><time>2026-05-02T07:56:44Z</time></trkpt><trkpt lat="44.82308744741304" lon="1.7522356945810265"><ele>347.0</ele><time>2026-05-02T07:56:45Z</time></trkpt><trkpt lat="44.82296858762096" lon="1.752415260991477"><ele>347.0</ele><time>2026-05-02T07:56:46Z</time></trkpt><trkpt lat="44.82284024011835" lon="1.7525770119183377"><ele>347.0</ele><time>2026-05-02T07:56:47Z</time></trkpt><trkpt lat="44.82270628394013" lon="1.7527317584378073"><ele>347.0</ele><time>2026-05-02T07:56:48Z</time></trkpt><trkpt lat="44.82256907023868" lon="1.7529136109376073"><ele>345.33333333333337</ele><time>2026-05-02T07:56:49Z</time></trkpt><trkpt lat="44.822430774372755" lon="1.753067161583618"><ele>343.6666666666667</ele><time>2026-05-02T07:56:50Z</time></trkpt><trkpt lat="44.82231306672884" lon="1.75320398080071"><ele>342.0</ele><time>2026-05-02T07:56:51Z</time></trkpt><trkpt lat="44.8222000743071" lon="1.7533201805131842"><ele>342.0</ele><time>2026-05-02T07:56:51.999Z</time></trkpt><trkpt lat="44.82208771925344" lon="1.7534326774199702"><ele>342.0</ele><time>2026-05-02T07:56:52.999Z</time></trkpt><trkpt lat="44.82196980748422" lon="1.7535336123247938"><ele>342.0</ele><time>2026-05-02T07:56:53.999Z</time></trkpt><trkpt lat="44.82184767798506" lon="1.7536608565569394"><ele>342.0</ele><time>2026-05-02T07:56:54.999Z</time></trkpt><trkpt lat="44.821718915101854" lon="1.753726971450343"><ele>340.5</ele><time>2026-05-02T07:56:55.999Z</time></trkpt><trkpt lat="44.82159825786106" lon="1.7537843412474847"><ele>339.0</ele><time>2026-05-02T07:56:56.999Z</time></trkpt><trkpt lat="44.82147690697069" lon="1.7538145138035763"><ele>337.5</ele><time>2026-05-02T07:56:57.999Z</time></trkpt><trkpt lat="44.82134462749938" lon="1.7538465933677438"><ele>336.0</ele><time>2026-05-02T07:56:58.999Z</time></trkpt><trkpt lat="44.821210242211016" lon="1.7538725771692452"><ele>336.0</ele><time>2026-05-02T07:56:59.999Z</time></trkpt><trkpt lat="44.82108099475113" lon="1.7538889361073207"><ele>336.0</ele><time>2026-05-02T07:57:00.999Z</time></trkpt><trkpt lat="44.82093618032655" lon="1.753886573747826"><ele>336.0</ele><time>2026-05-02T07:57:01.999Z</time></trkpt><trkpt lat="44.8208154795979" lon="1.75388456845358"><ele>336.0</ele><time>2026-05-02T07:57:02.999Z</time></trkpt><trkpt lat="44.82070268887896" lon="1.7539079307172127"><ele>334.75</ele><time>2026-05-02T07:57:03.999Z</time></trkpt><trkpt lat="44.82057747178744" lon="1.7539711742136201"><ele>333.5</ele><time>2026-05-02T07:57:04.999Z</time></trkpt><trkpt lat="44.82046109248473" lon="1.7540356586642447"><ele>332.25</ele><time>2026-05-02T07:57:05.999Z</time></trkpt><trkpt lat="44.82035523769231" lon="1.7540949622933606"><ele>331.0</ele><time>2026-05-02T07:57:06.999Z</time></trkpt><trkpt lat="44.8202569304039" lon="1.7541546416220424"><ele>330.75</ele><time>2026-05-02T07:57:07.999Z</time></trkpt><trkpt lat="44.820139500762615" lon="1.7542020578623623"><ele>330.5</ele><time>2026-05-02T07:57:08.999Z</time></trkpt><trkpt lat="44.82001203346758" lon="1.7542768237566622"><ele>330.25</ele><time>2026-05-02T07:57:09.999Z</time></trkpt><trkpt lat="44.819888484699106" lon="1.754352526461447"><ele>330.0</ele><time>2026-05-02T07:57:10.999Z</time></trkpt><trkpt lat="44.8197733697024" lon="1.754444836169661"><ele>330.5</ele><time>2026-05-02T07:57:11.999Z</time></trkpt><trkpt lat="44.81963442344332" lon="1.7545060124128833"><ele>331.0</ele><time>2026-05-02T07:57:12.999Z</time></trkpt><trkpt lat="44.819525738341596" lon="1.75456748180377"><ele>331.5</ele><time>2026-05-02T07:57:13.999Z</time></trkpt><trkpt lat="44.81942305131696" lon="1.7546253914771037"><ele>332.0</ele><time>2026-05-02T07:57:14.999Z</time></trkpt><trkpt lat="44.819336135253174" lon="1.7546885755301729"><ele>331.8</ele><time>2026-05-02T07:57:15.999Z</time></trkpt><trkpt lat="44.81925176840155" lon="1.754729987108536"><ele>331.6</ele><time>2026-05-02T07:57:16.999Z</time></trkpt><trkpt lat="44.81917336461456" lon="1.754776687209223"><ele>331.40000000000003</ele><time>2026-05-02T07:57:17.999Z</time></trkpt><trkpt lat="44.819094370088656" lon="1.7548189560597545"><ele>331.20000000000005</ele><time>2026-05-02T07:57:18.999Z</time></trkpt><trkpt lat="44.819008599673055" lon="1.7548585999860244"><ele>331.0</ele><time>2026-05-02T07:57:20.999Z</time></trkpt><trkpt lat="44.81889902342838" lon="1.7549463216081793"><ele>331.0</ele><time>2026-05-02T07:57:22.999Z</time></trkpt><trkpt lat="44.8188429611276" lon="1.7550143863424597"><ele>331.0</ele><time>2026-05-02T07:57:23.999Z</time></trkpt><trkpt lat="44.818754354612004" lon="1.7550541637819836"><ele>331.0</ele><time>2026-05-02T07:57:24.999Z</time></trkpt><trkpt lat="44.818663572981905" lon="1.7551156591638797"><ele>331.0</ele><time>2026-05-02T07:57:25.999Z</time></trkpt><trkpt lat="44.81858735719262" lon="1.7551849369149897"><ele>331.0</ele><time>2026-05-02T07:57:26.999Z</time></trkpt><trkpt lat="44.81849023391729" lon="1.7552450886890136"><ele>330.5</ele><time>2026-05-02T07:57:27.999Z</time></trkpt><trkpt lat="44.818385369551855" lon="1.7553283383785525"><ele>330.0</ele><time>2026-05-02T07:57:28.999Z</time></trkpt><trkpt lat="44.81828343275653" lon="1.755396666705346"><ele>329.5</ele><time>2026-05-02T07:57:29.999Z</time></trkpt><trkpt lat="44.81816663122467" lon="1.7554804130770438"><ele>329.0</ele><time>2026-05-02T07:57:30.999Z</time></trkpt><trkpt lat="44.818045464847785" lon="1.7555574088052905"><ele>329.0</ele><time>2026-05-02T07:57:31.999Z</time></trkpt><trkpt lat="44.81793831444876" lon="1.75562641698645"><ele>329.0</ele><time>2026-05-02T07:57:32.999Z</time></trkpt><trkpt lat="44.81783010572216" lon="1.7557010597075797"><ele>329.0</ele><time>2026-05-02T07:57:33.999Z</time></trkpt><trkpt lat="44.81771531388087" lon="1.755786464467707"><ele>329.0</ele><time>2026-05-02T07:57:34.999Z</time></trkpt><trkpt lat="44.81759494880157" lon="1.7558546474407348"><ele>329.0</ele><time>2026-05-02T07:57:35.999Z</time></trkpt><trkpt lat="44.817470291505636" lon="1.7559452159310298"><ele>329.0</ele><time>2026-05-02T07:57:36.999Z</time></trkpt><trkpt lat="44.81735486476313" lon="1.7560542984598424"><ele>329.0</ele><time>2026-05-02T07:57:37.999Z</time></trkpt><trkpt lat="44.81722303830914" lon="1.7561308421602162"><ele>329.0</ele><time>2026-05-02T07:57:38.999Z</time></trkpt><trkpt lat="44.81710100914034" lon="1.7562481216872876"><ele>329.0</ele><time>2026-05-02T07:57:39.999Z</time></trkpt><trkpt lat="44.81696850032516" lon="1.756344160868244"><ele>329.0</ele><time>2026-05-02T07:57:40.999Z</time></trkpt><trkpt lat="44.81683774852901" lon="1.756444859206573"><ele>329.0</ele><time>2026-05-02T07:57:41.999Z</time></trkpt><trkpt lat="44.81671171455816" lon="1.756537618065418"><ele>329.0</ele><time>2026-05-02T07:57:42.999Z</time></trkpt><trkpt lat="44.81657862068452" lon="1.7566097260231126"><ele>329.0</ele><time>2026-05-02T07:57:43.999Z</time></trkpt><trkpt lat="44.81645723496705" lon="1.7567105514702288"><ele>329.0</ele><time>2026-05-02T07:57:44.999Z</time></trkpt><trkpt lat="44.81632788936734" lon="1.7568092889644744"><ele>329.0</ele><time>2026-05-02T07:57:45.999Z</time></trkpt><trkpt lat="44.816193987342025" lon="1.7569030974688764"><ele>329.0</ele><time>2026-05-02T07:57:46.999Z</time></trkpt><trkpt lat="44.8160592079782" lon="1.7569912446883391"><ele>328.33333333333337</ele><time>2026-05-02T07:57:47.999Z</time></trkpt><trkpt lat="44.81592517639753" lon="1.7570976796612565"><ele>327.6666666666667</ele><time>2026-05-02T07:57:48.999Z</time></trkpt><trkpt lat="44.815791877680304" lon="1.7572005762703546"><ele>327.0</ele><time>2026-05-02T07:57:49.999Z</time></trkpt><trkpt lat="44.81565402175623" lon="1.7573181585902753"><ele>327.0</ele><time>2026-05-02T07:57:50.999Z</time></trkpt><trkpt lat="44.81551437820478" lon="1.7574309227286482"><ele>327.0</ele><time>2026-05-02T07:57:51.999Z</time></trkpt><trkpt lat="44.81538280179813" lon="1.7575359010041358"><ele>327.0</ele><time>2026-05-02T07:57:52.999Z</time></trkpt><trkpt lat="44.81525155358908" lon="1.7576328670072183"><ele>328.3333333333333</ele><time>2026-05-02T07:57:53.999Z</time></trkpt><trkpt lat="44.815112739538286" lon="1.7577184537270576"><ele>329.66666666666663</ele><time>2026-05-02T07:57:54.999Z</time></trkpt><trkpt lat="44.814967009979405" lon="1.7577872598740285"><ele>331.0</ele><time>2026-05-02T07:57:55.999Z</time></trkpt><trkpt lat="44.814816716533166" lon="1.7578437425579723"><ele>331.0</ele><time>2026-05-02T07:57:56.999Z</time></trkpt><trkpt lat="44.81466388521101" lon="1.7578989492060368"><ele>331.0</ele><time>2026-05-02T07:57:57.999Z</time></trkpt><trkpt lat="44.81450623090012" lon="1.7579550902293375"><ele>331.0</ele><time>2026-05-02T07:57:58.999Z</time></trkpt><trkpt lat="44.81435003227393" lon="1.7580135025877437"><ele>330.0</ele><time>2026-05-02T07:57:59.999Z</time></trkpt><trkpt lat="44.814187978335895" lon="1.7580767162866011"><ele>329.0</ele><time>2026-05-02T07:58:00.999Z</time></trkpt><trkpt lat="44.81402664512318" lon="1.7581395808662403"><ele>328.0</ele><time>2026-05-02T07:58:01.999Z</time></trkpt><trkpt lat="44.81386812713411" lon="1.758206130857744"><ele>328.0</ele><time>2026-05-02T07:58:03Z</time></trkpt><trkpt lat="44.81370725142089" lon="1.758275087810425"><ele>328.0</ele><time>2026-05-02T07:58:04Z</time></trkpt><trkpt lat="44.813537960306626" lon="1.758347536882422"><ele>328.0</ele><time>2026-05-02T07:58:05Z</time></trkpt><trkpt lat="44.81336709834239" lon="1.758406272948736"><ele>327.0</ele><time>2026-05-02T07:58:06Z</time></trkpt><trkpt lat="44.81318999474467" lon="1.7584579599322854"><ele>326.0</ele><time>2026-05-02T07:58:07Z</time></trkpt><trkpt lat="44.81301111127221" lon="1.7584984048225631"><ele>325.0</ele><time>2026-05-02T07:58:08Z</time></trkpt><trkpt lat="44.81282228318187" lon="1.7585039653839614"><ele>325.0</ele><time>2026-05-02T07:58:09Z</time></trkpt><trkpt lat="44.812621326209374" lon="1.7584537001022231"><ele>325.0</ele><time>2026-05-02T07:58:10Z</time></trkpt><trkpt lat="44.81240312340425" lon="1.7584316154649646"><ele>325.0</ele><time>2026-05-02T07:58:11Z</time></trkpt><trkpt lat="44.812197885896495" lon="1.7584362255030028"><ele>325.0</ele><time>2026-05-02T07:58:12Z</time></trkpt><trkpt lat="44.81201499982168" lon="1.75844166867473"><ele>325.0</ele><time>2026-05-02T07:58:13Z</time></trkpt><trkpt lat="44.81181774434484" lon="1.7584680981344492"><ele>325.0</ele><time>2026-05-02T07:58:14Z</time></trkpt><trkpt lat="44.811591473889564" lon="1.7584991620332704"><ele>327.0</ele><time>2026-05-02T07:58:15Z</time></trkpt><trkpt lat="44.81134096418375" lon="1.7585663906529372"><ele>329.0</ele><time>2026-05-02T07:58:16Z</time></trkpt><trkpt lat="44.811074316145465" lon="1.7586380111027071"><ele>327.5</ele><time>2026-05-02T07:58:17Z</time></trkpt><trkpt lat="44.81079009806275" lon="1.7587146922639245"><ele>326.0</ele><time>2026-05-02T07:58:18Z</time></trkpt><trkpt lat="44.81051302254606" lon="1.7587883437256029"><ele>326.0</ele><time>2026-05-02T07:58:19Z</time></trkpt><trkpt lat="44.81022381607384" lon="1.7588570765690976"><ele>326.0</ele><time>2026-05-02T07:58:20Z</time></trkpt><trkpt lat="44.80993317970487" lon="1.7589008355855118"><ele>325.0</ele><time>2026-05-02T07:58:21Z</time></trkpt><trkpt lat="44.80965047083713" lon="1.758930623346133"><ele>324.0</ele><time>2026-05-02T07:58:22Z</time></trkpt><trkpt lat="44.80939940638294" lon="1.758969949303872"><ele>324.0</ele><time>2026-05-02T07:58:23Z</time></trkpt><trkpt lat="44.809149787711064" lon="1.7590373589917923"><ele>324.0</ele><time>2026-05-02T07:58:24Z</time></trkpt><trkpt lat="44.80888690785683" lon="1.7591290203020953"><ele>324.0</ele><time>2026-05-02T07:58:25Z</time></trkpt><trkpt lat="44.808614719768414" lon="1.7592262252408009"><ele>324.0</ele><time>2026-05-02T07:58:26Z</time></trkpt><trkpt lat="44.80832554315972" lon="1.759329167399381"><ele>324.5</ele><time>2026-05-02T07:58:27Z</time></trkpt><trkpt lat="44.808033470388466" lon="1.7594302534004171"><ele>325.0</ele><time>2026-05-02T07:58:28Z</time></trkpt><trkpt lat="44.80774014462841" lon="1.7595317751314874"><ele>323.0</ele><time>2026-05-02T07:58:29Z</time></trkpt><trkpt lat="44.80745702896666" lon="1.7596452101385627"><ele>321.0</ele><time>2026-05-02T07:58:30Z</time></trkpt><trkpt lat="44.80717971281559" lon="1.759815490465184"><ele>321.0</ele><time>2026-05-02T07:58:31Z</time></trkpt><trkpt lat="44.8068891016798" lon="1.7599712588681906"><ele>321.0</ele><time>2026-05-02T07:58:32Z</time></trkpt><trkpt lat="44.8066300554041" lon="1.7601255049394349"><ele>321.0</ele><time>2026-05-02T07:58:33Z</time></trkpt><trkpt lat="44.806418479359685" lon="1.760247858022922"><ele>321.0</ele><time>2026-05-02T07:58:34Z</time></trkpt><trkpt lat="44.80622649476717" lon="1.7603346698520113"><ele>321.0</ele><time>2026-05-02T07:58:35Z</time></trkpt><trkpt lat="44.80603167680114" lon="1.7603722365855978"><ele>319.0</ele><time>2026-05-02T07:58:36Z</time></trkpt><trkpt lat="44.805811681641565" lon="1.7603420988609408"><ele>317.0</ele><time>2026-05-02T07:58:37Z</time></trkpt><trkpt lat="44.80556000539843" lon="1.7603188738793831"><ele>317.0</ele><time>2026-05-02T07:58:38Z</time></trkpt><trkpt lat="44.80530623050018" lon="1.760327517562366"><ele>317.0</ele><time>2026-05-02T07:58:39Z</time></trkpt><trkpt lat="44.80506410174759" lon="1.7603687289664203"><ele>318.0</ele><time>2026-05-02T07:58:40Z</time></trkpt><trkpt lat="44.80480683122299" lon="1.7604423454550722"><ele>319.0</ele><time>2026-05-02T07:58:41Z</time></trkpt><trkpt lat="44.804535943384195" lon="1.7604792499747002"><ele>317.5</ele><time>2026-05-02T07:58:42Z</time></trkpt><trkpt lat="44.804258410213116" lon="1.7605091604668035"><ele>316.0</ele><time>2026-05-02T07:58:43Z</time></trkpt><trkpt lat="44.804003275814175" lon="1.7605366164343095"><ele>316.0</ele><time>2026-05-02T07:58:44Z</time></trkpt><trkpt lat="44.803750911278456" lon="1.760552494732412"><ele>316.0</ele><time>2026-05-02T07:58:45Z</time></trkpt><trkpt lat="44.8034816396139" lon="1.7605122881242967"><ele>315.5</ele><time>2026-05-02T07:58:46Z</time></trkpt><trkpt lat="44.803195420559526" lon="1.7604546001645958"><ele>315.0</ele><time>2026-05-02T07:58:47Z</time></trkpt><trkpt lat="44.802905516964216" lon="1.7604451647648216"><ele>314.5</ele><time>2026-05-02T07:58:48Z</time></trkpt><trkpt lat="44.80263188310427" lon="1.760419627606617"><ele>314.0</ele><time>2026-05-02T07:58:49Z</time></trkpt><trkpt lat="44.802392416034415" lon="1.7603768466743213"><ele>314.0</ele><time>2026-05-02T07:58:50Z</time></trkpt><trkpt lat="44.802166163859816" lon="1.76035633430507"><ele>314.0</ele><time>2026-05-02T07:58:51Z</time></trkpt><trkpt lat="44.801953083029545" lon="1.7603370160658551"><ele>314.0</ele><time>2026-05-02T07:58:52Z</time></trkpt><trkpt lat="44.80175298478975" lon="1.7603188748268517"><ele>313.6666666666667</ele><time>2026-05-02T07:58:53Z</time></trkpt><trkpt lat="44.801559491870755" lon="1.760303762820371"><ele>313.3333333333333</ele><time>2026-05-02T07:58:54Z</time></trkpt><trkpt lat="44.80137025011522" lon="1.760289711686512"><ele>313.0</ele><time>2026-05-02T07:58:55Z</time></trkpt><trkpt lat="44.801179027378346" lon="1.7602755137359354"><ele>313.3333333333333</ele><time>2026-05-02T07:58:56Z</time></trkpt><trkpt lat="44.80099208529703" lon="1.7602616336852681"><ele>313.6666666666667</ele><time>2026-05-02T07:58:57Z</time></trkpt><trkpt lat="44.800802783557536" lon="1.7602475784346046"><ele>314.0</ele><time>2026-05-02T07:58:58Z</time></trkpt><trkpt lat="44.800614567467925" lon="1.760235145793513"><ele>314.0</ele><time>2026-05-02T07:58:58.999Z</time></trkpt><trkpt lat="44.80044604663213" lon="1.760248149598412"><ele>314.0</ele><time>2026-05-02T07:58:59.999Z</time></trkpt><trkpt lat="44.800288200742706" lon="1.7602360821094094"><ele>314.0</ele><time>2026-05-02T07:59:00.999Z</time></trkpt><trkpt lat="44.80013943437082" lon="1.7602206319719604"><ele>314.0</ele><time>2026-05-02T07:59:01.999Z</time></trkpt><trkpt lat="44.80000028670546" lon="1.7602131585603817"><ele>314.0</ele><time>2026-05-02T07:59:02.999Z</time></trkpt><trkpt lat="44.79985560310345" lon="1.760198214156794"><ele>314.0</ele><time>2026-05-02T07:59:03.999Z</time></trkpt><trkpt lat="44.79970703688976" lon="1.7601951347088005"><ele>314.0</ele><time>2026-05-02T07:59:04.999Z</time></trkpt><trkpt lat="44.79957698968887" lon="1.7602090854621943"><ele>314.0</ele><time>2026-05-02T07:59:05.999Z</time></trkpt><trkpt lat="44.79946344288472" lon="1.7602427322956082"><ele>314.0</ele><time>2026-05-02T07:59:06.999Z</time></trkpt><trkpt lat="44.7993732067849" lon="1.7603012163164486"><ele>314.0</ele><time>2026-05-02T07:59:07.999Z</time></trkpt><trkpt lat="44.799306428932304" lon="1.760341954926746"><ele>314.0</ele><time>2026-05-02T07:59:08.999Z</time></trkpt><trkpt lat="44.7992231333188" lon="1.760394343731803"><ele>314.0</ele><time>2026-05-02T07:59:10.999Z</time></trkpt><trkpt lat="44.79913126966083" lon="1.7604353566002129"><ele>313.6666666666667</ele><time>2026-05-02T07:59:13.999Z</time></trkpt><trkpt lat="44.79905303888941" lon="1.760465494193177"><ele>313.33333333333337</ele><time>2026-05-02T07:59:15.999Z</time></trkpt><trkpt lat="44.79898998967555" lon="1.7604936756123626"><ele>313.0</ele><time>2026-05-02T07:59:23.999Z</time></trkpt><trkpt lat="44.79890367655383" lon="1.7605153550373491"><ele>312.6666666666667</ele><time>2026-05-02T07:59:26.999Z</time></trkpt><trkpt lat="44.79883599348676" lon="1.7605180687477635"><ele>312.3333333333333</ele><time>2026-05-02T07:59:32.999Z</time></trkpt><trkpt lat="44.798754892769395" lon="1.7604633003480177"><ele>312.0</ele><time>2026-05-02T08:00:00.999Z</time></trkpt><trkpt lat="44.79868774538509" lon="1.7604056552178398"><ele>312.0</ele><time>2026-05-02T08:00:01.999Z</time></trkpt><trkpt lat="44.798603726853216" lon="1.7603391265980577"><ele>312.0</ele><time>2026-05-02T08:00:02.999Z</time></trkpt><trkpt lat="44.79850371419804" lon="1.7602785520344082"><ele>312.0</ele><time>2026-05-02T08:00:03.999Z</time></trkpt><trkpt lat="44.79839802101415" lon="1.7602263012675725"><ele>312.0</ele><time>2026-05-02T08:00:04.999Z</time></trkpt><trkpt lat="44.79829927888153" lon="1.7601557145829692"><ele>312.0</ele><time>2026-05-02T08:00:05.999Z</time></trkpt><trkpt lat="44.79821096108822" lon="1.7600960312434553"><ele>311.0</ele><time>2026-05-02T08:00:06.999Z</time></trkpt><trkpt lat="44.79812193021878" lon="1.760032072091101"><ele>310.0</ele><time>2026-05-02T08:00:07.999Z</time></trkpt><trkpt lat="44.79802765529993" lon="1.759961689207394"><ele>309.0</ele><time>2026-05-02T08:00:09Z</time></trkpt><trkpt lat="44.79793494552997" lon="1.7598661137150533"><ele>308.0</ele><time>2026-05-02T08:00:10Z</time></trkpt><trkpt lat="44.79782665842986" lon="1.759770017239942"><ele>307.0</ele><time>2026-05-02T08:00:11Z</time></trkpt><trkpt lat="44.79772892113911" lon="1.759658742671475"><ele>306.5</ele><time>2026-05-02T08:00:12Z</time></trkpt><trkpt lat="44.797653497227344" lon="1.7595171945723287"><ele>306.0</ele><time>2026-05-02T08:00:13Z</time></trkpt><trkpt lat="44.79761258662663" lon="1.7593540424493688"><ele>305.5</ele><time>2026-05-02T08:00:14Z</time></trkpt><trkpt lat="44.7976092373741" lon="1.7591620902447525"><ele>305.0</ele><time>2026-05-02T08:00:15Z</time></trkpt><trkpt lat="44.79761381727845" lon="1.758951023009687"><ele>304.6666666666667</ele><time>2026-05-02T08:00:16Z</time></trkpt><trkpt lat="44.797611226215835" lon="1.7587174177398734"><ele>304.3333333333333</ele><time>2026-05-02T08:00:17Z</time></trkpt><trkpt lat="44.79762111986347" lon="1.7584931557393957"><ele>304.0</ele><time>2026-05-02T08:00:18Z</time></trkpt><trkpt lat="44.79762068543574" lon="1.7582877682235145"><ele>303.75</ele><time>2026-05-02T08:00:19Z</time></trkpt><trkpt lat="44.79761560545059" lon="1.75809622922952"><ele>303.5</ele><time>2026-05-02T08:00:20Z</time></trkpt><trkpt lat="44.7976135305995" lon="1.7578842390352953"><ele>303.25</ele><time>2026-05-02T08:00:21Z</time></trkpt><trkpt lat="44.797609061405915" lon="1.757674586187099"><ele>303.0</ele><time>2026-05-02T08:00:22Z</time></trkpt><trkpt lat="44.79760019314121" lon="1.7574836139424221"><ele>303.0</ele><time>2026-05-02T08:00:23Z</time></trkpt><trkpt lat="44.79756480588148" lon="1.757293984981016"><ele>303.0</ele><time>2026-05-02T08:00:24Z</time></trkpt><trkpt lat="44.79749808916025" lon="1.7571433366580624"><ele>303.0</ele><time>2026-05-02T08:00:25Z</time></trkpt><trkpt lat="44.797401926440315" lon="1.7570306294132918"><ele>303.0</ele><time>2026-05-02T08:00:26Z</time></trkpt><trkpt lat="44.79727983037394" lon="1.7569314245253032"><ele>303.5</ele><time>2026-05-02T08:00:27Z</time></trkpt><trkpt lat="44.797155518457785" lon="1.7568108143679666"><ele>304.0</ele><time>2026-05-02T08:00:28Z</time></trkpt><trkpt lat="44.79705174175628" lon="1.756696387291817"><ele>304.5</ele><time>2026-05-02T08:00:29Z</time></trkpt><trkpt lat="44.79695379937661" lon="1.7565855247618163"><ele>305.0</ele><time>2026-05-02T08:00:30Z</time></trkpt><trkpt lat="44.79685922159633" lon="1.7564603647154997"><ele>305.0</ele><time>2026-05-02T08:00:31Z</time></trkpt><trkpt lat="44.79676340705093" lon="1.7563218439745365"><ele>305.0</ele><time>2026-05-02T08:00:32Z</time></trkpt><trkpt lat="44.7966632640044" lon="1.756165947176729"><ele>305.0</ele><time>2026-05-02T08:00:33Z</time></trkpt><trkpt lat="44.79659718019555" lon="1.7559424616164954"><ele>305.0</ele><time>2026-05-02T08:00:34Z</time></trkpt><trkpt lat="44.79654176745641" lon="1.7556945769723111"><ele>305.0</ele><time>2026-05-02T08:00:35Z</time></trkpt><trkpt lat="44.796477580543396" lon="1.755401562578799"><ele>305.0</ele><time>2026-05-02T08:00:36Z</time></trkpt><trkpt lat="44.79639560699581" lon="1.7551266079309935"><ele>305.6666666666667</ele><time>2026-05-02T08:00:37Z</time></trkpt><trkpt lat="44.79631126068445" lon="1.7548980507762462"><ele>306.3333333333333</ele><time>2026-05-02T08:00:38Z</time></trkpt><trkpt lat="44.79621646377898" lon="1.7547006366600955"><ele>307.0</ele><time>2026-05-02T08:00:39Z</time></trkpt><trkpt lat="44.7961117655225" lon="1.7545449951062597"><ele>307.0</ele><time>2026-05-02T08:00:40Z</time></trkpt><trkpt lat="44.796040459426024" lon="1.7543720860622367"><ele>307.0</ele><time>2026-05-02T08:00:41Z</time></trkpt><trkpt lat="44.79595435725568" lon="1.7542378051158523"><ele>307.0</ele><time>2026-05-02T08:00:42Z</time></trkpt><trkpt lat="44.79587940943571" lon="1.754110419919886"><ele>307.0</ele><time>2026-05-02T08:00:43Z</time></trkpt><trkpt lat="44.79580174691838" lon="1.753995550613942"><ele>308.75</ele><time>2026-05-02T08:00:44Z</time></trkpt><trkpt lat="44.795713286134216" lon="1.7538930693405397"><ele>310.5</ele><time>2026-05-02T08:00:45Z</time></trkpt><trkpt lat="44.79563744863686" lon="1.7537712102240859"><ele>312.25</ele><time>2026-05-02T08:00:46Z</time></trkpt><trkpt lat="44.7955423103937" lon="1.7536473325167548"><ele>314.0</ele><time>2026-05-02T08:00:47Z</time></trkpt><trkpt lat="44.79544100550055" lon="1.7535352276577691"><ele>314.25</ele><time>2026-05-02T08:00:48Z</time></trkpt><trkpt lat="44.79535048432093" lon="1.7534092202536187"><ele>314.5</ele><time>2026-05-02T08:00:49Z</time></trkpt><trkpt lat="44.795264893745234" lon="1.7532976660533257"><ele>314.75</ele><time>2026-05-02T08:00:50Z</time></trkpt><trkpt lat="44.795192380250484" lon="1.7531735180505272"><ele>315.0</ele><time>2026-05-02T08:00:51Z</time></trkpt><trkpt lat="44.79512491921594" lon="1.753037189027329"><ele>315.6666666666667</ele><time>2026-05-02T08:00:52Z</time></trkpt><trkpt lat="44.79504871312373" lon="1.7528524667566354"><ele>316.33333333333337</ele><time>2026-05-02T08:00:53Z</time></trkpt><trkpt lat="44.79497143709433" lon="1.7526151748300896"><ele>317.0</ele><time>2026-05-02T08:00:54Z</time></trkpt><trkpt lat="44.79489815892545" lon="1.7523299185786334"><ele>317.0</ele><time>2026-05-02T08:00:55Z</time></trkpt><trkpt lat="44.79484504887108" lon="1.7520070415130493"><ele>317.0</ele><time>2026-05-02T08:00:56Z</time></trkpt><trkpt lat="44.79480406407127" lon="1.7516733816942816"><ele>317.0</ele><time>2026-05-02T08:00:57Z</time></trkpt><trkpt lat="44.794767189580796" lon="1.751321883471591"><ele>317.0</ele><time>2026-05-02T08:00:58Z</time></trkpt><trkpt lat="44.79472355329444" lon="1.7510323991036614"><ele>318.0</ele><time>2026-05-02T08:00:59Z</time></trkpt><trkpt lat="44.794626642905165" lon="1.7507517953507923"><ele>319.0</ele><time>2026-05-02T08:01:00Z</time></trkpt><trkpt lat="44.79449951113709" lon="1.7504344273584869"><ele>318.5</ele><time>2026-05-02T08:01:00.999Z</time></trkpt><trkpt lat="44.79441838447732" lon="1.7500649609840462"><ele>318.0</ele><time>2026-05-02T08:01:01.999Z</time></trkpt><trkpt lat="44.79433954204613" lon="1.7497406026701627"><ele>316.3333333333333</ele><time>2026-05-02T08:01:02.999Z</time></trkpt><trkpt lat="44.794239918720756" lon="1.7494484118255749"><ele>314.66666666666663</ele><time>2026-05-02T08:01:03.999Z</time></trkpt><trkpt lat="44.794135751672854" lon="1.7491906649285842"><ele>313.0</ele><time>2026-05-02T08:01:04.999Z</time></trkpt><trkpt lat="44.79404766649852" lon="1.7489494773234124"><ele>311.66666666666663</ele><time>2026-05-02T08:01:05.999Z</time></trkpt><trkpt lat="44.79396098552199" lon="1.7487297794595684"><ele>310.3333333333333</ele><time>2026-05-02T08:01:06.999Z</time></trkpt><trkpt lat="44.79387540629942" lon="1.7485261641720171"><ele>309.0</ele><time>2026-05-02T08:01:07.999Z</time></trkpt><trkpt lat="44.793757610311935" lon="1.7483355889267953"><ele>308.6666666666667</ele><time>2026-05-02T08:01:08.999Z</time></trkpt><trkpt lat="44.79362933972793" lon="1.7481414570994591"><ele>308.33333333333337</ele><time>2026-05-02T08:01:09.999Z</time></trkpt><trkpt lat="44.79348049493058" lon="1.7479826278837383"><ele>308.0</ele><time>2026-05-02T08:01:10.999Z</time></trkpt><trkpt lat="44.793347366621134" lon="1.7478221472360638"><ele>308.0</ele><time>2026-05-02T08:01:11.999Z</time></trkpt><trkpt lat="44.79321141954598" lon="1.74767080061087"><ele>308.0</ele><time>2026-05-02T08:01:12.999Z</time></trkpt><trkpt lat="44.79307261988" lon="1.7475152863432333"><ele>308.0</ele><time>2026-05-02T08:01:13.999Z</time></trkpt><trkpt lat="44.79293691127938" lon="1.7473632349018349"><ele>308.0</ele><time>2026-05-02T08:01:14.999Z</time></trkpt><trkpt lat="44.792806154973476" lon="1.7472167340077551"><ele>308.0</ele><time>2026-05-02T08:01:15.999Z</time></trkpt><trkpt lat="44.792677474090354" lon="1.747072556785639"><ele>308.0</ele><time>2026-05-02T08:01:16.999Z</time></trkpt><trkpt lat="44.792550886105545" lon="1.746930223597085"><ele>311.33333333333337</ele><time>2026-05-02T08:01:17.999Z</time></trkpt><trkpt lat="44.79242857722864" lon="1.7467907536161829"><ele>314.6666666666667</ele><time>2026-05-02T08:01:18.999Z</time></trkpt><trkpt lat="44.792302384049655" lon="1.7466482337323428"><ele>318.0</ele><time>2026-05-02T08:01:19.999Z</time></trkpt><trkpt lat="44.7921741795084" lon="1.7465013269114487"><ele>318.0</ele><time>2026-05-02T08:01:20.999Z</time></trkpt><trkpt lat="44.79204033782317" lon="1.746347394934131"><ele>318.0</ele><time>2026-05-02T08:01:21.999Z</time></trkpt><trkpt lat="44.791913231991494" lon="1.7462038200411203"><ele>318.0</ele><time>2026-05-02T08:01:22.999Z</time></trkpt><trkpt lat="44.79178527507288" lon="1.7460611204991612"><ele>319.6666666666667</ele><time>2026-05-02T08:01:23.999Z</time></trkpt><trkpt lat="44.791650453807875" lon="1.7459122825001103"><ele>321.33333333333337</ele><time>2026-05-02T08:01:24.999Z</time></trkpt><trkpt lat="44.791499474208436" lon="1.7457563868931887"><ele>323.0</ele><time>2026-05-02T08:01:25.999Z</time></trkpt><trkpt lat="44.79134612982468" lon="1.7455901994417375"><ele>323.0</ele><time>2026-05-02T08:01:26.999Z</time></trkpt><trkpt lat="44.791208621380264" lon="1.7454161171224853"><ele>323.0</ele><time>2026-05-02T08:01:27.999Z</time></trkpt><trkpt lat="44.791063508864845" lon="1.7452297326646644"><ele>323.0</ele><time>2026-05-02T08:01:28.999Z</time></trkpt><trkpt lat="44.790933327745705" lon="1.745034976278246"><ele>323.33333333333337</ele><time>2026-05-02T08:01:29.999Z</time></trkpt><trkpt lat="44.7908271894739" lon="1.7448509723875416"><ele>323.6666666666667</ele><time>2026-05-02T08:01:30.999Z</time></trkpt><trkpt lat="44.7907280225714" lon="1.7446628558740653"><ele>324.0</ele><time>2026-05-02T08:01:31.999Z</time></trkpt><trkpt lat="44.790632378583844" lon="1.7444800923015664"><ele>325.3333333333333</ele><time>2026-05-02T08:01:32.999Z</time></trkpt><trkpt lat="44.79053771183247" lon="1.744284809713109"><ele>326.66666666666663</ele><time>2026-05-02T08:01:33.999Z</time></trkpt><trkpt lat="44.790434873052625" lon="1.7440816792131326"><ele>328.0</ele><time>2026-05-02T08:01:34.999Z</time></trkpt><trkpt lat="44.79031234642961" lon="1.7438673618401375"><ele>328.66666666666663</ele><time>2026-05-02T08:01:35.999Z</time></trkpt><trkpt lat="44.790167613507066" lon="1.7436606227329792"><ele>329.3333333333333</ele><time>2026-05-02T08:01:36.999Z</time></trkpt><trkpt lat="44.79001006327987" lon="1.7434673443858872"><ele>330.0</ele><time>2026-05-02T08:01:37.999Z</time></trkpt><trkpt lat="44.78986196195036" lon="1.7432930892648244"><ele>331.3333333333333</ele><time>2026-05-02T08:01:38.999Z</time></trkpt><trkpt lat="44.789701423760704" lon="1.7431608262054998"><ele>332.66666666666663</ele><time>2026-05-02T08:01:39.999Z</time></trkpt><trkpt lat="44.789526052049624" lon="1.7430466157190074"><ele>334.0</ele><time>2026-05-02T08:01:40.999Z</time></trkpt><trkpt lat="44.78934162990677" lon="1.7429413947167844"><ele>335.66666666666663</ele><time>2026-05-02T08:01:41.999Z</time></trkpt><trkpt lat="44.789143146238125" lon="1.7428849360614236"><ele>337.3333333333333</ele><time>2026-05-02T08:01:42.999Z</time></trkpt><trkpt lat="44.78895554281957" lon="1.7428267790502787"><ele>339.0</ele><time>2026-05-02T08:01:43.999Z</time></trkpt><trkpt lat="44.78877267094234" lon="1.742742121514152"><ele>337.3333333333333</ele><time>2026-05-02T08:01:44.999Z</time></trkpt><trkpt lat="44.78859006639111" lon="1.7426743014497517"><ele>335.66666666666663</ele><time>2026-05-02T08:01:45.999Z</time></trkpt><trkpt lat="44.78841941274016" lon="1.742585611871557"><ele>334.0</ele><time>2026-05-02T08:01:46.999Z</time></trkpt><trkpt lat="44.788265263003126" lon="1.7424713132867937"><ele>333.0</ele><time>2026-05-02T08:01:47.999Z</time></trkpt><trkpt lat="44.78811441563094" lon="1.7423477309804827"><ele>332.0</ele><time>2026-05-02T08:01:48.999Z</time></trkpt><trkpt lat="44.78797419048539" lon="1.742205041936726"><ele>331.0</ele><time>2026-05-02T08:01:49.999Z</time></trkpt><trkpt lat="44.78783794418421" lon="1.742042561238295"><ele>330.66666666666663</ele><time>2026-05-02T08:01:50.999Z</time></trkpt><trkpt lat="44.78771502378922" lon="1.7418734373577165"><ele>330.3333333333333</ele><time>2026-05-02T08:01:51.999Z</time></trkpt><trkpt lat="44.78760119147669" lon="1.7416959773303533"><ele>330.0</ele><time>2026-05-02T08:01:52.999Z</time></trkpt><trkpt lat="44.78749152826086" lon="1.7414992977961363"><ele>328.3333333333333</ele><time>2026-05-02T08:01:53.999Z</time></trkpt><trkpt lat="44.78740846459593" lon="1.7413036676646303"><ele>326.66666666666663</ele><time>2026-05-02T08:01:54.999Z</time></trkpt><trkpt lat="44.78733394291344" lon="1.741120538882213"><ele>325.0</ele><time>2026-05-02T08:01:55.999Z</time></trkpt><trkpt lat="44.787266554350445" lon="1.7409382033653105"><ele>324.66666666666663</ele><time>2026-05-02T08:01:56.999Z</time></trkpt><trkpt lat="44.78720072826903" lon="1.740752869529936"><ele>324.3333333333333</ele><time>2026-05-02T08:01:57.999Z</time></trkpt><trkpt lat="44.78713036178839" lon="1.7405534934303097"><ele>324.0</ele><time>2026-05-02T08:01:58.999Z</time></trkpt><trkpt lat="44.78705943295323" lon="1.740352523963974"><ele>323.3333333333333</ele><time>2026-05-02T08:01:59.999Z</time></trkpt><trkpt lat="44.786970895568786" lon="1.740171292279402"><ele>322.66666666666663</ele><time>2026-05-02T08:02:00.999Z</time></trkpt><trkpt lat="44.786899852484815" lon="1.739966978326424"><ele>322.0</ele><time>2026-05-02T08:02:01.999Z</time></trkpt><trkpt lat="44.78682941433135" lon="1.739759562680963"><ele>322.0</ele><time>2026-05-02T08:02:02.999Z</time></trkpt><trkpt lat="44.78676027739396" lon="1.7395675118303808"><ele>322.0</ele><time>2026-05-02T08:02:03.999Z</time></trkpt><trkpt lat="44.78669541672927" lon="1.7393858169738061"><ele>322.0</ele><time>2026-05-02T08:02:04.999Z</time></trkpt><trkpt lat="44.78662410906596" lon="1.7392000497620486"><ele>322.0</ele><time>2026-05-02T08:02:05.999Z</time></trkpt><trkpt lat="44.78656233764083" lon="1.7390220805545373"><ele>321.25</ele><time>2026-05-02T08:02:06.999Z</time></trkpt><trkpt lat="44.7865001760062" lon="1.738837244318053"><ele>320.5</ele><time>2026-05-02T08:02:07.999Z</time></trkpt><trkpt lat="44.7864346292917" lon="1.7386503990976567"><ele>319.75</ele><time>2026-05-02T08:02:08.999Z</time></trkpt><trkpt lat="44.78637039656847" lon="1.73847992280963"><ele>319.0</ele><time>2026-05-02T08:02:09.999Z</time></trkpt><trkpt lat="44.78629801360412" lon="1.7383041701941426"><ele>318.5</ele><time>2026-05-02T08:02:10.999Z</time></trkpt><trkpt lat="44.78622616406569" lon="1.7381429281057648"><ele>318.0</ele><time>2026-05-02T08:02:11.999Z</time></trkpt><trkpt lat="44.786149572577486" lon="1.7380027891122918"><ele>317.5</ele><time>2026-05-02T08:02:12.999Z</time></trkpt><trkpt lat="44.78606893547004" lon="1.7378627813588463"><ele>317.0</ele><time>2026-05-02T08:02:13.999Z</time></trkpt><trkpt lat="44.78595746001994" lon="1.7377484458759749"><ele>316.25</ele><time>2026-05-02T08:02:15Z</time></trkpt><trkpt lat="44.785852705549665" lon="1.7376062761405253"><ele>315.5</ele><time>2026-05-02T08:02:16Z</time></trkpt><trkpt lat="44.78575112802485" lon="1.737474089585902"><ele>314.75</ele><time>2026-05-02T08:02:17Z</time></trkpt><trkpt lat="44.78566307175343" lon="1.7373635920476538"><ele>314.0</ele><time>2026-05-02T08:02:18Z</time></trkpt><trkpt lat="44.785590111900945" lon="1.7372657130654559"><ele>314.0</ele><time>2026-05-02T08:02:19Z</time></trkpt><trkpt lat="44.78553030339721" lon="1.737157238693184"><ele>314.0</ele><time>2026-05-02T08:02:20Z</time></trkpt><trkpt lat="44.785465550485824" lon="1.7370590096118739"><ele>314.0</ele><time>2026-05-02T08:02:21Z</time></trkpt><trkpt lat="44.785388746268396" lon="1.736941910218819"><ele>314.0</ele><time>2026-05-02T08:02:22Z</time></trkpt><trkpt lat="44.78530620447119" lon="1.7368189736884627"><ele>314.0</ele><time>2026-05-02T08:02:23Z</time></trkpt><trkpt lat="44.785231314056965" lon="1.7367074330440528"><ele>313.4</ele><time>2026-05-02T08:02:24Z</time></trkpt><trkpt lat="44.785153209822866" lon="1.736620323457382"><ele>312.79999999999995</ele><time>2026-05-02T08:02:25Z</time></trkpt><trkpt lat="44.78510433132688" lon="1.7365074943488779"><ele>312.20000000000005</ele><time>2026-05-02T08:02:26Z</time></trkpt><trkpt lat="44.78503351330763" lon="1.7364126511643878"><ele>311.6</ele><time>2026-05-02T08:02:27Z</time></trkpt><trkpt lat="44.784955192468836" lon="1.7362946503921457"><ele>311.0</ele><time>2026-05-02T08:02:28Z</time></trkpt><trkpt lat="44.784874169890614" lon="1.7361571231239274"><ele>311.0</ele><time>2026-05-02T08:02:29Z</time></trkpt><trkpt lat="44.784790933785374" lon="1.7360106175101857"><ele>311.0</ele><time>2026-05-02T08:02:30Z</time></trkpt><trkpt lat="44.78471711999294" lon="1.735872798800468"><ele>311.0</ele><time>2026-05-02T08:02:31Z</time></trkpt><trkpt lat="44.784650739801144" lon="1.7357490918467382"><ele>311.0</ele><time>2026-05-02T08:02:32Z</time></trkpt><trkpt lat="44.78458736900088" lon="1.7356191275017558"><ele>311.0</ele><time>2026-05-02T08:02:33Z</time></trkpt><trkpt lat="44.78452754667864" lon="1.7354849782305037"><ele>311.0</ele><time>2026-05-02T08:02:34Z</time></trkpt><trkpt lat="44.78447397783964" lon="1.7353642055811866"><ele>311.0</ele><time>2026-05-02T08:02:35Z</time></trkpt><trkpt lat="44.784423578105084" lon="1.7352599186277247"><ele>311.0</ele><time>2026-05-02T08:02:36Z</time></trkpt><trkpt lat="44.7843752608016" lon="1.7351627311749016"><ele>311.0</ele><time>2026-05-02T08:02:37Z</time></trkpt><trkpt lat="44.784336808662786" lon="1.735068380327985"><ele>310.33333333333337</ele><time>2026-05-02T08:02:38Z</time></trkpt><trkpt lat="44.784297546957795" lon="1.7349707485183943"><ele>309.6666666666667</ele><time>2026-05-02T08:02:39Z</time></trkpt><trkpt lat="44.784249670140056" lon="1.7348635365173808"><ele>309.0</ele><time>2026-05-02T08:02:40Z</time></trkpt><trkpt lat="44.784199597280235" lon="1.7347496623103245"><ele>308.3333333333333</ele><time>2026-05-02T08:02:41Z</time></trkpt><trkpt lat="44.78415114563496" lon="1.734647682171482"><ele>307.66666666666663</ele><time>2026-05-02T08:02:42Z</time></trkpt><trkpt lat="44.78411101866399" lon="1.7345531083259358"><ele>307.0</ele><time>2026-05-02T08:02:43Z</time></trkpt><trkpt lat="44.78406407896713" lon="1.7344422069548922"><ele>306.6</ele><time>2026-05-02T08:02:44Z</time></trkpt><trkpt lat="44.78401349613909" lon="1.7343133579889705"><ele>306.2</ele><time>2026-05-02T08:02:45Z</time></trkpt><trkpt lat="44.78395518474994" lon="1.7341749404481512"><ele>305.8</ele><time>2026-05-02T08:02:46Z</time></trkpt><trkpt lat="44.78390108869355" lon="1.7340458190237775"><ele>305.4</ele><time>2026-05-02T08:02:47Z</time></trkpt><trkpt lat="44.78385535754744" lon="1.7339233767757845"><ele>305.0</ele><time>2026-05-02T08:02:48Z</time></trkpt><trkpt lat="44.78380747771377" lon="1.7338054494274444"><ele>305.0</ele><time>2026-05-02T08:02:49Z</time></trkpt><trkpt lat="44.78376145807528" lon="1.7336849313661742"><ele>305.0</ele><time>2026-05-02T08:02:50Z</time></trkpt><trkpt lat="44.783714471887464" lon="1.7335543513835556"><ele>305.0</ele><time>2026-05-02T08:02:51Z</time></trkpt><trkpt lat="44.7836702757679" lon="1.7334226845653093"><ele>305.0</ele><time>2026-05-02T08:02:52Z</time></trkpt><trkpt lat="44.78362720196553" lon="1.733310206333115"><ele>305.0</ele><time>2026-05-02T08:02:53Z</time></trkpt><trkpt lat="44.78358436624232" lon="1.7332113320540257"><ele>305.0</ele><time>2026-05-02T08:02:54Z</time></trkpt><trkpt lat="44.783553461772925" lon="1.7331269704044823"><ele>305.0</ele><time>2026-05-02T08:02:55Z</time></trkpt><trkpt lat="44.78352623897903" lon="1.7330430585967302"><ele>305.0</ele><time>2026-05-02T08:02:56Z</time></trkpt><trkpt lat="44.78349984919627" lon="1.7329530827370219"><ele>305.0</ele><time>2026-05-02T08:02:57Z</time></trkpt><trkpt lat="44.783464314445226" lon="1.7328560553244157"><ele>305.0</ele><time>2026-05-02T08:02:58Z</time></trkpt><trkpt lat="44.783435097774365" lon="1.7327668808022076"><ele>305.0</ele><time>2026-05-02T08:02:59Z</time></trkpt><trkpt lat="44.783404882499774" lon="1.7326857704887781"><ele>305.0</ele><time>2026-05-02T08:03:00Z</time></trkpt><trkpt lat="44.78337307983778" lon="1.7325912718699632"><ele>305.4</ele><time>2026-05-02T08:03:01Z</time></trkpt><trkpt lat="44.783347561289126" lon="1.732478376147696"><ele>305.8</ele><time>2026-05-02T08:03:02Z</time></trkpt><trkpt lat="44.78332791480297" lon="1.7323825091787615"><ele>306.2</ele><time>2026-05-02T08:03:03Z</time></trkpt><trkpt lat="44.78330339268018" lon="1.7322512551540814"><ele>306.6</ele><time>2026-05-02T08:03:05Z</time></trkpt><trkpt lat="44.783279891900115" lon="1.7321339228974668"><ele>307.0</ele><time>2026-05-02T08:03:06.999Z</time></trkpt><trkpt lat="44.78325125620286" lon="1.7319543797064247"><ele>307.0</ele><time>2026-05-02T08:03:08.999Z</time></trkpt><trkpt lat="44.78322336958462" lon="1.7318004324216687"><ele>307.0</ele><time>2026-05-02T08:03:10.999Z</time></trkpt><trkpt lat="44.78320702803395" lon="1.7316080638538476"><ele>307.0</ele><time>2026-05-02T08:03:12.999Z</time></trkpt><trkpt lat="44.783206449945276" lon="1.7314926139581617"><ele>307.0</ele><time>2026-05-02T08:03:13.999Z</time></trkpt><trkpt lat="44.78321846105547" lon="1.7313251161635763"><ele>307.0</ele><time>2026-05-02T08:03:15.999Z</time></trkpt><trkpt lat="44.78325405189132" lon="1.731206145312497"><ele>307.0</ele><time>2026-05-02T08:03:16.999Z</time></trkpt><trkpt lat="44.783294732841185" lon="1.7310936140997366"><ele>307.0</ele><time>2026-05-02T08:03:17.999Z</time></trkpt><trkpt lat="44.78330520014736" lon="1.7309730195481168"><ele>307.0</ele><time>2026-05-02T08:03:18.999Z</time></trkpt><trkpt lat="44.78327492846149" lon="1.7308562662320661"><ele>307.0</ele><time>2026-05-02T08:03:19.999Z</time></trkpt><trkpt lat="44.78320853382393" lon="1.7307533799880417"><ele>307.0</ele><time>2026-05-02T08:03:20.999Z</time></trkpt><trkpt lat="44.78312866663742" lon="1.730682865652336"><ele>307.0</ele><time>2026-05-02T08:03:21.999Z</time></trkpt><trkpt lat="44.78305571113972" lon="1.7306143702562449"><ele>307.0</ele><time>2026-05-02T08:03:22.999Z</time></trkpt><trkpt lat="44.78300040824089" lon="1.7305168668746314"><ele>307.0</ele><time>2026-05-02T08:03:23.999Z</time></trkpt><trkpt lat="44.78294834466529" lon="1.7304012948313778"><ele>307.0</ele><time>2026-05-02T08:03:24.999Z</time></trkpt><trkpt lat="44.78290257423724" lon="1.7302614156713874"><ele>307.75</ele><time>2026-05-02T08:03:25.999Z</time></trkpt><trkpt lat="44.78284482322395" lon="1.7301223657033507"><ele>308.5</ele><time>2026-05-02T08:03:26.999Z</time></trkpt><trkpt lat="44.7827848381325" lon="1.7299644102195075"><ele>309.25</ele><time>2026-05-02T08:03:27.999Z</time></trkpt><trkpt lat="44.78272382044457" lon="1.7297998762543911"><ele>310.0</ele><time>2026-05-02T08:03:28.999Z</time></trkpt><trkpt lat="44.782666019077546" lon="1.7296574592508922"><ele>310.0</ele><time>2026-05-02T08:03:29.999Z</time></trkpt><trkpt lat="44.78260761420641" lon="1.7295327167905423"><ele>310.0</ele><time>2026-05-02T08:03:30.999Z</time></trkpt><trkpt lat="44.78254096173522" lon="1.7294012763145583"><ele>310.0</ele><time>2026-05-02T08:03:31.999Z</time></trkpt><trkpt lat="44.782465230900854" lon="1.7292557543025815"><ele>310.0</ele><time>2026-05-02T08:03:32.999Z</time></trkpt><trkpt lat="44.78239155165343" lon="1.7291156429388161"><ele>309.75</ele><time>2026-05-02T08:03:33.999Z</time></trkpt><trkpt lat="44.78232380571" lon="1.7289868145818836"><ele>309.5</ele><time>2026-05-02T08:03:34.999Z</time></trkpt><trkpt lat="44.78225575543074" lon="1.7288574074952439"><ele>309.25</ele><time>2026-05-02T08:03:35.999Z</time></trkpt><trkpt lat="44.782184050227436" lon="1.728723370087716"><ele>309.0</ele><time>2026-05-02T08:03:36.999Z</time></trkpt><trkpt lat="44.7821177875207" lon="1.7285995184093825"><ele>308.2</ele><time>2026-05-02T08:03:37.999Z</time></trkpt><trkpt lat="44.782062966096184" lon="1.7284970516554026"><ele>307.4</ele><time>2026-05-02T08:03:38.999Z</time></trkpt><trkpt lat="44.78201074511177" lon="1.728400464146944"><ele>306.6</ele><time>2026-05-02T08:03:39.999Z</time></trkpt><trkpt lat="44.78195528515861" lon="1.7282996435210043"><ele>305.8</ele><time>2026-05-02T08:03:40.999Z</time></trkpt><trkpt lat="44.78188875918803" lon="1.7281787059795561"><ele>305.0</ele><time>2026-05-02T08:03:41.999Z</time></trkpt><trkpt lat="44.781820984041325" lon="1.7280534135294452"><ele>305.0</ele><time>2026-05-02T08:03:42.999Z</time></trkpt><trkpt lat="44.781763350919135" lon="1.7279413428897807"><ele>305.0</ele><time>2026-05-02T08:03:43.999Z</time></trkpt><trkpt lat="44.78170855145007" lon="1.7278472826638516"><ele>305.0</ele><time>2026-05-02T08:03:44.999Z</time></trkpt><trkpt lat="44.78166672281156" lon="1.7277657989192108"><ele>305.0</ele><time>2026-05-02T08:03:45.999Z</time></trkpt><trkpt lat="44.781617857264266" lon="1.7276837127192946"><ele>305.0</ele><time>2026-05-02T08:03:46.999Z</time></trkpt><trkpt lat="44.78157279987702" lon="1.7276080097248143"><ele>305.0</ele><time>2026-05-02T08:03:47.999Z</time></trkpt><trkpt lat="44.78151205713349" lon="1.7275130853115717"><ele>305.0</ele><time>2026-05-02T08:03:49.999Z</time></trkpt><trkpt lat="44.78143708308575" lon="1.7273740421014527"><ele>305.0</ele><time>2026-05-02T08:03:52.999Z</time></trkpt><trkpt lat="44.78138970483595" lon="1.727268977080849"><ele>305.0</ele><time>2026-05-02T08:03:53.999Z</time></trkpt><trkpt lat="44.7813239488171" lon="1.727152456175832"><ele>305.0</ele><time>2026-05-02T08:03:54.999Z</time></trkpt><trkpt lat="44.78124805328496" lon="1.7270455521795232"><ele>305.0</ele><time>2026-05-02T08:03:55.999Z</time></trkpt><trkpt lat="44.78114529312539" lon="1.7269511837654412"><ele>305.0</ele><time>2026-05-02T08:03:56.999Z</time></trkpt><trkpt lat="44.781038781603336" lon="1.7268952688708317"><ele>305.0</ele><time>2026-05-02T08:03:57.999Z</time></trkpt><trkpt lat="44.78093460538541" lon="1.7268544758333417"><ele>305.0</ele><time>2026-05-02T08:03:58.999Z</time></trkpt><trkpt lat="44.78085387958506" lon="1.7268324525513101"><ele>305.0</ele><time>2026-05-02T08:03:59.999Z</time></trkpt><trkpt lat="44.78074571184442" lon="1.726804477324706"><ele>305.0</ele><time>2026-05-02T08:04:01.999Z</time></trkpt><trkpt lat="44.780634948202085" lon="1.7267669326201842"><ele>306.0</ele><time>2026-05-02T08:04:03.999Z</time></trkpt><trkpt lat="44.78057235709059" lon="1.7267482477601113"><ele>307.0</ele><time>2026-05-02T08:04:04.999Z</time></trkpt><trkpt lat="44.78045566090736" lon="1.7267099244770663"><ele>308.0</ele><time>2026-05-02T08:04:06.999Z</time></trkpt><trkpt lat="44.78034826294217" lon="1.7266780609002819"><ele>309.0</ele><time>2026-05-02T08:04:08.999Z</time></trkpt><trkpt lat="44.780248456527225" lon="1.7266601612505579"><ele>310.0</ele><time>2026-05-02T08:04:10.999Z</time></trkpt><trkpt lat="44.7801840388911" lon="1.726650075694285"><ele>310.6</ele><time>2026-05-02T08:04:12.999Z</time></trkpt><trkpt lat="44.780110391800356" lon="1.726620427318258"><ele>311.2</ele><time>2026-05-02T08:04:14.999Z</time></trkpt><trkpt lat="44.779995211443236" lon="1.7265846491707877"><ele>311.8</ele><time>2026-05-02T08:04:16.999Z</time></trkpt><trkpt lat="44.779923212949996" lon="1.7265542589940144"><ele>312.4</ele><time>2026-05-02T08:04:17.999Z</time></trkpt><trkpt lat="44.77980274941099" lon="1.7265242732052954"><ele>313.0</ele><time>2026-05-02T08:04:19.999Z</time></trkpt><trkpt lat="44.77972225802434" lon="1.726500515278959"><ele>313.0</ele><time>2026-05-02T08:04:21Z</time></trkpt><trkpt lat="44.77964555315261" lon="1.7264393275135976"><ele>313.0</ele><time>2026-05-02T08:04:22Z</time></trkpt><trkpt lat="44.779579295608855" lon="1.7264215692596048"><ele>313.0</ele><time>2026-05-02T08:04:23Z</time></trkpt><trkpt lat="44.77949857667186" lon="1.726445847813616"><ele>313.0</ele><time>2026-05-02T08:04:25Z</time></trkpt><trkpt lat="44.77942812297296" lon="1.7264629459455145"><ele>313.0</ele><time>2026-05-02T08:04:27Z</time></trkpt><trkpt lat="44.7793260874432" lon="1.7265038045228052"><ele>313.0</ele><time>2026-05-02T08:04:29Z</time></trkpt><trkpt lat="44.77925540705035" lon="1.7265199891105405"><ele>313.16666666666663</ele><time>2026-05-02T08:04:30Z</time></trkpt><trkpt lat="44.77917944675609" lon="1.7265526501509376"><ele>313.3333333333333</ele><time>2026-05-02T08:04:31Z</time></trkpt><trkpt lat="44.77909539079129" lon="1.7265837129091481"><ele>313.5</ele><time>2026-05-02T08:04:32Z</time></trkpt><trkpt lat="44.77900143640894" lon="1.7266150755499343"><ele>313.6666666666667</ele><time>2026-05-02T08:04:33Z</time></trkpt><trkpt lat="44.77891904624361" lon="1.726640619623712"><ele>313.83333333333337</ele><time>2026-05-02T08:04:34Z</time></trkpt><trkpt lat="44.77883223144425" lon="1.7266705961820759"><ele>314.0</ele><time>2026-05-02T08:04:35Z</time></trkpt><trkpt lat="44.778740676518936" lon="1.726705094950101"><ele>314.0</ele><time>2026-05-02T08:04:36Z</time></trkpt><trkpt lat="44.77865864921846" lon="1.7267335269422708"><ele>314.0</ele><time>2026-05-02T08:04:37Z</time></trkpt><trkpt lat="44.77859598949092" lon="1.726760162959689"><ele>314.0</ele><time>2026-05-02T08:04:38Z</time></trkpt><trkpt lat="44.778494699008334" lon="1.7267799896829625"><ele>314.0</ele><time>2026-05-02T08:04:40Z</time></trkpt><trkpt lat="44.77841117505989" lon="1.7267589260185523"><ele>314.0</ele><time>2026-05-02T08:04:42Z</time></trkpt><trkpt lat="44.77834139286354" lon="1.726737735153595"><ele>314.0</ele><time>2026-05-02T08:04:43Z</time></trkpt><trkpt lat="44.77826084250535" lon="1.7267070826382294"><ele>314.0</ele><time>2026-05-02T08:04:44Z</time></trkpt><trkpt lat="44.778181881526656" lon="1.726657267631953"><ele>314.0</ele><time>2026-05-02T08:04:45Z</time></trkpt><trkpt lat="44.77807528458023" lon="1.7265969829063532"><ele>314.0</ele><time>2026-05-02T08:04:46Z</time></trkpt><trkpt lat="44.77797491521487" lon="1.7265807740981816"><ele>314.0</ele><time>2026-05-02T08:04:47Z</time></trkpt><trkpt lat="44.777863933934995" lon="1.726517264518397"><ele>314.0</ele><time>2026-05-02T08:04:48Z</time></trkpt><trkpt lat="44.77774768808486" lon="1.726455686534825"><ele>313.59999999999997</ele><time>2026-05-02T08:04:49Z</time></trkpt><trkpt lat="44.77764131851226" lon="1.7263971446435855"><ele>313.2</ele><time>2026-05-02T08:04:50Z</time></trkpt><trkpt lat="44.77754678171126" lon="1.7263156767228252"><ele>312.79999999999995</ele><time>2026-05-02T08:04:51Z</time></trkpt><trkpt lat="44.77745664876631" lon="1.7262703054421806"><ele>312.4</ele><time>2026-05-02T08:04:52Z</time></trkpt><trkpt lat="44.77738363086683" lon="1.726234191558272"><ele>312.0</ele><time>2026-05-02T08:04:53Z</time></trkpt><trkpt lat="44.7772987087625" lon="1.726191361142942"><ele>312.0</ele><time>2026-05-02T08:04:55Z</time></trkpt><trkpt lat="44.77722486228064" lon="1.726160224671716"><ele>312.0</ele><time>2026-05-02T08:04:57Z</time></trkpt><trkpt lat="44.777202492104195" lon="1.726048806870943"><ele>312.0</ele><time>2026-05-02T08:04:58Z</time></trkpt><trkpt lat="44.77728794785768" lon="1.72594169899429"><ele>312.0</ele><time>2026-05-02T08:04:59Z</time></trkpt><trkpt lat="44.77725620090856" lon="1.7257322145184417"><ele>312.0</ele><time>2026-05-02T08:05:00Z</time></trkpt><trkpt lat="44.77731159599781" lon="1.7255124013753775"><ele>310.6666666666667</ele><time>2026-05-02T08:05:01Z</time></trkpt><trkpt lat="44.77735311487472" lon="1.7252909846625544"><ele>309.33333333333337</ele><time>2026-05-02T08:05:02Z</time></trkpt><trkpt lat="44.777379841180085" lon="1.7250873536138378"><ele>308.0</ele><time>2026-05-02T08:05:03Z</time></trkpt><trkpt lat="44.77740718205362" lon="1.7248695103634126"><ele>306.6666666666667</ele><time>2026-05-02T08:05:04Z</time></trkpt><trkpt lat="44.777428551520785" lon="1.7246454148945343"><ele>305.3333333333333</ele><time>2026-05-02T08:05:05Z</time></trkpt><trkpt lat="44.77744482411943" lon="1.7244201903523788"><ele>304.0</ele><time>2026-05-02T08:05:06Z</time></trkpt><trkpt lat="44.77745224694267" lon="1.724219524657476"><ele>303.0</ele><time>2026-05-02T08:05:07Z</time></trkpt><trkpt lat="44.77746079802393" lon="1.7240337627448827"><ele>302.0</ele><time>2026-05-02T08:05:08Z</time></trkpt><trkpt lat="44.777430733732565" lon="1.723872293994318"><ele>301.0</ele><time>2026-05-02T08:05:09Z</time></trkpt><trkpt lat="44.77738600001732" lon="1.7237331280025192"><ele>300.0</ele><time>2026-05-02T08:05:10Z</time></trkpt><trkpt lat="44.77732503660558" lon="1.7236204811008886"><ele>299.4</ele><time>2026-05-02T08:05:10.999Z</time></trkpt><trkpt lat="44.77725028987448" lon="1.7235277114235923"><ele>298.8</ele><time>2026-05-02T08:05:11.999Z</time></trkpt><trkpt lat="44.777161870638196" lon="1.7234521198323691"><ele>298.2</ele><time>2026-05-02T08:05:12.999Z</time></trkpt><trkpt lat="44.7770641621493" lon="1.7234314145781258"><ele>297.6</ele><time>2026-05-02T08:05:13.999Z</time></trkpt><trkpt lat="44.77696733637137" lon="1.7234051627528248"><ele>297.0</ele><time>2026-05-02T08:05:14.999Z</time></trkpt><trkpt lat="44.77684576807851" lon="1.7234179663640032"><ele>295.0</ele><time>2026-05-02T08:05:15.999Z</time></trkpt><trkpt lat="44.77671306952568" lon="1.7234034138783758"><ele>293.0</ele><time>2026-05-02T08:05:16.999Z</time></trkpt><trkpt lat="44.77659239712524" lon="1.7233878978561252"><ele>291.0</ele><time>2026-05-02T08:05:17.999Z</time></trkpt><trkpt lat="44.776475138855616" lon="1.7233813121366304"><ele>289.0</ele><time>2026-05-02T08:05:18.999Z</time></trkpt><trkpt lat="44.7763518102702" lon="1.7233809199262626"><ele>289.0</ele><time>2026-05-02T08:05:19.999Z</time></trkpt><trkpt lat="44.776213249390025" lon="1.7233655206148075"><ele>289.0</ele><time>2026-05-02T08:05:20.999Z</time></trkpt><trkpt lat="44.7760827580504" lon="1.7233522801610892"><ele>289.0</ele><time>2026-05-02T08:05:21.999Z</time></trkpt><trkpt lat="44.775955834941385" lon="1.7233415628501358"><ele>289.0</ele><time>2026-05-02T08:05:22.999Z</time></trkpt><trkpt lat="44.77582800300002" lon="1.7233269030027296"><ele>290.0</ele><time>2026-05-02T08:05:23.999Z</time></trkpt><trkpt lat="44.77569518845266" lon="1.7233151357117118"><ele>291.0</ele><time>2026-05-02T08:05:24.999Z</time></trkpt><trkpt lat="44.7755511797669" lon="1.723329937473887"><ele>292.0</ele><time>2026-05-02T08:05:25.999Z</time></trkpt><trkpt lat="44.77541107282873" lon="1.7233681457126653"><ele>293.0</ele><time>2026-05-02T08:05:26.999Z</time></trkpt><trkpt lat="44.775292767641545" lon="1.7234162165696336"><ele>293.0</ele><time>2026-05-02T08:05:27.999Z</time></trkpt><trkpt lat="44.775197961016964" lon="1.7234817636673927"><ele>293.0</ele><time>2026-05-02T08:05:28.999Z</time></trkpt><trkpt lat="44.77510375145197" lon="1.723576001268856"><ele>293.0</ele><time>2026-05-02T08:05:29.999Z</time></trkpt><trkpt lat="44.775019915269525" lon="1.7236475847212107"><ele>293.0</ele><time>2026-05-02T08:05:30.999Z</time></trkpt><trkpt lat="44.774956737286125" lon="1.7237181573298272"><ele>293.0</ele><time>2026-05-02T08:05:31.999Z</time></trkpt><trkpt lat="44.774884575995635" lon="1.7237880352219743"><ele>293.6</ele><time>2026-05-02T08:05:32.999Z</time></trkpt><trkpt lat="44.774805349497775" lon="1.7238469289060967"><ele>294.20000000000005</ele><time>2026-05-02T08:05:33.999Z</time></trkpt><trkpt lat="44.7747108329317" lon="1.7238641157256676"><ele>294.8</ele><time>2026-05-02T08:05:34.999Z</time></trkpt><trkpt lat="44.774619667907096" lon="1.7238219448576493"><ele>295.40000000000003</ele><time>2026-05-02T08:05:35.999Z</time></trkpt><trkpt lat="44.77453613938536" lon="1.723730499488182"><ele>296.0</ele><time>2026-05-02T08:05:36.999Z</time></trkpt><trkpt lat="44.77446456844697" lon="1.7236036820792449"><ele>296.8</ele><time>2026-05-02T08:05:37.999Z</time></trkpt><trkpt lat="44.774421933491645" lon="1.7234505039632042"><ele>297.6</ele><time>2026-05-02T08:05:38.999Z</time></trkpt><trkpt lat="44.774356690304614" lon="1.7233550261328558"><ele>298.4</ele><time>2026-05-02T08:05:39.999Z</time></trkpt><trkpt lat="44.77427916442952" lon="1.7232403547139892"><ele>299.2</ele><time>2026-05-02T08:05:40.999Z</time></trkpt><trkpt lat="44.7742180763417" lon="1.7231387217295449"><ele>300.0</ele><time>2026-05-02T08:05:41.999Z</time></trkpt><trkpt lat="44.77417184435409" lon="1.7230492260317767"><ele>300.2</ele><time>2026-05-02T08:05:42.999Z</time></trkpt><trkpt lat="44.774183347937246" lon="1.7229236859568144"><ele>300.4</ele><time>2026-05-02T08:05:43.999Z</time></trkpt><trkpt lat="44.77423671425389" lon="1.722811154366166"><ele>300.6</ele><time>2026-05-02T08:05:44.999Z</time></trkpt><trkpt lat="44.7742892633292" lon="1.72271402570692"><ele>300.8</ele><time>2026-05-02T08:05:45.999Z</time></trkpt><trkpt lat="44.77433909079856" lon="1.7226221146605594"><ele>301.0</ele><time>2026-05-02T08:05:46.999Z</time></trkpt><trkpt lat="44.77439687186121" lon="1.7225107901569792"><ele>301.75</ele><time>2026-05-02T08:05:47.999Z</time></trkpt><trkpt lat="44.774467602306956" lon="1.7223835712402362"><ele>302.5</ele><time>2026-05-02T08:05:48.999Z</time></trkpt><trkpt lat="44.77453341201229" lon="1.7222175998302018"><ele>303.25</ele><time>2026-05-02T08:05:49.999Z</time></trkpt><trkpt lat="44.77458484911144" lon="1.7220406220393678"><ele>304.0</ele><time>2026-05-02T08:05:50.999Z</time></trkpt><trkpt lat="44.77462191333626" lon="1.7218842980910813"><ele>305.0</ele><time>2026-05-02T08:05:51.999Z</time></trkpt><trkpt lat="44.77466254636074" lon="1.7217180717393845"><ele>306.0</ele><time>2026-05-02T08:05:52.999Z</time></trkpt><trkpt lat="44.77469250639526" lon="1.7215357516490182"><ele>307.0</ele><time>2026-05-02T08:05:53.999Z</time></trkpt><trkpt lat="44.774701057357326" lon="1.7213454651386033"><ele>308.0</ele><time>2026-05-02T08:05:54.999Z</time></trkpt><trkpt lat="44.77467338113843" lon="1.7211871192481434"><ele>308.25</ele><time>2026-05-02T08:05:55.999Z</time></trkpt><trkpt lat="44.77461460742319" lon="1.7210445331105126"><ele>308.5</ele><time>2026-05-02T08:05:56.999Z</time></trkpt><trkpt lat="44.77453420180046" lon="1.7209311737349213"><ele>308.75</ele><time>2026-05-02T08:05:57.999Z</time></trkpt><trkpt lat="44.77445905909407" lon="1.7208168476830707"><ele>309.0</ele><time>2026-05-02T08:05:58.999Z</time></trkpt><trkpt lat="44.77439077909425" lon="1.7206972197481303"><ele>309.0</ele><time>2026-05-02T08:05:59.999Z</time></trkpt><trkpt lat="44.77432070161765" lon="1.720571500937665"><ele>309.0</ele><time>2026-05-02T08:06:00.999Z</time></trkpt><trkpt lat="44.77425111606687" lon="1.7204665557516545"><ele>309.0</ele><time>2026-05-02T08:06:01.999Z</time></trkpt><trkpt lat="44.774197797452565" lon="1.720381672291706"><ele>309.0</ele><time>2026-05-02T08:06:02.999Z</time></trkpt><trkpt lat="44.774231185661804" lon="1.7202091181032773"><ele>309.0</ele><time>2026-05-02T08:06:03.999Z</time></trkpt><trkpt lat="44.77425407357219" lon="1.7199658552388166"><ele>309.0</ele><time>2026-05-02T08:06:04.999Z</time></trkpt><trkpt lat="44.77427671924874" lon="1.719663250236823"><ele>309.0</ele><time>2026-05-02T08:06:05.999Z</time></trkpt><trkpt lat="44.77430066126509" lon="1.7193465663854248"><ele>309.0</ele><time>2026-05-02T08:06:06.999Z</time></trkpt><trkpt lat="44.77432645792749" lon="1.7190568057826134"><ele>309.0</ele><time>2026-05-02T08:06:07.999Z</time></trkpt><trkpt lat="44.77433276549162" lon="1.7187990573799874"><ele>309.0</ele><time>2026-05-02T08:06:08.999Z</time></trkpt><trkpt lat="44.77434828453704" lon="1.71856093998401"><ele>309.0</ele><time>2026-05-02T08:06:09.999Z</time></trkpt><trkpt lat="44.77435600528131" lon="1.7183167180905756"><ele>309.0</ele><time>2026-05-02T08:06:10.999Z</time></trkpt><trkpt lat="44.77431723921463" lon="1.7180963341496693"><ele>309.0</ele><time>2026-05-02T08:06:11.999Z</time></trkpt><trkpt lat="44.77424729534897" lon="1.7179390278266278"><ele>309.0</ele><time>2026-05-02T08:06:12.999Z</time></trkpt><trkpt lat="44.77413047995383" lon="1.7178227052343793"><ele>309.0</ele><time>2026-05-02T08:06:13.999Z</time></trkpt><trkpt lat="44.77400384259758" lon="1.7177133569672984"><ele>308.5</ele><time>2026-05-02T08:06:14.999Z</time></trkpt><trkpt lat="44.77390442938027" lon="1.7175699250417966"><ele>308.0</ele><time>2026-05-02T08:06:15.999Z</time></trkpt><trkpt lat="44.77381737803814" lon="1.7174119105363375"><ele>307.5</ele><time>2026-05-02T08:06:16.999Z</time></trkpt><trkpt lat="44.773771426899486" lon="1.7172501382772545"><ele>307.0</ele><time>2026-05-02T08:06:17.999Z</time></trkpt><trkpt lat="44.77377779609483" lon="1.7170664307414738"><ele>307.0</ele><time>2026-05-02T08:06:18.999Z</time></trkpt><trkpt lat="44.773818195161816" lon="1.7168555014924636"><ele>307.0</ele><time>2026-05-02T08:06:19.999Z</time></trkpt><trkpt lat="44.77388625022401" lon="1.7166043738625416"><ele>307.0</ele><time>2026-05-02T08:06:20.999Z</time></trkpt><trkpt lat="44.77395843535205" lon="1.7163412898951478"><ele>307.0</ele><time>2026-05-02T08:06:21.999Z</time></trkpt><trkpt lat="44.77402164575668" lon="1.7160943942844402"><ele>307.0</ele><time>2026-05-02T08:06:22.999Z</time></trkpt><trkpt lat="44.77408052109004" lon="1.7158591670515047"><ele>307.0</ele><time>2026-05-02T08:06:23.999Z</time></trkpt><trkpt lat="44.77414332515676" lon="1.7156082430678297"><ele>307.3333333333333</ele><time>2026-05-02T08:06:24.999Z</time></trkpt><trkpt lat="44.774186739943794" lon="1.7153705850737477"><ele>307.6666666666667</ele><time>2026-05-02T08:06:25.999Z</time></trkpt><trkpt lat="44.77423787694483" lon="1.7151626608652855"><ele>308.0</ele><time>2026-05-02T08:06:27Z</time></trkpt><trkpt lat="44.774285815941646" lon="1.7149783234402618"><ele>308.0</ele><time>2026-05-02T08:06:28Z</time></trkpt><trkpt lat="44.774329386916655" lon="1.7148070891842273"><ele>308.0</ele><time>2026-05-02T08:06:29Z</time></trkpt><trkpt lat="44.774380756968206" lon="1.714643135273444"><ele>308.0</ele><time>2026-05-02T08:06:30Z</time></trkpt><trkpt lat="44.77442027552787" lon="1.7144823555614583"><ele>308.0</ele><time>2026-05-02T08:06:31Z</time></trkpt><trkpt lat="44.77445551282862" lon="1.7143617529240378"><ele>309.0</ele><time>2026-05-02T08:06:32Z</time></trkpt><trkpt lat="44.77448833656324" lon="1.7142565164675005"><ele>310.0</ele><time>2026-05-02T08:06:33Z</time></trkpt><trkpt lat="44.774524599442515" lon="1.7141284366879987"><ele>311.0</ele><time>2026-05-02T08:06:34Z</time></trkpt><trkpt lat="44.77456144798094" lon="1.7139659622891397"><ele>312.0</ele><time>2026-05-02T08:06:35Z</time></trkpt><trkpt lat="44.77457466014762" lon="1.7137616619349747"><ele>313.0</ele><time>2026-05-02T08:06:36Z</time></trkpt><trkpt lat="44.774557202341335" lon="1.7135356125443828"><ele>313.3333333333333</ele><time>2026-05-02T08:06:37Z</time></trkpt><trkpt lat="44.774474930514984" lon="1.7133302048610421"><ele>313.6666666666667</ele><time>2026-05-02T08:06:38Z</time></trkpt><trkpt lat="44.774333897867415" lon="1.7131296295607061"><ele>314.0</ele><time>2026-05-02T08:06:39Z</time></trkpt><trkpt lat="44.77417841175851" lon="1.7129129832362702"><ele>313.33333333333337</ele><time>2026-05-02T08:06:40Z</time></trkpt><trkpt lat="44.774069520582316" lon="1.712728929609019"><ele>312.6666666666667</ele><time>2026-05-02T08:06:41Z</time></trkpt><trkpt lat="44.77403361650858" lon="1.712519705088406"><ele>312.0</ele><time>2026-05-02T08:06:42Z</time></trkpt><trkpt lat="44.77401729569376" lon="1.7122634112591675"><ele>312.0</ele><time>2026-05-02T08:06:43Z</time></trkpt><trkpt lat="44.77404094854522" lon="1.711956011404824"><ele>312.0</ele><time>2026-05-02T08:06:44Z</time></trkpt><trkpt lat="44.77408489574477" lon="1.7116071550591583"><ele>312.5</ele><time>2026-05-02T08:06:45Z</time></trkpt><trkpt lat="44.77414375891506" lon="1.7112482369041138"><ele>313.0</ele><time>2026-05-02T08:06:46Z</time></trkpt><trkpt lat="44.77421534773123" lon="1.7108815981361232"><ele>313.0</ele><time>2026-05-02T08:06:47Z</time></trkpt><trkpt lat="44.774304061689854" lon="1.7104962265246664"><ele>313.0</ele><time>2026-05-02T08:06:48Z</time></trkpt><trkpt lat="44.77437758661369" lon="1.7100865315752876"><ele>313.0</ele><time>2026-05-02T08:06:49Z</time></trkpt><trkpt lat="44.77446808595585" lon="1.709689083869627"><ele>313.0</ele><time>2026-05-02T08:06:50Z</time></trkpt><trkpt lat="44.77454619898634" lon="1.7092789156774646"><ele>313.0</ele><time>2026-05-02T08:06:51Z</time></trkpt><trkpt lat="44.77460961363668" lon="1.7088497936649758"><ele>313.0</ele><time>2026-05-02T08:06:52Z</time></trkpt><trkpt lat="44.77466408627014" lon="1.7084023824132089"><ele>314.5</ele><time>2026-05-02T08:06:53Z</time></trkpt><trkpt lat="44.774707753394814" lon="1.7079408601198904"><ele>316.0</ele><time>2026-05-02T08:06:54Z</time></trkpt><trkpt lat="44.77477093292313" lon="1.7074839329456504"><ele>317.5</ele><time>2026-05-02T08:06:55Z</time></trkpt><trkpt lat="44.7748130875052" lon="1.7070887018497545"><ele>319.0</ele><time>2026-05-02T08:06:56Z</time></trkpt><trkpt lat="44.77484496133981" lon="1.7067740553429518"><ele>319.3333333333333</ele><time>2026-05-02T08:06:57Z</time></trkpt><trkpt lat="44.774876875834444" lon="1.7065269126796145"><ele>319.6666666666667</ele><time>2026-05-02T08:06:58Z</time></trkpt><trkpt lat="44.77492883840556" lon="1.706296389176341"><ele>320.0</ele><time>2026-05-02T08:06:59Z</time></trkpt><trkpt lat="44.77501114544618" lon="1.7060907044071998"><ele>320.6666666666667</ele><time>2026-05-02T08:07:00Z</time></trkpt><trkpt lat="44.775130192268065" lon="1.7059200129684928"><ele>321.3333333333333</ele><time>2026-05-02T08:07:01Z</time></trkpt><trkpt lat="44.77527678853311" lon="1.7057047260611016"><ele>322.0</ele><time>2026-05-02T08:07:02Z</time></trkpt><trkpt lat="44.77541496205311" lon="1.7055365315428153"><ele>322.0</ele><time>2026-05-02T08:07:03Z</time></trkpt><trkpt lat="44.77550303957138" lon="1.7053922100199268"><ele>322.0</ele><time>2026-05-02T08:07:04Z</time></trkpt><trkpt lat="44.775565174539956" lon="1.7051976326146294"><ele>322.0</ele><time>2026-05-02T08:07:05Z</time></trkpt><trkpt lat="44.77558979573889" lon="1.7049544959177596"><ele>321.66666666666663</ele><time>2026-05-02T08:07:06Z</time></trkpt><trkpt lat="44.7756060188632" lon="1.7046667091478773"><ele>321.3333333333333</ele><time>2026-05-02T08:07:07Z</time></trkpt><trkpt lat="44.7756055745905" lon="1.7043410074775818"><ele>321.0</ele><time>2026-05-02T08:07:08Z</time></trkpt><trkpt lat="44.7755850564055" lon="1.7040077479983033"><ele>319.5</ele><time>2026-05-02T08:07:09Z</time></trkpt><trkpt lat="44.77553319997793" lon="1.7036619075026271"><ele>318.0</ele><time>2026-05-02T08:07:10Z</time></trkpt><trkpt lat="44.775460766193156" lon="1.7032904695409836"><ele>317.0</ele><time>2026-05-02T08:07:11Z</time></trkpt><trkpt lat="44.77539886168797" lon="1.7029082194925789"><ele>316.0</ele><time>2026-05-02T08:07:12Z</time></trkpt><trkpt lat="44.77531674692003" lon="1.7025175310126879"><ele>315.0</ele><time>2026-05-02T08:07:13Z</time></trkpt><trkpt lat="44.775237530078236" lon="1.7021147095877875"><ele>314.0</ele><time>2026-05-02T08:07:14Z</time></trkpt><trkpt lat="44.77515593587629" lon="1.701699799211595"><ele>316.5</ele><time>2026-05-02T08:07:15Z</time></trkpt><trkpt lat="44.77507446344076" lon="1.7012988883690252"><ele>319.0</ele><time>2026-05-02T08:07:16Z</time></trkpt><trkpt lat="44.77498869813988" lon="1.7009065964265215"><ele>319.0</ele><time>2026-05-02T08:07:17Z</time></trkpt><trkpt lat="44.7748810515056" lon="1.700504958083345"><ele>319.0</ele><time>2026-05-02T08:07:18Z</time></trkpt><trkpt lat="44.77475797161175" lon="1.7001002365502127"><ele>318.5</ele><time>2026-05-02T08:07:19Z</time></trkpt><trkpt lat="44.774625490406066" lon="1.6996820677830924"><ele>318.0</ele><time>2026-05-02T08:07:20Z</time></trkpt><trkpt lat="44.77449510225821" lon="1.6992821856528084"><ele>317.0</ele><time>2026-05-02T08:07:21Z</time></trkpt><trkpt lat="44.774394499623156" lon="1.698969030601664"><ele>316.0</ele><time>2026-05-02T08:07:21.999Z</time></trkpt><trkpt lat="44.774310402601635" lon="1.6987072541582493"><ele>315.0</ele><time>2026-05-02T08:07:22.999Z</time></trkpt><trkpt lat="44.774229189877566" lon="1.6984622255894384"><ele>317.3333333333333</ele><time>2026-05-02T08:07:23.999Z</time></trkpt><trkpt lat="44.77411573823819" lon="1.6982584669280174"><ele>319.66666666666663</ele><time>2026-05-02T08:07:24.999Z</time></trkpt><trkpt lat="44.77401311728165" lon="1.6980411411322842"><ele>322.0</ele><time>2026-05-02T08:07:25.999Z</time></trkpt><trkpt lat="44.77388016610225" lon="1.697823541673153"><ele>321.3333333333333</ele><time>2026-05-02T08:07:26.999Z</time></trkpt><trkpt lat="44.77375276166401" lon="1.6976146324777608"><ele>320.6666666666667</ele><time>2026-05-02T08:07:27.999Z</time></trkpt><trkpt lat="44.773627219814585" lon="1.697399102596926"><ele>320.0</ele><time>2026-05-02T08:07:28.999Z</time></trkpt><trkpt lat="44.77353252208682" lon="1.6971885742375767"><ele>322.0</ele><time>2026-05-02T08:07:29.999Z</time></trkpt><trkpt lat="44.77348288378478" lon="1.6969760751181966"><ele>324.0</ele><time>2026-05-02T08:07:30.999Z</time></trkpt><trkpt lat="44.773454474728794" lon="1.696747011924576"><ele>326.0</ele><time>2026-05-02T08:07:31.999Z</time></trkpt><trkpt lat="44.7734498911594" lon="1.6965105637110802"><ele>326.0</ele><time>2026-05-02T08:07:32.999Z</time></trkpt><trkpt lat="44.77347485585073" lon="1.6962828061545427"><ele>326.0</ele><time>2026-05-02T08:07:33.999Z</time></trkpt><trkpt lat="44.77349443256731" lon="1.6960439954205049"><ele>326.0</ele><time>2026-05-02T08:07:34.999Z</time></trkpt><trkpt lat="44.7735476041651" lon="1.6958065978081935"><ele>325.0</ele><time>2026-05-02T08:07:35.999Z</time></trkpt><trkpt lat="44.773583415623854" lon="1.6955633610177383"><ele>324.0</ele><time>2026-05-02T08:07:36.999Z</time></trkpt><trkpt lat="44.77361796481749" lon="1.6953119949493156"><ele>323.0</ele><time>2026-05-02T08:07:37.999Z</time></trkpt><trkpt lat="44.773652973509385" lon="1.6950686158846282"><ele>323.0</ele><time>2026-05-02T08:07:38.999Z</time></trkpt><trkpt lat="44.77367420605571" lon="1.6948209816498303"><ele>323.0</ele><time>2026-05-02T08:07:39.999Z</time></trkpt><trkpt lat="44.77368247161014" lon="1.6945728976484031"><ele>323.0</ele><time>2026-05-02T08:07:40.999Z</time></trkpt><trkpt lat="44.7736767543886" lon="1.694321376434072"><ele>323.6666666666667</ele><time>2026-05-02T08:07:41.999Z</time></trkpt><trkpt lat="44.7736571813151" lon="1.6940761458586029"><ele>324.3333333333333</ele><time>2026-05-02T08:07:42.999Z</time></trkpt><trkpt lat="44.77362119084652" lon="1.6938373712785972"><ele>325.0</ele><time>2026-05-02T08:07:43.999Z</time></trkpt><trkpt lat="44.77360059997405" lon="1.6936017324390102"><ele>324.66666666666663</ele><time>2026-05-02T08:07:44.999Z</time></trkpt><trkpt lat="44.773570554491435" lon="1.6933619336643"><ele>324.3333333333333</ele><time>2026-05-02T08:07:45.999Z</time></trkpt><trkpt lat="44.773528731679704" lon="1.69313794031441"><ele>324.0</ele><time>2026-05-02T08:07:46.999Z</time></trkpt><trkpt lat="44.77351165135745" lon="1.6928950847462994"><ele>323.3333333333333</ele><time>2026-05-02T08:07:47.999Z</time></trkpt><trkpt lat="44.773478972437886" lon="1.6926360812785295"><ele>322.66666666666663</ele><time>2026-05-02T08:07:48.999Z</time></trkpt><trkpt lat="44.77344521762334" lon="1.6923685505036425"><ele>322.0</ele><time>2026-05-02T08:07:49.999Z</time></trkpt><trkpt lat="44.773410581557286" lon="1.6920940352628326"><ele>321.3333333333333</ele><time>2026-05-02T08:07:50.999Z</time></trkpt><trkpt lat="44.7733754193039" lon="1.6918153551673747"><ele>320.6666666666667</ele><time>2026-05-02T08:07:51.999Z</time></trkpt><trkpt lat="44.773339081009794" lon="1.6915273702282732"><ele>320.0</ele><time>2026-05-02T08:07:52.999Z</time></trkpt><trkpt lat="44.77330145964574" lon="1.691229216822259"><ele>318.5</ele><time>2026-05-02T08:07:53.999Z</time></trkpt><trkpt lat="44.77324187710408" lon="1.6909151407924308"><ele>317.0</ele><time>2026-05-02T08:07:54.999Z</time></trkpt><trkpt lat="44.773200346572686" lon="1.690593509272884"><ele>317.0</ele><time>2026-05-02T08:07:55.999Z</time></trkpt><trkpt lat="44.77316493407516" lon="1.690290557506775"><ele>317.0</ele><time>2026-05-02T08:07:56.999Z</time></trkpt><trkpt lat="44.77313254531146" lon="1.6900091005459883"><ele>317.0</ele><time>2026-05-02T08:07:57.999Z</time></trkpt><trkpt lat="44.773097567756636" lon="1.689742408571338"><ele>316.6666666666667</ele><time>2026-05-02T08:07:58.999Z</time></trkpt><trkpt lat="44.77306121825794" lon="1.6894888665336272"><ele>316.3333333333333</ele><time>2026-05-02T08:07:59.999Z</time></trkpt><trkpt lat="44.773028238834925" lon="1.6892493636251025"><ele>316.0</ele><time>2026-05-02T08:08:00.999Z</time></trkpt><trkpt lat="44.7730016949087" lon="1.6890183523361573"><ele>316.0</ele><time>2026-05-02T08:08:01.999Z</time></trkpt><trkpt lat="44.772972233863776" lon="1.6888015830765977"><ele>316.0</ele><time>2026-05-02T08:08:02.999Z</time></trkpt><trkpt lat="44.77294098939253" lon="1.6885953894932049"><ele>316.0</ele><time>2026-05-02T08:08:03.999Z</time></trkpt><trkpt lat="44.772916767052685" lon="1.6884164227430656"><ele>316.0</ele><time>2026-05-02T08:08:04.999Z</time></trkpt><trkpt lat="44.772893658667364" lon="1.6882602690101571"><ele>316.0</ele><time>2026-05-02T08:08:05.999Z</time></trkpt><trkpt lat="44.77286813257975" lon="1.6881383488977952"><ele>316.0</ele><time>2026-05-02T08:08:06.999Z</time></trkpt><trkpt lat="44.77284757223891" lon="1.688051233901586"><ele>316.0</ele><time>2026-05-02T08:08:07.999Z</time></trkpt><trkpt lat="44.77282312242703" lon="1.6879646873221006"><ele>316.0</ele><time>2026-05-02T08:08:09.999Z</time></trkpt><trkpt lat="44.77279657917213" lon="1.687872081930138"><ele>316.0</ele><time>2026-05-02T08:08:26.999Z</time></trkpt><trkpt lat="44.77276079502778" lon="1.6877874857356874"><ele>316.0</ele><time>2026-05-02T08:08:27.999Z</time></trkpt><trkpt lat="44.77271827296757" lon="1.6876604471975902"><ele>316.25</ele><time>2026-05-02T08:08:28.999Z</time></trkpt><trkpt lat="44.77265953534766" lon="1.6875120258580123"><ele>316.5</ele><time>2026-05-02T08:08:29.999Z</time></trkpt><trkpt lat="44.772589647619434" lon="1.687345851014024"><ele>316.75</ele><time>2026-05-02T08:08:30.999Z</time></trkpt><trkpt lat="44.77251242896759" lon="1.6871607943617768"><ele>317.0</ele><time>2026-05-02T08:08:31.999Z</time></trkpt><trkpt lat="44.77243522132209" lon="1.6869870115955348"><ele>317.25</ele><time>2026-05-02T08:08:33Z</time></trkpt><trkpt lat="44.7723595172229" lon="1.6868216300735521"><ele>317.5</ele><time>2026-05-02T08:08:34Z</time></trkpt><trkpt lat="44.77228273579648" lon="1.686648904123987"><ele>317.75</ele><time>2026-05-02T08:08:35Z</time></trkpt><trkpt lat="44.77219942309399" lon="1.6864578646905706"><ele>318.0</ele><time>2026-05-02T08:08:36Z</time></trkpt><trkpt lat="44.772109320838005" lon="1.6862494485571362"><ele>318.3333333333333</ele><time>2026-05-02T08:08:37Z</time></trkpt><trkpt lat="44.77201203251365" lon="1.6860290347489069"><ele>318.66666666666663</ele><time>2026-05-02T08:08:38Z</time></trkpt><trkpt lat="44.77191665839296" lon="1.6858144284104661"><ele>319.0</ele><time>2026-05-02T08:08:39Z</time></trkpt><trkpt lat="44.77182989613844" lon="1.685621513206454"><ele>318.75</ele><time>2026-05-02T08:08:40Z</time></trkpt><trkpt lat="44.77175066631813" lon="1.6854481679715683"><ele>318.5</ele><time>2026-05-02T08:08:41Z</time></trkpt><trkpt lat="44.77168016163946" lon="1.6852794386890604"><ele>318.25</ele><time>2026-05-02T08:08:42Z</time></trkpt><trkpt lat="44.77161060687461" lon="1.6851233791781584"><ele>318.0</ele><time>2026-05-02T08:08:43Z</time></trkpt><trkpt lat="44.77153169780257" lon="1.6849429084610097"><ele>318.0</ele><time>2026-05-02T08:08:44Z</time></trkpt><trkpt lat="44.771439152658814" lon="1.6847331074871725"><ele>318.0</ele><time>2026-05-02T08:08:45Z</time></trkpt><trkpt lat="44.77132984136841" lon="1.6844990061065146"><ele>318.0</ele><time>2026-05-02T08:08:46Z</time></trkpt><trkpt lat="44.77122876406404" lon="1.6842619482998005"><ele>317.6666666666667</ele><time>2026-05-02T08:08:47Z</time></trkpt><trkpt lat="44.77111597634395" lon="1.6840137239892539"><ele>317.33333333333337</ele><time>2026-05-02T08:08:48Z</time></trkpt><trkpt lat="44.77100190343145" lon="1.6837525217904552"><ele>317.0</ele><time>2026-05-02T08:08:49Z</time></trkpt><trkpt lat="44.77088086560869" lon="1.6834826648627912"><ele>316.33333333333337</ele><time>2026-05-02T08:08:50Z</time></trkpt><trkpt lat="44.770789061661425" lon="1.6831989252936985"><ele>315.6666666666667</ele><time>2026-05-02T08:08:51Z</time></trkpt><trkpt lat="44.77068640578758" lon="1.6829655423085148"><ele>315.0</ele><time>2026-05-02T08:08:52Z</time></trkpt><trkpt lat="44.77059382013823" lon="1.682758034783423"><ele>315.0</ele><time>2026-05-02T08:08:53Z</time></trkpt><trkpt lat="44.770523828371516" lon="1.6825710004695944"><ele>315.0</ele><time>2026-05-02T08:08:54Z</time></trkpt><trkpt lat="44.77047017079217" lon="1.6824043715325563"><ele>315.0</ele><time>2026-05-02T08:08:55Z</time></trkpt><trkpt lat="44.770480046737134" lon="1.6822214786868244"><ele>315.0</ele><time>2026-05-02T08:08:56Z</time></trkpt><trkpt lat="44.770513520302615" lon="1.6820259266093749"><ele>315.3333333333333</ele><time>2026-05-02T08:08:57Z</time></trkpt><trkpt lat="44.77057727241311" lon="1.6818239951314005"><ele>315.66666666666663</ele><time>2026-05-02T08:08:58Z</time></trkpt><trkpt lat="44.77065908010455" lon="1.681604550721528"><ele>316.0</ele><time>2026-05-02T08:08:59Z</time></trkpt><trkpt lat="44.7707391858017" lon="1.6813479804979032"><ele>315.66666666666663</ele><time>2026-05-02T08:09:00Z</time></trkpt><trkpt lat="44.77083826885446" lon="1.6810798822147346"><ele>315.3333333333333</ele><time>2026-05-02T08:09:01Z</time></trkpt><trkpt lat="44.77092096941501" lon="1.6807986609756076"><ele>315.0</ele><time>2026-05-02T08:09:02Z</time></trkpt><trkpt lat="44.770969860193425" lon="1.6805418611435219"><ele>315.0</ele><time>2026-05-02T08:09:03Z</time></trkpt><trkpt lat="44.77098688635089" lon="1.6803269061611306"><ele>315.0</ele><time>2026-05-02T08:09:04Z</time></trkpt><trkpt lat="44.7709798736734" lon="1.6800659069819515"><ele>315.0</ele><time>2026-05-02T08:09:05Z</time></trkpt><trkpt lat="44.77100263942421" lon="1.6797554395377379"><ele>315.0</ele><time>2026-05-02T08:09:06Z</time></trkpt><trkpt lat="44.77101159904424" lon="1.6794361874231523"><ele>315.0</ele><time>2026-05-02T08:09:07Z</time></trkpt><trkpt lat="44.77102033653457" lon="1.6791156531613292"><ele>312.0</ele><time>2026-05-02T08:09:08Z</time></trkpt><trkpt lat="44.77103016265039" lon="1.6787946037050663"><ele>309.0</ele><time>2026-05-02T08:09:09Z</time></trkpt><trkpt lat="44.771045317642916" lon="1.6784652469974617"><ele>308.6666666666667</ele><time>2026-05-02T08:09:10Z</time></trkpt><trkpt lat="44.771057907339234" lon="1.678169099290303"><ele>308.33333333333337</ele><time>2026-05-02T08:09:11Z</time></trkpt><trkpt lat="44.77105409904295" lon="1.6779262933273662"><ele>308.0</ele><time>2026-05-02T08:09:12Z</time></trkpt><trkpt lat="44.7710076243532" lon="1.6777176778490308"><ele>311.0</ele><time>2026-05-02T08:09:13Z</time></trkpt><trkpt lat="44.770945517593034" lon="1.6775151839101021"><ele>314.0</ele><time>2026-05-02T08:09:14Z</time></trkpt><trkpt lat="44.77085535073253" lon="1.6772965612202562"><ele>317.0</ele><time>2026-05-02T08:09:15Z</time></trkpt><trkpt lat="44.77074020917984" lon="1.6770630391592"><ele>316.0</ele><time>2026-05-02T08:09:16Z</time></trkpt><trkpt lat="44.7706171112821" lon="1.6768173253281393"><ele>315.0</ele><time>2026-05-02T08:09:17Z</time></trkpt><trkpt lat="44.77048416111803" lon="1.6765543868512882"><ele>314.0</ele><time>2026-05-02T08:09:18Z</time></trkpt><trkpt lat="44.770354593374286" lon="1.6763064262466127"><ele>314.0</ele><time>2026-05-02T08:09:19Z</time></trkpt><trkpt lat="44.77025091985128" lon="1.6761154098507483"><ele>314.0</ele><time>2026-05-02T08:09:20Z</time></trkpt><trkpt lat="44.770165653832805" lon="1.675926806569491"><ele>314.0</ele><time>2026-05-02T08:09:21Z</time></trkpt><trkpt lat="44.77011359889461" lon="1.6757291054090553"><ele>316.0</ele><time>2026-05-02T08:09:22Z</time></trkpt><trkpt lat="44.77009056591481" lon="1.6755216258987935"><ele>318.0</ele><time>2026-05-02T08:09:23Z</time></trkpt><trkpt lat="44.77010361665658" lon="1.6753077636853"><ele>320.0</ele><time>2026-05-02T08:09:24Z</time></trkpt><trkpt lat="44.77013558133524" lon="1.6750899355768307"><ele>317.33333333333337</ele><time>2026-05-02T08:09:25Z</time></trkpt><trkpt lat="44.7702000121434" lon="1.6748950482833265"><ele>314.6666666666667</ele><time>2026-05-02T08:09:26Z</time></trkpt><trkpt lat="44.770299639261395" lon="1.6747154755507077"><ele>312.0</ele><time>2026-05-02T08:09:27Z</time></trkpt><trkpt lat="44.77042432857998" lon="1.6745955627055902"><ele>312.0</ele><time>2026-05-02T08:09:28Z</time></trkpt><trkpt lat="44.77052219418494" lon="1.674487276586434"><ele>312.0</ele><time>2026-05-02T08:09:29Z</time></trkpt><trkpt lat="44.770631404390535" lon="1.674421601628378"><ele>312.0</ele><time>2026-05-02T08:09:30Z</time></trkpt><trkpt lat="44.77071375364461" lon="1.674310958615002"><ele>312.0</ele><time>2026-05-02T08:09:31Z</time></trkpt><trkpt lat="44.77076629684389" lon="1.6741396281698224"><ele>314.0</ele><time>2026-05-02T08:09:31.999Z</time></trkpt><trkpt lat="44.770778494844315" lon="1.6739350395570893"><ele>316.0</ele><time>2026-05-02T08:09:32.999Z</time></trkpt><trkpt lat="44.77072124401561" lon="1.6737221063045042"><ele>318.0</ele><time>2026-05-02T08:09:33.999Z</time></trkpt><trkpt lat="44.7706543775954" lon="1.6734468734463825"><ele>318.5</ele><time>2026-05-02T08:09:34.999Z</time></trkpt><trkpt lat="44.77057520234123" lon="1.6731285278402508"><ele>319.0</ele><time>2026-05-02T08:09:35.999Z</time></trkpt><trkpt lat="44.77049503020075" lon="1.6728085761695592"><ele>317.5</ele><time>2026-05-02T08:09:36.999Z</time></trkpt><trkpt lat="44.77041183769778" lon="1.6724813828850864"><ele>316.0</ele><time>2026-05-02T08:09:37.999Z</time></trkpt><trkpt lat="44.7703295877633" lon="1.6721397576864794"><ele>314.5</ele><time>2026-05-02T08:09:38.999Z</time></trkpt><trkpt lat="44.770244479016554" lon="1.6717910331638737"><ele>313.0</ele><time>2026-05-02T08:09:39.999Z</time></trkpt><trkpt lat="44.77016828423157" lon="1.671482168295136"><ele>313.0</ele><time>2026-05-02T08:09:40.999Z</time></trkpt><trkpt lat="44.77011987349069" lon="1.6712594631360795"><ele>313.0</ele><time>2026-05-02T08:09:41.999Z</time></trkpt><trkpt lat="44.77009763912132" lon="1.6710945239397215"><ele>313.0</ele><time>2026-05-02T08:09:42.999Z</time></trkpt><trkpt lat="44.770104237818735" lon="1.6709408174217593"><ele>313.0</ele><time>2026-05-02T08:09:43.999Z</time></trkpt><trkpt lat="44.77014307839636" lon="1.6707603355135183"><ele>313.3333333333333</ele><time>2026-05-02T08:09:44.999Z</time></trkpt><trkpt lat="44.77020799692495" lon="1.6705641506910256"><ele>313.6666666666667</ele><time>2026-05-02T08:09:45.999Z</time></trkpt><trkpt lat="44.77029675269413" lon="1.6703552066771026"><ele>314.0</ele><time>2026-05-02T08:09:46.999Z</time></trkpt><trkpt lat="44.77037706590905" lon="1.6701349242228365"><ele>314.0</ele><time>2026-05-02T08:09:47.999Z</time></trkpt><trkpt lat="44.770467775584365" lon="1.6699036230814546"><ele>314.0</ele><time>2026-05-02T08:09:48.999Z</time></trkpt><trkpt lat="44.770561681885916" lon="1.669657740510089"><ele>314.0</ele><time>2026-05-02T08:09:49.999Z</time></trkpt><trkpt lat="44.770658674989036" lon="1.669404993032808"><ele>315.33333333333337</ele><time>2026-05-02T08:09:50.999Z</time></trkpt><trkpt lat="44.77077262351036" lon="1.6691644568848625"><ele>316.6666666666667</ele><time>2026-05-02T08:09:51.999Z</time></trkpt><trkpt lat="44.77087316304394" lon="1.6689449908223928"><ele>318.0</ele><time>2026-05-02T08:09:52.999Z</time></trkpt><trkpt lat="44.770987145927336" lon="1.6687623929066675"><ele>318.0</ele><time>2026-05-02T08:09:53.999Z</time></trkpt><trkpt lat="44.771131194856196" lon="1.6686139655625185"><ele>318.0</ele><time>2026-05-02T08:09:54.999Z</time></trkpt><trkpt lat="44.77129705499371" lon="1.6684622737419792"><ele>318.0</ele><time>2026-05-02T08:09:55.999Z</time></trkpt><trkpt lat="44.77147354572556" lon="1.668291662285806"><ele>318.0</ele><time>2026-05-02T08:09:56.999Z</time></trkpt><trkpt lat="44.771660628720326" lon="1.6681194113169908"><ele>318.0</ele><time>2026-05-02T08:09:57.999Z</time></trkpt><trkpt lat="44.771847936032245" lon="1.667948979290798"><ele>318.0</ele><time>2026-05-02T08:09:58.999Z</time></trkpt><trkpt lat="44.7720356600051" lon="1.6677858974450366"><ele>316.5</ele><time>2026-05-02T08:09:59.999Z</time></trkpt><trkpt lat="44.77223304905266" lon="1.6676094974851918"><ele>315.0</ele><time>2026-05-02T08:10:00.999Z</time></trkpt><trkpt lat="44.772415514171534" lon="1.6674374460980588"><ele>315.0</ele><time>2026-05-02T08:10:01.999Z</time></trkpt><trkpt lat="44.77258280755308" lon="1.6672952958556364"><ele>315.0</ele><time>2026-05-02T08:10:02.999Z</time></trkpt><trkpt lat="44.772734685730576" lon="1.6671611216180715"><ele>315.0</ele><time>2026-05-02T08:10:03.999Z</time></trkpt><trkpt lat="44.77286680289822" lon="1.6670450768005614"><ele>315.0</ele><time>2026-05-02T08:10:04.999Z</time></trkpt><trkpt lat="44.7729720419404" lon="1.6669361495991817"><ele>315.0</ele><time>2026-05-02T08:10:05.999Z</time></trkpt><trkpt lat="44.77304505488103" lon="1.6668220515656722"><ele>315.0</ele><time>2026-05-02T08:10:06.999Z</time></trkpt><trkpt lat="44.77307649246848" lon="1.666676224466509"><ele>315.0</ele><time>2026-05-02T08:10:07.999Z</time></trkpt><trkpt lat="44.77306248100026" lon="1.6664788546876355"><ele>315.0</ele><time>2026-05-02T08:10:08.999Z</time></trkpt><trkpt lat="44.77300699489221" lon="1.666250780899565"><ele>315.0</ele><time>2026-05-02T08:10:09.999Z</time></trkpt><trkpt lat="44.77297499456918" lon="1.6659818807803866"><ele>315.0</ele><time>2026-05-02T08:10:10.999Z</time></trkpt><trkpt lat="44.772921340876366" lon="1.665653960983562"><ele>315.0</ele><time>2026-05-02T08:10:11.999Z</time></trkpt><trkpt lat="44.772854003242514" lon="1.665326419162456"><ele>315.0</ele><time>2026-05-02T08:10:12.999Z</time></trkpt><trkpt lat="44.77280017729526" lon="1.6649937101474546"><ele>314.0</ele><time>2026-05-02T08:10:13.999Z</time></trkpt><trkpt lat="44.77275545475097" lon="1.6646401009076075"><ele>313.0</ele><time>2026-05-02T08:10:14.999Z</time></trkpt><trkpt lat="44.77270129692417" lon="1.6643107800114432"><ele>315.3333333333333</ele><time>2026-05-02T08:10:15.999Z</time></trkpt><trkpt lat="44.77265261642554" lon="1.6640171152701901"><ele>317.6666666666667</ele><time>2026-05-02T08:10:16.999Z</time></trkpt><trkpt lat="44.77259333958674" lon="1.6637343938047815"><ele>320.0</ele><time>2026-05-02T08:10:17.999Z</time></trkpt><trkpt lat="44.77256586705771" lon="1.6634388991764577"><ele>320.0</ele><time>2026-05-02T08:10:18.999Z</time></trkpt><trkpt lat="44.77252590003087" lon="1.6631780349924692"><ele>320.0</ele><time>2026-05-02T08:10:19.999Z</time></trkpt><trkpt lat="44.772491669101605" lon="1.6629797337750702"><ele>320.0</ele><time>2026-05-02T08:10:20.999Z</time></trkpt><trkpt lat="44.77244091606518" lon="1.6628011867279393"><ele>318.75</ele><time>2026-05-02T08:10:21.999Z</time></trkpt><trkpt lat="44.77236977779082" lon="1.6626423874229472"><ele>317.5</ele><time>2026-05-02T08:10:22.999Z</time></trkpt><trkpt lat="44.772243874513016" lon="1.6625300415846525"><ele>316.25</ele><time>2026-05-02T08:10:23.999Z</time></trkpt><trkpt lat="44.772090112282214" lon="1.6624663707115384"><ele>315.0</ele><time>2026-05-02T08:10:24.999Z</time></trkpt><trkpt lat="44.7718942245162" lon="1.662461884178198"><ele>316.75</ele><time>2026-05-02T08:10:25.999Z</time></trkpt><trkpt lat="44.771710407627495" lon="1.6623987261647464"><ele>318.5</ele><time>2026-05-02T08:10:26.999Z</time></trkpt><trkpt lat="44.77158821907661" lon="1.6623402798910296"><ele>320.25</ele><time>2026-05-02T08:10:27.999Z</time></trkpt><trkpt lat="44.771528153060004" lon="1.6622219110522984"><ele>322.0</ele><time>2026-05-02T08:10:28.999Z</time></trkpt><trkpt lat="44.77148931972884" lon="1.6620602414257901"><ele>321.66666666666663</ele><time>2026-05-02T08:10:29.999Z</time></trkpt><trkpt lat="44.7714632996619" lon="1.661847207082328"><ele>321.3333333333333</ele><time>2026-05-02T08:10:30.999Z</time></trkpt><trkpt lat="44.77144517919809" lon="1.661575259365843"><ele>321.0</ele><time>2026-05-02T08:10:31.999Z</time></trkpt><trkpt lat="44.77142273119036" lon="1.6612821775758442"><ele>325.0</ele><time>2026-05-02T08:10:32.999Z</time></trkpt><trkpt lat="44.77139713193338" lon="1.6609503856791796"><ele>329.0</ele><time>2026-05-02T08:10:33.999Z</time></trkpt><trkpt lat="44.77136870739757" lon="1.660619760661685"><ele>330.0</ele><time>2026-05-02T08:10:34.999Z</time></trkpt><trkpt lat="44.771338711126866" lon="1.660270398553251"><ele>331.0</ele><time>2026-05-02T08:10:35.999Z</time></trkpt><trkpt lat="44.771307577468306" lon="1.6599067895522206"><ele>331.0</ele><time>2026-05-02T08:10:36.999Z</time></trkpt><trkpt lat="44.77127903394356" lon="1.6595734302851781"><ele>331.0</ele><time>2026-05-02T08:10:37.999Z</time></trkpt><trkpt lat="44.771248361770475" lon="1.6593073229859083"><ele>331.0</ele><time>2026-05-02T08:10:39Z</time></trkpt><trkpt lat="44.77118999742499" lon="1.6591254818025134"><ele>331.25</ele><time>2026-05-02T08:10:40Z</time></trkpt><trkpt lat="44.77113201736426" lon="1.6589663159825332"><ele>331.5</ele><time>2026-05-02T08:10:41Z</time></trkpt><trkpt lat="44.77102832038391" lon="1.6588159443513255"><ele>331.75</ele><time>2026-05-02T08:10:42Z</time></trkpt><trkpt lat="44.770879869272605" lon="1.658705198117049"><ele>332.0</ele><time>2026-05-02T08:10:43Z</time></trkpt><trkpt lat="44.77068974189785" lon="1.6586706479634212"><ele>332.5</ele><time>2026-05-02T08:10:44Z</time></trkpt><trkpt lat="44.77047631768634" lon="1.6586265314054816"><ele>333.0</ele><time>2026-05-02T08:10:45Z</time></trkpt><trkpt lat="44.77023904932192" lon="1.658657522129548"><ele>334.6666666666667</ele><time>2026-05-02T08:10:46Z</time></trkpt><trkpt lat="44.77002834417559" lon="1.658702823315391"><ele>336.33333333333337</ele><time>2026-05-02T08:10:47Z</time></trkpt><trkpt lat="44.76988070496155" lon="1.6586900822645048"><ele>338.0</ele><time>2026-05-02T08:10:48Z</time></trkpt><trkpt lat="44.769766150041164" lon="1.6586294264636416"><ele>336.0</ele><time>2026-05-02T08:10:49Z</time></trkpt><trkpt lat="44.76966000359343" lon="1.6585067304543708"><ele>334.0</ele><time>2026-05-02T08:10:50Z</time></trkpt><trkpt lat="44.769560141159786" lon="1.6583233838749973"><ele>332.0</ele><time>2026-05-02T08:10:51Z</time></trkpt><trkpt lat="44.76947172212029" lon="1.6580661866490845"><ele>330.5</ele><time>2026-05-02T08:10:52Z</time></trkpt><trkpt lat="44.76940302151873" lon="1.6577644030940752"><ele>329.0</ele><time>2026-05-02T08:10:53Z</time></trkpt><trkpt lat="44.769342714360505" lon="1.6574289596707155"><ele>335.5</ele><time>2026-05-02T08:10:54Z</time></trkpt><trkpt lat="44.76928383854424" lon="1.6570853137031616"><ele>342.0</ele><time>2026-05-02T08:10:55Z</time></trkpt><trkpt lat="44.76922372235343" lon="1.6567138592830695"><ele>342.0</ele><time>2026-05-02T08:10:56Z</time></trkpt><trkpt lat="44.769166924042715" lon="1.6563299143063033"><ele>342.0</ele><time>2026-05-02T08:10:57Z</time></trkpt><trkpt lat="44.769109107883516" lon="1.6559195243548983"><ele>342.5</ele><time>2026-05-02T08:10:58Z</time></trkpt><trkpt lat="44.76904708141294" lon="1.6554970250203767"><ele>343.0</ele><time>2026-05-02T08:10:59Z</time></trkpt><trkpt lat="44.76898279727597" lon="1.6550746543373518"><ele>343.0</ele><time>2026-05-02T08:11:00Z</time></trkpt><trkpt lat="44.768921977821954" lon="1.654654672461132"><ele>343.0</ele><time>2026-05-02T08:11:01Z</time></trkpt><trkpt lat="44.768859223132836" lon="1.6542182524789033"><ele>344.0</ele><time>2026-05-02T08:11:02Z</time></trkpt><trkpt lat="44.768799726639514" lon="1.6538160200846068"><ele>345.0</ele><time>2026-05-02T08:11:03Z</time></trkpt><trkpt lat="44.76874818109762" lon="1.6534730378669473"><ele>345.0</ele><time>2026-05-02T08:11:04Z</time></trkpt><trkpt lat="44.76870540257593" lon="1.6531874355997205"><ele>345.0</ele><time>2026-05-02T08:11:05Z</time></trkpt><trkpt lat="44.7686677138657" lon="1.6529194020225864"><ele>345.0</ele><time>2026-05-02T08:11:06Z</time></trkpt><trkpt lat="44.76863211117731" lon="1.652701213172357"><ele>345.0</ele><time>2026-05-02T08:11:07Z</time></trkpt><trkpt lat="44.768582730184875" lon="1.6525190617115286"><ele>345.0</ele><time>2026-05-02T08:11:08Z</time></trkpt><trkpt lat="44.768489742999414" lon="1.652368026436602"><ele>345.0</ele><time>2026-05-02T08:11:09Z</time></trkpt><trkpt lat="44.768339350692095" lon="1.6522627124307794"><ele>345.0</ele><time>2026-05-02T08:11:10Z</time></trkpt><trkpt lat="44.7681619082805" lon="1.652120656717589"><ele>349.0</ele><time>2026-05-02T08:11:11Z</time></trkpt><trkpt lat="44.76795979095447" lon="1.6519676188079557"><ele>353.0</ele><time>2026-05-02T08:11:12Z</time></trkpt><trkpt lat="44.76775815514465" lon="1.6518136080017545"><ele>353.5</ele><time>2026-05-02T08:11:13Z</time></trkpt><trkpt lat="44.76754442252518" lon="1.651650332682922"><ele>354.0</ele><time>2026-05-02T08:11:14Z</time></trkpt><trkpt lat="44.767311909380076" lon="1.651472700272745"><ele>354.0</ele><time>2026-05-02T08:11:15Z</time></trkpt><trkpt lat="44.76706301890076" lon="1.651280983776266"><ele>354.0</ele><time>2026-05-02T08:11:16Z</time></trkpt><trkpt lat="44.766798031111485" lon="1.651073753643282"><ele>352.5</ele><time>2026-05-02T08:11:17Z</time></trkpt><trkpt lat="44.76652770567105" lon="1.6508661142424408"><ele>351.0</ele><time>2026-05-02T08:11:18Z</time></trkpt><trkpt lat="44.766257256600085" lon="1.6506581948384274"><ele>351.0</ele><time>2026-05-02T08:11:19Z</time></trkpt><trkpt lat="44.76598179994156" lon="1.6504423611728438"><ele>351.0</ele><time>2026-05-02T08:11:20Z</time></trkpt><trkpt lat="44.765726853545594" lon="1.6502483381566753"><ele>349.5</ele><time>2026-05-02T08:11:21Z</time></trkpt><trkpt lat="44.7654973660515" lon="1.6500727376324908"><ele>348.0</ele><time>2026-05-02T08:11:22Z</time></trkpt><trkpt lat="44.76528876241695" lon="1.6499099306542815"><ele>348.0</ele><time>2026-05-02T08:11:23Z</time></trkpt><trkpt lat="44.765098564078436" lon="1.6497701645870408"><ele>348.0</ele><time>2026-05-02T08:11:24Z</time></trkpt><trkpt lat="44.764914440022785" lon="1.6496356161230825"><ele>348.0</ele><time>2026-05-02T08:11:25Z</time></trkpt><trkpt lat="44.764707989282535" lon="1.6494847836748456"><ele>346.5</ele><time>2026-05-02T08:11:26Z</time></trkpt><trkpt lat="44.76448166081615" lon="1.6493332040712163"><ele>345.0</ele><time>2026-05-02T08:11:27Z</time></trkpt><trkpt lat="44.764116652935144" lon="1.6494910318373166"><ele>343.5</ele><time>2026-05-02T08:11:28Z</time></trkpt><trkpt lat="44.76382159630407" lon="1.6494177664704952"><ele>342.0</ele><time>2026-05-02T08:11:29Z</time></trkpt><trkpt lat="44.76352135975927" lon="1.64934541306327"><ele>340.0</ele><time>2026-05-02T08:11:30Z</time></trkpt><trkpt lat="44.76320330881219" lon="1.6492701324965429"><ele>338.0</ele><time>2026-05-02T08:11:31Z</time></trkpt><trkpt lat="44.762879340219335" lon="1.6491848838082"><ele>338.0</ele><time>2026-05-02T08:11:32Z</time></trkpt><trkpt lat="44.76255940001078" lon="1.6491037201146874"><ele>338.0</ele><time>2026-05-02T08:11:33Z</time></trkpt><trkpt lat="44.76227978917843" lon="1.6490451862306306"><ele>338.0</ele><time>2026-05-02T08:11:34Z</time></trkpt><trkpt lat="44.76204721046318" lon="1.6489769954000202"><ele>338.0</ele><time>2026-05-02T08:11:35Z</time></trkpt><trkpt lat="44.76187057864781" lon="1.6489292661903359"><ele>338.0</ele><time>2026-05-02T08:11:36Z</time></trkpt><trkpt lat="44.76171654342245" lon="1.64887862180664"><ele>336.6666666666667</ele><time>2026-05-02T08:11:37Z</time></trkpt><trkpt lat="44.761568611280794" lon="1.648863861152448"><ele>335.3333333333333</ele><time>2026-05-02T08:11:38Z</time></trkpt><trkpt lat="44.76141561418358" lon="1.6489033576909709"><ele>334.0</ele><time>2026-05-02T08:11:39Z</time></trkpt><trkpt lat="44.76125207669012" lon="1.6490217121300927"><ele>334.0</ele><time>2026-05-02T08:11:39.999Z</time></trkpt><trkpt lat="44.761082468386846" lon="1.6492262274983422"><ele>334.0</ele><time>2026-05-02T08:11:40.999Z</time></trkpt><trkpt lat="44.760911055103136" lon="1.649458644052683"><ele>332.66666666666663</ele><time>2026-05-02T08:11:41.999Z</time></trkpt><trkpt lat="44.76074686342385" lon="1.6496490780604027"><ele>331.3333333333333</ele><time>2026-05-02T08:11:42.999Z</time></trkpt><trkpt lat="44.76063286336923" lon="1.6497882125356529"><ele>330.0</ele><time>2026-05-02T08:11:43.999Z</time></trkpt><trkpt lat="44.760532555892205" lon="1.6499006729551187"><ele>330.0</ele><time>2026-05-02T08:11:44.999Z</time></trkpt><trkpt lat="44.760417080120625" lon="1.6499865069519963"><ele>330.0</ele><time>2026-05-02T08:11:45.999Z</time></trkpt><trkpt lat="44.760266786183976" lon="1.6500257434880923"><ele>330.0</ele><time>2026-05-02T08:11:46.999Z</time></trkpt><trkpt lat="44.76010382141524" lon="1.649986504381476"><ele>330.0</ele><time>2026-05-02T08:11:47.999Z</time></trkpt><trkpt lat="44.75994265619066" lon="1.6498608880375945"><ele>329.3333333333333</ele><time>2026-05-02T08:11:48.999Z</time></trkpt><trkpt lat="44.759823212540894" lon="1.6496691014924771"><ele>328.66666666666663</ele><time>2026-05-02T08:11:49.999Z</time></trkpt><trkpt lat="44.75975197897476" lon="1.6494192584970002"><ele>328.0</ele><time>2026-05-02T08:11:50.999Z</time></trkpt><trkpt lat="44.75968494477281" lon="1.6491047418380615"><ele>327.0</ele><time>2026-05-02T08:11:51.999Z</time></trkpt><trkpt lat="44.759603005675565" lon="1.6487774785286928"><ele>326.0</ele><time>2026-05-02T08:11:52.999Z</time></trkpt><trkpt lat="44.75950723071186" lon="1.648426480668622"><ele>325.0</ele><time>2026-05-02T08:11:53.999Z</time></trkpt><trkpt lat="44.75940928083837" lon="1.648077102830272"><ele>324.0</ele><time>2026-05-02T08:11:54.999Z</time></trkpt><trkpt lat="44.75931387090092" lon="1.64772671285711"><ele>324.0</ele><time>2026-05-02T08:11:55.999Z</time></trkpt><trkpt lat="44.75924107156564" lon="1.6474155187876294"><ele>324.0</ele><time>2026-05-02T08:11:56.999Z</time></trkpt><trkpt lat="44.759200558619085" lon="1.6471529808421554"><ele>324.0</ele><time>2026-05-02T08:11:57.999Z</time></trkpt><trkpt lat="44.759190729349946" lon="1.6468714603786265"><ele>324.0</ele><time>2026-05-02T08:11:58.999Z</time></trkpt><trkpt lat="44.75920049559853" lon="1.6465472834462647"><ele>324.0</ele><time>2026-05-02T08:11:59.999Z</time></trkpt><trkpt lat="44.759238296684096" lon="1.646188237462474"><ele>324.0</ele><time>2026-05-02T08:12:00.999Z</time></trkpt><trkpt lat="44.75928748596137" lon="1.6458062486318907"><ele>324.0</ele><time>2026-05-02T08:12:01.999Z</time></trkpt><trkpt lat="44.75932489030705" lon="1.6454000648672502"><ele>323.5</ele><time>2026-05-02T08:12:02.999Z</time></trkpt><trkpt lat="44.75935623569744" lon="1.6449672227454493"><ele>323.0</ele><time>2026-05-02T08:12:03.999Z</time></trkpt><trkpt lat="44.75938775766477" lon="1.6445301087232966"><ele>319.0</ele><time>2026-05-02T08:12:04.999Z</time></trkpt><trkpt lat="44.759414420941056" lon="1.6441052366016216"><ele>315.0</ele><time>2026-05-02T08:12:05.999Z</time></trkpt><trkpt lat="44.75945171125966" lon="1.6436592777514842"><ele>315.5</ele><time>2026-05-02T08:12:06.999Z</time></trkpt><trkpt lat="44.759490705773146" lon="1.6432216708081582"><ele>316.0</ele><time>2026-05-02T08:12:07.999Z</time></trkpt><trkpt lat="44.75952108235047" lon="1.6428143191247973"><ele>316.5</ele><time>2026-05-02T08:12:08.999Z</time></trkpt><trkpt lat="44.75954008061287" lon="1.6424370737568674"><ele>317.0</ele><time>2026-05-02T08:12:09.999Z</time></trkpt><trkpt lat="44.759540048425215" lon="1.6420318681603767"><ele>317.0</ele><time>2026-05-02T08:12:10.999Z</time></trkpt><trkpt lat="44.75952429348473" lon="1.6415937592496401"><ele>317.0</ele><time>2026-05-02T08:12:11.999Z</time></trkpt><trkpt lat="44.759502209558335" lon="1.6411403398856352"><ele>317.5</ele><time>2026-05-02T08:12:12.999Z</time></trkpt><trkpt lat="44.75948901695011" lon="1.6407275748373924"><ele>318.0</ele><time>2026-05-02T08:12:13.999Z</time></trkpt><trkpt lat="44.75946554739178" lon="1.6403543000402798"><ele>317.5</ele><time>2026-05-02T08:12:14.999Z</time></trkpt><trkpt lat="44.75940666539182" lon="1.6399785326442486"><ele>317.0</ele><time>2026-05-02T08:12:15.999Z</time></trkpt><trkpt lat="44.75933866748758" lon="1.6395822603966657"><ele>318.5</ele><time>2026-05-02T08:12:16.999Z</time></trkpt><trkpt lat="44.75927332340054" lon="1.639211361243049"><ele>320.0</ele><time>2026-05-02T08:12:17.999Z</time></trkpt><trkpt lat="44.759183358369775" lon="1.6388514671660357"><ele>320.0</ele><time>2026-05-02T08:12:18.999Z</time></trkpt><trkpt lat="44.759109878314206" lon="1.6385143590009754"><ele>320.0</ele><time>2026-05-02T08:12:19.999Z</time></trkpt><trkpt lat="44.759077389815175" lon="1.6381938216450744"><ele>320.0</ele><time>2026-05-02T08:12:20.999Z</time></trkpt><trkpt lat="44.75907163824483" lon="1.637871524369968"><ele>320.0</ele><time>2026-05-02T08:12:21.999Z</time></trkpt><trkpt lat="44.75908539148638" lon="1.6375873259481317"><ele>320.0</ele><time>2026-05-02T08:12:22.999Z</time></trkpt><trkpt lat="44.75911415368905" lon="1.6372962647365137"><ele>319.0</ele><time>2026-05-02T08:12:23.999Z</time></trkpt><trkpt lat="44.75918264271598" lon="1.6369776617764706"><ele>318.0</ele><time>2026-05-02T08:12:24.999Z</time></trkpt><trkpt lat="44.759254882044566" lon="1.6366480158076762"><ele>317.3333333333333</ele><time>2026-05-02T08:12:25.999Z</time></trkpt><trkpt lat="44.75930721074342" lon="1.6363606416018066"><ele>316.66666666666663</ele><time>2026-05-02T08:12:26.999Z</time></trkpt><trkpt lat="44.75936632626667" lon="1.6360939327477173"><ele>316.0</ele><time>2026-05-02T08:12:27.999Z</time></trkpt><trkpt lat="44.75945365054571" lon="1.6358096160350832"><ele>314.5</ele><time>2026-05-02T08:12:28.999Z</time></trkpt><trkpt lat="44.75957917187917" lon="1.635525106520321"><ele>313.0</ele><time>2026-05-02T08:12:29.999Z</time></trkpt><trkpt lat="44.75970406701425" lon="1.6351969034175955"><ele>310.5</ele><time>2026-05-02T08:12:30.999Z</time></trkpt><trkpt lat="44.759813111934044" lon="1.6348504321734787"><ele>308.0</ele><time>2026-05-02T08:12:31.999Z</time></trkpt><trkpt lat="44.759908647064506" lon="1.6345479663143403"><ele>307.0</ele><time>2026-05-02T08:12:32.999Z</time></trkpt><trkpt lat="44.75996079640955" lon="1.6342479322709158"><ele>306.0</ele><time>2026-05-02T08:12:33.999Z</time></trkpt><trkpt lat="44.75997524679972" lon="1.633941716666459"><ele>305.0</ele><time>2026-05-02T08:12:34.999Z</time></trkpt><trkpt lat="44.75994918932319" lon="1.6335968198340283"><ele>304.5</ele><time>2026-05-02T08:12:35.999Z</time></trkpt><trkpt lat="44.75990641095043" lon="1.6332223037028142"><ele>304.0</ele><time>2026-05-02T08:12:36.999Z</time></trkpt><trkpt lat="44.75986348308253" lon="1.6328193827678605"><ele>303.5</ele><time>2026-05-02T08:12:37.999Z</time></trkpt><trkpt lat="44.75982114863502" lon="1.6323971918009044"><ele>303.0</ele><time>2026-05-02T08:12:38.999Z</time></trkpt><trkpt lat="44.75977549234163" lon="1.6319552657640959"><ele>302.5</ele><time>2026-05-02T08:12:39.999Z</time></trkpt><trkpt lat="44.7597045448438" lon="1.6315118015417955"><ele>302.0</ele><time>2026-05-02T08:12:40.999Z</time></trkpt><trkpt lat="44.75960442733864" lon="1.6310736848203111"><ele>302.0</ele><time>2026-05-02T08:12:41.999Z</time></trkpt><trkpt lat="44.75951254808957" lon="1.630643819863759"><ele>302.0</ele><time>2026-05-02T08:12:42.999Z</time></trkpt><trkpt lat="44.75945128439047" lon="1.6302473084386944"><ele>302.0</ele><time>2026-05-02T08:12:43.999Z</time></trkpt><trkpt lat="44.75940298503071" lon="1.6298147642708611"><ele>302.0</ele><time>2026-05-02T08:12:45Z</time></trkpt><trkpt lat="44.75936037147724" lon="1.629367906354853"><ele>302.0</ele><time>2026-05-02T08:12:46Z</time></trkpt><trkpt lat="44.75931261685045" lon="1.6289449367440823"><ele>302.0</ele><time>2026-05-02T08:12:47Z</time></trkpt><trkpt lat="44.759271912062864" lon="1.62861229666056"><ele>302.0</ele><time>2026-05-02T08:12:48Z</time></trkpt><trkpt lat="44.759177988164275" lon="1.6283570824565812"><ele>302.0</ele><time>2026-05-02T08:12:49Z</time></trkpt><trkpt lat="44.75906878942946" lon="1.628078930248852"><ele>302.0</ele><time>2026-05-02T08:12:50Z</time></trkpt><trkpt lat="44.75893204981995" lon="1.6277948198856895"><ele>301.33333333333337</ele><time>2026-05-02T08:12:51Z</time></trkpt><trkpt lat="44.758789314323394" lon="1.6275047345988838"><ele>300.6666666666667</ele><time>2026-05-02T08:12:52Z</time></trkpt><trkpt lat="44.75869879509903" lon="1.6272779898466159"><ele>300.0</ele><time>2026-05-02T08:12:53Z</time></trkpt><trkpt lat="44.75865082896687" lon="1.6270796317721337"><ele>298.3333333333333</ele><time>2026-05-02T08:12:54Z</time></trkpt><trkpt lat="44.75864075292289" lon="1.626876493890711"><ele>296.66666666666663</ele><time>2026-05-02T08:12:55Z</time></trkpt><trkpt lat="44.75866499692324" lon="1.6266412505252905"><ele>295.0</ele><time>2026-05-02T08:12:56Z</time></trkpt><trkpt lat="44.7586979565241" lon="1.6263573738954151"><ele>293.66666666666663</ele><time>2026-05-02T08:12:57Z</time></trkpt><trkpt lat="44.75873354710175" lon="1.6260508370191749"><ele>292.3333333333333</ele><time>2026-05-02T08:12:58Z</time></trkpt><trkpt lat="44.758763747728764" lon="1.6257959465188432"><ele>291.0</ele><time>2026-05-02T08:12:59Z</time></trkpt><trkpt lat="44.758805529968726" lon="1.6255669892413351"><ele>291.0</ele><time>2026-05-02T08:13:00Z</time></trkpt><trkpt lat="44.75887171338177" lon="1.6253167634064334"><ele>291.0</ele><time>2026-05-02T08:13:01Z</time></trkpt><trkpt lat="44.758967617695134" lon="1.6250329528442364"><ele>291.0</ele><time>2026-05-02T08:13:02Z</time></trkpt><trkpt lat="44.759076138435915" lon="1.6247206188581085"><ele>291.0</ele><time>2026-05-02T08:13:03Z</time></trkpt><trkpt lat="44.75919897105186" lon="1.6243795417587794"><ele>291.0</ele><time>2026-05-02T08:13:04Z</time></trkpt><trkpt lat="44.75932222916094" lon="1.6240372831544871"><ele>289.5</ele><time>2026-05-02T08:13:05Z</time></trkpt><trkpt lat="44.7594197982992" lon="1.623716039973546"><ele>288.0</ele><time>2026-05-02T08:13:06Z</time></trkpt><trkpt lat="44.75952611476422" lon="1.6234257931719176"><ele>288.0</ele><time>2026-05-02T08:13:07Z</time></trkpt><trkpt lat="44.759621808793625" lon="1.6231338414554237"><ele>288.0</ele><time>2026-05-02T08:13:08Z</time></trkpt><trkpt lat="44.759697214740676" lon="1.6228023101697857"><ele>289.0</ele><time>2026-05-02T08:13:09Z</time></trkpt><trkpt lat="44.75976727223339" lon="1.6224540839825126"><ele>290.0</ele><time>2026-05-02T08:13:10Z</time></trkpt><trkpt lat="44.759827677125585" lon="1.6221421924409702"><ele>291.0</ele><time>2026-05-02T08:13:11Z</time></trkpt><trkpt lat="44.75989627285634" lon="1.6218522875248462"><ele>292.0</ele><time>2026-05-02T08:13:12Z</time></trkpt><trkpt lat="44.7599983556725" lon="1.621568041250969"><ele>293.0</ele><time>2026-05-02T08:13:13Z</time></trkpt><trkpt lat="44.76014101188292" lon="1.6213029279374094"><ele>294.5</ele><time>2026-05-02T08:13:14Z</time></trkpt><trkpt lat="44.76030941676268" lon="1.6210292554466472"><ele>296.0</ele><time>2026-05-02T08:13:15Z</time></trkpt><trkpt lat="44.760468843342274" lon="1.6207385906091076"><ele>296.0</ele><time>2026-05-02T08:13:16Z</time></trkpt><trkpt lat="44.76060813201125" lon="1.6205107138281463"><ele>296.0</ele><time>2026-05-02T08:13:17Z</time></trkpt><trkpt lat="44.760716103957606" lon="1.6203251183837815"><ele>296.0</ele><time>2026-05-02T08:13:18Z</time></trkpt><trkpt lat="44.7608273526097" lon="1.6201462770802473"><ele>296.33333333333337</ele><time>2026-05-02T08:13:19Z</time></trkpt><trkpt lat="44.760934768825145" lon="1.619968887841484"><ele>296.6666666666667</ele><time>2026-05-02T08:13:20Z</time></trkpt><trkpt lat="44.761047874022104" lon="1.6198102173135729"><ele>297.0</ele><time>2026-05-02T08:13:21Z</time></trkpt><trkpt lat="44.76113637567038" lon="1.6196650912452988"><ele>297.0</ele><time>2026-05-02T08:13:22Z</time></trkpt><trkpt lat="44.7612070909159" lon="1.619525772905389"><ele>297.0</ele><time>2026-05-02T08:13:23Z</time></trkpt><trkpt lat="44.76129481639697" lon="1.6194188626970074"><ele>297.0</ele><time>2026-05-02T08:13:24Z</time></trkpt><trkpt lat="44.76139221935833" lon="1.6193149533128635"><ele>297.0</ele><time>2026-05-02T08:13:25Z</time></trkpt><trkpt lat="44.761502821770975" lon="1.6192090119739697"><ele>297.0</ele><time>2026-05-02T08:13:26Z</time></trkpt><trkpt lat="44.76162531659399" lon="1.6191080036798438"><ele>297.0</ele><time>2026-05-02T08:13:27Z</time></trkpt><trkpt lat="44.761753464585354" lon="1.6190099594910847"><ele>297.0</ele><time>2026-05-02T08:13:28Z</time></trkpt><trkpt lat="44.7618867244881" lon="1.6189085276896626"><ele>297.0</ele><time>2026-05-02T08:13:29Z</time></trkpt><trkpt lat="44.762006491314146" lon="1.618807745954463"><ele>297.0</ele><time>2026-05-02T08:13:30Z</time></trkpt><trkpt lat="44.762119442668784" lon="1.6187215103497583"><ele>297.0</ele><time>2026-05-02T08:13:31Z</time></trkpt><trkpt lat="44.76220799300226" lon="1.6186490846763069"><ele>297.0</ele><time>2026-05-02T08:13:32Z</time></trkpt><trkpt lat="44.76227777918392" lon="1.6185991885434527"><ele>297.0</ele><time>2026-05-02T08:13:33Z</time></trkpt><trkpt lat="44.762337139468386" lon="1.6185579496152318"><ele>297.0</ele><time>2026-05-02T08:13:36Z</time></trkpt><trkpt lat="44.762490041468446" lon="1.6184243016290343"><ele>297.0</ele><time>2026-05-02T08:13:38Z</time></trkpt><trkpt lat="44.76261270195488" lon="1.6183203624132205"><ele>297.0</ele><time>2026-05-02T08:13:39Z</time></trkpt><trkpt lat="44.762738281787335" lon="1.6182318883059608"><ele>297.0</ele><time>2026-05-02T08:13:40Z</time></trkpt><trkpt lat="44.76284214722338" lon="1.618157238842175"><ele>297.0</ele><time>2026-05-02T08:13:41Z</time></trkpt><trkpt lat="44.76292957716075" lon="1.618086724153943"><ele>296.8</ele><time>2026-05-02T08:13:42Z</time></trkpt><trkpt lat="44.76299179368059" lon="1.6180331966935968"><ele>296.6</ele><time>2026-05-02T08:13:43Z</time></trkpt><trkpt lat="44.763056583346284" lon="1.6179856728399022"><ele>296.40000000000003</ele><time>2026-05-02T08:13:45Z</time></trkpt><trkpt lat="44.76310070572704" lon="1.6179142899692998"><ele>296.2</ele><time>2026-05-02T08:14:21.999Z</time></trkpt><trkpt lat="44.763191369172574" lon="1.6177825690143122"><ele>296.0</ele><time>2026-05-02T08:16:02.999Z</time></trkpt><trkpt lat="44.76329828764292" lon="1.6177230675617191"><ele>296.0</ele><time>2026-05-02T08:16:03.999Z</time></trkpt><trkpt lat="44.763434865256585" lon="1.617652656715443"><ele>296.0</ele><time>2026-05-02T08:16:04.999Z</time></trkpt><trkpt lat="44.763603785245955" lon="1.6176099859931192"><ele>296.0</ele><time>2026-05-02T08:16:05.999Z</time></trkpt><trkpt lat="44.76377503405163" lon="1.6176321610717308"><ele>295.75</ele><time>2026-05-02T08:16:06.999Z</time></trkpt><trkpt lat="44.763930030020326" lon="1.617624579487333"><ele>295.5</ele><time>2026-05-02T08:16:07.999Z</time></trkpt><trkpt lat="44.764072647198084" lon="1.6176131666194649"><ele>295.25</ele><time>2026-05-02T08:16:08.999Z</time></trkpt><trkpt lat="44.76420699295119" lon="1.6175665114710756"><ele>295.0</ele><time>2026-05-02T08:16:09.999Z</time></trkpt><trkpt lat="44.7643445870678" lon="1.6175068454925268"><ele>294.66666666666663</ele><time>2026-05-02T08:16:10.999Z</time></trkpt><trkpt lat="44.76449547996513" lon="1.6174255646200526"><ele>294.3333333333333</ele><time>2026-05-02T08:16:11.999Z</time></trkpt><trkpt lat="44.764648058469014" lon="1.617292138402372"><ele>294.0</ele><time>2026-05-02T08:16:12.999Z</time></trkpt><trkpt lat="44.764804727156886" lon="1.6171335561528093"><ele>294.3333333333333</ele><time>2026-05-02T08:16:13.999Z</time></trkpt><trkpt lat="44.7649785737367" lon="1.6169616970525849"><ele>294.66666666666663</ele><time>2026-05-02T08:16:14.999Z</time></trkpt><trkpt lat="44.76513956521059" lon="1.616806836332362"><ele>295.0</ele><time>2026-05-02T08:16:15.999Z</time></trkpt><trkpt lat="44.76528581949142" lon="1.6166736469175156"><ele>295.0</ele><time>2026-05-02T08:16:16.999Z</time></trkpt><trkpt lat="44.765405664006565" lon="1.6165591698896222"><ele>295.0</ele><time>2026-05-02T08:16:17.999Z</time></trkpt><trkpt lat="44.76552363796344" lon="1.6164591982452958"><ele>295.0</ele><time>2026-05-02T08:16:18.999Z</time></trkpt><trkpt lat="44.765649654871126" lon="1.6163815821747787"><ele>295.0</ele><time>2026-05-02T08:16:19.999Z</time></trkpt><trkpt lat="44.76577557867527" lon="1.6162834387392826"><ele>295.4</ele><time>2026-05-02T08:16:20.999Z</time></trkpt><trkpt lat="44.76586729160888" lon="1.616138280723679"><ele>295.8</ele><time>2026-05-02T08:16:21.999Z</time></trkpt><trkpt lat="44.76591717239968" lon="1.6160542870161543"><ele>296.2</ele><time>2026-05-02T08:16:22.999Z</time></trkpt><trkpt lat="44.76596357970329" lon="1.6159761422728403"><ele>296.6</ele><time>2026-05-02T08:16:23.999Z</time></trkpt><trkpt lat="44.76602781479743" lon="1.6158679776597205"><ele>297.0</ele><time>2026-05-02T08:16:24.999Z</time></trkpt><trkpt lat="44.76611391808763" lon="1.6157321209480882"><ele>296.3333333333333</ele><time>2026-05-02T08:16:25.999Z</time></trkpt><trkpt lat="44.7662188720905" lon="1.6155772934741854"><ele>295.66666666666663</ele><time>2026-05-02T08:16:26.999Z</time></trkpt><trkpt lat="44.76634186864647" lon="1.6154025029358405"><ele>295.0</ele><time>2026-05-02T08:16:27.999Z</time></trkpt><trkpt lat="44.76645153759629" lon="1.6152449546054335"><ele>295.0</ele><time>2026-05-02T08:16:28.999Z</time></trkpt><trkpt lat="44.76655749681008" lon="1.615107485507093"><ele>295.0</ele><time>2026-05-02T08:16:29.999Z</time></trkpt><trkpt lat="44.76667543662095" lon="1.6149731560492224"><ele>295.0</ele><time>2026-05-02T08:16:30.999Z</time></trkpt><trkpt lat="44.76682916112748" lon="1.614941830997954"><ele>294.66666666666663</ele><time>2026-05-02T08:16:31.999Z</time></trkpt><trkpt lat="44.76699151423108" lon="1.6149344666430068"><ele>294.3333333333333</ele><time>2026-05-02T08:16:32.999Z</time></trkpt><trkpt lat="44.767148914282096" lon="1.6149344976029936"><ele>294.0</ele><time>2026-05-02T08:16:33.999Z</time></trkpt><trkpt lat="44.76728496800587" lon="1.6149642718661439"><ele>294.0</ele><time>2026-05-02T08:16:34.999Z</time></trkpt><trkpt lat="44.76741132130143" lon="1.6149722464762373"><ele>294.0</ele><time>2026-05-02T08:16:35.999Z</time></trkpt><trkpt lat="44.767534194493834" lon="1.6149770151612364"><ele>294.0</ele><time>2026-05-02T08:16:36.999Z</time></trkpt><trkpt lat="44.767642496649756" lon="1.6149888569809683"><ele>294.0</ele><time>2026-05-02T08:16:37.999Z</time></trkpt><trkpt lat="44.767748131771725" lon="1.6149943713858481"><ele>293.25</ele><time>2026-05-02T08:16:38.999Z</time></trkpt><trkpt lat="44.76786303202532" lon="1.6150046913057106"><ele>292.5</ele><time>2026-05-02T08:16:39.999Z</time></trkpt><trkpt lat="44.76798571443714" lon="1.6150290076899962"><ele>291.75</ele><time>2026-05-02T08:16:40.999Z</time></trkpt><trkpt lat="44.768126197506504" lon="1.6150664303593243"><ele>291.0</ele><time>2026-05-02T08:16:41.999Z</time></trkpt><trkpt lat="44.76827373153526" lon="1.615108383612957"><ele>291.0</ele><time>2026-05-02T08:16:42.999Z</time></trkpt><trkpt lat="44.76840385608165" lon="1.6151583661974371"><ele>291.0</ele><time>2026-05-02T08:16:43.999Z</time></trkpt><trkpt lat="44.76851250402783" lon="1.615213993002436"><ele>291.0</ele><time>2026-05-02T08:16:44.999Z</time></trkpt><trkpt lat="44.768590858352404" lon="1.6154247707556517"><ele>291.0</ele><time>2026-05-02T08:16:45.999Z</time></trkpt><trkpt lat="44.76865620464976" lon="1.615619032571017"><ele>289.6</ele><time>2026-05-02T08:16:46.999Z</time></trkpt><trkpt lat="44.768699423183584" lon="1.615799093677938"><ele>288.20000000000005</ele><time>2026-05-02T08:16:47.999Z</time></trkpt><trkpt lat="44.76873336614128" lon="1.6159445691480558"><ele>286.79999999999995</ele><time>2026-05-02T08:16:48.999Z</time></trkpt><trkpt lat="44.768771030753776" lon="1.6160746885035289"><ele>285.4</ele><time>2026-05-02T08:16:49.999Z</time></trkpt><trkpt lat="44.76882016667421" lon="1.6161967858312258"><ele>284.0</ele><time>2026-05-02T08:16:50.999Z</time></trkpt><trkpt lat="44.76889015902285" lon="1.6162969561517002"><ele>282.75</ele><time>2026-05-02T08:16:51.999Z</time></trkpt><trkpt lat="44.76897350874093" lon="1.6163832781332848"><ele>281.5</ele><time>2026-05-02T08:16:52.999Z</time></trkpt><trkpt lat="44.76907993197104" lon="1.6164468844961368"><ele>280.25</ele><time>2026-05-02T08:16:53.999Z</time></trkpt><trkpt lat="44.769209124988485" lon="1.6165103385307762"><ele>279.0</ele><time>2026-05-02T08:16:54.999Z</time></trkpt><trkpt lat="44.76933791986259" lon="1.6165581990773832"><ele>277.0</ele><time>2026-05-02T08:16:55.999Z</time></trkpt><trkpt lat="44.76947382268727" lon="1.6165997881339382"><ele>275.0</ele><time>2026-05-02T08:16:57Z</time></trkpt><trkpt lat="44.76961501109024" lon="1.6166367526166152"><ele>273.0</ele><time>2026-05-02T08:16:58Z</time></trkpt><trkpt lat="44.769757215243914" lon="1.6166597482128533"><ele>271.0</ele><time>2026-05-02T08:16:59Z</time></trkpt><trkpt lat="44.769905359563616" lon="1.6166727204305351"><ele>271.0</ele><time>2026-05-02T08:17:00Z</time></trkpt><trkpt lat="44.770051884949424" lon="1.6166719213796847"><ele>271.0</ele><time>2026-05-02T08:17:01Z</time></trkpt><trkpt lat="44.7701874488706" lon="1.6166593111771614"><ele>271.0</ele><time>2026-05-02T08:17:02Z</time></trkpt><trkpt lat="44.77029708341932" lon="1.6166335941070655"><ele>271.0</ele><time>2026-05-02T08:17:03Z</time></trkpt><trkpt lat="44.770395251084665" lon="1.616598207710151"><ele>271.0</ele><time>2026-05-02T08:17:04Z</time></trkpt><trkpt lat="44.77048440755991" lon="1.616582458133408"><ele>271.0</ele><time>2026-05-02T08:17:05Z</time></trkpt><trkpt lat="44.770590932561895" lon="1.6166165702861681"><ele>271.0</ele><time>2026-05-02T08:17:06Z</time></trkpt><trkpt lat="44.77067845292655" lon="1.6167288474180666"><ele>271.0</ele><time>2026-05-02T08:17:07Z</time></trkpt><trkpt lat="44.770741993554026" lon="1.6168914670733925"><ele>271.0</ele><time>2026-05-02T08:17:08Z</time></trkpt><trkpt lat="44.7707846562386" lon="1.6170601630227412"><ele>270.75</ele><time>2026-05-02T08:17:09Z</time></trkpt><trkpt lat="44.77083157870455" lon="1.6172021832942682"><ele>270.5</ele><time>2026-05-02T08:17:10Z</time></trkpt><trkpt lat="44.770895693056325" lon="1.6173359342491447"><ele>270.25</ele><time>2026-05-02T08:17:11Z</time></trkpt><trkpt lat="44.77098095504933" lon="1.6174576930071607"><ele>270.0</ele><time>2026-05-02T08:17:12Z</time></trkpt><trkpt lat="44.771090235880564" lon="1.6175886491449956"><ele>270.0</ele><time>2026-05-02T08:17:13Z</time></trkpt><trkpt lat="44.77121111194787" lon="1.6177016250837155"><ele>270.0</ele><time>2026-05-02T08:17:14Z</time></trkpt><trkpt lat="44.771339754698744" lon="1.6178382154016333"><ele>270.0</ele><time>2026-05-02T08:17:15Z</time></trkpt><trkpt lat="44.77147039227412" lon="1.6179937827007351"><ele>263.6666666666667</ele><time>2026-05-02T08:17:16Z</time></trkpt><trkpt lat="44.77159295406915" lon="1.6181586687393252"><ele>257.33333333333337</ele><time>2026-05-02T08:17:17Z</time></trkpt><trkpt lat="44.7717011418181" lon="1.6183154685038055"><ele>251.0</ele><time>2026-05-02T08:17:18Z</time></trkpt><trkpt lat="44.77181596584631" lon="1.6184484290675731"><ele>248.0</ele><time>2026-05-02T08:17:19Z</time></trkpt><trkpt lat="44.771946443695185" lon="1.6185755678134812"><ele>245.0</ele><time>2026-05-02T08:17:20Z</time></trkpt><trkpt lat="44.77207405539129" lon="1.61868823863881"><ele>242.0</ele><time>2026-05-02T08:17:21Z</time></trkpt><trkpt lat="44.77220049394474" lon="1.6187952388668205"><ele>242.0</ele><time>2026-05-02T08:17:22Z</time></trkpt><trkpt lat="44.7723259027145" lon="1.6188878991144353"><ele>242.0</ele><time>2026-05-02T08:17:23Z</time></trkpt><trkpt lat="44.772453792730765" lon="1.6189622293568071"><ele>242.0</ele><time>2026-05-02T08:17:24Z</time></trkpt><trkpt lat="44.77259766025469" lon="1.6190355978214264"><ele>242.0</ele><time>2026-05-02T08:17:25Z</time></trkpt><trkpt lat="44.77273445641418" lon="1.6190958081782711"><ele>243.33333333333334</ele><time>2026-05-02T08:17:26Z</time></trkpt><trkpt lat="44.77287271580501" lon="1.6191470440347264"><ele>244.66666666666669</ele><time>2026-05-02T08:17:27Z</time></trkpt><trkpt lat="44.77303055399187" lon="1.6191980208452093"><ele>246.0</ele><time>2026-05-02T08:17:28Z</time></trkpt><trkpt lat="44.773204594311785" lon="1.6192368488510427"><ele>246.0</ele><time>2026-05-02T08:17:29Z</time></trkpt><trkpt lat="44.77337529423319" lon="1.6192709155546163"><ele>246.0</ele><time>2026-05-02T08:17:30Z</time></trkpt><trkpt lat="44.77353551793212" lon="1.6193076268465996"><ele>246.0</ele><time>2026-05-02T08:17:31Z</time></trkpt><trkpt lat="44.77366600020148" lon="1.6193362017267525"><ele>244.0</ele><time>2026-05-02T08:17:32Z</time></trkpt><trkpt lat="44.773790806887476" lon="1.6193441346711408"><ele>242.0</ele><time>2026-05-02T08:17:33Z</time></trkpt><trkpt lat="44.773927477326446" lon="1.6193283233278295"><ele>240.0</ele><time>2026-05-02T08:17:34Z</time></trkpt><trkpt lat="44.774078794750636" lon="1.619275023547317"><ele>238.0</ele><time>2026-05-02T08:17:35Z</time></trkpt><trkpt lat="44.77426216583576" lon="1.6192506403946862"><ele>235.25</ele><time>2026-05-02T08:17:36Z</time></trkpt><trkpt lat="44.77442364783793" lon="1.6192095349017146"><ele>232.5</ele><time>2026-05-02T08:17:37Z</time></trkpt><trkpt lat="44.77456775161801" lon="1.6191834935038278"><ele>229.75</ele><time>2026-05-02T08:17:38Z</time></trkpt><trkpt lat="44.77469809471981" lon="1.619185442425971"><ele>227.0</ele><time>2026-05-02T08:17:39Z</time></trkpt><trkpt lat="44.7748181790066" lon="1.6191679201700724"><ele>227.0</ele><time>2026-05-02T08:17:40Z</time></trkpt><trkpt lat="44.77492955332092" lon="1.6191624417617154"><ele>227.0</ele><time>2026-05-02T08:17:41Z</time></trkpt><trkpt lat="44.77504386075744" lon="1.6191230756872554"><ele>227.0</ele><time>2026-05-02T08:17:42Z</time></trkpt><trkpt lat="44.77516674967636" lon="1.6190450587750733"><ele>227.0</ele><time>2026-05-02T08:17:43Z</time></trkpt><trkpt lat="44.77528330062424" lon="1.6189237426990974"><ele>226.0</ele><time>2026-05-02T08:17:44Z</time></trkpt><trkpt lat="44.77538629473847" lon="1.6187898707071713"><ele>225.0</ele><time>2026-05-02T08:17:45Z</time></trkpt><trkpt lat="44.775493378957016" lon="1.6186419678756"><ele>224.0</ele><time>2026-05-02T08:17:46Z</time></trkpt><trkpt lat="44.775613440449305" lon="1.6184886235616975"><ele>224.0</ele><time>2026-05-02T08:17:47Z</time></trkpt><trkpt lat="44.775734130729774" lon="1.6183420271681421"><ele>224.0</ele><time>2026-05-02T08:17:48Z</time></trkpt><trkpt lat="44.77585068597203" lon="1.6182140954194322"><ele>224.0</ele><time>2026-05-02T08:17:49Z</time></trkpt><trkpt lat="44.775974286331866" lon="1.6180823336628316"><ele>224.0</ele><time>2026-05-02T08:17:50Z</time></trkpt><trkpt lat="44.77610021237238" lon="1.6179540714589826"><ele>224.0</ele><time>2026-05-02T08:17:51Z</time></trkpt><trkpt lat="44.77623942837068" lon="1.6178545546855023"><ele>224.0</ele><time>2026-05-02T08:17:52Z</time></trkpt><trkpt lat="44.77636957697391" lon="1.6177659185997513"><ele>224.0</ele><time>2026-05-02T08:17:53Z</time></trkpt><trkpt lat="44.77651520941674" lon="1.6176852696940154"><ele>224.0</ele><time>2026-05-02T08:17:54Z</time></trkpt><trkpt lat="44.77667619175023" lon="1.6176074387154398"><ele>224.0</ele><time>2026-05-02T08:17:55Z</time></trkpt><trkpt lat="44.77683187034724" lon="1.6175155514902475"><ele>218.66666666666669</ele><time>2026-05-02T08:17:56Z</time></trkpt><trkpt lat="44.776986227971335" lon="1.6174506620600921"><ele>213.33333333333331</ele><time>2026-05-02T08:17:57Z</time></trkpt><trkpt lat="44.77714834324165" lon="1.6173820095313156"><ele>208.0</ele><time>2026-05-02T08:17:58Z</time></trkpt><trkpt lat="44.777313700043706" lon="1.61731222461887"><ele>208.0</ele><time>2026-05-02T08:17:59Z</time></trkpt><trkpt lat="44.77748526326622" lon="1.6172424241994263"><ele>208.0</ele><time>2026-05-02T08:18:00Z</time></trkpt><trkpt lat="44.77765335063308" lon="1.6172093268870589"><ele>208.0</ele><time>2026-05-02T08:18:01Z</time></trkpt><trkpt lat="44.77782422165718" lon="1.6171759656528417"><ele>207.0</ele><time>2026-05-02T08:18:02Z</time></trkpt><trkpt lat="44.777992176770354" lon="1.6171316252633057"><ele>206.0</ele><time>2026-05-02T08:18:03Z</time></trkpt><trkpt lat="44.77815824284384" lon="1.6171214174534225"><ele>205.0</ele><time>2026-05-02T08:18:04Z</time></trkpt><trkpt lat="44.77832435859956" lon="1.6171124548046671"><ele>205.0</ele><time>2026-05-02T08:18:05Z</time></trkpt><trkpt lat="44.77849856525754" lon="1.6171150865564192"><ele>205.0</ele><time>2026-05-02T08:18:06Z</time></trkpt><trkpt lat="44.77866468342584" lon="1.6171213716806487"><ele>205.0</ele><time>2026-05-02T08:18:07Z</time></trkpt><trkpt lat="44.77882065454425" lon="1.6171256057489938"><ele>204.75</ele><time>2026-05-02T08:18:08Z</time></trkpt><trkpt lat="44.77896766962538" lon="1.6171308756036666"><ele>204.5</ele><time>2026-05-02T08:18:09Z</time></trkpt><trkpt lat="44.77911191633956" lon="1.6171453799813187"><ele>204.25</ele><time>2026-05-02T08:18:09.999Z</time></trkpt><trkpt lat="44.77923920603516" lon="1.6171915745142196"><ele>204.0</ele><time>2026-05-02T08:18:10.999Z</time></trkpt><trkpt lat="44.77934756276882" lon="1.6172620855734434"><ele>203.25</ele><time>2026-05-02T08:18:11.999Z</time></trkpt><trkpt lat="44.77943941001992" lon="1.6173923532099055"><ele>202.5</ele><time>2026-05-02T08:18:12.999Z</time></trkpt><trkpt lat="44.77953457021004" lon="1.6175216456771475"><ele>201.75</ele><time>2026-05-02T08:18:13.999Z</time></trkpt><trkpt lat="44.77961715148098" lon="1.6176374038266492"><ele>201.0</ele><time>2026-05-02T08:18:14.999Z</time></trkpt><trkpt lat="44.77972886456435" lon="1.6176617076013915"><ele>201.0</ele><time>2026-05-02T08:18:15.999Z</time></trkpt><trkpt lat="44.77986793950501" lon="1.6176504370751013"><ele>201.0</ele><time>2026-05-02T08:18:16.999Z</time></trkpt><trkpt lat="44.78000041772274" lon="1.617629019142291"><ele>201.0</ele><time>2026-05-02T08:18:17.999Z</time></trkpt><trkpt lat="44.7801378245798" lon="1.6176192025594849"><ele>201.0</ele><time>2026-05-02T08:18:18.999Z</time></trkpt><trkpt lat="44.78026953671191" lon="1.6175871838901619"><ele>198.5</ele><time>2026-05-02T08:18:19.999Z</time></trkpt><trkpt lat="44.78038401604057" lon="1.6175954715729308"><ele>196.0</ele><time>2026-05-02T08:18:20.999Z</time></trkpt><trkpt lat="44.78049550514499" lon="1.6176637932930449"><ele>193.5</ele><time>2026-05-02T08:18:21.999Z</time></trkpt><trkpt lat="44.780618856335664" lon="1.617718745519852"><ele>191.0</ele><time>2026-05-02T08:18:22.999Z</time></trkpt><trkpt lat="44.78074152782246" lon="1.6178070928854187"><ele>192.75</ele><time>2026-05-02T08:18:23.999Z</time></trkpt><trkpt lat="44.78087062941263" lon="1.6178640489154374"><ele>194.5</ele><time>2026-05-02T08:18:24.999Z</time></trkpt><trkpt lat="44.780994898537585" lon="1.617860405304524"><ele>196.25</ele><time>2026-05-02T08:18:25.999Z</time></trkpt><trkpt lat="44.7811055270004" lon="1.6177934751169247"><ele>198.0</ele><time>2026-05-02T08:18:26.999Z</time></trkpt><trkpt lat="44.78120944332087" lon="1.6176586888889082"><ele>198.0</ele><time>2026-05-02T08:18:27.999Z</time></trkpt><trkpt lat="44.78130985100224" lon="1.6175405337939257"><ele>198.0</ele><time>2026-05-02T08:18:28.999Z</time></trkpt><trkpt lat="44.78141286727856" lon="1.6173951144997796"><ele>198.0</ele><time>2026-05-02T08:18:29.999Z</time></trkpt><trkpt lat="44.78152800439461" lon="1.6172379720931231"><ele>198.0</ele><time>2026-05-02T08:18:30.999Z</time></trkpt><trkpt lat="44.78163956956517" lon="1.6170511313319529"><ele>196.5</ele><time>2026-05-02T08:18:31.999Z</time></trkpt><trkpt lat="44.781739759931995" lon="1.6169018325315665"><ele>195.0</ele><time>2026-05-02T08:18:32.999Z</time></trkpt><trkpt lat="44.781853559019" lon="1.6167984648473475"><ele>193.5</ele><time>2026-05-02T08:18:33.999Z</time></trkpt><trkpt lat="44.78200600003125" lon="1.6167155791717422"><ele>192.0</ele><time>2026-05-02T08:18:34.999Z</time></trkpt><trkpt lat="44.782170691102266" lon="1.6166304142338026"><ele>199.0</ele><time>2026-05-02T08:18:35.999Z</time></trkpt><trkpt lat="44.782307617664486" lon="1.6165265183787076"><ele>206.0</ele><time>2026-05-02T08:18:36.999Z</time></trkpt><trkpt lat="44.78243878935876" lon="1.6164039726024733"><ele>213.0</ele><time>2026-05-02T08:18:37.999Z</time></trkpt><trkpt lat="44.78255205478324" lon="1.6162590868877633"><ele>207.66666666666669</ele><time>2026-05-02T08:18:38.999Z</time></trkpt><trkpt lat="44.78264340849429" lon="1.6160726445713882"><ele>202.33333333333334</ele><time>2026-05-02T08:18:39.999Z</time></trkpt><trkpt lat="44.78271476064157" lon="1.615852260223123"><ele>197.0</ele><time>2026-05-02T08:18:40.999Z</time></trkpt><trkpt lat="44.78277258996189" lon="1.6155900750896932"><ele>206.66666666666669</ele><time>2026-05-02T08:18:41.999Z</time></trkpt><trkpt lat="44.782803405384286" lon="1.6153384638359147"><ele>216.33333333333331</ele><time>2026-05-02T08:18:42.999Z</time></trkpt><trkpt lat="44.7828226435557" lon="1.6151075369950272"><ele>226.0</ele><time>2026-05-02T08:18:43.999Z</time></trkpt><trkpt lat="44.782850479954995" lon="1.6148731271803707"><ele>226.0</ele><time>2026-05-02T08:18:44.999Z</time></trkpt><trkpt lat="44.78289772137542" lon="1.6146428177009113"><ele>226.0</ele><time>2026-05-02T08:18:45.999Z</time></trkpt><trkpt lat="44.78296253074721" lon="1.614441970796853"><ele>226.0</ele><time>2026-05-02T08:18:46.999Z</time></trkpt><trkpt lat="44.78303536617692" lon="1.6142661418728856"><ele>227.0</ele><time>2026-05-02T08:18:47.999Z</time></trkpt><trkpt lat="44.78313397080059" lon="1.614114359871242"><ele>228.0</ele><time>2026-05-02T08:18:48.999Z</time></trkpt><trkpt lat="44.783276647129775" lon="1.6140305414797704"><ele>229.0</ele><time>2026-05-02T08:18:49.999Z</time></trkpt><trkpt lat="44.783409821153704" lon="1.613949218894472"><ele>230.0</ele><time>2026-05-02T08:18:50.999Z</time></trkpt><trkpt lat="44.78354817031297" lon="1.6139179191911346"><ele>230.0</ele><time>2026-05-02T08:18:51.999Z</time></trkpt><trkpt lat="44.78369122095105" lon="1.6138845632831331"><ele>230.0</ele><time>2026-05-02T08:18:52.999Z</time></trkpt><trkpt lat="44.78384233458552" lon="1.613863147000176"><ele>230.0</ele><time>2026-05-02T08:18:53.999Z</time></trkpt><trkpt lat="44.784005628904346" lon="1.6138319566684505"><ele>230.0</ele><time>2026-05-02T08:18:54.999Z</time></trkpt><trkpt lat="44.784180008493365" lon="1.6138033271234509"><ele>230.0</ele><time>2026-05-02T08:18:55.999Z</time></trkpt><trkpt lat="44.784330448593096" lon="1.6137931302804227"><ele>230.0</ele><time>2026-05-02T08:18:56.999Z</time></trkpt><trkpt lat="44.78447880183742" lon="1.613806055504549"><ele>231.25</ele><time>2026-05-02T08:18:57.999Z</time></trkpt><trkpt lat="44.78462727736471" lon="1.6138449793018645"><ele>232.5</ele><time>2026-05-02T08:18:58.999Z</time></trkpt><trkpt lat="44.784768591436126" lon="1.6138929484484388"><ele>233.75</ele><time>2026-05-02T08:18:59.999Z</time></trkpt><trkpt lat="44.78487811879704" lon="1.6139503219448044"><ele>235.0</ele><time>2026-05-02T08:19:00.999Z</time></trkpt><trkpt lat="44.78495557474028" lon="1.6140142686135885"><ele>235.0</ele><time>2026-05-02T08:19:01.999Z</time></trkpt><trkpt lat="44.78503660798402" lon="1.6140431741384142"><ele>235.0</ele><time>2026-05-02T08:19:03Z</time></trkpt><trkpt lat="44.78512739442795" lon="1.6139981695363739"><ele>235.0</ele><time>2026-05-02T08:19:04Z</time></trkpt><trkpt lat="44.785195608593" lon="1.6138705709752943"><ele>235.0</ele><time>2026-05-02T08:19:05Z</time></trkpt><trkpt lat="44.785211059402954" lon="1.6136979384659882"><ele>235.0</ele><time>2026-05-02T08:19:06Z</time></trkpt><trkpt lat="44.785186313519176" lon="1.6134917581429198"><ele>233.5</ele><time>2026-05-02T08:19:07Z</time></trkpt><trkpt lat="44.78515389330251" lon="1.6133116042622264"><ele>232.0</ele><time>2026-05-02T08:19:08Z</time></trkpt><trkpt lat="44.78512625125033" lon="1.6131620764109864"><ele>230.5</ele><time>2026-05-02T08:19:09Z</time></trkpt><trkpt lat="44.7850806308576" lon="1.6130035299550782"><ele>229.0</ele><time>2026-05-02T08:19:10Z</time></trkpt><trkpt lat="44.7850114169154" lon="1.6128294937634524"><ele>232.33333333333331</ele><time>2026-05-02T08:19:11Z</time></trkpt><trkpt lat="44.784923478866425" lon="1.612629259755014"><ele>235.66666666666669</ele><time>2026-05-02T08:19:12Z</time></trkpt><trkpt lat="44.784831998771416" lon="1.6124470687341188"><ele>239.0</ele><time>2026-05-02T08:19:13Z</time></trkpt><trkpt lat="44.78473143339202" lon="1.6122877484292324"><ele>239.0</ele><time>2026-05-02T08:19:14Z</time></trkpt><trkpt lat="44.784613966041334" lon="1.6121409427735762"><ele>239.0</ele><time>2026-05-02T08:19:15Z</time></trkpt><trkpt lat="44.7844752993667" lon="1.6120217622974153"><ele>239.0</ele><time>2026-05-02T08:19:16Z</time></trkpt><trkpt lat="44.78435610713039" lon="1.6118987239797344"><ele>238.39999999999998</ele><time>2026-05-02T08:19:17Z</time></trkpt><trkpt lat="44.78426015006159" lon="1.6118054002837932"><ele>237.79999999999998</ele><time>2026-05-02T08:19:18Z</time></trkpt><trkpt lat="44.78419138646433" lon="1.611715087937614"><ele>237.20000000000002</ele><time>2026-05-02T08:19:19Z</time></trkpt><trkpt lat="44.78413186482001" lon="1.61162740054883"><ele>236.60000000000002</ele><time>2026-05-02T08:19:20Z</time></trkpt><trkpt lat="44.78414241793639" lon="1.6114923278314115"><ele>236.0</ele><time>2026-05-02T08:19:21Z</time></trkpt><trkpt lat="44.78415502059111" lon="1.61136312811943"><ele>236.0</ele><time>2026-05-02T08:19:22Z</time></trkpt><trkpt lat="44.78422875192213" lon="1.611246411573551"><ele>236.0</ele><time>2026-05-02T08:19:23Z</time></trkpt><trkpt lat="44.78432059354381" lon="1.6111489157317929"><ele>236.0</ele><time>2026-05-02T08:19:24Z</time></trkpt><trkpt lat="44.78441446616518" lon="1.6110397131315901"><ele>236.0</ele><time>2026-05-02T08:19:25Z</time></trkpt><trkpt lat="44.784530663166976" lon="1.6109418863819942"><ele>238.75</ele><time>2026-05-02T08:19:26Z</time></trkpt><trkpt lat="44.784636370394665" lon="1.610823603176361"><ele>241.5</ele><time>2026-05-02T08:19:27Z</time></trkpt><trkpt lat="44.784740735480696" lon="1.6106931839413923"><ele>244.25</ele><time>2026-05-02T08:19:28Z</time></trkpt><trkpt lat="44.784851804085754" lon="1.610554127278477"><ele>247.0</ele><time>2026-05-02T08:19:29Z</time></trkpt><trkpt lat="44.784958932107344" lon="1.6103844739451254"><ele>243.66666666666666</ele><time>2026-05-02T08:19:30Z</time></trkpt><trkpt lat="44.78507943804358" lon="1.6102027377685777"><ele>240.33333333333331</ele><time>2026-05-02T08:19:31Z</time></trkpt><trkpt lat="44.78518097691069" lon="1.6099694634750434"><ele>237.0</ele><time>2026-05-02T08:19:32Z</time></trkpt><trkpt lat="44.78528436371982" lon="1.6097389086098628"><ele>242.0</ele><time>2026-05-02T08:19:33Z</time></trkpt><trkpt lat="44.785400148815064" lon="1.60951787324669"><ele>247.0</ele><time>2026-05-02T08:19:34Z</time></trkpt><trkpt lat="44.7855020362669" lon="1.6092914917581105"><ele>252.0</ele><time>2026-05-02T08:19:35Z</time></trkpt><trkpt lat="44.78559072600303" lon="1.6090461857043354"><ele>252.0</ele><time>2026-05-02T08:19:36Z</time></trkpt><trkpt lat="44.78567758055755" lon="1.6088142944655996"><ele>252.0</ele><time>2026-05-02T08:19:37Z</time></trkpt><trkpt lat="44.78575101353176" lon="1.6085990877348904"><ele>252.0</ele><time>2026-05-02T08:19:38Z</time></trkpt><trkpt lat="44.78581071916444" lon="1.6084223937011082"><ele>252.0</ele><time>2026-05-02T08:19:39Z</time></trkpt><trkpt lat="44.78588102629892" lon="1.6083054103763468"><ele>252.0</ele><time>2026-05-02T08:19:40Z</time></trkpt><trkpt lat="44.78593119757975" lon="1.6082043848310426"><ele>252.0</ele><time>2026-05-02T08:19:41Z</time></trkpt><trkpt lat="44.78602115061793" lon="1.608149457972202"><ele>252.0</ele><time>2026-05-02T08:19:42Z</time></trkpt><trkpt lat="44.7861439607736" lon="1.608142558976082"><ele>252.0</ele><time>2026-05-02T08:19:43Z</time></trkpt><trkpt lat="44.78628800692924" lon="1.6081691120316495"><ele>252.0</ele><time>2026-05-02T08:19:44Z</time></trkpt><trkpt lat="44.78643337535134" lon="1.6082018387752006"><ele>252.0</ele><time>2026-05-02T08:19:45Z</time></trkpt><trkpt lat="44.786590483341946" lon="1.6082235833764402"><ele>252.0</ele><time>2026-05-02T08:19:46Z</time></trkpt><trkpt lat="44.78675871539332" lon="1.6082377405065704"><ele>253.33333333333331</ele><time>2026-05-02T08:19:47Z</time></trkpt><trkpt lat="44.78692286650258" lon="1.608247212379044"><ele>254.66666666666666</ele><time>2026-05-02T08:19:48Z</time></trkpt><trkpt lat="44.7870889078137" lon="1.6082625239153925"><ele>256.0</ele><time>2026-05-02T08:19:49Z</time></trkpt><trkpt lat="44.787261243368235" lon="1.608292003520588"><ele>256.0</ele><time>2026-05-02T08:19:50Z</time></trkpt><trkpt lat="44.78744577011649" lon="1.6083085308194502"><ele>256.0</ele><time>2026-05-02T08:19:51Z</time></trkpt><trkpt lat="44.78763601412763" lon="1.6083205467010597"><ele>256.0</ele><time>2026-05-02T08:19:52Z</time></trkpt><trkpt lat="44.78781710524708" lon="1.6083387893097434"><ele>256.3333333333333</ele><time>2026-05-02T08:19:53Z</time></trkpt><trkpt lat="44.7879914471701" lon="1.6083521389250388"><ele>256.6666666666667</ele><time>2026-05-02T08:19:54Z</time></trkpt><trkpt lat="44.78816681335893" lon="1.6083729225899588"><ele>257.0</ele><time>2026-05-02T08:19:55Z</time></trkpt><trkpt lat="44.7883519197164" lon="1.608392969093461"><ele>257.6666666666667</ele><time>2026-05-02T08:19:56Z</time></trkpt><trkpt lat="44.78853350519964" lon="1.6084118612913982"><ele>258.3333333333333</ele><time>2026-05-02T08:19:57Z</time></trkpt><trkpt lat="44.78872965312524" lon="1.6084343853613998"><ele>259.0</ele><time>2026-05-02T08:19:58Z</time></trkpt><trkpt lat="44.78892112723041" lon="1.6084518654798365"><ele>259.0</ele><time>2026-05-02T08:19:59Z</time></trkpt><trkpt lat="44.78909149503912" lon="1.6084617933301275"><ele>259.0</ele><time>2026-05-02T08:20:00Z</time></trkpt><trkpt lat="44.789244836392065" lon="1.608474405137097"><ele>259.0</ele><time>2026-05-02T08:20:01Z</time></trkpt><trkpt lat="44.78939758085542" lon="1.6084916719595308"><ele>258.66666666666663</ele><time>2026-05-02T08:20:02Z</time></trkpt><trkpt lat="44.789549768526896" lon="1.608509241386671"><ele>258.3333333333333</ele><time>2026-05-02T08:20:03Z</time></trkpt><trkpt lat="44.78969778522119" lon="1.60851885376804"><ele>258.0</ele><time>2026-05-02T08:20:04Z</time></trkpt><trkpt lat="44.78984901645285" lon="1.6085364361333112"><ele>258.0</ele><time>2026-05-02T08:20:05Z</time></trkpt><trkpt lat="44.790002059352744" lon="1.608554769297875"><ele>258.0</ele><time>2026-05-02T08:20:06Z</time></trkpt><trkpt lat="44.790142860243144" lon="1.60856308557153"><ele>258.0</ele><time>2026-05-02T08:20:07Z</time></trkpt><trkpt lat="44.7902696925015" lon="1.6085795592470298"><ele>258.0</ele><time>2026-05-02T08:20:08Z</time></trkpt><trkpt lat="44.79039780017005" lon="1.608597861316116"><ele>257.0</ele><time>2026-05-02T08:20:09Z</time></trkpt><trkpt lat="44.790532851473536" lon="1.6086117382581235"><ele>256.0</ele><time>2026-05-02T08:20:10Z</time></trkpt><trkpt lat="44.790675771893156" lon="1.6086207191404098"><ele>255.0</ele><time>2026-05-02T08:20:11Z</time></trkpt><trkpt lat="44.79081742569822" lon="1.6086259243174992"><ele>254.0</ele><time>2026-05-02T08:20:12Z</time></trkpt><trkpt lat="44.79096049185066" lon="1.6086166441703247"><ele>252.5</ele><time>2026-05-02T08:20:13Z</time></trkpt><trkpt lat="44.791108158134485" lon="1.6085863512514096"><ele>251.0</ele><time>2026-05-02T08:20:14Z</time></trkpt><trkpt lat="44.79125285261758" lon="1.6085570442065285"><ele>249.5</ele><time>2026-05-02T08:20:15Z</time></trkpt><trkpt lat="44.791398400858924" lon="1.608548535984302"><ele>248.0</ele><time>2026-05-02T08:20:16Z</time></trkpt><trkpt lat="44.79154619261656" lon="1.6085447919993725"><ele>248.0</ele><time>2026-05-02T08:20:17Z</time></trkpt><trkpt lat="44.7916861757964" lon="1.6085684883102374"><ele>248.0</ele><time>2026-05-02T08:20:18Z</time></trkpt><trkpt lat="44.79182232032127" lon="1.6086096341125364"><ele>248.0</ele><time>2026-05-02T08:20:19Z</time></trkpt><trkpt lat="44.79193429708943" lon="1.6086559773596327"><ele>248.0</ele><time>2026-05-02T08:20:19.999Z</time></trkpt><trkpt lat="44.79203545014425" lon="1.6086765914524008"><ele>246.8</ele><time>2026-05-02T08:20:20.999Z</time></trkpt><trkpt lat="44.792128252396175" lon="1.608655554683648"><ele>245.60000000000002</ele><time>2026-05-02T08:20:21.999Z</time></trkpt><trkpt lat="44.7922232190792" lon="1.608609880548979"><ele>244.39999999999998</ele><time>2026-05-02T08:20:22.999Z</time></trkpt><trkpt lat="44.7923272728506" lon="1.6085328774587024"><ele>243.2</ele><time>2026-05-02T08:20:23.999Z</time></trkpt><trkpt lat="44.79244125792781" lon="1.608451700392553"><ele>242.0</ele><time>2026-05-02T08:20:24.999Z</time></trkpt><trkpt lat="44.79256033078042" lon="1.6083721305066603"><ele>242.0</ele><time>2026-05-02T08:20:25.999Z</time></trkpt><trkpt lat="44.792665194559156" lon="1.6083106337055508"><ele>242.0</ele><time>2026-05-02T08:20:26.999Z</time></trkpt><trkpt lat="44.79275301107021" lon="1.608268412644174"><ele>242.0</ele><time>2026-05-02T08:20:27.999Z</time></trkpt><trkpt lat="44.79284581102679" lon="1.6082490735793682"><ele>242.0</ele><time>2026-05-02T08:20:28.999Z</time></trkpt><trkpt lat="44.79294711728817" lon="1.608294102073153"><ele>242.0</ele><time>2026-05-02T08:20:29.999Z</time></trkpt><trkpt lat="44.79302749984063" lon="1.608400201929178"><ele>241.0</ele><time>2026-05-02T08:20:30.999Z</time></trkpt><trkpt lat="44.79309352888179" lon="1.608560679320482"><ele>240.0</ele><time>2026-05-02T08:20:31.999Z</time></trkpt><trkpt lat="44.793144864558755" lon="1.6087207791122493"><ele>239.0</ele><time>2026-05-02T08:20:32.999Z</time></trkpt><trkpt lat="44.79318976261084" lon="1.6088643729713141"><ele>238.0</ele><time>2026-05-02T08:20:33.999Z</time></trkpt><trkpt lat="44.79325466124968" lon="1.608993683892897"><ele>238.0</ele><time>2026-05-02T08:20:34.999Z</time></trkpt><trkpt lat="44.793344236853265" lon="1.6091184664248375"><ele>238.0</ele><time>2026-05-02T08:20:35.999Z</time></trkpt><trkpt lat="44.79345252763829" lon="1.609243810416078"><ele>238.0</ele><time>2026-05-02T08:20:36.999Z</time></trkpt><trkpt lat="44.79356763731419" lon="1.6093756300368849"><ele>238.0</ele><time>2026-05-02T08:20:37.999Z</time></trkpt><trkpt lat="44.79367983304107" lon="1.6095019462513622"><ele>236.5</ele><time>2026-05-02T08:20:38.999Z</time></trkpt><trkpt lat="44.79378288390903" lon="1.609616855490524"><ele>235.0</ele><time>2026-05-02T08:20:39.999Z</time></trkpt><trkpt lat="44.79387920898286" lon="1.6097333037003227"><ele>233.5</ele><time>2026-05-02T08:20:40.999Z</time></trkpt><trkpt lat="44.79397890882668" lon="1.6098436255091024"><ele>232.0</ele><time>2026-05-02T08:20:41.999Z</time></trkpt><trkpt lat="44.79408557588476" lon="1.6099525325797246"><ele>232.0</ele><time>2026-05-02T08:20:42.999Z</time></trkpt><trkpt lat="44.79421164324754" lon="1.6100463653964439"><ele>232.0</ele><time>2026-05-02T08:20:43.999Z</time></trkpt><trkpt lat="44.79435127917048" lon="1.6101475668133136"><ele>232.0</ele><time>2026-05-02T08:20:44.999Z</time></trkpt><trkpt lat="44.794482968653554" lon="1.6102835418248085"><ele>228.66666666666666</ele><time>2026-05-02T08:20:45.999Z</time></trkpt><trkpt lat="44.79460152862409" lon="1.610442378622257"><ele>225.33333333333331</ele><time>2026-05-02T08:20:46.999Z</time></trkpt><trkpt lat="44.7947089674017" lon="1.6105877894526621"><ele>222.0</ele><time>2026-05-02T08:20:47.999Z</time></trkpt><trkpt lat="44.79481303551617" lon="1.610721289831529"><ele>222.0</ele><time>2026-05-02T08:20:48.999Z</time></trkpt><trkpt lat="44.79491334433947" lon="1.6108474442929015"><ele>222.0</ele><time>2026-05-02T08:20:49.999Z</time></trkpt><trkpt lat="44.795010907887594" lon="1.6109736386743894"><ele>222.0</ele><time>2026-05-02T08:20:50.999Z</time></trkpt><trkpt lat="44.79509507961293" lon="1.6110866289566699"><ele>222.0</ele><time>2026-05-02T08:20:51.999Z</time></trkpt><trkpt lat="44.79516008021081" lon="1.6111938452798904"><ele>221.39999999999998</ele><time>2026-05-02T08:20:52.999Z</time></trkpt><trkpt lat="44.795212411708825" lon="1.6113201175682457"><ele>220.79999999999998</ele><time>2026-05-02T08:20:53.999Z</time></trkpt><trkpt lat="44.79524599602046" lon="1.6114659964465439"><ele>220.2</ele><time>2026-05-02T08:20:54.999Z</time></trkpt><trkpt lat="44.7952540326107" lon="1.611624791845057"><ele>219.6</ele><time>2026-05-02T08:20:55.999Z</time></trkpt><trkpt lat="44.795217951143144" lon="1.6117673914327597"><ele>219.0</ele><time>2026-05-02T08:20:56.999Z</time></trkpt><trkpt lat="44.7951560162931" lon="1.6118790231920985"><ele>219.0</ele><time>2026-05-02T08:20:57.999Z</time></trkpt><trkpt lat="44.79508025174051" lon="1.611988615136975"><ele>219.0</ele><time>2026-05-02T08:20:58.999Z</time></trkpt><trkpt lat="44.79499058579189" lon="1.612093056265706"><ele>219.0</ele><time>2026-05-02T08:20:59.999Z</time></trkpt><trkpt lat="44.79488518924672" lon="1.6122029252042775"><ele>219.0</ele><time>2026-05-02T08:21:00.999Z</time></trkpt><trkpt lat="44.79478483976563" lon="1.6123312866562822"><ele>214.5</ele><time>2026-05-02T08:21:01.999Z</time></trkpt><trkpt lat="44.79469682994851" lon="1.6124537047124798"><ele>210.0</ele><time>2026-05-02T08:21:02.999Z</time></trkpt><trkpt lat="44.79464044108944" lon="1.6125846084273754"><ele>205.5</ele><time>2026-05-02T08:21:03.999Z</time></trkpt><trkpt lat="44.79458667374388" lon="1.612732794498564"><ele>201.0</ele><time>2026-05-02T08:21:04.999Z</time></trkpt><trkpt lat="44.79454099057906" lon="1.6128834512275962"><ele>196.4</ele><time>2026-05-02T08:21:05.999Z</time></trkpt><trkpt lat="44.79449406237304" lon="1.6130289870815437"><ele>191.8</ele><time>2026-05-02T08:21:06.999Z</time></trkpt><trkpt lat="44.794455381572575" lon="1.6131707969493694"><ele>187.20000000000002</ele><time>2026-05-02T08:21:07.999Z</time></trkpt><trkpt lat="44.794430164203106" lon="1.6133167616373032"><ele>182.60000000000002</ele><time>2026-05-02T08:21:09Z</time></trkpt><trkpt lat="44.794409453735945" lon="1.6134647550755465"><ele>178.0</ele><time>2026-05-02T08:21:10Z</time></trkpt><trkpt lat="44.7944026162688" lon="1.6136121139431834"><ele>176.0</ele><time>2026-05-02T08:21:11Z</time></trkpt><trkpt lat="44.79440160355907" lon="1.6137733836786592"><ele>174.0</ele><time>2026-05-02T08:21:12Z</time></trkpt><trkpt lat="44.794408622316354" lon="1.6139460844222895"><ele>172.0</ele><time>2026-05-02T08:21:13Z</time></trkpt><trkpt lat="44.79442092251804" lon="1.6141216102019866"><ele>170.0</ele><time>2026-05-02T08:21:14Z</time></trkpt><trkpt lat="44.794426522019464" lon="1.6142716017091465"><ele>170.0</ele><time>2026-05-02T08:21:15Z</time></trkpt><trkpt lat="44.79444709077258" lon="1.6144131639866777"><ele>170.0</ele><time>2026-05-02T08:21:16Z</time></trkpt><trkpt lat="44.79446552216901" lon="1.6145513160108993"><ele>170.0</ele><time>2026-05-02T08:21:17Z</time></trkpt><trkpt lat="44.79448592225296" lon="1.6146868654348818"><ele>170.0</ele><time>2026-05-02T08:21:18Z</time></trkpt><trkpt lat="44.794508936168086" lon="1.6148351873889781"><ele>170.0</ele><time>2026-05-02T08:21:19Z</time></trkpt><trkpt lat="44.794543963312925" lon="1.6149898958608186"><ele>172.75</ele><time>2026-05-02T08:21:20Z</time></trkpt><trkpt lat="44.794583759907006" lon="1.6151405744732252"><ele>175.5</ele><time>2026-05-02T08:21:21Z</time></trkpt><trkpt lat="44.794636828432296" lon="1.6152979030087988"><ele>178.25</ele><time>2026-05-02T08:21:22Z</time></trkpt><trkpt lat="44.794695009876925" lon="1.615450650861429"><ele>181.0</ele><time>2026-05-02T08:21:23Z</time></trkpt><trkpt lat="44.79474737367143" lon="1.615596284757273"><ele>184.20000000000002</ele><time>2026-05-02T08:21:24Z</time></trkpt><trkpt lat="44.79480059893078" lon="1.6157252486553872"><ele>187.4</ele><time>2026-05-02T08:21:25Z</time></trkpt><trkpt lat="44.794860686288445" lon="1.6158447606837285"><ele>190.6</ele><time>2026-05-02T08:21:26Z</time></trkpt><trkpt lat="44.79492699455603" lon="1.6159474202360045"><ele>193.8</ele><time>2026-05-02T08:21:27Z</time></trkpt><trkpt lat="44.79499435914531" lon="1.6160254139881716"><ele>197.0</ele><time>2026-05-02T08:21:28Z</time></trkpt><trkpt lat="44.7950590647676" lon="1.6160993334992038"><ele>192.8</ele><time>2026-05-02T08:21:29Z</time></trkpt><trkpt lat="44.795134582053265" lon="1.616186364377622"><ele>188.6</ele><time>2026-05-02T08:21:30Z</time></trkpt><trkpt lat="44.79520885199291" lon="1.6163081659348228"><ele>184.4</ele><time>2026-05-02T08:21:31Z</time></trkpt><trkpt lat="44.79526002646561" lon="1.616463355910755"><ele>180.20000000000002</ele><time>2026-05-02T08:21:32Z</time></trkpt><trkpt lat="44.79529985326829" lon="1.6166084176220619"><ele>176.0</ele><time>2026-05-02T08:21:33Z</time></trkpt><trkpt lat="44.79533591644727" lon="1.6167144424173057"><ele>176.0</ele><time>2026-05-02T08:21:34Z</time></trkpt><trkpt lat="44.79538020449163" lon="1.6168011670888816"><ele>176.0</ele><time>2026-05-02T08:21:35Z</time></trkpt><trkpt lat="44.79544309556274" lon="1.6168544800276643"><ele>176.0</ele><time>2026-05-02T08:21:36Z</time></trkpt><trkpt lat="44.795528046265645" lon="1.6168858130035273"><ele>176.0</ele><time>2026-05-02T08:21:37Z</time></trkpt><trkpt lat="44.79561842206294" lon="1.6168969888732843"><ele>176.0</ele><time>2026-05-02T08:21:38Z</time></trkpt><trkpt lat="44.79571316650689" lon="1.616935504461676"><ele>176.0</ele><time>2026-05-02T08:21:39Z</time></trkpt><trkpt lat="44.79580763697125" lon="1.6170083385029916"><ele>171.4</ele><time>2026-05-02T08:21:40Z</time></trkpt><trkpt lat="44.7958896756011" lon="1.6170876868288673"><ele>166.8</ele><time>2026-05-02T08:21:41Z</time></trkpt><trkpt lat="44.79596195422026" lon="1.6171886085380394"><ele>162.20000000000002</ele><time>2026-05-02T08:21:42Z</time></trkpt><trkpt lat="44.79603550030913" lon="1.6172975523263184"><ele>157.60000000000002</ele><time>2026-05-02T08:21:43Z</time></trkpt><trkpt lat="44.79609548596475" lon="1.617408880085384"><ele>153.0</ele><time>2026-05-02T08:21:44Z</time></trkpt><trkpt lat="44.79615950389846" lon="1.6175110608803358"><ele>153.0</ele><time>2026-05-02T08:21:45Z</time></trkpt><trkpt lat="44.796219535464985" lon="1.617617881506185"><ele>153.0</ele><time>2026-05-02T08:21:46Z</time></trkpt><trkpt lat="44.79627599343319" lon="1.6177341090090558"><ele>153.0</ele><time>2026-05-02T08:21:47Z</time></trkpt><trkpt lat="44.79631363733405" lon="1.6178628277590423"><ele>153.0</ele><time>2026-05-02T08:21:48Z</time></trkpt><trkpt lat="44.79634281718853" lon="1.6179870521920545"><ele>153.0</ele><time>2026-05-02T08:21:49Z</time></trkpt><trkpt lat="44.796350596384066" lon="1.618115534674952"><ele>157.2</ele><time>2026-05-02T08:21:50Z</time></trkpt><trkpt lat="44.79635125844767" lon="1.6182416476942871"><ele>161.4</ele><time>2026-05-02T08:21:51Z</time></trkpt><trkpt lat="44.79635769511807" lon="1.6183832055500236"><ele>165.6</ele><time>2026-05-02T08:21:52Z</time></trkpt><trkpt lat="44.79638221869287" lon="1.6185120930908914"><ele>169.79999999999998</ele><time>2026-05-02T08:21:53Z</time></trkpt><trkpt lat="44.79640738338452" lon="1.6186406924948638"><ele>174.0</ele><time>2026-05-02T08:21:54Z</time></trkpt><trkpt lat="44.796447456711036" lon="1.6187579034505826"><ele>176.0</ele><time>2026-05-02T08:21:55Z</time></trkpt><trkpt lat="44.79652457965626" lon="1.6188549837903305"><ele>178.0</ele><time>2026-05-02T08:21:56Z</time></trkpt><trkpt lat="44.79660158512228" lon="1.6189136579340215"><ele>180.0</ele><time>2026-05-02T08:21:57Z</time></trkpt><trkpt lat="44.796692665269056" lon="1.618925569309269"><ele>182.0</ele><time>2026-05-02T08:21:58Z</time></trkpt><trkpt lat="44.79676282355833" lon="1.618888985596206"><ele>184.0</ele><time>2026-05-02T08:21:59Z</time></trkpt><trkpt lat="44.79683071934937" lon="1.6188359590907915"><ele>186.0</ele><time>2026-05-02T08:22:00Z</time></trkpt><trkpt lat="44.79689239017714" lon="1.6187913561326763"><ele>186.0</ele><time>2026-05-02T08:22:01Z</time></trkpt><trkpt lat="44.79695375439842" lon="1.6187524302428993"><ele>186.0</ele><time>2026-05-02T08:22:02Z</time></trkpt><trkpt lat="44.79702170510251" lon="1.6187228844867345"><ele>186.0</ele><time>2026-05-02T08:22:03Z</time></trkpt><trkpt lat="44.797089581872925" lon="1.6187112185196846"><ele>186.0</ele><time>2026-05-02T08:22:04Z</time></trkpt><trkpt lat="44.79716718126453" lon="1.618733908214498"><ele>186.0</ele><time>2026-05-02T08:22:05Z</time></trkpt><trkpt lat="44.797250798744834" lon="1.6187864994907546"><ele>186.0</ele><time>2026-05-02T08:22:06Z</time></trkpt><trkpt lat="44.79731447858225" lon="1.6188477655834632"><ele>186.0</ele><time>2026-05-02T08:22:07Z</time></trkpt><trkpt lat="44.79739505748922" lon="1.6188992310098624"><ele>186.0</ele><time>2026-05-02T08:22:08Z</time></trkpt><trkpt lat="44.79747658073495" lon="1.6189642797086985"><ele>186.0</ele><time>2026-05-02T08:22:09Z</time></trkpt><trkpt lat="44.79755918736234" lon="1.619021443018789"><ele>186.0</ele><time>2026-05-02T08:22:10Z</time></trkpt><trkpt lat="44.797639329065895" lon="1.619085707990576"><ele>186.0</ele><time>2026-05-02T08:22:11Z</time></trkpt><trkpt lat="44.79772478543177" lon="1.6191399223499714"><ele>179.4</ele><time>2026-05-02T08:22:12Z</time></trkpt><trkpt lat="44.797809139249345" lon="1.6191877679279953"><ele>172.8</ele><time>2026-05-02T08:22:13Z</time></trkpt><trkpt lat="44.79789333328903" lon="1.6192351138264698"><ele>166.20000000000002</ele><time>2026-05-02T08:22:14Z</time></trkpt><trkpt lat="44.797980088483214" lon="1.619277278326649"><ele>159.60000000000002</ele><time>2026-05-02T08:22:15Z</time></trkpt><trkpt lat="44.79806856528108" lon="1.6193271247268735"><ele>153.0</ele><time>2026-05-02T08:22:16Z</time></trkpt><trkpt lat="44.79815685112868" lon="1.6193716772651081"><ele>153.0</ele><time>2026-05-02T08:22:17Z</time></trkpt><trkpt lat="44.79824129688634" lon="1.6194116590398204"><ele>153.0</ele><time>2026-05-02T08:22:18Z</time></trkpt><trkpt lat="44.79832356980242" lon="1.6194545729656002"><ele>153.0</ele><time>2026-05-02T08:22:19Z</time></trkpt><trkpt lat="44.79840928715434" lon="1.6194947943368405"><ele>153.0</ele><time>2026-05-02T08:22:20Z</time></trkpt><trkpt lat="44.79850556014156" lon="1.6195418406284297"><ele>153.0</ele><time>2026-05-02T08:22:21Z</time></trkpt><trkpt lat="44.7986072179442" lon="1.6195915828464262"><ele>154.4</ele><time>2026-05-02T08:22:21.999Z</time></trkpt><trkpt lat="44.798699359831396" lon="1.6196406350376453"><ele>155.8</ele><time>2026-05-02T08:22:22.999Z</time></trkpt><trkpt lat="44.79878428969719" lon="1.6196966266244373"><ele>157.2</ele><time>2026-05-02T08:22:23.999Z</time></trkpt><trkpt lat="44.798867647269056" lon="1.6197592211892922"><ele>158.6</ele><time>2026-05-02T08:22:24.999Z</time></trkpt><trkpt lat="44.79894711179224" lon="1.6198214095065546"><ele>160.0</ele><time>2026-05-02T08:22:25.999Z</time></trkpt><trkpt lat="44.799028347235094" lon="1.6198773112888216"><ele>160.0</ele><time>2026-05-02T08:22:26.999Z</time></trkpt><trkpt lat="44.79910647241023" lon="1.619926595489914"><ele>160.0</ele><time>2026-05-02T08:22:27.999Z</time></trkpt><trkpt lat="44.79917397615793" lon="1.6199805402641538"><ele>160.0</ele><time>2026-05-02T08:22:28.999Z</time></trkpt><trkpt lat="44.79924750046197" lon="1.6200376983618106"><ele>160.0</ele><time>2026-05-02T08:22:29.999Z</time></trkpt><trkpt lat="44.799323891599904" lon="1.6200965114651935"><ele>160.0</ele><time>2026-05-02T08:22:30.999Z</time></trkpt><trkpt lat="44.79940168737566" lon="1.6201547676550112"><ele>160.0</ele><time>2026-05-02T08:22:31.999Z</time></trkpt><trkpt lat="44.79948432513213" lon="1.620224487411614"><ele>158.0</ele><time>2026-05-02T08:22:32.999Z</time></trkpt><trkpt lat="44.79957491474014" lon="1.6203024422689978"><ele>156.0</ele><time>2026-05-02T08:22:33.999Z</time></trkpt><trkpt lat="44.799666291568926" lon="1.6204086466840575"><ele>154.0</ele><time>2026-05-02T08:22:34.999Z</time></trkpt><trkpt lat="44.79975432334787" lon="1.6205411570556283"><ele>152.0</ele><time>2026-05-02T08:22:35.999Z</time></trkpt><trkpt lat="44.79981289751747" lon="1.6206716172850812"><ele>152.0</ele><time>2026-05-02T08:22:36.999Z</time></trkpt><trkpt lat="44.79985960463102" lon="1.6208042093553965"><ele>152.0</ele><time>2026-05-02T08:22:37.999Z</time></trkpt><trkpt lat="44.79991074780179" lon="1.6209392177073976"><ele>152.0</ele><time>2026-05-02T08:22:38.999Z</time></trkpt><trkpt lat="44.799963256102814" lon="1.6210708737773527"><ele>152.0</ele><time>2026-05-02T08:22:39.999Z</time></trkpt><trkpt lat="44.80003174612206" lon="1.621213120791128"><ele>152.0</ele><time>2026-05-02T08:22:40.999Z</time></trkpt><trkpt lat="44.80011480253781" lon="1.6213682115703731"><ele>150.0</ele><time>2026-05-02T08:22:41.999Z</time></trkpt><trkpt lat="44.80023780400737" lon="1.6215167149751122"><ele>148.0</ele><time>2026-05-02T08:22:42.999Z</time></trkpt><trkpt lat="44.80038336607876" lon="1.6216527066944109"><ele>146.0</ele><time>2026-05-02T08:22:43.999Z</time></trkpt><trkpt lat="44.80051772772451" lon="1.6217702927346556"><ele>146.0</ele><time>2026-05-02T08:22:44.999Z</time></trkpt><trkpt lat="44.80064164857403" lon="1.6218722586896965"><ele>146.0</ele><time>2026-05-02T08:22:45.999Z</time></trkpt><trkpt lat="44.80076173813284" lon="1.6219514436910747"><ele>146.0</ele><time>2026-05-02T08:22:46.999Z</time></trkpt><trkpt lat="44.80087732400949" lon="1.6220136843802373"><ele>146.0</ele><time>2026-05-02T08:22:47.999Z</time></trkpt><trkpt lat="44.80097905373073" lon="1.6220918573805765"><ele>145.4</ele><time>2026-05-02T08:22:48.999Z</time></trkpt><trkpt lat="44.80107387983305" lon="1.6221814081833756"><ele>144.8</ele><time>2026-05-02T08:22:49.999Z</time></trkpt><trkpt lat="44.801162577556966" lon="1.6222831536874474"><ele>144.20000000000002</ele><time>2026-05-02T08:22:50.999Z</time></trkpt><trkpt lat="44.80123450950543" lon="1.6223957154112316"><ele>143.6</ele><time>2026-05-02T08:22:51.999Z</time></trkpt><trkpt lat="44.80129895520043" lon="1.6224989860142234"><ele>143.0</ele><time>2026-05-02T08:22:52.999Z</time></trkpt><trkpt lat="44.8013573878532" lon="1.6225735422849523"><ele>143.0</ele><time>2026-05-02T08:22:53.999Z</time></trkpt><trkpt lat="44.801413160685456" lon="1.6226217829217653"><ele>143.0</ele><time>2026-05-02T08:22:54.999Z</time></trkpt><trkpt lat="44.80147368189624" lon="1.6226465273832256"><ele>143.0</ele><time>2026-05-02T08:22:55.999Z</time></trkpt><trkpt lat="44.80160483440214" lon="1.6226336733912508"><ele>143.0</ele><time>2026-05-02T08:22:57.999Z</time></trkpt><trkpt lat="44.80166813821635" lon="1.6226006110602373"><ele>143.0</ele><time>2026-05-02T08:22:58.999Z</time></trkpt><trkpt lat="44.80177087741182" lon="1.6225441777893899"><ele>143.0</ele><time>2026-05-02T08:23:00.999Z</time></trkpt><trkpt lat="44.801846495617546" lon="1.622522676962286"><ele>145.6</ele><time>2026-05-02T08:23:02.999Z</time></trkpt><trkpt lat="44.80191780039069" lon="1.6224966249367163"><ele>148.20000000000002</ele><time>2026-05-02T08:23:10.999Z</time></trkpt><trkpt lat="44.80199558852281" lon="1.6224539285703574"><ele>150.8</ele><time>2026-05-02T08:23:19Z</time></trkpt><trkpt lat="44.80211969399912" lon="1.6225304531352711"><ele>153.4</ele><time>2026-05-02T08:23:21Z</time></trkpt><trkpt lat="44.802177117407076" lon="1.62263112435522"><ele>156.0</ele><time>2026-05-02T08:23:22Z</time></trkpt><trkpt lat="44.802246508730185" lon="1.6227246280924459"><ele>156.0</ele><time>2026-05-02T08:23:23Z</time></trkpt><trkpt lat="44.80231839423516" lon="1.6227806365271913"><ele>156.0</ele><time>2026-05-02T08:23:24Z</time></trkpt><trkpt lat="44.802391407483334" lon="1.6227963239731917"><ele>156.0</ele><time>2026-05-02T08:23:25Z</time></trkpt><trkpt lat="44.80246805201719" lon="1.6227821934499937"><ele>156.0</ele><time>2026-05-02T08:23:26Z</time></trkpt><trkpt lat="44.80254163158267" lon="1.622735613813387"><ele>156.0</ele><time>2026-05-02T08:23:27Z</time></trkpt><trkpt lat="44.80258963366773" lon="1.6225825476318516"><ele>156.0</ele><time>2026-05-02T08:23:28Z</time></trkpt><trkpt lat="44.80258302645123" lon="1.6224204361280044"><ele>156.0</ele><time>2026-05-02T08:23:29Z</time></trkpt><trkpt lat="44.80253134546459" lon="1.6222535343253162"><ele>156.0</ele><time>2026-05-02T08:23:30Z</time></trkpt><trkpt lat="44.80246290191144" lon="1.622050458432057"><ele>156.0</ele><time>2026-05-02T08:23:31Z</time></trkpt><trkpt lat="44.80240408631832" lon="1.6218651583415566"><ele>156.0</ele><time>2026-05-02T08:23:32Z</time></trkpt><trkpt lat="44.80237598021622" lon="1.6217134156060853"><ele>160.0</ele><time>2026-05-02T08:23:33Z</time></trkpt><trkpt lat="44.802331523812306" lon="1.6215705562322194"><ele>164.0</ele><time>2026-05-02T08:23:34Z</time></trkpt><trkpt lat="44.80227675263138" lon="1.621459403328105"><ele>168.0</ele><time>2026-05-02T08:23:35Z</time></trkpt><trkpt lat="44.802241535055096" lon="1.6213634325307063"><ele>172.0</ele><time>2026-05-02T08:23:36Z</time></trkpt><trkpt lat="44.802203325508906" lon="1.6212622331811426"><ele>176.0</ele><time>2026-05-02T08:23:37Z</time></trkpt><trkpt lat="44.80216196087402" lon="1.6211386407083728"><ele>180.4</ele><time>2026-05-02T08:23:38Z</time></trkpt><trkpt lat="44.80211259166268" lon="1.621015945402391"><ele>184.8</ele><time>2026-05-02T08:23:39Z</time></trkpt><trkpt lat="44.802059456496714" lon="1.6208876893381783"><ele>189.20000000000002</ele><time>2026-05-02T08:23:40Z</time></trkpt><trkpt lat="44.802004716709284" lon="1.6207567098352471"><ele>193.60000000000002</ele><time>2026-05-02T08:23:41Z</time></trkpt><trkpt lat="44.80194858657486" lon="1.6206265404164328"><ele>198.0</ele><time>2026-05-02T08:23:42Z</time></trkpt><trkpt lat="44.80190677438134" lon="1.620496300035056"><ele>198.0</ele><time>2026-05-02T08:23:43Z</time></trkpt><trkpt lat="44.801851206004514" lon="1.620378328902552"><ele>198.0</ele><time>2026-05-02T08:23:44Z</time></trkpt><trkpt lat="44.80179635786372" lon="1.620269970254893"><ele>198.0</ele><time>2026-05-02T08:23:45Z</time></trkpt><trkpt lat="44.801732879075885" lon="1.620164014108698"><ele>198.0</ele><time>2026-05-02T08:23:46Z</time></trkpt><trkpt lat="44.80167315210408" lon="1.6200773017495644"><ele>198.0</ele><time>2026-05-02T08:23:47Z</time></trkpt><trkpt lat="44.801616903148584" lon="1.6199898458705018"><ele>195.5</ele><time>2026-05-02T08:23:48Z</time></trkpt><trkpt lat="44.801554178944954" lon="1.619921111608151"><ele>193.0</ele><time>2026-05-02T08:23:49Z</time></trkpt><trkpt lat="44.80145646886542" lon="1.6198669617024488"><ele>190.5</ele><time>2026-05-02T08:23:51Z</time></trkpt><trkpt lat="44.8014032884337" lon="1.6198056473995985"><ele>188.0</ele><time>2026-05-02T08:23:52Z</time></trkpt><trkpt lat="44.80135714786694" lon="1.6197384742196588"><ele>185.5</ele><time>2026-05-02T08:23:54Z</time></trkpt><trkpt lat="44.801317118866194" lon="1.6196293819269216"><ele>183.0</ele><time>2026-05-02T08:23:57Z</time></trkpt><trkpt lat="44.801371104158775" lon="1.6195595203773756"><ele>183.0</ele><time>2026-05-02T08:23:59Z</time></trkpt><trkpt lat="44.80141380234737" lon="1.6196426062712241"><ele>183.0</ele><time>2026-05-02T08:24:01Z</time></trkpt><trkpt lat="44.80146423711941" lon="1.619717149416811"><ele>183.0</ele><time>2026-05-02T08:24:05Z</time></trkpt><trkpt lat="44.80150765297725" lon="1.6197857078462183"><ele>183.0</ele><time>2026-05-02T08:24:10Z</time></trkpt><trkpt lat="44.80158648933741" lon="1.6198557057424046"><ele>183.0</ele><time>2026-05-02T08:24:22.999Z</time></trkpt><trkpt lat="44.80163138127632" lon="1.6199220948324318"><ele>183.0</ele><time>2026-05-02T08:24:23.999Z</time></trkpt><trkpt lat="44.80168238841014" lon="1.619992368486654"><ele>183.0</ele><time>2026-05-02T08:24:24.999Z</time></trkpt><trkpt lat="44.80173488468276" lon="1.6200629257711587"><ele>183.0</ele><time>2026-05-02T08:24:25.999Z</time></trkpt><trkpt lat="44.801778131324745" lon="1.6201289179085214"><ele>183.0</ele><time>2026-05-02T08:24:26.999Z</time></trkpt><trkpt lat="44.80183336873982" lon="1.6202094846869481"><ele>183.0</ele><time>2026-05-02T08:24:28.999Z</time></trkpt><trkpt lat="44.80189380228872" lon="1.6202663970461109"><ele>183.0</ele><time>2026-05-02T08:24:41.999Z</time></trkpt><trkpt lat="44.801982966378894" lon="1.6203727580935805"><ele>183.0</ele><time>2026-05-02T08:24:43.999Z</time></trkpt><trkpt lat="44.80206528528552" lon="1.6204746482734123"><ele>183.0</ele><time>2026-05-02T08:24:45.999Z</time></trkpt><trkpt lat="44.80211483856106" lon="1.6205399068139246"><ele>185.5</ele><time>2026-05-02T08:24:46.999Z</time></trkpt><trkpt lat="44.802171415449195" lon="1.6206093503305423"><ele>188.0</ele><time>2026-05-02T08:24:47.999Z</time></trkpt><trkpt lat="44.802221351031896" lon="1.6206699439373498"><ele>190.5</ele><time>2026-05-02T08:24:48.999Z</time></trkpt><trkpt lat="44.80228170733742" lon="1.6207327130527371"><ele>193.0</ele><time>2026-05-02T08:24:49.999Z</time></trkpt><trkpt lat="44.802350152860654" lon="1.620801496772068"><ele>195.5</ele><time>2026-05-02T08:24:50.999Z</time></trkpt><trkpt lat="44.80241840220302" lon="1.6208892279815093"><ele>198.0</ele><time>2026-05-02T08:24:51.999Z</time></trkpt><trkpt lat="44.802486874443666" lon="1.620999624446326"><ele>198.0</ele><time>2026-05-02T08:24:52.999Z</time></trkpt><trkpt lat="44.80256445341519" lon="1.6211259618016538"><ele>198.0</ele><time>2026-05-02T08:24:53.999Z</time></trkpt><trkpt lat="44.80264661471561" lon="1.621277175276731"><ele>198.0</ele><time>2026-05-02T08:24:54.999Z</time></trkpt><trkpt lat="44.80273375762208" lon="1.6214559185939026"><ele>198.0</ele><time>2026-05-02T08:24:55.999Z</time></trkpt><trkpt lat="44.80282178976198" lon="1.6216165267340628"><ele>199.25</ele><time>2026-05-02T08:24:56.999Z</time></trkpt><trkpt lat="44.802905676050216" lon="1.6217690747229256"><ele>200.5</ele><time>2026-05-02T08:24:57.999Z</time></trkpt><trkpt lat="44.80297177389496" lon="1.621913359142854"><ele>201.75</ele><time>2026-05-02T08:24:58.999Z</time></trkpt><trkpt lat="44.803049353606625" lon="1.6220630246320855"><ele>203.0</ele><time>2026-05-02T08:24:59.999Z</time></trkpt><trkpt lat="44.80313957614622" lon="1.6222182725918857"><ele>203.0</ele><time>2026-05-02T08:25:00.999Z</time></trkpt><trkpt lat="44.80322822599792" lon="1.6223886715206022"><ele>203.0</ele><time>2026-05-02T08:25:01.999Z</time></trkpt><trkpt lat="44.80331967248863" lon="1.6225682527880276"><ele>203.0</ele><time>2026-05-02T08:25:02.999Z</time></trkpt><trkpt lat="44.80341343892881" lon="1.6227492378456774"><ele>199.75</ele><time>2026-05-02T08:25:03.999Z</time></trkpt><trkpt lat="44.803484380091476" lon="1.622915436206928"><ele>196.5</ele><time>2026-05-02T08:25:04.999Z</time></trkpt><trkpt lat="44.80354027106947" lon="1.6230917846858728"><ele>193.25</ele><time>2026-05-02T08:25:05.999Z</time></trkpt><trkpt lat="44.80359676689018" lon="1.6232895965650433"><ele>190.0</ele><time>2026-05-02T08:25:06.999Z</time></trkpt><trkpt lat="44.80365148910137" lon="1.6235068211316008"><ele>200.75</ele><time>2026-05-02T08:25:07.999Z</time></trkpt><trkpt lat="44.80370187468252" lon="1.6236958311465368"><ele>211.5</ele><time>2026-05-02T08:25:08.999Z</time></trkpt><trkpt lat="44.80373815637038" lon="1.6238653122099398"><ele>222.25</ele><time>2026-05-02T08:25:09.999Z</time></trkpt><trkpt lat="44.80374734587703" lon="1.6240417480227662"><ele>233.0</ele><time>2026-05-02T08:25:10.999Z</time></trkpt><trkpt lat="44.803744846181345" lon="1.6242430964912997"><ele>233.0</ele><time>2026-05-02T08:25:11.999Z</time></trkpt><trkpt lat="44.803736959760606" lon="1.624449939977117"><ele>233.0</ele><time>2026-05-02T08:25:12.999Z</time></trkpt><trkpt lat="44.80370700472202" lon="1.624670630017743"><ele>233.0</ele><time>2026-05-02T08:25:13.999Z</time></trkpt><trkpt lat="44.803655308190464" lon="1.6248947811500414"><ele>234.66666666666669</ele><time>2026-05-02T08:25:14.999Z</time></trkpt><trkpt lat="44.80359382630594" lon="1.6251322370490853"><ele>236.33333333333331</ele><time>2026-05-02T08:25:15.999Z</time></trkpt><trkpt lat="44.80353992740999" lon="1.6253398875021534"><ele>238.0</ele><time>2026-05-02T08:25:16.999Z</time></trkpt><trkpt lat="44.80347133629904" lon="1.6255291351388204"><ele>232.0</ele><time>2026-05-02T08:25:17.999Z</time></trkpt><trkpt lat="44.8033946863559" lon="1.6257280210153708"><ele>226.0</ele><time>2026-05-02T08:25:18.999Z</time></trkpt><trkpt lat="44.80332634735882" lon="1.625920911262239"><ele>220.0</ele><time>2026-05-02T08:25:19.999Z</time></trkpt><trkpt lat="44.80324606932055" lon="1.6260883763563387"><ele>225.25</ele><time>2026-05-02T08:25:21Z</time></trkpt><trkpt lat="44.803159321945785" lon="1.6262322900482058"><ele>230.5</ele><time>2026-05-02T08:25:22Z</time></trkpt><trkpt lat="44.803077652655084" lon="1.6263523482931652"><ele>235.75</ele><time>2026-05-02T08:25:23Z</time></trkpt><trkpt lat="44.80299805061848" lon="1.626449365992861"><ele>241.0</ele><time>2026-05-02T08:25:24Z</time></trkpt><trkpt lat="44.80290253287717" lon="1.6265501001124265"><ele>241.0</ele><time>2026-05-02T08:25:25Z</time></trkpt><trkpt lat="44.80279026549556" lon="1.626647126187579"><ele>241.0</ele><time>2026-05-02T08:25:26Z</time></trkpt><trkpt lat="44.80266670531737" lon="1.6267395653089953"><ele>241.0</ele><time>2026-05-02T08:25:27Z</time></trkpt><trkpt lat="44.80255024477412" lon="1.6268393008412365"><ele>241.0</ele><time>2026-05-02T08:25:28Z</time></trkpt><trkpt lat="44.80244934359966" lon="1.6269545442474644"><ele>241.60000000000002</ele><time>2026-05-02T08:25:29Z</time></trkpt><trkpt lat="44.80235765525418" lon="1.6270805314238057"><ele>242.20000000000002</ele><time>2026-05-02T08:25:30Z</time></trkpt><trkpt lat="44.802266232724755" lon="1.6271885832027535"><ele>242.79999999999998</ele><time>2026-05-02T08:25:31Z</time></trkpt><trkpt lat="44.80218785086743" lon="1.6272968016923268"><ele>243.39999999999998</ele><time>2026-05-02T08:25:32Z</time></trkpt><trkpt lat="44.802131718767775" lon="1.6273930809359374"><ele>244.0</ele><time>2026-05-02T08:25:33Z</time></trkpt><trkpt lat="44.802081293694215" lon="1.6275058762668173"><ele>244.0</ele><time>2026-05-02T08:25:34Z</time></trkpt><trkpt lat="44.80204954758303" lon="1.6276405697865524"><ele>243.99999999999997</ele><time>2026-05-02T08:25:35Z</time></trkpt><trkpt lat="44.80203539683315" lon="1.6277911314363394"><ele>243.99999999999997</ele><time>2026-05-02T08:25:36Z</time></trkpt><trkpt lat="44.802028124326014" lon="1.6279559122252745"><ele>244.0</ele><time>2026-05-02T08:25:37Z</time></trkpt><trkpt lat="44.802007683543366" lon="1.6281002562161113"><ele>244.0</ele><time>2026-05-02T08:25:38Z</time></trkpt><trkpt lat="44.80200062116502" lon="1.6282394437832564"><ele>245.83333333333331</ele><time>2026-05-02T08:25:39Z</time></trkpt><trkpt lat="44.80199845261565" lon="1.6283659332858769"><ele>247.66666666666666</ele><time>2026-05-02T08:25:40Z</time></trkpt><trkpt lat="44.80200321772576" lon="1.6284679384142637"><ele>249.5</ele><time>2026-05-02T08:25:41Z</time></trkpt><trkpt lat="44.80205465879314" lon="1.6286180207672833"><ele>251.33333333333331</ele><time>2026-05-02T08:25:43Z</time></trkpt><trkpt lat="44.802110657846825" lon="1.6286770485189506"><ele>253.16666666666666</ele><time>2026-05-02T08:25:44Z</time></trkpt><trkpt lat="44.80217402192626" lon="1.6286784233302833"><ele>255.0</ele><time>2026-05-02T08:25:45Z</time></trkpt><trkpt lat="44.802244331529856" lon="1.628666468251616"><ele>255.0</ele><time>2026-05-02T08:25:46Z</time></trkpt><trkpt lat="44.80230095947689" lon="1.6286147290850284"><ele>255.0</ele><time>2026-05-02T08:25:47Z</time></trkpt><trkpt lat="44.802330685585154" lon="1.6285362160641776"><ele>255.0</ele><time>2026-05-02T08:25:48Z</time></trkpt><trkpt lat="44.80234678707364" lon="1.6284331969712347"><ele>255.0</ele><time>2026-05-02T08:25:49.02Z</time></trkpt><trkpt lat="44.802358583469115" lon="1.6283049682145734"><ele>255.0</ele><time>2026-05-02T08:25:50.02Z</time></trkpt><trkpt lat="44.80235704684005" lon="1.628165437704305"><ele>255.0</ele><time>2026-05-02T08:25:51Z</time></trkpt><trkpt lat="44.80235704683772" lon="1.6280420027356641"><ele>255.0</ele><time>2026-05-02T08:25:52Z</time></trkpt><trkpt lat="44.80234567275896" lon="1.6278851295297219"><ele>255.0</ele><time>2026-05-02T08:25:53Z</time></trkpt><trkpt lat="44.8023746864178" lon="1.6277567380635507"><ele>255.0</ele><time>2026-05-02T08:25:54Z</time></trkpt><trkpt lat="44.802417162831134" lon="1.6276478917068447"><ele>255.0</ele><time>2026-05-02T08:25:55Z</time></trkpt><trkpt lat="44.80247608516992" lon="1.6275453033780063"><ele>255.0</ele><time>2026-05-02T08:25:56Z</time></trkpt><trkpt lat="44.80256008606047" lon="1.6274762953830568"><ele>255.5</ele><time>2026-05-02T08:25:57Z</time></trkpt><trkpt lat="44.80265517454139" lon="1.6274363275468793"><ele>256.0</ele><time>2026-05-02T08:25:58Z</time></trkpt><trkpt lat="44.802761745318044" lon="1.6274069693711402"><ele>256.5</ele><time>2026-05-02T08:25:59Z</time></trkpt><trkpt lat="44.802887344455456" lon="1.627389251434769"><ele>257.0</ele><time>2026-05-02T08:26:00Z</time></trkpt><trkpt lat="44.80302431127532" lon="1.6273700266141078"><ele>257.0</ele><time>2026-05-02T08:26:01Z</time></trkpt><trkpt lat="44.803135700911156" lon="1.627344129865074"><ele>257.0</ele><time>2026-05-02T08:26:02Z</time></trkpt><trkpt lat="44.80324966884373" lon="1.627318468017807"><ele>257.0</ele><time>2026-05-02T08:26:03Z</time></trkpt><trkpt lat="44.80334786401404" lon="1.6273002442615783"><ele>257.0</ele><time>2026-05-02T08:26:04Z</time></trkpt><trkpt lat="44.80343052215803" lon="1.6272891158991176"><ele>257.0</ele><time>2026-05-02T08:26:05Z</time></trkpt><trkpt lat="44.80350451842668" lon="1.6272721482533397"><ele>257.1666666666667</ele><time>2026-05-02T08:26:06Z</time></trkpt><trkpt lat="44.803566262611135" lon="1.627253068283111"><ele>257.33333333333337</ele><time>2026-05-02T08:26:07Z</time></trkpt><trkpt lat="44.803670335736314" lon="1.6272060568027544"><ele>257.5</ele><time>2026-05-02T08:26:09Z</time></trkpt><trkpt lat="44.803771625094285" lon="1.627151647830199"><ele>257.6666666666667</ele><time>2026-05-02T08:26:11Z</time></trkpt><trkpt lat="44.80384208050127" lon="1.6271306638074863"><ele>257.8333333333333</ele><time>2026-05-02T08:26:12Z</time></trkpt><trkpt lat="44.80391428186259" lon="1.6271367441473565"><ele>258.0</ele><time>2026-05-02T08:26:13Z</time></trkpt><trkpt lat="44.80401414499119" lon="1.6271468012061623"><ele>258.0</ele><time>2026-05-02T08:26:15Z</time></trkpt><trkpt lat="44.80410847916646" lon="1.627147530080496"><ele>258.0</ele><time>2026-05-02T08:26:17Z</time></trkpt><trkpt lat="44.80419041907305" lon="1.6271495495634631"><ele>258.0</ele><time>2026-05-02T08:26:19Z</time></trkpt><trkpt lat="44.80425706219064" lon="1.627150500694157"><ele>258.0</ele><time>2026-05-02T08:26:20.999Z</time></trkpt><trkpt lat="44.804345251959525" lon="1.6271275828246294"><ele>258.0</ele><time>2026-05-02T08:26:22.999Z</time></trkpt><trkpt lat="44.80440956248332" lon="1.6271023420060786"><ele>258.0</ele><time>2026-05-02T08:26:23.999Z</time></trkpt><trkpt lat="44.80448456715053" lon="1.6270763250585507"><ele>257.8333333333333</ele><time>2026-05-02T08:26:24.999Z</time></trkpt><trkpt lat="44.804566480902" lon="1.627034936276084"><ele>257.6666666666667</ele><time>2026-05-02T08:26:25.999Z</time></trkpt><trkpt lat="44.8046374971425" lon="1.6269923247344336"><ele>257.5</ele><time>2026-05-02T08:26:26.999Z</time></trkpt><trkpt lat="44.80471033388933" lon="1.6269373102593714"><ele>257.33333333333337</ele><time>2026-05-02T08:26:27.999Z</time></trkpt><trkpt lat="44.804771401579885" lon="1.6268526198657745"><ele>257.1666666666667</ele><time>2026-05-02T08:26:28.999Z</time></trkpt><trkpt lat="44.8048091388579" lon="1.626736634796766"><ele>257.0</ele><time>2026-05-02T08:26:29.999Z</time></trkpt><trkpt lat="44.8048242218662" lon="1.626642161349515"><ele>257.2</ele><time>2026-05-02T08:26:30.999Z</time></trkpt><trkpt lat="44.80484256968665" lon="1.6265131704111218"><ele>257.4</ele><time>2026-05-02T08:26:32.999Z</time></trkpt><trkpt lat="44.80487233443064" lon="1.62637350842615"><ele>257.6</ele><time>2026-05-02T08:26:34.999Z</time></trkpt><trkpt lat="44.804888388016856" lon="1.6262751184200566"><ele>257.8</ele><time>2026-05-02T08:26:35.999Z</time></trkpt><trkpt lat="44.80489268589003" lon="1.6261657049925893"><ele>258.0</ele><time>2026-05-02T08:26:36.999Z</time></trkpt><trkpt lat="44.80491437010063" lon="1.6259909368674383"><ele>258.0</ele><time>2026-05-02T08:26:38.999Z</time></trkpt><trkpt lat="44.8049351537381" lon="1.6258904881218494"><ele>258.0</ele><time>2026-05-02T08:26:39.999Z</time></trkpt><trkpt lat="44.804947553229916" lon="1.6257773848641286"><ele>258.0</ele><time>2026-05-02T08:26:40.999Z</time></trkpt><trkpt lat="44.804958808138004" lon="1.6256819826931264"><ele>258.0</ele><time>2026-05-02T08:26:41.999Z</time></trkpt><trkpt lat="44.80496973338843" lon="1.6255737316007657"><ele>258.0</ele><time>2026-05-02T08:26:42.999Z</time></trkpt><trkpt lat="44.804972452904906" lon="1.6254478995018662"><ele>258.0</ele><time>2026-05-02T08:26:43.999Z</time></trkpt><trkpt lat="44.8049931468024" lon="1.6253171577076666"><ele>258.4</ele><time>2026-05-02T08:26:44.999Z</time></trkpt><trkpt lat="44.8049770899755" lon="1.6251716397502807"><ele>258.8</ele><time>2026-05-02T08:26:45.999Z</time></trkpt><trkpt lat="44.804974566166074" lon="1.625024254544885"><ele>259.2</ele><time>2026-05-02T08:26:46.999Z</time></trkpt><trkpt lat="44.8049672399563" lon="1.6248987231226883"><ele>259.6</ele><time>2026-05-02T08:26:47.999Z</time></trkpt><trkpt lat="44.80495598735278" lon="1.6247904194048073"><ele>260.0</ele><time>2026-05-02T08:26:48.999Z</time></trkpt><trkpt lat="44.80494222105692" lon="1.624679503722122"><ele>260.0</ele><time>2026-05-02T08:26:49.999Z</time></trkpt><trkpt lat="44.804924771274756" lon="1.6245591683778136"><ele>260.0</ele><time>2026-05-02T08:26:50.999Z</time></trkpt><trkpt lat="44.80490550881864" lon="1.6244291840335503"><ele>260.0</ele><time>2026-05-02T08:26:51.999Z</time></trkpt><trkpt lat="44.804889559063255" lon="1.6242992734131645"><ele>260.0</ele><time>2026-05-02T08:26:52.999Z</time></trkpt><trkpt lat="44.80487777483351" lon="1.6241810215383206"><ele>260.0</ele><time>2026-05-02T08:26:53.999Z</time></trkpt><trkpt lat="44.80486112522958" lon="1.624061082268313"><ele>260.0</ele><time>2026-05-02T08:26:54.999Z</time></trkpt><trkpt lat="44.80483715633635" lon="1.623925317491147"><ele>260.0</ele><time>2026-05-02T08:26:55.999Z</time></trkpt><trkpt lat="44.80481639243459" lon="1.6237690434537926"><ele>260.0</ele><time>2026-05-02T08:26:56.999Z</time></trkpt><trkpt lat="44.8047996885533" lon="1.6236279463493721"><ele>260.0</ele><time>2026-05-02T08:26:57.999Z</time></trkpt><trkpt lat="44.80478151632113" lon="1.6235020448136952"><ele>260.0</ele><time>2026-05-02T08:26:58.999Z</time></trkpt><trkpt lat="44.80476543258869" lon="1.6233954671882684"><ele>260.0</ele><time>2026-05-02T08:26:59.999Z</time></trkpt><trkpt lat="44.80475483406265" lon="1.623303639859015"><ele>260.0</ele><time>2026-05-02T08:27:00.999Z</time></trkpt><trkpt lat="44.80473699007464" lon="1.623198610480846"><ele>260.0</ele><time>2026-05-02T08:27:02.999Z</time></trkpt><trkpt lat="44.80472697900127" lon="1.6231055259770442"><ele>260.0</ele><time>2026-05-02T08:27:05.999Z</time></trkpt><trkpt lat="44.80471547435915" lon="1.6230138673719194"><ele>260.0</ele><time>2026-05-02T08:27:09.999Z</time></trkpt><trkpt lat="44.80469395374588" lon="1.6228996334410177"><ele>260.0</ele><time>2026-05-02T08:27:39Z</time></trkpt><trkpt lat="44.8046713507763" lon="1.6227766248175926"><ele>260.0</ele><time>2026-05-02T08:27:40Z</time></trkpt><trkpt lat="44.80464345212368" lon="1.622630905486815"><ele>260.0</ele><time>2026-05-02T08:27:41Z</time></trkpt><trkpt lat="44.80460973335996" lon="1.6224569952267915"><ele>260.0</ele><time>2026-05-02T08:27:42Z</time></trkpt><trkpt lat="44.80458209643609" lon="1.6223110997737487"><ele>260.0</ele><time>2026-05-02T08:27:43Z</time></trkpt><trkpt lat="44.804555539885385" lon="1.6221719719479657"><ele>260.0</ele><time>2026-05-02T08:27:44Z</time></trkpt><trkpt lat="44.804527833104466" lon="1.6220375264720288"><ele>260.0</ele><time>2026-05-02T08:27:45Z</time></trkpt><trkpt lat="44.804511895744255" lon="1.6219177283036474"><ele>260.0</ele><time>2026-05-02T08:27:46Z</time></trkpt><trkpt lat="44.80450889723187" lon="1.6217929694284856"><ele>259.6</ele><time>2026-05-02T08:27:47Z</time></trkpt><trkpt lat="44.80450754124921" lon="1.6216415082581812"><ele>259.2</ele><time>2026-05-02T08:27:49Z</time></trkpt><trkpt lat="44.8044671536677" lon="1.6215660129873213"><ele>258.8</ele><time>2026-05-02T08:27:51Z</time></trkpt><trkpt lat="44.80437350139549" lon="1.6216120145662554"><ele>258.4</ele><time>2026-05-02T08:27:53Z</time></trkpt><trkpt lat="44.80439441360891" lon="1.6217666058704927"><ele>258.0</ele><time>2026-05-02T08:27:55Z</time></trkpt><trkpt lat="44.804471867842366" lon="1.6219223671919898"><ele>258.4</ele><time>2026-05-02T08:27:57Z</time></trkpt><trkpt lat="44.804503258739864" lon="1.622046123077633"><ele>258.8</ele><time>2026-05-02T08:27:58Z</time></trkpt><trkpt lat="44.8045319463325" lon="1.622174613967646"><ele>259.2</ele><time>2026-05-02T08:27:59Z</time></trkpt><trkpt lat="44.80456451303786" lon="1.622291395674035"><ele>259.6</ele><time>2026-05-02T08:28:00Z</time></trkpt><trkpt lat="44.80459154788271" lon="1.6224296465795036"><ele>260.0</ele><time>2026-05-02T08:28:01Z</time></trkpt><trkpt lat="44.80461346184829" lon="1.622580580967532"><ele>260.0</ele><time>2026-05-02T08:28:02Z</time></trkpt><trkpt lat="44.80463683535079" lon="1.6227119248448199"><ele>260.0</ele><time>2026-05-02T08:28:03Z</time></trkpt><trkpt lat="44.80465409729449" lon="1.6228334508543367"><ele>260.0</ele><time>2026-05-02T08:28:04Z</time></trkpt><trkpt lat="44.80467148245815" lon="1.622942531180848"><ele>260.0</ele><time>2026-05-02T08:28:05Z</time></trkpt><trkpt lat="44.80468646152295" lon="1.6230433147560044"><ele>260.0</ele><time>2026-05-02T08:28:06Z</time></trkpt><trkpt lat="44.804701800564395" lon="1.6231342008245597"><ele>260.0</ele><time>2026-05-02T08:28:07Z</time></trkpt><trkpt lat="44.80472613108809" lon="1.623301464344046"><ele>260.0</ele><time>2026-05-02T08:28:09Z</time></trkpt><trkpt lat="44.804741850803346" lon="1.62339001384852"><ele>260.0</ele><time>2026-05-02T08:28:10Z</time></trkpt><trkpt lat="44.80476855381644" lon="1.6235474604348974"><ele>260.0</ele><time>2026-05-02T08:28:12Z</time></trkpt><trkpt lat="44.80479258341634" lon="1.6237138473832182"><ele>260.0</ele><time>2026-05-02T08:28:14Z</time></trkpt><trkpt lat="44.804809879553076" lon="1.6238709862027125"><ele>260.0</ele><time>2026-05-02T08:28:16Z</time></trkpt><trkpt lat="44.80483622543422" lon="1.6240260265405007"><ele>260.0</ele><time>2026-05-02T08:28:18Z</time></trkpt><trkpt lat="44.80485124251471" lon="1.6241145653602125"><ele>260.0</ele><time>2026-05-02T08:28:19Z</time></trkpt><trkpt lat="44.80485926302517" lon="1.6242166992086167"><ele>260.0</ele><time>2026-05-02T08:28:20Z</time></trkpt><trkpt lat="44.80487681420471" lon="1.624332142914994"><ele>260.0</ele><time>2026-05-02T08:28:21Z</time></trkpt><trkpt lat="44.80489564289566" lon="1.6244585768305615"><ele>260.0</ele><time>2026-05-02T08:28:22Z</time></trkpt><trkpt lat="44.80491286148954" lon="1.6245799104190222"><ele>260.0</ele><time>2026-05-02T08:28:23Z</time></trkpt><trkpt lat="44.804928943521226" lon="1.624691203138695"><ele>260.00000000000006</ele><time>2026-05-02T08:28:24Z</time></trkpt><trkpt lat="44.804945731869125" lon="1.6248044187768356"><ele>260.0</ele><time>2026-05-02T08:28:24.999Z</time></trkpt><trkpt lat="44.80496049053128" lon="1.6249140395782977"><ele>260.0</ele><time>2026-05-02T08:28:25.999Z</time></trkpt><trkpt lat="44.80496515880726" lon="1.6250146422175573"><ele>260.0</ele><time>2026-05-02T08:28:26.999Z</time></trkpt><trkpt lat="44.804970506715435" lon="1.625111783083653"><ele>260.0</ele><time>2026-05-02T08:28:27.999Z</time></trkpt><trkpt lat="44.8049727137025" lon="1.6252091073061423"><ele>260.00000000000006</ele><time>2026-05-02T08:28:28.999Z</time></trkpt><trkpt lat="44.804973567034764" lon="1.6253083510823585"><ele>260.0</ele><time>2026-05-02T08:28:29.999Z</time></trkpt><trkpt lat="44.804954656523556" lon="1.625414405499123"><ele>259.6666666666667</ele><time>2026-05-02T08:28:30.999Z</time></trkpt><trkpt lat="44.804958182749495" lon="1.6255223830765024"><ele>259.33333333333337</ele><time>2026-05-02T08:28:31.999Z</time></trkpt><trkpt lat="44.80495035640065" lon="1.6256160147550647"><ele>259.0</ele><time>2026-05-02T08:28:32.999Z</time></trkpt><trkpt lat="44.80493147886657" lon="1.6257719764086074"><ele>258.6666666666667</ele><time>2026-05-02T08:28:34.999Z</time></trkpt><trkpt lat="44.80491785734395" lon="1.6258952973858074"><ele>258.3333333333333</ele><time>2026-05-02T08:28:36.999Z</time></trkpt><trkpt lat="44.80490172183215" lon="1.6259967309001186"><ele>258.0</ele><time>2026-05-02T08:28:38.999Z</time></trkpt><trkpt lat="44.80488039535282" lon="1.6260928599005142"><ele>258.2</ele><time>2026-05-02T08:28:40.999Z</time></trkpt><trkpt lat="44.80486196592403" lon="1.626217182631734"><ele>258.4</ele><time>2026-05-02T08:28:42.999Z</time></trkpt><trkpt lat="44.804833565690686" lon="1.6263753326342172"><ele>258.59999999999997</ele><time>2026-05-02T08:28:44.999Z</time></trkpt><trkpt lat="44.8048305074134" lon="1.6264801810239042"><ele>258.8</ele><time>2026-05-02T08:28:45.999Z</time></trkpt><trkpt lat="44.80481097617673" lon="1.626660908807756"><ele>259.0</ele><time>2026-05-02T08:28:47.999Z</time></trkpt><trkpt lat="44.80477960702151" lon="1.626766774448894"><ele>259.0</ele><time>2026-05-02T08:28:48.999Z</time></trkpt><trkpt lat="44.80473661765438" lon="1.626850791984408"><ele>259.0</ele><time>2026-05-02T08:28:49.999Z</time></trkpt><trkpt lat="44.80468552585442" lon="1.6269245753184691"><ele>259.0</ele><time>2026-05-02T08:28:50.999Z</time></trkpt><trkpt lat="44.80461548199813" lon="1.6269740880876227"><ele>259.0</ele><time>2026-05-02T08:28:51.999Z</time></trkpt><trkpt lat="44.80452854014917" lon="1.62700365938657"><ele>259.0</ele><time>2026-05-02T08:28:52.999Z</time></trkpt><trkpt lat="44.80446446335858" lon="1.6270219158495454"><ele>259.0</ele><time>2026-05-02T08:28:53.999Z</time></trkpt><trkpt lat="44.80435694972531" lon="1.627055091747656"><ele>258.8</ele><time>2026-05-02T08:28:55.999Z</time></trkpt><trkpt lat="44.80434320245777" lon="1.6272406444862697"><ele>258.59999999999997</ele><time>2026-05-02T08:28:57.999Z</time></trkpt><trkpt lat="44.80432411801266" lon="1.6274137652102665"><ele>258.4</ele><time>2026-05-02T08:28:59.999Z</time></trkpt><trkpt lat="44.80433160801284" lon="1.6275103732650567"><ele>258.2</ele><time>2026-05-02T08:29:01.999Z</time></trkpt><trkpt lat="44.804270219226886" lon="1.6275671671753151"><ele>258.0</ele><time>2026-05-02T08:29:07.999Z</time></trkpt><trkpt lat="44.80426177469712" lon="1.627659023162244"><ele>258.0</ele><time>2026-05-02T08:29:11.999Z</time></trkpt><trkpt lat="44.8041351355326" lon="1.6276927467234705"><ele>258.0</ele><time>2026-05-02T08:30:21.999Z</time></trkpt><trkpt lat="44.804160314024585" lon="1.6276092283602634"><ele>258.0</ele><time>2026-05-02T08:31:51Z</time></trkpt><trkpt lat="44.804210180180974" lon="1.627546682487523"><ele>258.0</ele><time>2026-05-02T08:32:03Z</time></trkpt><trkpt lat="44.804282480035425" lon="1.6275352363323639"><ele>258.0</ele><time>2026-05-02T08:32:11Z</time></trkpt><trkpt lat="44.804312477570306" lon="1.6274555270691486"><ele>258.0</ele><time>2026-05-02T08:32:24Z</time></trkpt><trkpt lat="44.804320626807176" lon="1.6273638813437552"><ele>257.99999999999994</ele><time>2026-05-02T08:32:31.999Z</time></trkpt><trkpt lat="44.8043086131006" lon="1.6272729727829587"><ele>258.0</ele><time>2026-05-02T08:32:40.999Z</time></trkpt><trkpt lat="44.80429823109702" lon="1.6271811623803976"><ele>258.0</ele><time>2026-05-02T08:32:46.999Z</time></trkpt><trkpt lat="44.80425090217024" lon="1.627116359639597"><ele>258.0</ele><time>2026-05-02T08:32:50.999Z</time></trkpt><trkpt lat="44.8042069536043" lon="1.6270248819379958"><ele>258.0</ele><time>2026-05-02T08:33:10.999Z</time></trkpt><trkpt lat="44.80414454330419" lon="1.6269796053116878"><ele>257.99999999999994</ele><time>2026-05-02T08:33:23.999Z</time></trkpt><trkpt lat="44.80406707498514" lon="1.627001960375046"><ele>258.0</ele><time>2026-05-02T08:33:34.999Z</time></trkpt><trkpt lat="44.804000339868885" lon="1.6269954465132728"><ele>257.6666666666667</ele><time>2026-05-02T08:33:46Z</time></trkpt><trkpt lat="44.80393379257" lon="1.6269658441838342"><ele>257.3333333333333</ele><time>2026-05-02T08:33:52Z</time></trkpt><trkpt lat="44.80388019745499" lon="1.6269096288408875"><ele>257.0</ele><time>2026-05-02T08:34:00Z</time></trkpt><trkpt lat="44.803866300449826" lon="1.626740075285612"><ele>256.66666666666663</ele><time>2026-05-02T08:37:25.997Z</time></trkpt><trkpt lat="44.80379812073354" lon="1.6266985975988881"><ele>256.3333333333333</ele><time>2026-05-02T08:37:30Z</time></trkpt><trkpt lat="44.803714341602564" lon="1.6267129469398633"><ele>256.0</ele><time>2026-05-02T08:38:15Z</time></trkpt><trkpt lat="44.80377505648586" lon="1.6267668344109172"><ele>256.0</ele><time>2026-05-02T08:49:10.999Z</time></trkpt><trkpt lat="44.803834397023856" lon="1.6268115702182058"><ele>256.0</ele><time>2026-05-02T08:49:28.999Z</time></trkpt><trkpt lat="44.80386930533664" lon="1.6268977055485845"><ele>256.0</ele><time>2026-05-02T08:49:34.999Z</time></trkpt><trkpt lat="44.803651427135954" lon="1.6267673913153018"><ele>256.0</ele><time>2026-05-02T08:50:01.019Z</time></trkpt><trkpt lat="44.80384924780871" lon="1.6268152593099179"><ele>256.0</ele><time>2026-05-02T08:50:58.574Z</time></trkpt><trkpt lat="44.803866579319795" lon="1.6269253129058394"><ele>255.99999999999997</ele><time>2026-05-02T08:51:09Z</time></trkpt><trkpt lat="44.80393799796203" lon="1.6269521504530722"><ele>256.0</ele><time>2026-05-02T08:51:17Z</time></trkpt><trkpt lat="44.8039689249812" lon="1.6270592108820254"><ele>256.0</ele><time>2026-05-02T08:51:25Z</time></trkpt><trkpt lat="44.804035521226346" lon="1.6270602812251225"><ele>255.99999999999997</ele><time>2026-05-02T08:51:30Z</time></trkpt><trkpt lat="44.804100042060895" lon="1.6271190757293903"><ele>256.0</ele><time>2026-05-02T08:51:37Z</time></trkpt><trkpt lat="44.80416562457579" lon="1.6271420604346947"><ele>256.0</ele><time>2026-05-02T08:51:45Z</time></trkpt><trkpt lat="44.80423033907862" lon="1.627152138541029"><ele>256.2857142857143</ele><time>2026-05-02T08:51:51Z</time></trkpt><trkpt lat="44.8042946357532" lon="1.6272000899492607"><ele>256.57142857142856</ele><time>2026-05-02T08:51:57Z</time></trkpt><trkpt lat="44.80431350875899" lon="1.6273044102956893"><ele>256.85714285714283</ele><time>2026-05-02T08:52:05Z</time></trkpt><trkpt lat="44.804307022538666" lon="1.6273943380871412"><ele>257.1428571428571</ele><time>2026-05-02T08:52:18Z</time></trkpt><trkpt lat="44.804300508034146" lon="1.6274834826393982"><ele>257.42857142857144</ele><time>2026-05-02T08:52:24Z</time></trkpt><trkpt lat="44.80425118272718" lon="1.6275432594824941"><ele>257.71428571428567</ele><time>2026-05-02T08:52:30Z</time></trkpt><trkpt lat="44.80418196381156" lon="1.6275865784236798"><ele>258.0</ele><time>2026-05-02T08:52:37Z</time></trkpt><trkpt lat="44.80413992745885" lon="1.62766569506946"><ele>258.0</ele><time>2026-05-02T08:52:43Z</time></trkpt><trkpt lat="44.80421011469137" lon="1.6275829114854776"><ele>258.0</ele><time>2026-05-02T08:56:44Z</time></trkpt><trkpt lat="44.80427403506631" lon="1.6275442563994127"><ele>258.0</ele><time>2026-05-02T08:56:47Z</time></trkpt><trkpt lat="44.804361864761646" lon="1.6274659869465782"><ele>258.0</ele><time>2026-05-02T08:57:05Z</time></trkpt><trkpt lat="44.80436217735383" lon="1.627327463391616"><ele>258.0</ele><time>2026-05-02T08:57:07Z</time></trkpt><trkpt lat="44.80435896238822" lon="1.6272265391323182"><ele>258.0</ele><time>2026-05-02T08:57:09Z</time></trkpt><trkpt lat="44.80439124961604" lon="1.6271097892112418"><ele>257.8333333333333</ele><time>2026-05-02T08:57:11Z</time></trkpt><trkpt lat="44.804451398831915" lon="1.6270631668798115"><ele>257.6666666666667</ele><time>2026-05-02T08:57:12Z</time></trkpt><trkpt lat="44.804523898270624" lon="1.627028340196366"><ele>257.5</ele><time>2026-05-02T08:57:13Z</time></trkpt><trkpt lat="44.80460644075942" lon="1.6270086971240685"><ele>257.33333333333337</ele><time>2026-05-02T08:57:14Z</time></trkpt><trkpt lat="44.804682077140406" lon="1.626988348622334"><ele>257.1666666666667</ele><time>2026-05-02T08:57:15Z</time></trkpt><trkpt lat="44.804769051477926" lon="1.6268944101344431"><ele>257.0</ele><time>2026-05-02T08:57:17Z</time></trkpt><trkpt lat="44.8048086839957" lon="1.6267805932960449"><ele>257.4</ele><time>2026-05-02T08:57:19Z</time></trkpt><trkpt lat="44.80484068949101" lon="1.6266182275054748"><ele>257.79999999999995</ele><time>2026-05-02T08:57:21Z</time></trkpt><trkpt lat="44.804855221650705" lon="1.6265178035935455"><ele>258.2</ele><time>2026-05-02T08:57:22Z</time></trkpt><trkpt lat="44.80487763391511" lon="1.6264175528514753"><ele>258.59999999999997</ele><time>2026-05-02T08:57:23Z</time></trkpt><trkpt lat="44.804913773598024" lon="1.626253112912613"><ele>259.0</ele><time>2026-05-02T08:57:25Z</time></trkpt><trkpt lat="44.804918426684466" lon="1.626150299031859"><ele>258.8333333333333</ele><time>2026-05-02T08:57:26Z</time></trkpt><trkpt lat="44.80492224047939" lon="1.6260452933007026"><ele>258.66666666666663</ele><time>2026-05-02T08:57:27Z</time></trkpt><trkpt lat="44.80493651258463" lon="1.625939072125688"><ele>258.5</ele><time>2026-05-02T08:57:28Z</time></trkpt><trkpt lat="44.804951760544135" lon="1.625829457479379"><ele>258.3333333333333</ele><time>2026-05-02T08:57:29Z</time></trkpt><trkpt lat="44.80496215465516" lon="1.6257147407842343"><ele>258.1666666666667</ele><time>2026-05-02T08:57:30Z</time></trkpt><trkpt lat="44.80497545246674" lon="1.6255937887943201"><ele>258.0</ele><time>2026-05-02T08:57:31Z</time></trkpt><trkpt lat="44.80499176049517" lon="1.6254693456503735"><ele>258.0</ele><time>2026-05-02T08:57:32Z</time></trkpt><trkpt lat="44.80499981084848" lon="1.6253387883082344"><ele>258.0</ele><time>2026-05-02T08:57:33Z</time></trkpt><trkpt lat="44.804996853952794" lon="1.6251992773286454"><ele>258.0</ele><time>2026-05-02T08:57:34Z</time></trkpt><trkpt lat="44.8049859647567" lon="1.6250629163789811"><ele>258.0</ele><time>2026-05-02T08:57:35Z</time></trkpt><trkpt lat="44.80497568801871" lon="1.6249561672236992"><ele>258.0</ele><time>2026-05-02T08:57:36Z</time></trkpt><trkpt lat="44.80496628266566" lon="1.624834603334277"><ele>258.4</ele><time>2026-05-02T08:57:37Z</time></trkpt><trkpt lat="44.80495263706802" lon="1.6246984310828345"><ele>258.8</ele><time>2026-05-02T08:57:38Z</time></trkpt><trkpt lat="44.8049330128004" lon="1.6245654240333203"><ele>259.2</ele><time>2026-05-02T08:57:39Z</time></trkpt><trkpt lat="44.80492155369988" lon="1.6244615749538331"><ele>259.6</ele><time>2026-05-02T08:57:40Z</time></trkpt><trkpt lat="44.80494539256827" lon="1.6243093006063887"><ele>260.0</ele><time>2026-05-02T08:57:42Z</time></trkpt><trkpt lat="44.8050341328061" lon="1.6241878291350391"><ele>260.0</ele><time>2026-05-02T08:57:44Z</time></trkpt><trkpt lat="44.805097914196175" lon="1.6241340646592652"><ele>260.0</ele><time>2026-05-02T08:57:45Z</time></trkpt><trkpt lat="44.80518427658732" lon="1.624070502204068"><ele>260.0</ele><time>2026-05-02T08:57:46Z</time></trkpt><trkpt lat="44.80528732011726" lon="1.6240032093997887"><ele>260.0</ele><time>2026-05-02T08:57:47Z</time></trkpt><trkpt lat="44.805379279185146" lon="1.623975883452313"><ele>260.0</ele><time>2026-05-02T08:57:48Z</time></trkpt><trkpt lat="44.80546796565868" lon="1.6239716974060783"><ele>261.5</ele><time>2026-05-02T08:57:49Z</time></trkpt><trkpt lat="44.805577537397326" lon="1.623987071935169"><ele>263.0</ele><time>2026-05-02T08:57:50Z</time></trkpt><trkpt lat="44.80571002168973" lon="1.6240060630646647"><ele>264.5</ele><time>2026-05-02T08:57:51Z</time></trkpt><trkpt lat="44.80582567824501" lon="1.6240235001569427"><ele>266.0</ele><time>2026-05-02T08:57:52Z</time></trkpt><trkpt lat="44.80591885770105" lon="1.6240114129899395"><ele>266.2</ele><time>2026-05-02T08:57:53Z</time></trkpt><trkpt lat="44.80600246756945" lon="1.6239822919588638"><ele>266.40000000000003</ele><time>2026-05-02T08:57:54Z</time></trkpt><trkpt lat="44.806082542799885" lon="1.6239054108658473"><ele>266.6</ele><time>2026-05-02T08:57:55Z</time></trkpt><trkpt lat="44.80615486971049" lon="1.6237808677375436"><ele>266.8</ele><time>2026-05-02T08:57:56Z</time></trkpt><trkpt lat="44.80621095584962" lon="1.6236054156197453"><ele>267.0</ele><time>2026-05-02T08:57:57Z</time></trkpt><trkpt lat="44.80625659539953" lon="1.6234291057997636"><ele>266.5</ele><time>2026-05-02T08:57:58Z</time></trkpt><trkpt lat="44.80630914640163" lon="1.6232452540626963"><ele>266.0</ele><time>2026-05-02T08:57:59Z</time></trkpt><trkpt lat="44.8063697847985" lon="1.6230847707293912"><ele>265.5</ele><time>2026-05-02T08:58:00Z</time></trkpt><trkpt lat="44.80644945928469" lon="1.6229168526680997"><ele>265.0</ele><time>2026-05-02T08:58:01Z</time></trkpt><trkpt lat="44.80654125850516" lon="1.622774463558374"><ele>264.25</ele><time>2026-05-02T08:58:02Z</time></trkpt><trkpt lat="44.80664047835819" lon="1.6226443801540111"><ele>263.5</ele><time>2026-05-02T08:58:03Z</time></trkpt><trkpt lat="44.80673350349966" lon="1.6224835757682643"><ele>262.75</ele><time>2026-05-02T08:58:04Z</time></trkpt><trkpt lat="44.80680867655685" lon="1.622299020077852"><ele>262.0</ele><time>2026-05-02T08:58:05Z</time></trkpt><trkpt lat="44.80687931900755" lon="1.622130489634136"><ele>261.5</ele><time>2026-05-02T08:58:06Z</time></trkpt><trkpt lat="44.80694531229803" lon="1.6219780814521527"><ele>261.0</ele><time>2026-05-02T08:58:07Z</time></trkpt><trkpt lat="44.80702465396965" lon="1.6218459358851347"><ele>260.5</ele><time>2026-05-02T08:58:08Z</time></trkpt><trkpt lat="44.80714009087566" lon="1.6217565295680265"><ele>260.0</ele><time>2026-05-02T08:58:09Z</time></trkpt><trkpt lat="44.80728295187619" lon="1.6216813991189976"><ele>260.0</ele><time>2026-05-02T08:58:10Z</time></trkpt><trkpt lat="44.807427697898184" lon="1.6216462499103974"><ele>260.0</ele><time>2026-05-02T08:58:11Z</time></trkpt><trkpt lat="44.807556901941304" lon="1.6215810812632627"><ele>260.0</ele><time>2026-05-02T08:58:12Z</time></trkpt><trkpt lat="44.807667421601046" lon="1.6215175124922656"><ele>260.0</ele><time>2026-05-02T08:58:13Z</time></trkpt><trkpt lat="44.80774984831228" lon="1.6213945350750503"><ele>258.5</ele><time>2026-05-02T08:58:14Z</time></trkpt><trkpt lat="44.807817406094536" lon="1.6212515110448642"><ele>257.0</ele><time>2026-05-02T08:58:15Z</time></trkpt><trkpt lat="44.80787324598345" lon="1.6210755343383088"><ele>255.5</ele><time>2026-05-02T08:58:16Z</time></trkpt><trkpt lat="44.80793133683851" lon="1.620885277815576"><ele>254.0</ele><time>2026-05-02T08:58:17Z</time></trkpt><trkpt lat="44.80800613338846" lon="1.6206946552183414"><ele>254.0</ele><time>2026-05-02T08:58:18Z</time></trkpt><trkpt lat="44.808077683956384" lon="1.6205179900744286"><ele>254.0</ele><time>2026-05-02T08:58:19Z</time></trkpt><trkpt lat="44.80814111730927" lon="1.6203497201960626"><ele>254.0</ele><time>2026-05-02T08:58:20Z</time></trkpt><trkpt lat="44.80819957621578" lon="1.620181553557968"><ele>254.0</ele><time>2026-05-02T08:58:21Z</time></trkpt><trkpt lat="44.8082614982801" lon="1.619992228592637"><ele>254.0</ele><time>2026-05-02T08:58:22Z</time></trkpt><trkpt lat="44.80831502138058" lon="1.6197958615036354"><ele>254.0</ele><time>2026-05-02T08:58:23Z</time></trkpt><trkpt lat="44.808362535238516" lon="1.6196154750944365"><ele>254.0</ele><time>2026-05-02T08:58:24Z</time></trkpt><trkpt lat="44.80843113553698" lon="1.6194573848964648"><ele>254.0</ele><time>2026-05-02T08:58:25Z</time></trkpt><trkpt lat="44.80851591228321" lon="1.6192951289284376"><ele>254.33333333333334</ele><time>2026-05-02T08:58:26Z</time></trkpt><trkpt lat="44.80860741197498" lon="1.6191129269471563"><ele>254.66666666666669</ele><time>2026-05-02T08:58:27Z</time></trkpt><trkpt lat="44.808715526247724" lon="1.6189155734517107"><ele>255.0</ele><time>2026-05-02T08:58:28Z</time></trkpt><trkpt lat="44.80879856859784" lon="1.6187201457100533"><ele>255.5</ele><time>2026-05-02T08:58:29Z</time></trkpt><trkpt lat="44.80885789565692" lon="1.6185356935839412"><ele>256.0</ele><time>2026-05-02T08:58:30Z</time></trkpt><trkpt lat="44.80891917424007" lon="1.6183580565372155"><ele>256.5</ele><time>2026-05-02T08:58:31Z</time></trkpt><trkpt lat="44.80902009025014" lon="1.618223196360436"><ele>257.0</ele><time>2026-05-02T08:58:32Z</time></trkpt><trkpt lat="44.80910631491981" lon="1.618070357910699"><ele>257.0</ele><time>2026-05-02T08:58:33Z</time></trkpt><trkpt lat="44.809186472029275" lon="1.617950747599466"><ele>257.0</ele><time>2026-05-02T08:58:34Z</time></trkpt><trkpt lat="44.809229912288046" lon="1.6177929983176818"><ele>257.0</ele><time>2026-05-02T08:58:35Z</time></trkpt><trkpt lat="44.80925219657387" lon="1.617605265083172"><ele>257.0</ele><time>2026-05-02T08:58:36Z</time></trkpt><trkpt lat="44.80924836624492" lon="1.6173937990730338"><ele>257.0</ele><time>2026-05-02T08:58:37Z</time></trkpt><trkpt lat="44.80921422003472" lon="1.6171693769132682"><ele>257.0</ele><time>2026-05-02T08:58:38Z</time></trkpt><trkpt lat="44.80916719385141" lon="1.6169971260016485"><ele>257.0</ele><time>2026-05-02T08:58:39Z</time></trkpt><trkpt lat="44.80915348637327" lon="1.6168544063683075"><ele>257.0</ele><time>2026-05-02T08:58:40Z</time></trkpt><trkpt lat="44.80914037462904" lon="1.6167099746405038"><ele>257.0</ele><time>2026-05-02T08:58:41Z</time></trkpt><trkpt lat="44.80913944783406" lon="1.6165432807999098"><ele>257.0</ele><time>2026-05-02T08:58:42Z</time></trkpt><trkpt lat="44.80920426403439" lon="1.6163762055952002"><ele>257.0</ele><time>2026-05-02T08:58:43Z</time></trkpt><trkpt lat="44.809258309939906" lon="1.616201824498288"><ele>257.0</ele><time>2026-05-02T08:58:44Z</time></trkpt><trkpt lat="44.80930222530625" lon="1.6160200627142254"><ele>257.5</ele><time>2026-05-02T08:58:45Z</time></trkpt><trkpt lat="44.80935859555114" lon="1.6158576861267515"><ele>258.0</ele><time>2026-05-02T08:58:46Z</time></trkpt><trkpt lat="44.80940629451016" lon="1.6156753164444035"><ele>258.5</ele><time>2026-05-02T08:58:47Z</time></trkpt><trkpt lat="44.80945266046372" lon="1.6154739258370552"><ele>259.0</ele><time>2026-05-02T08:58:48Z</time></trkpt><trkpt lat="44.80950183857576" lon="1.6152520559575891"><ele>259.0</ele><time>2026-05-02T08:58:49Z</time></trkpt><trkpt lat="44.80955031791705" lon="1.6150243910347855"><ele>259.0</ele><time>2026-05-02T08:58:50Z</time></trkpt><trkpt lat="44.809602403942556" lon="1.614777686031734"><ele>259.0</ele><time>2026-05-02T08:58:51Z</time></trkpt><trkpt lat="44.80965783887418" lon="1.6145206058165151"><ele>258.3333333333333</ele><time>2026-05-02T08:58:52Z</time></trkpt><trkpt lat="44.809699720843135" lon="1.614267479063273"><ele>257.6666666666667</ele><time>2026-05-02T08:58:53Z</time></trkpt><trkpt lat="44.8097317417304" lon="1.614023912964695"><ele>257.0</ele><time>2026-05-02T08:58:54Z</time></trkpt><trkpt lat="44.809772998725755" lon="1.613767921891818"><ele>256.6666666666667</ele><time>2026-05-02T08:58:55Z</time></trkpt><trkpt lat="44.80983568585788" lon="1.6134862337076785"><ele>256.3333333333333</ele><time>2026-05-02T08:58:56Z</time></trkpt><trkpt lat="44.809908670157114" lon="1.6131700806761478"><ele>256.0</ele><time>2026-05-02T08:58:57Z</time></trkpt><trkpt lat="44.80998080925453" lon="1.612844094012505"><ele>255.0</ele><time>2026-05-02T08:58:58Z</time></trkpt><trkpt lat="44.81004215792065" lon="1.6125668517066594"><ele>254.0</ele><time>2026-05-02T08:58:59Z</time></trkpt><trkpt lat="44.81009339375399" lon="1.6123313934902082"><ele>253.0</ele><time>2026-05-02T08:59:00Z</time></trkpt><trkpt lat="44.81013770093688" lon="1.6120989410229423"><ele>253.66666666666666</ele><time>2026-05-02T08:59:01Z</time></trkpt><trkpt lat="44.81016864872331" lon="1.61187677673189"><ele>254.33333333333331</ele><time>2026-05-02T08:59:02Z</time></trkpt><trkpt lat="44.810202520616635" lon="1.61164927549475"><ele>255.0</ele><time>2026-05-02T08:59:03Z</time></trkpt><trkpt lat="44.81029084927538" lon="1.6114412455479437"><ele>255.0</ele><time>2026-05-02T08:59:04Z</time></trkpt><trkpt lat="44.810397648163175" lon="1.61121144220974"><ele>255.0</ele><time>2026-05-02T08:59:05Z</time></trkpt><trkpt lat="44.8104915722551" lon="1.610970037077404"><ele>255.0</ele><time>2026-05-02T08:59:06Z</time></trkpt><trkpt lat="44.81057265250467" lon="1.6107347470496916"><ele>256.6666666666667</ele><time>2026-05-02T08:59:07Z</time></trkpt><trkpt lat="44.8106350537258" lon="1.6105037092768402"><ele>258.33333333333337</ele><time>2026-05-02T08:59:08Z</time></trkpt><trkpt lat="44.81069613627532" lon="1.610306253590878"><ele>260.0</ele><time>2026-05-02T08:59:09Z</time></trkpt><trkpt lat="44.81075819306691" lon="1.610125466654992"><ele>260.25</ele><time>2026-05-02T08:59:10Z</time></trkpt><trkpt lat="44.81079887717169" lon="1.6099468752801056"><ele>260.5</ele><time>2026-05-02T08:59:11Z</time></trkpt><trkpt lat="44.8108185570194" lon="1.6097475096636507"><ele>260.75</ele><time>2026-05-02T08:59:12Z</time></trkpt><trkpt lat="44.81083751102515" lon="1.6095205452129557"><ele>261.0</ele><time>2026-05-02T08:59:13Z</time></trkpt><trkpt lat="44.81086115803674" lon="1.6092949475970673"><ele>260.3333333333333</ele><time>2026-05-02T08:59:14Z</time></trkpt><trkpt lat="44.8108881693174" lon="1.6090694226450724"><ele>259.66666666666663</ele><time>2026-05-02T08:59:15Z</time></trkpt><trkpt lat="44.81090914852639" lon="1.6088329205436274"><ele>259.0</ele><time>2026-05-02T08:59:16Z</time></trkpt><trkpt lat="44.810947108303694" lon="1.608627509008308"><ele>259.0</ele><time>2026-05-02T08:59:17Z</time></trkpt><trkpt lat="44.81098036054736" lon="1.6084263793813824"><ele>259.0</ele><time>2026-05-02T08:59:17.999Z</time></trkpt><trkpt lat="44.81103418940126" lon="1.6082295490656497"><ele>259.0</ele><time>2026-05-02T08:59:18.999Z</time></trkpt><trkpt lat="44.81113852265759" lon="1.6080479400795535"><ele>258.66666666666663</ele><time>2026-05-02T08:59:19.999Z</time></trkpt><trkpt lat="44.811238797840836" lon="1.6078337637135107"><ele>258.3333333333333</ele><time>2026-05-02T08:59:20.999Z</time></trkpt><trkpt lat="44.811338993597076" lon="1.6076453768340238"><ele>258.0</ele><time>2026-05-02T08:59:21.999Z</time></trkpt><trkpt lat="44.81141141726878" lon="1.6074628168553986"><ele>259.0</ele><time>2026-05-02T08:59:22.999Z</time></trkpt><trkpt lat="44.811473401210826" lon="1.6072720528356088"><ele>260.0</ele><time>2026-05-02T08:59:23.999Z</time></trkpt><trkpt lat="44.81153250662698" lon="1.6070526842791781"><ele>261.0</ele><time>2026-05-02T08:59:24.999Z</time></trkpt><trkpt lat="44.81158562320025" lon="1.6068248252818218"><ele>262.0</ele><time>2026-05-02T08:59:25.999Z</time></trkpt><trkpt lat="44.811639121265245" lon="1.6065845544329085"><ele>263.0</ele><time>2026-05-02T08:59:26.999Z</time></trkpt><trkpt lat="44.81167961860571" lon="1.6063460516480206"><ele>264.0</ele><time>2026-05-02T08:59:27.999Z</time></trkpt><trkpt lat="44.81171464379187" lon="1.6061151557057332"><ele>264.0</ele><time>2026-05-02T08:59:28.999Z</time></trkpt><trkpt lat="44.81174891555415" lon="1.6058987245957832"><ele>264.0</ele><time>2026-05-02T08:59:29.999Z</time></trkpt><trkpt lat="44.811780646381926" lon="1.605692963304597"><ele>264.0</ele><time>2026-05-02T08:59:30.999Z</time></trkpt><trkpt lat="44.81181270944756" lon="1.6054913429755353"><ele>265.5</ele><time>2026-05-02T08:59:31.999Z</time></trkpt><trkpt lat="44.81184236403659" lon="1.605310270357404"><ele>267.0</ele><time>2026-05-02T08:59:32.999Z</time></trkpt><trkpt lat="44.811867739290776" lon="1.6051542107816887"><ele>268.5</ele><time>2026-05-02T08:59:33.999Z</time></trkpt><trkpt lat="44.81190343926663" lon="1.604992173350844"><ele>270.0</ele><time>2026-05-02T08:59:34.999Z</time></trkpt><trkpt lat="44.81196283963082" lon="1.6048274605579675"><ele>270.0</ele><time>2026-05-02T08:59:35.999Z</time></trkpt><trkpt lat="44.81207440549595" lon="1.6046825683058334"><ele>270.0</ele><time>2026-05-02T08:59:36.999Z</time></trkpt><trkpt lat="44.81218636614178" lon="1.6045623522218553"><ele>270.0</ele><time>2026-05-02T08:59:38Z</time></trkpt><trkpt lat="44.81229450153572" lon="1.604468793748794"><ele>270.0</ele><time>2026-05-02T08:59:39Z</time></trkpt><trkpt lat="44.81240176389793" lon="1.6043608655594157"><ele>270.75</ele><time>2026-05-02T08:59:40Z</time></trkpt><trkpt lat="44.812514999732386" lon="1.604239353772621"><ele>271.5</ele><time>2026-05-02T08:59:41Z</time></trkpt><trkpt lat="44.812627242169214" lon="1.6041179456401464"><ele>272.25</ele><time>2026-05-02T08:59:42Z</time></trkpt><trkpt lat="44.81272754467496" lon="1.6040093505514414"><ele>273.0</ele><time>2026-05-02T08:59:43Z</time></trkpt><trkpt lat="44.812829417349114" lon="1.603911660062529"><ele>274.5</ele><time>2026-05-02T08:59:44Z</time></trkpt><trkpt lat="44.81293426859481" lon="1.6038109855144496"><ele>276.0</ele><time>2026-05-02T08:59:45Z</time></trkpt><trkpt lat="44.813040676046036" lon="1.6036948479834143"><ele>277.5</ele><time>2026-05-02T08:59:46Z</time></trkpt><trkpt lat="44.8131403506092" lon="1.6035891493564178"><ele>279.0</ele><time>2026-05-02T08:59:47Z</time></trkpt><trkpt lat="44.81324023727879" lon="1.6034882245482878"><ele>279.0</ele><time>2026-05-02T08:59:48Z</time></trkpt><trkpt lat="44.81334876280083" lon="1.6033874004063096"><ele>279.0</ele><time>2026-05-02T08:59:49Z</time></trkpt><trkpt lat="44.81344598535334" lon="1.603286384673444"><ele>279.0</ele><time>2026-05-02T08:59:50Z</time></trkpt><trkpt lat="44.813542011394254" lon="1.6031842452325975"><ele>279.0</ele><time>2026-05-02T08:59:51Z</time></trkpt><trkpt lat="44.81364295788661" lon="1.6030871375918345"><ele>280.25</ele><time>2026-05-02T08:59:52Z</time></trkpt><trkpt lat="44.813744861903494" lon="1.6030045728271867"><ele>281.5</ele><time>2026-05-02T08:59:53Z</time></trkpt><trkpt lat="44.81385359670064" lon="1.6029331132137492"><ele>282.75</ele><time>2026-05-02T08:59:54Z</time></trkpt><trkpt lat="44.813971311313146" lon="1.6028781483816408"><ele>284.0</ele><time>2026-05-02T08:59:55Z</time></trkpt><trkpt lat="44.81409277780371" lon="1.6028336497609295"><ele>283.25</ele><time>2026-05-02T08:59:56Z</time></trkpt><trkpt lat="44.81421583935198" lon="1.6027900078868098"><ele>282.5</ele><time>2026-05-02T08:59:57Z</time></trkpt><trkpt lat="44.81434802709535" lon="1.602760307664942"><ele>281.75</ele><time>2026-05-02T08:59:58Z</time></trkpt><trkpt lat="44.81449062803832" lon="1.6027213523728576"><ele>281.0</ele><time>2026-05-02T08:59:59Z</time></trkpt><trkpt lat="44.81464098491377" lon="1.602681883065733"><ele>283.0</ele><time>2026-05-02T09:00:00Z</time></trkpt><trkpt lat="44.81480419765113" lon="1.6026383526565908"><ele>285.0</ele><time>2026-05-02T09:00:01Z</time></trkpt><trkpt lat="44.81496395262655" lon="1.6025902951664484"><ele>287.0</ele><time>2026-05-02T09:00:02Z</time></trkpt><trkpt lat="44.81512390452088" lon="1.60254386537326"><ele>288.33333333333337</ele><time>2026-05-02T09:00:03Z</time></trkpt><trkpt lat="44.81528483420185" lon="1.6024915854261195"><ele>289.6666666666667</ele><time>2026-05-02T09:00:04Z</time></trkpt><trkpt lat="44.81545141745566" lon="1.602433254700853"><ele>291.0</ele><time>2026-05-02T09:00:05Z</time></trkpt><trkpt lat="44.81561272895557" lon="1.602381952937714"><ele>291.0</ele><time>2026-05-02T09:00:06Z</time></trkpt><trkpt lat="44.81574869808074" lon="1.602352606647912"><ele>291.0</ele><time>2026-05-02T09:00:07Z</time></trkpt><trkpt lat="44.815876436235335" lon="1.6023306817778329"><ele>291.0</ele><time>2026-05-02T09:00:08Z</time></trkpt><trkpt lat="44.816007970110164" lon="1.6023133765762352"><ele>291.0</ele><time>2026-05-02T09:00:09Z</time></trkpt><trkpt lat="44.81614866897244" lon="1.602315699611614"><ele>291.75</ele><time>2026-05-02T09:00:10Z</time></trkpt><trkpt lat="44.81628000439516" lon="1.6023415183862721"><ele>292.5</ele><time>2026-05-02T09:00:11Z</time></trkpt><trkpt lat="44.816418169608156" lon="1.602371167981447"><ele>293.25</ele><time>2026-05-02T09:00:12Z</time></trkpt><trkpt lat="44.816557011066735" lon="1.602392677101994"><ele>294.0</ele><time>2026-05-02T09:00:13Z</time></trkpt><trkpt lat="44.816700840544144" lon="1.6024109081359972"><ele>295.0</ele><time>2026-05-02T09:00:14Z</time></trkpt><trkpt lat="44.81684548866266" lon="1.6024284633151025"><ele>296.0</ele><time>2026-05-02T09:00:15Z</time></trkpt><trkpt lat="44.81699154187714" lon="1.6024491102602538"><ele>297.0</ele><time>2026-05-02T09:00:16Z</time></trkpt><trkpt lat="44.81713801774325" lon="1.6024711988419262"><ele>298.0</ele><time>2026-05-02T09:00:17Z</time></trkpt><trkpt lat="44.817272123973254" lon="1.6024951113956039"><ele>298.0</ele><time>2026-05-02T09:00:18Z</time></trkpt><trkpt lat="44.81738696726874" lon="1.6025158841062872"><ele>298.0</ele><time>2026-05-02T09:00:19Z</time></trkpt><trkpt lat="44.81748833756415" lon="1.6025336572893456"><ele>298.0</ele><time>2026-05-02T09:00:20Z</time></trkpt><trkpt lat="44.81755629131061" lon="1.6025466587153985"><ele>298.0</ele><time>2026-05-02T09:00:21Z</time></trkpt><trkpt lat="44.81766422103415" lon="1.6025891213932602"><ele>298.0</ele><time>2026-05-02T09:00:23Z</time></trkpt><trkpt lat="44.817733743024995" lon="1.6026111626621795"><ele>297.6</ele><time>2026-05-02T09:00:24Z</time></trkpt><trkpt lat="44.8178115563934" lon="1.6026279601462177"><ele>297.20000000000005</ele><time>2026-05-02T09:00:25Z</time></trkpt><trkpt lat="44.81789627460587" lon="1.6026768381224241"><ele>296.8</ele><time>2026-05-02T09:00:27Z</time></trkpt><trkpt lat="44.81795121508389" lon="1.6027260009928073"><ele>296.40000000000003</ele><time>2026-05-02T09:00:31Z</time></trkpt><trkpt lat="44.81803528849736" lon="1.602761945824939"><ele>296.0</ele><time>2026-05-02T09:01:16Z</time></trkpt><trkpt lat="44.81817177195786" lon="1.6027956295165808"><ele>295.8</ele><time>2026-05-02T09:01:18Z</time></trkpt><trkpt lat="44.81824087346595" lon="1.6028484971466728"><ele>295.6</ele><time>2026-05-02T09:01:19Z</time></trkpt><trkpt lat="44.81833143529015" lon="1.602888562991629"><ele>295.4</ele><time>2026-05-02T09:01:20Z</time></trkpt><trkpt lat="44.81843181443206" lon="1.6029421099062076"><ele>295.2</ele><time>2026-05-02T09:01:21Z</time></trkpt><trkpt lat="44.818565375351135" lon="1.603004658138448"><ele>295.0</ele><time>2026-05-02T09:01:22Z</time></trkpt><trkpt lat="44.81871627775113" lon="1.6031174330198157"><ele>295.0</ele><time>2026-05-02T09:01:23Z</time></trkpt><trkpt lat="44.81888688105626" lon="1.603219102169534"><ele>295.0</ele><time>2026-05-02T09:01:24Z</time></trkpt><trkpt lat="44.819064290963674" lon="1.6033071164564119"><ele>295.0</ele><time>2026-05-02T09:01:25Z</time></trkpt><trkpt lat="44.81922616390314" lon="1.603409094416573"><ele>295.0</ele><time>2026-05-02T09:01:26Z</time></trkpt><trkpt lat="44.81936761407984" lon="1.6035219160863883"><ele>295.0</ele><time>2026-05-02T09:01:27Z</time></trkpt><trkpt lat="44.819512891358045" lon="1.6036424110825545"><ele>295.0</ele><time>2026-05-02T09:01:28Z</time></trkpt><trkpt lat="44.81967663636831" lon="1.6037365450144248"><ele>294.3333333333333</ele><time>2026-05-02T09:01:29Z</time></trkpt><trkpt lat="44.81984201602818" lon="1.603831580807818"><ele>293.6666666666667</ele><time>2026-05-02T09:01:30Z</time></trkpt><trkpt lat="44.82001950660681" lon="1.6039216099174003"><ele>293.0</ele><time>2026-05-02T09:01:31Z</time></trkpt><trkpt lat="44.820190706758126" lon="1.604005589996778"><ele>292.6666666666667</ele><time>2026-05-02T09:01:32Z</time></trkpt><trkpt lat="44.82034727984364" lon="1.6040911916339917"><ele>292.3333333333333</ele><time>2026-05-02T09:01:33Z</time></trkpt><trkpt lat="44.82049091987516" lon="1.6041687087477483"><ele>292.0</ele><time>2026-05-02T09:01:34Z</time></trkpt><trkpt lat="44.82062614969118" lon="1.6042086811742187"><ele>292.0</ele><time>2026-05-02T09:01:35Z</time></trkpt><trkpt lat="44.82076389283509" lon="1.6041970357645983"><ele>292.0</ele><time>2026-05-02T09:01:36Z</time></trkpt><trkpt lat="44.82089212979962" lon="1.6041211898249859"><ele>292.0</ele><time>2026-05-02T09:01:37Z</time></trkpt><trkpt lat="44.82100058146249" lon="1.6039877867023133"><ele>292.0</ele><time>2026-05-02T09:01:38Z</time></trkpt><trkpt lat="44.82109075452718" lon="1.6037777741847052"><ele>293.66666666666663</ele><time>2026-05-02T09:01:39Z</time></trkpt><trkpt lat="44.82119835395728" lon="1.6035650671121984"><ele>295.3333333333333</ele><time>2026-05-02T09:01:40Z</time></trkpt><trkpt lat="44.82131279616205" lon="1.6033398888267998"><ele>297.0</ele><time>2026-05-02T09:01:41Z</time></trkpt><trkpt lat="44.82142806144768" lon="1.6031194834688705"><ele>297.0</ele><time>2026-05-02T09:01:42Z</time></trkpt><trkpt lat="44.821526276441496" lon="1.6029026103920188"><ele>297.0</ele><time>2026-05-02T09:01:43Z</time></trkpt><trkpt lat="44.82163606546557" lon="1.6027080210737528"><ele>297.0</ele><time>2026-05-02T09:01:44Z</time></trkpt><trkpt lat="44.821762539977286" lon="1.6025232712524604"><ele>299.0</ele><time>2026-05-02T09:01:45Z</time></trkpt><trkpt lat="44.82188380491592" lon="1.6023208853490711"><ele>301.0</ele><time>2026-05-02T09:01:46Z</time></trkpt><trkpt lat="44.82200006754674" lon="1.6021114680254955"><ele>303.0</ele><time>2026-05-02T09:01:47Z</time></trkpt><trkpt lat="44.82211555410756" lon="1.6018956996392864"><ele>303.3333333333333</ele><time>2026-05-02T09:01:48Z</time></trkpt><trkpt lat="44.82222121606512" lon="1.601664614610866"><ele>303.66666666666663</ele><time>2026-05-02T09:01:49Z</time></trkpt><trkpt lat="44.82234922343875" lon="1.6014591256159323"><ele>304.0</ele><time>2026-05-02T09:01:50Z</time></trkpt><trkpt lat="44.822459041509006" lon="1.6012539477664653"><ele>304.0</ele><time>2026-05-02T09:01:51Z</time></trkpt><trkpt lat="44.82256595096325" lon="1.6010498861217326"><ele>304.0</ele><time>2026-05-02T09:01:52Z</time></trkpt><trkpt lat="44.82266673530889" lon="1.6008559572097345"><ele>304.0</ele><time>2026-05-02T09:01:53Z</time></trkpt><trkpt lat="44.82275035480931" lon="1.6006686242104586"><ele>304.25</ele><time>2026-05-02T09:01:54Z</time></trkpt><trkpt lat="44.822849225850774" lon="1.6005234930639731"><ele>304.5</ele><time>2026-05-02T09:01:55Z</time></trkpt><trkpt lat="44.82296272168931" lon="1.6004135456809079"><ele>304.75</ele><time>2026-05-02T09:01:56Z</time></trkpt><trkpt lat="44.823106625407256" lon="1.600344395157492"><ele>305.0</ele><time>2026-05-02T09:01:57Z</time></trkpt><trkpt lat="44.823276809360976" lon="1.6003124624157326"><ele>305.0</ele><time>2026-05-02T09:01:58Z</time></trkpt><trkpt lat="44.82347008141356" lon="1.6002914112645075"><ele>305.0</ele><time>2026-05-02T09:01:59Z</time></trkpt><trkpt lat="44.82366992979016" lon="1.6002560509217034"><ele>305.0</ele><time>2026-05-02T09:02:00Z</time></trkpt><trkpt lat="44.823840438077745" lon="1.600223348593991"><ele>306.6666666666667</ele><time>2026-05-02T09:02:01Z</time></trkpt><trkpt lat="44.82399154138146" lon="1.6001908786487642"><ele>308.3333333333333</ele><time>2026-05-02T09:02:02Z</time></trkpt><trkpt lat="44.8241442622734" lon="1.6001354466896784"><ele>310.0</ele><time>2026-05-02T09:02:03Z</time></trkpt><trkpt lat="44.824298521742634" lon="1.6000288026847196"><ele>311.3333333333333</ele><time>2026-05-02T09:02:04Z</time></trkpt><trkpt lat="44.82446391173878" lon="1.599965143692923"><ele>312.6666666666667</ele><time>2026-05-02T09:02:05Z</time></trkpt><trkpt lat="44.82464996580175" lon="1.5999081747803796"><ele>314.0</ele><time>2026-05-02T09:02:06Z</time></trkpt><trkpt lat="44.824825448726855" lon="1.5998851661649485"><ele>314.0</ele><time>2026-05-02T09:02:07Z</time></trkpt><trkpt lat="44.82496825576537" lon="1.5998280957475954"><ele>314.0</ele><time>2026-05-02T09:02:08Z</time></trkpt><trkpt lat="44.82507050453787" lon="1.5997218038616385"><ele>314.0</ele><time>2026-05-02T09:02:09Z</time></trkpt><trkpt lat="44.825158185239275" lon="1.5995454756890548"><ele>314.0</ele><time>2026-05-02T09:02:10Z</time></trkpt><trkpt lat="44.82518961374029" lon="1.5992697192469298"><ele>314.6666666666667</ele><time>2026-05-02T09:02:11Z</time></trkpt><trkpt lat="44.82519903513068" lon="1.5989568824498661"><ele>315.3333333333333</ele><time>2026-05-02T09:02:12Z</time></trkpt><trkpt lat="44.825220996208884" lon="1.5986873435529725"><ele>316.0</ele><time>2026-05-02T09:02:13Z</time></trkpt><trkpt lat="44.82525870863864" lon="1.5984516579411587"><ele>316.3333333333333</ele><time>2026-05-02T09:02:14Z</time></trkpt><trkpt lat="44.82530175613446" lon="1.598238332965354"><ele>316.6666666666667</ele><time>2026-05-02T09:02:15Z</time></trkpt><trkpt lat="44.82535307164726" lon="1.5980342399605556"><ele>317.0</ele><time>2026-05-02T09:02:16Z</time></trkpt><trkpt lat="44.82541314756321" lon="1.5978315863675305"><ele>317.33333333333337</ele><time>2026-05-02T09:02:17Z</time></trkpt><trkpt lat="44.82549202088396" lon="1.5976381203917753"><ele>317.6666666666667</ele><time>2026-05-02T09:02:18Z</time></trkpt><trkpt lat="44.825587503733814" lon="1.5974477787367156"><ele>318.0</ele><time>2026-05-02T09:02:19Z</time></trkpt><trkpt lat="44.82568584724657" lon="1.5972313658415238"><ele>318.0</ele><time>2026-05-02T09:02:20Z</time></trkpt><trkpt lat="44.8257776900138" lon="1.5970310392491516"><ele>318.0</ele><time>2026-05-02T09:02:21Z</time></trkpt><trkpt lat="44.82587529396805" lon="1.5968430436846568"><ele>318.0</ele><time>2026-05-02T09:02:22Z</time></trkpt><trkpt lat="44.82599477201142" lon="1.5966705110718824"><ele>319.6666666666667</ele><time>2026-05-02T09:02:23Z</time></trkpt><trkpt lat="44.82612648966637" lon="1.5965081761517526"><ele>321.33333333333337</ele><time>2026-05-02T09:02:24Z</time></trkpt><trkpt lat="44.82625626029628" lon="1.5963478225628245"><ele>323.0</ele><time>2026-05-02T09:02:25Z</time></trkpt><trkpt lat="44.8263654757882" lon="1.5962159137232101"><ele>322.0</ele><time>2026-05-02T09:02:26Z</time></trkpt><trkpt lat="44.82645846699542" lon="1.5960924752600414"><ele>321.0</ele><time>2026-05-02T09:02:27Z</time></trkpt><trkpt lat="44.82653130829454" lon="1.5959602075799963"><ele>320.0</ele><time>2026-05-02T09:02:28Z</time></trkpt><trkpt lat="44.82657939252619" lon="1.5957789742038304"><ele>319.0</ele><time>2026-05-02T09:02:29Z</time></trkpt><trkpt lat="44.82660978070979" lon="1.5955827601414876"><ele>319.0</ele><time>2026-05-02T09:02:30Z</time></trkpt><trkpt lat="44.826629593105274" lon="1.5953669809329152"><ele>319.0</ele><time>2026-05-02T09:02:31Z</time></trkpt><trkpt lat="44.826651431587415" lon="1.595150797348799"><ele>319.0</ele><time>2026-05-02T09:02:32Z</time></trkpt><trkpt lat="44.82666631442792" lon="1.5949462772850924"><ele>318.3333333333333</ele><time>2026-05-02T09:02:33Z</time></trkpt><trkpt lat="44.82668699972425" lon="1.594731204319094"><ele>317.6666666666667</ele><time>2026-05-02T09:02:34Z</time></trkpt><trkpt lat="44.82671147983142" lon="1.5945065071757984"><ele>317.0</ele><time>2026-05-02T09:02:35Z</time></trkpt><trkpt lat="44.82672316995014" lon="1.594292194502812"><ele>317.0</ele><time>2026-05-02T09:02:36Z</time></trkpt><trkpt lat="44.82671304728703" lon="1.5940955302448405"><ele>317.0</ele><time>2026-05-02T09:02:37Z</time></trkpt><trkpt lat="44.826670219075986" lon="1.5939206040859744"><ele>317.0</ele><time>2026-05-02T09:02:38Z</time></trkpt><trkpt lat="44.826583658741896" lon="1.5937860018714516"><ele>317.0</ele><time>2026-05-02T09:02:39Z</time></trkpt><trkpt lat="44.826499620322444" lon="1.5936665571105921"><ele>317.25</ele><time>2026-05-02T09:02:40Z</time></trkpt><trkpt lat="44.82639769229695" lon="1.5935456978932214"><ele>317.5</ele><time>2026-05-02T09:02:41Z</time></trkpt><trkpt lat="44.82628691385913" lon="1.593417812284852"><ele>317.75</ele><time>2026-05-02T09:02:42Z</time></trkpt><trkpt lat="44.82619217061143" lon="1.5932823641416949"><ele>318.0</ele><time>2026-05-02T09:02:43Z</time></trkpt><trkpt lat="44.826097242436106" lon="1.593143342233744"><ele>318.0</ele><time>2026-05-02T09:02:44Z</time></trkpt><trkpt lat="44.82600987766545" lon="1.5929904044221594"><ele>318.0</ele><time>2026-05-02T09:02:45Z</time></trkpt><trkpt lat="44.825933751790444" lon="1.592836182811282"><ele>318.0</ele><time>2026-05-02T09:02:46Z</time></trkpt><trkpt lat="44.82585289832198" lon="1.5926689004159904"><ele>318.0</ele><time>2026-05-02T09:02:47Z</time></trkpt><trkpt lat="44.82577709797516" lon="1.592493043422283"><ele>316.5</ele><time>2026-05-02T09:02:48Z</time></trkpt><trkpt lat="44.82570816256818" lon="1.5923052254552503"><ele>315.0</ele><time>2026-05-02T09:02:49Z</time></trkpt><trkpt lat="44.82563972293869" lon="1.5921253776910598"><ele>313.5</ele><time>2026-05-02T09:02:50Z</time></trkpt><trkpt lat="44.82557686372261" lon="1.591947686149181"><ele>312.0</ele><time>2026-05-02T09:02:51Z</time></trkpt><trkpt lat="44.82551708256697" lon="1.591780167752145"><ele>312.0</ele><time>2026-05-02T09:02:52Z</time></trkpt><trkpt lat="44.825462500974524" lon="1.591625094278059"><ele>312.0</ele><time>2026-05-02T09:02:53Z</time></trkpt><trkpt lat="44.82542151610772" lon="1.5914706191497865"><ele>312.0</ele><time>2026-05-02T09:02:54Z</time></trkpt><trkpt lat="44.82537250459687" lon="1.5913239280169542"><ele>312.0</ele><time>2026-05-02T09:02:55Z</time></trkpt><trkpt lat="44.8253202957902" lon="1.591187105446237"><ele>311.4</ele><time>2026-05-02T09:02:56Z</time></trkpt><trkpt lat="44.825265975609405" lon="1.5910606792387794"><ele>310.79999999999995</ele><time>2026-05-02T09:02:57Z</time></trkpt><trkpt lat="44.82521263250379" lon="1.590942084539933"><ele>310.2</ele><time>2026-05-02T09:02:58Z</time></trkpt><trkpt lat="44.82514978296034" lon="1.5908408428017775"><ele>309.59999999999997</ele><time>2026-05-02T09:02:59Z</time></trkpt><trkpt lat="44.82508762584864" lon="1.5907595977789415"><ele>309.0</ele><time>2026-05-02T09:03:00Z</time></trkpt><trkpt lat="44.825044683648585" lon="1.5906725365179568"><ele>308.6666666666667</ele><time>2026-05-02T09:03:01Z</time></trkpt><trkpt lat="44.82500456682017" lon="1.5905922789763642"><ele>308.3333333333333</ele><time>2026-05-02T09:03:02Z</time></trkpt><trkpt lat="44.82495911247369" lon="1.5905137248981598"><ele>308.0</ele><time>2026-05-02T09:03:03Z</time></trkpt><trkpt lat="44.824907248249744" lon="1.590428755384225"><ele>307.66666666666663</ele><time>2026-05-02T09:03:04Z</time></trkpt><trkpt lat="44.824843186678116" lon="1.5903182759505514"><ele>307.3333333333333</ele><time>2026-05-02T09:03:05Z</time></trkpt><trkpt lat="44.82479543939697" lon="1.590192564655456"><ele>307.0</ele><time>2026-05-02T09:03:06Z</time></trkpt><trkpt lat="44.824753805844296" lon="1.5900488803705766"><ele>307.0</ele><time>2026-05-02T09:03:07Z</time></trkpt><trkpt lat="44.824715081005955" lon="1.5899208714661182"><ele>307.0</ele><time>2026-05-02T09:03:08Z</time></trkpt><trkpt lat="44.82469475009318" lon="1.589783141942198"><ele>307.0</ele><time>2026-05-02T09:03:09Z</time></trkpt><trkpt lat="44.82467357132161" lon="1.589630522775599"><ele>307.0</ele><time>2026-05-02T09:03:10Z</time></trkpt><trkpt lat="44.82464647804555" lon="1.5894714989608647"><ele>307.0</ele><time>2026-05-02T09:03:11Z</time></trkpt><trkpt lat="44.824626562359605" lon="1.5893028294887415"><ele>307.5</ele><time>2026-05-02T09:03:12Z</time></trkpt><trkpt lat="44.82460177089078" lon="1.589123711084535"><ele>308.0</ele><time>2026-05-02T09:03:13Z</time></trkpt><trkpt lat="44.82456944913282" lon="1.5889380569310723"><ele>308.5</ele><time>2026-05-02T09:03:14Z</time></trkpt><trkpt lat="44.8245330817794" lon="1.5887404546059138"><ele>309.0</ele><time>2026-05-02T09:03:15Z</time></trkpt><trkpt lat="44.824498110493074" lon="1.5885441856632199"><ele>309.0</ele><time>2026-05-02T09:03:16Z</time></trkpt><trkpt lat="44.82445842050048" lon="1.5883527300095663"><ele>309.0</ele><time>2026-05-02T09:03:17Z</time></trkpt><trkpt lat="44.82442687879381" lon="1.5881730462968788"><ele>309.0</ele><time>2026-05-02T09:03:18Z</time></trkpt><trkpt lat="44.82439082962952" lon="1.5879877174889552"><ele>309.0</ele><time>2026-05-02T09:03:19Z</time></trkpt><trkpt lat="44.82434148135264" lon="1.5877976440089374"><ele>310.0</ele><time>2026-05-02T09:03:20Z</time></trkpt><trkpt lat="44.82429119593081" lon="1.587599816077179"><ele>311.0</ele><time>2026-05-02T09:03:21Z</time></trkpt><trkpt lat="44.82422927990212" lon="1.587392597851829"><ele>312.0</ele><time>2026-05-02T09:03:22Z</time></trkpt><trkpt lat="44.82416008006536" lon="1.5871966944793676"><ele>311.3333333333333</ele><time>2026-05-02T09:03:23Z</time></trkpt><trkpt lat="44.82407607266304" lon="1.5870080604853285"><ele>310.66666666666663</ele><time>2026-05-02T09:03:24Z</time></trkpt><trkpt lat="44.8239885853433" lon="1.586821361157476"><ele>310.0</ele><time>2026-05-02T09:03:25Z</time></trkpt><trkpt lat="44.823900693533524" lon="1.586619353997039"><ele>310.0</ele><time>2026-05-02T09:03:26Z</time></trkpt><trkpt lat="44.82381832471251" lon="1.586429278447598"><ele>310.0</ele><time>2026-05-02T09:03:27Z</time></trkpt><trkpt lat="44.82373684481131" lon="1.586248019945031"><ele>310.0</ele><time>2026-05-02T09:03:28Z</time></trkpt><trkpt lat="44.823643691169195" lon="1.5860651133828054"><ele>308.66666666666663</ele><time>2026-05-02T09:03:29Z</time></trkpt><trkpt lat="44.82353994696339" lon="1.585893388318772"><ele>307.3333333333333</ele><time>2026-05-02T09:03:30Z</time></trkpt><trkpt lat="44.82341114891096" lon="1.5857401461541483"><ele>306.0</ele><time>2026-05-02T09:03:31Z</time></trkpt><trkpt lat="44.82326817237044" lon="1.5855928093301666"><ele>305.0</ele><time>2026-05-02T09:03:32Z</time></trkpt><trkpt lat="44.823151873142805" lon="1.5854277180875977"><ele>304.0</ele><time>2026-05-02T09:03:33Z</time></trkpt><trkpt lat="44.82302340399363" lon="1.5852745285905188"><ele>303.0</ele><time>2026-05-02T09:03:34Z</time></trkpt><trkpt lat="44.82287654207689" lon="1.5851298494378219"><ele>302.3333333333333</ele><time>2026-05-02T09:03:35Z</time></trkpt><trkpt lat="44.822736394015756" lon="1.5849583288853735"><ele>301.66666666666663</ele><time>2026-05-02T09:03:36Z</time></trkpt><trkpt lat="44.822597933744845" lon="1.5847897384548688"><ele>301.0</ele><time>2026-05-02T09:03:37Z</time></trkpt><trkpt lat="44.822462852031194" lon="1.5846216710050363"><ele>299.0</ele><time>2026-05-02T09:03:38Z</time></trkpt><trkpt lat="44.8223242392207" lon="1.5844495532821128"><ele>297.0</ele><time>2026-05-02T09:03:39Z</time></trkpt><trkpt lat="44.82218434257991" lon="1.58428886499601"><ele>295.0</ele><time>2026-05-02T09:03:40Z</time></trkpt><trkpt lat="44.82205608625999" lon="1.5841364142966419"><ele>295.0</ele><time>2026-05-02T09:03:41Z</time></trkpt><trkpt lat="44.821928734291376" lon="1.5839732072797077"><ele>295.0</ele><time>2026-05-02T09:03:42Z</time></trkpt><trkpt lat="44.82181216477222" lon="1.5838035034100455"><ele>295.0</ele><time>2026-05-02T09:03:43Z</time></trkpt><trkpt lat="44.82171592319031" lon="1.5835993979879472"><ele>293.0</ele><time>2026-05-02T09:03:44Z</time></trkpt><trkpt lat="44.82163248157796" lon="1.5833846599580008"><ele>291.0</ele><time>2026-05-02T09:03:45Z</time></trkpt><trkpt lat="44.82154723670732" lon="1.583176246455588"><ele>289.0</ele><time>2026-05-02T09:03:46Z</time></trkpt><trkpt lat="44.82150092046991" lon="1.5829777432989773"><ele>288.3333333333333</ele><time>2026-05-02T09:03:47Z</time></trkpt><trkpt lat="44.82150420167421" lon="1.582787255185196"><ele>287.6666666666667</ele><time>2026-05-02T09:03:48Z</time></trkpt><trkpt lat="44.8214959772276" lon="1.5825697648466923"><ele>287.0</ele><time>2026-05-02T09:03:49Z</time></trkpt><trkpt lat="44.8215331005533" lon="1.5823461175416895"><ele>287.0</ele><time>2026-05-02T09:03:50Z</time></trkpt><trkpt lat="44.82156843507991" lon="1.5821057911778214"><ele>287.0</ele><time>2026-05-02T09:03:51Z</time></trkpt><trkpt lat="44.821607691270046" lon="1.5818583171081442"><ele>287.0</ele><time>2026-05-02T09:03:52Z</time></trkpt><trkpt lat="44.82163657905607" lon="1.5816025946099903"><ele>285.6666666666667</ele><time>2026-05-02T09:03:53Z</time></trkpt><trkpt lat="44.821666369649755" lon="1.581342611297974"><ele>284.3333333333333</ele><time>2026-05-02T09:03:54Z</time></trkpt><trkpt lat="44.82168933051131" lon="1.5810887079382596"><ele>283.0</ele><time>2026-05-02T09:03:55Z</time></trkpt><trkpt lat="44.821681511897125" lon="1.5808243424263322"><ele>281.3333333333333</ele><time>2026-05-02T09:03:56Z</time></trkpt><trkpt lat="44.82164958694988" lon="1.5805754800220266"><ele>279.6666666666667</ele><time>2026-05-02T09:03:57Z</time></trkpt><trkpt lat="44.821603951964505" lon="1.580326742712404"><ele>278.0</ele><time>2026-05-02T09:03:58Z</time></trkpt><trkpt lat="44.821580022089826" lon="1.5800775893858572"><ele>277.6666666666667</ele><time>2026-05-02T09:03:59Z</time></trkpt><trkpt lat="44.821616189352" lon="1.5798311392186015"><ele>277.3333333333333</ele><time>2026-05-02T09:04:00Z</time></trkpt><trkpt lat="44.82166842648802" lon="1.5795847514771597"><ele>277.0</ele><time>2026-05-02T09:04:01Z</time></trkpt><trkpt lat="44.82173860212743" lon="1.5793428343294411"><ele>277.0</ele><time>2026-05-02T09:04:02Z</time></trkpt><trkpt lat="44.82180402906039" lon="1.57909458590056"><ele>277.0</ele><time>2026-05-02T09:04:03Z</time></trkpt><trkpt lat="44.8218790326765" lon="1.5788607226503935"><ele>277.0</ele><time>2026-05-02T09:04:04Z</time></trkpt><trkpt lat="44.82195463324522" lon="1.5786059016747311"><ele>276.3333333333333</ele><time>2026-05-02T09:04:05Z</time></trkpt><trkpt lat="44.82203706421223" lon="1.5783562133910949"><ele>275.6666666666667</ele><time>2026-05-02T09:04:06Z</time></trkpt><trkpt lat="44.82211800808101" lon="1.5781029539642044"><ele>275.0</ele><time>2026-05-02T09:04:07Z</time></trkpt><trkpt lat="44.822196205001184" lon="1.5778418177241469"><ele>275.0</ele><time>2026-05-02T09:04:08Z</time></trkpt><trkpt lat="44.822284786577434" lon="1.5775733927991042"><ele>275.0</ele><time>2026-05-02T09:04:09Z</time></trkpt><trkpt lat="44.8223779931843" lon="1.5773029149741487"><ele>275.0</ele><time>2026-05-02T09:04:10Z</time></trkpt><trkpt lat="44.822487691486735" lon="1.5770266912917965"><ele>275.0</ele><time>2026-05-02T09:04:11Z</time></trkpt><trkpt lat="44.82259803052594" lon="1.5767725419507133"><ele>275.0</ele><time>2026-05-02T09:04:12Z</time></trkpt><trkpt lat="44.822707935036405" lon="1.5765406182000654"><ele>275.0</ele><time>2026-05-02T09:04:13Z</time></trkpt><trkpt lat="44.82281149169256" lon="1.5763120634434855"><ele>274.33333333333337</ele><time>2026-05-02T09:04:14Z</time></trkpt><trkpt lat="44.822913442500784" lon="1.5760878819411825"><ele>273.6666666666667</ele><time>2026-05-02T09:04:15Z</time></trkpt><trkpt lat="44.82300874816994" lon="1.5758474147617503"><ele>273.0</ele><time>2026-05-02T09:04:16Z</time></trkpt><trkpt lat="44.82310175619039" lon="1.5756025859329217"><ele>273.3333333333333</ele><time>2026-05-02T09:04:17Z</time></trkpt><trkpt lat="44.823187300692894" lon="1.5753529040738496"><ele>273.66666666666663</ele><time>2026-05-02T09:04:18Z</time></trkpt><trkpt lat="44.82326919766768" lon="1.575097342410833"><ele>274.0</ele><time>2026-05-02T09:04:19Z</time></trkpt><trkpt lat="44.82334527525887" lon="1.5748385910092029"><ele>274.0</ele><time>2026-05-02T09:04:20Z</time></trkpt><trkpt lat="44.82341543730138" lon="1.5745880955916762"><ele>274.0</ele><time>2026-05-02T09:04:21Z</time></trkpt><trkpt lat="44.823476973215776" lon="1.5743280979310654"><ele>274.0</ele><time>2026-05-02T09:04:22Z</time></trkpt><trkpt lat="44.82354687683556" lon="1.5740725784869605"><ele>271.0</ele><time>2026-05-02T09:04:23Z</time></trkpt><trkpt lat="44.8236270839048" lon="1.5738326252279893"><ele>268.0</ele><time>2026-05-02T09:04:24Z</time></trkpt><trkpt lat="44.82368058929038" lon="1.573576045067411"><ele>265.0</ele><time>2026-05-02T09:04:25Z</time></trkpt><trkpt lat="44.82374487067419" lon="1.5733147469760966"><ele>264.0</ele><time>2026-05-02T09:04:26Z</time></trkpt><trkpt lat="44.82381334491018" lon="1.573067071501628"><ele>263.0</ele><time>2026-05-02T09:04:27Z</time></trkpt><trkpt lat="44.823890708352" lon="1.572830350224708"><ele>262.0</ele><time>2026-05-02T09:04:28Z</time></trkpt><trkpt lat="44.823980192461974" lon="1.5726088773524558"><ele>262.0</ele><time>2026-05-02T09:04:29Z</time></trkpt><trkpt lat="44.82409017304566" lon="1.5723974878336082"><ele>262.0</ele><time>2026-05-02T09:04:30Z</time></trkpt><trkpt lat="44.82421081011401" lon="1.5722078865695028"><ele>262.0</ele><time>2026-05-02T09:04:31Z</time></trkpt><trkpt lat="44.824354078097" lon="1.5720523943538038"><ele>259.3333333333333</ele><time>2026-05-02T09:04:32Z</time></trkpt><trkpt lat="44.82448536290848" lon="1.5718792265111625"><ele>256.6666666666667</ele><time>2026-05-02T09:04:33Z</time></trkpt><trkpt lat="44.824627964535026" lon="1.571718401776483"><ele>254.0</ele><time>2026-05-02T09:04:34Z</time></trkpt><trkpt lat="44.82476934011403" lon="1.5715650117949223"><ele>254.0</ele><time>2026-05-02T09:04:35Z</time></trkpt><trkpt lat="44.824918264735786" lon="1.5714162474335398"><ele>254.0</ele><time>2026-05-02T09:04:36Z</time></trkpt><trkpt lat="44.82506673356518" lon="1.5712688919500168"><ele>254.0</ele><time>2026-05-02T09:04:37Z</time></trkpt><trkpt lat="44.8252173535161" lon="1.5711097960142386"><ele>253.66666666666669</ele><time>2026-05-02T09:04:38Z</time></trkpt><trkpt lat="44.82536084102148" lon="1.5709377158963456"><ele>253.33333333333331</ele><time>2026-05-02T09:04:39Z</time></trkpt><trkpt lat="44.825496637506255" lon="1.5707537051938603"><ele>253.0</ele><time>2026-05-02T09:04:40Z</time></trkpt><trkpt lat="44.82563052764071" lon="1.5705551326320897"><ele>253.0</ele><time>2026-05-02T09:04:41Z</time></trkpt><trkpt lat="44.82576392080073" lon="1.5703599845543572"><ele>253.0</ele><time>2026-05-02T09:04:42Z</time></trkpt><trkpt lat="44.8258989250833" lon="1.57017110936803"><ele>253.0</ele><time>2026-05-02T09:04:43Z</time></trkpt><trkpt lat="44.82603765365402" lon="1.5699899457472195"><ele>251.66666666666666</ele><time>2026-05-02T09:04:44Z</time></trkpt><trkpt lat="44.826190843638265" lon="1.5698190352158168"><ele>250.33333333333331</ele><time>2026-05-02T09:04:45Z</time></trkpt><trkpt lat="44.82635556090998" lon="1.5696595174819297"><ele>249.0</ele><time>2026-05-02T09:04:46Z</time></trkpt><trkpt lat="44.82651891745333" lon="1.5694973262079603"><ele>248.33333333333331</ele><time>2026-05-02T09:04:47Z</time></trkpt><trkpt lat="44.82668610014371" lon="1.5693325971217253"><ele>247.66666666666666</ele><time>2026-05-02T09:04:48Z</time></trkpt><trkpt lat="44.82684495906008" lon="1.5691872918647847"><ele>247.0</ele><time>2026-05-02T09:04:49Z</time></trkpt><trkpt lat="44.827001215395384" lon="1.5690493370652796"><ele>247.0</ele><time>2026-05-02T09:04:50Z</time></trkpt><trkpt lat="44.827163115884474" lon="1.5689237494930353"><ele>247.0</ele><time>2026-05-02T09:04:51Z</time></trkpt><trkpt lat="44.8273345201097" lon="1.5687987917025188"><ele>247.0</ele><time>2026-05-02T09:04:52Z</time></trkpt><trkpt lat="44.82751251468155" lon="1.5686781567471557"><ele>247.0</ele><time>2026-05-02T09:04:53Z</time></trkpt><trkpt lat="44.82767524153851" lon="1.5685664503628995"><ele>247.0</ele><time>2026-05-02T09:04:54Z</time></trkpt><trkpt lat="44.827831510614885" lon="1.5684508153627998"><ele>247.0</ele><time>2026-05-02T09:04:55Z</time></trkpt><trkpt lat="44.82799187689986" lon="1.5683349188296813"><ele>247.0</ele><time>2026-05-02T09:04:56Z</time></trkpt><trkpt lat="44.82815020278909" lon="1.5682175745312834"><ele>247.0</ele><time>2026-05-02T09:04:57Z</time></trkpt><trkpt lat="44.82832485980168" lon="1.568108379471259"><ele>247.0</ele><time>2026-05-02T09:04:58Z</time></trkpt><trkpt lat="44.8284807422733" lon="1.5679584699153064"><ele>246.0</ele><time>2026-05-02T09:04:59Z</time></trkpt><trkpt lat="44.82864829923716" lon="1.5678302743357755"><ele>245.0</ele><time>2026-05-02T09:05:00Z</time></trkpt><trkpt lat="44.82882134924455" lon="1.5676921173173328"><ele>244.0</ele><time>2026-05-02T09:05:01Z</time></trkpt><trkpt lat="44.828998844337775" lon="1.5675498249163058"><ele>244.0</ele><time>2026-05-02T09:05:02Z</time></trkpt><trkpt lat="44.82918626933662" lon="1.567425347994021"><ele>244.0</ele><time>2026-05-02T09:05:03Z</time></trkpt><trkpt lat="44.82936972286961" lon="1.5672808637559128"><ele>244.0</ele><time>2026-05-02T09:05:04Z</time></trkpt><trkpt lat="44.82956307475981" lon="1.5671285837095066"><ele>243.33333333333331</ele><time>2026-05-02T09:05:05Z</time></trkpt><trkpt lat="44.82974848055134" lon="1.5669570581791334"><ele>242.66666666666669</ele><time>2026-05-02T09:05:06Z</time></trkpt><trkpt lat="44.82994519716699" lon="1.5668070481547314"><ele>242.0</ele><time>2026-05-02T09:05:07Z</time></trkpt><trkpt lat="44.83013349779984" lon="1.5666793298078936"><ele>241.33333333333334</ele><time>2026-05-02T09:05:08Z</time></trkpt><trkpt lat="44.830310941772886" lon="1.566539580242"><ele>240.66666666666669</ele><time>2026-05-02T09:05:09Z</time></trkpt><trkpt lat="44.83049732640199" lon="1.56638138978597"><ele>240.0</ele><time>2026-05-02T09:05:10Z</time></trkpt><trkpt lat="44.8306828453964" lon="1.5662390994714253"><ele>241.0</ele><time>2026-05-02T09:05:11Z</time></trkpt><trkpt lat="44.83086360399995" lon="1.566085624058732"><ele>242.0</ele><time>2026-05-02T09:05:12Z</time></trkpt><trkpt lat="44.83104018436905" lon="1.565946116119815"><ele>243.0</ele><time>2026-05-02T09:05:13Z</time></trkpt><trkpt lat="44.83121583154289" lon="1.5658044006323732"><ele>241.0</ele><time>2026-05-02T09:05:14Z</time></trkpt><trkpt lat="44.83137160059669" lon="1.5656817070502345"><ele>239.0</ele><time>2026-05-02T09:05:15Z</time></trkpt><trkpt lat="44.83152923450921" lon="1.5655562266781744"><ele>237.0</ele><time>2026-05-02T09:05:16Z</time></trkpt><trkpt lat="44.83168521305436" lon="1.5654189289264975"><ele>235.33333333333331</ele><time>2026-05-02T09:05:17Z</time></trkpt><trkpt lat="44.83184595556901" lon="1.5652549629044255"><ele>233.66666666666666</ele><time>2026-05-02T09:05:18Z</time></trkpt><trkpt lat="44.83200376179467" lon="1.5650714130036"><ele>232.0</ele><time>2026-05-02T09:05:19Z</time></trkpt><trkpt lat="44.83215800758642" lon="1.5648748435168196"><ele>232.0</ele><time>2026-05-02T09:05:20Z</time></trkpt><trkpt lat="44.83231373134755" lon="1.5646772447973396"><ele>232.0</ele><time>2026-05-02T09:05:21Z</time></trkpt><trkpt lat="44.83247379355826" lon="1.5644548997295602"><ele>232.0</ele><time>2026-05-02T09:05:22Z</time></trkpt><trkpt lat="44.832629999086684" lon="1.5642287257428473"><ele>232.33333333333331</ele><time>2026-05-02T09:05:23Z</time></trkpt><trkpt lat="44.83278786231835" lon="1.5640012681733357"><ele>232.66666666666669</ele><time>2026-05-02T09:05:24Z</time></trkpt><trkpt lat="44.83294107548075" lon="1.5637794050099965"><ele>233.0</ele><time>2026-05-02T09:05:25Z</time></trkpt><trkpt lat="44.83308396520029" lon="1.5635658074162202"><ele>233.0</ele><time>2026-05-02T09:05:26Z</time></trkpt><trkpt lat="44.83322433698834" lon="1.563348471779663"><ele>233.0</ele><time>2026-05-02T09:05:27Z</time></trkpt><trkpt lat="44.833346725837956" lon="1.563114336684118"><ele>233.0</ele><time>2026-05-02T09:05:28Z</time></trkpt><trkpt lat="44.8334712450052" lon="1.562874918799786"><ele>228.66666666666669</ele><time>2026-05-02T09:05:29Z</time></trkpt><trkpt lat="44.83360070698531" lon="1.56263210943174"><ele>224.33333333333331</ele><time>2026-05-02T09:05:30Z</time></trkpt><trkpt lat="44.83372391910532" lon="1.5623814736312014"><ele>220.0</ele><time>2026-05-02T09:05:31Z</time></trkpt><trkpt lat="44.83386053650198" lon="1.562132864782517"><ele>221.33333333333331</ele><time>2026-05-02T09:05:32Z</time></trkpt><trkpt lat="44.834002150030614" lon="1.5618979615903297"><ele>222.66666666666669</ele><time>2026-05-02T09:05:33Z</time></trkpt><trkpt lat="44.834146965178086" lon="1.5616548502033438"><ele>224.0</ele><time>2026-05-02T09:05:34Z</time></trkpt><trkpt lat="44.834304319550625" lon="1.5614159262455054"><ele>220.0</ele><time>2026-05-02T09:05:35Z</time></trkpt><trkpt lat="44.83443483420709" lon="1.56117463721058"><ele>216.0</ele><time>2026-05-02T09:05:36Z</time></trkpt><trkpt lat="44.83458884778667" lon="1.5609474949627296"><ele>212.0</ele><time>2026-05-02T09:05:37Z</time></trkpt><trkpt lat="44.834729042061724" lon="1.56072027189935"><ele>212.0</ele><time>2026-05-02T09:05:38Z</time></trkpt><trkpt lat="44.83486720274117" lon="1.56050299405569"><ele>212.0</ele><time>2026-05-02T09:05:39Z</time></trkpt><trkpt lat="44.834993668250235" lon="1.5602738432477266"><ele>212.0</ele><time>2026-05-02T09:05:40Z</time></trkpt><trkpt lat="44.83513836434716" lon="1.5600907813305378"><ele>210.0</ele><time>2026-05-02T09:05:41Z</time></trkpt><trkpt lat="44.835287103159565" lon="1.55991022941086"><ele>208.0</ele><time>2026-05-02T09:05:42Z</time></trkpt><trkpt lat="44.83545517486267" lon="1.5597886415163194"><ele>206.0</ele><time>2026-05-02T09:05:43Z</time></trkpt><trkpt lat="44.83562133853514" lon="1.5596858570873935"><ele>206.0</ele><time>2026-05-02T09:05:44Z</time></trkpt><trkpt lat="44.835808308063186" lon="1.5595828646958962"><ele>206.0</ele><time>2026-05-02T09:05:45Z</time></trkpt><trkpt lat="44.83601457046706" lon="1.559450208118485"><ele>206.0</ele><time>2026-05-02T09:05:46Z</time></trkpt><trkpt lat="44.83625242076432" lon="1.5593257919285144"><ele>206.5</ele><time>2026-05-02T09:05:47Z</time></trkpt><trkpt lat="44.8364794562278" lon="1.5592012493010483"><ele>207.0</ele><time>2026-05-02T09:05:48Z</time></trkpt><trkpt lat="44.836685951311104" lon="1.5590931406047797"><ele>205.33333333333331</ele><time>2026-05-02T09:05:49Z</time></trkpt><trkpt lat="44.836875365074" lon="1.5590133454363628"><ele>203.66666666666666</ele><time>2026-05-02T09:05:50Z</time></trkpt><trkpt lat="44.837067110058115" lon="1.5589889318431758"><ele>202.0</ele><time>2026-05-02T09:05:51Z</time></trkpt><trkpt lat="44.83724877913065" lon="1.5589460923950431"><ele>202.0</ele><time>2026-05-02T09:05:52Z</time></trkpt><trkpt lat="44.83742825951494" lon="1.5589396899739292"><ele>202.0</ele><time>2026-05-02T09:05:53Z</time></trkpt><trkpt lat="44.837617068324136" lon="1.5589041232049718"><ele>202.0</ele><time>2026-05-02T09:05:54Z</time></trkpt><trkpt lat="44.837802737746976" lon="1.559010810005583"><ele>201.66666666666666</ele><time>2026-05-02T09:05:55Z</time></trkpt><trkpt lat="44.83799432806466" lon="1.5590608839811169"><ele>201.33333333333331</ele><time>2026-05-02T09:05:56Z</time></trkpt><trkpt lat="44.83817891201905" lon="1.5590711508877795"><ele>201.0</ele><time>2026-05-02T09:05:57Z</time></trkpt><trkpt lat="44.83835955466456" lon="1.5590836569064241"><ele>200.0</ele><time>2026-05-02T09:05:58Z</time></trkpt><trkpt lat="44.83852461648244" lon="1.5591439177905628"><ele>199.0</ele><time>2026-05-02T09:05:59Z</time></trkpt><trkpt lat="44.838682830617245" lon="1.5592297521159293"><ele>198.0</ele><time>2026-05-02T09:06:00Z</time></trkpt><trkpt lat="44.838841265117054" lon="1.5592804932219024"><ele>198.0</ele><time>2026-05-02T09:06:01Z</time></trkpt><trkpt lat="44.83899832451234" lon="1.5592891909245095"><ele>198.0</ele><time>2026-05-02T09:06:02Z</time></trkpt><trkpt lat="44.839157632962646" lon="1.559296060618948"><ele>198.0</ele><time>2026-05-02T09:06:03Z</time></trkpt><trkpt lat="44.83931628256696" lon="1.5592873003085004"><ele>195.75</ele><time>2026-05-02T09:06:04Z</time></trkpt><trkpt lat="44.83946417439505" lon="1.559259961450448"><ele>193.5</ele><time>2026-05-02T09:06:05Z</time></trkpt><trkpt lat="44.839604262199664" lon="1.559205925087418"><ele>191.25</ele><time>2026-05-02T09:06:06Z</time></trkpt><trkpt lat="44.83974019104281" lon="1.559148950540437"><ele>189.0</ele><time>2026-05-02T09:06:07Z</time></trkpt><trkpt lat="44.83986235063174" lon="1.5590480317007684"><ele>189.0</ele><time>2026-05-02T09:06:08Z</time></trkpt><trkpt lat="44.839974223458576" lon="1.5589382429394072"><ele>189.0</ele><time>2026-05-02T09:06:09Z</time></trkpt><trkpt lat="44.840013664538944" lon="1.5585944865286436"><ele>189.0</ele><time>2026-05-02T09:06:10Z</time></trkpt><trkpt lat="44.84013711497486" lon="1.5585201266704156"><ele>186.75</ele><time>2026-05-02T09:06:11Z</time></trkpt><trkpt lat="44.84025834278562" lon="1.5584495212771727"><ele>184.5</ele><time>2026-05-02T09:06:12Z</time></trkpt><trkpt lat="44.84038828128626" lon="1.5583738345023401"><ele>182.25</ele><time>2026-05-02T09:06:13Z</time></trkpt><trkpt lat="44.840525960383964" lon="1.5582936412988795"><ele>180.0</ele><time>2026-05-02T09:06:14Z</time></trkpt><trkpt lat="44.8406726097974" lon="1.5582254960332556"><ele>180.0</ele><time>2026-05-02T09:06:15Z</time></trkpt><trkpt lat="44.840785802884" lon="1.5580732091671"><ele>180.0</ele><time>2026-05-02T09:06:16Z</time></trkpt><trkpt lat="44.840913250242224" lon="1.5579674118365658"><ele>180.0</ele><time>2026-05-02T09:06:17Z</time></trkpt><trkpt lat="44.841040376366045" lon="1.5578626820017392"><ele>177.75</ele><time>2026-05-02T09:06:18Z</time></trkpt><trkpt lat="44.84117081286345" lon="1.557770996553592"><ele>175.5</ele><time>2026-05-02T09:06:19Z</time></trkpt><trkpt lat="44.84130105381509" lon="1.5576908614037506"><ele>173.25</ele><time>2026-05-02T09:06:20Z</time></trkpt><trkpt lat="44.84143363328757" lon="1.5576366513539426"><ele>171.0</ele><time>2026-05-02T09:06:21Z</time></trkpt><trkpt lat="44.84156971182244" lon="1.557623030893659"><ele>171.0</ele><time>2026-05-02T09:06:22Z</time></trkpt><trkpt lat="44.84170868136089" lon="1.557649340813692"><ele>171.0</ele><time>2026-05-02T09:06:23Z</time></trkpt><trkpt lat="44.84183784875388" lon="1.557692460760884"><ele>171.0</ele><time>2026-05-02T09:06:24Z</time></trkpt><trkpt lat="44.841963828761116" lon="1.5577183503780678"><ele>171.0</ele><time>2026-05-02T09:06:25Z</time></trkpt><trkpt lat="44.842084215746134" lon="1.5577356685731618"><ele>168.4</ele><time>2026-05-02T09:06:26Z</time></trkpt><trkpt lat="44.84217801305621" lon="1.5577437104271294"><ele>165.8</ele><time>2026-05-02T09:06:27Z</time></trkpt><trkpt lat="44.84226805967321" lon="1.5577233580042287"><ele>163.20000000000002</ele><time>2026-05-02T09:06:28Z</time></trkpt><trkpt lat="44.842350273398736" lon="1.5576538578550587"><ele>160.60000000000002</ele><time>2026-05-02T09:06:29Z</time></trkpt><trkpt lat="44.84242712830511" lon="1.5575552323006543"><ele>158.0</ele><time>2026-05-02T09:06:30Z</time></trkpt><trkpt lat="44.842494774973964" lon="1.5574195788957754"><ele>158.0</ele><time>2026-05-02T09:06:31Z</time></trkpt><trkpt lat="44.84256531017674" lon="1.5572746672520246"><ele>158.0</ele><time>2026-05-02T09:06:32Z</time></trkpt><trkpt lat="44.842643173725115" lon="1.5571324963886295"><ele>158.0</ele><time>2026-05-02T09:06:33Z</time></trkpt><trkpt lat="44.84270307858122" lon="1.5570009234084226"><ele>158.0</ele><time>2026-05-02T09:06:34Z</time></trkpt><trkpt lat="44.842749984255214" lon="1.5568548713375627"><ele>152.75</ele><time>2026-05-02T09:06:35Z</time></trkpt><trkpt lat="44.84277351695044" lon="1.5566971904693252"><ele>147.5</ele><time>2026-05-02T09:06:36Z</time></trkpt><trkpt lat="44.84277340959161" lon="1.5565280719975827"><ele>142.25</ele><time>2026-05-02T09:06:37Z</time></trkpt><trkpt lat="44.84274483818606" lon="1.5563502699417886"><ele>137.0</ele><time>2026-05-02T09:06:38Z</time></trkpt><trkpt lat="44.84268349879293" lon="1.5561742568148353"><ele>139.75</ele><time>2026-05-02T09:06:39Z</time></trkpt><trkpt lat="44.84261168448931" lon="1.5559902584182828"><ele>142.5</ele><time>2026-05-02T09:06:40Z</time></trkpt><trkpt lat="44.842559100502235" lon="1.5557995567067333"><ele>145.25</ele><time>2026-05-02T09:06:41Z</time></trkpt><trkpt lat="44.84251911298898" lon="1.5556057620993382"><ele>148.0</ele><time>2026-05-02T09:06:42Z</time></trkpt><trkpt lat="44.84249557564953" lon="1.5554087225100046"><ele>145.5</ele><time>2026-05-02T09:06:43Z</time></trkpt><trkpt lat="44.84248785912919" lon="1.555210907538708"><ele>143.0</ele><time>2026-05-02T09:06:44Z</time></trkpt><trkpt lat="44.84249209467303" lon="1.5550046378209592"><ele>140.5</ele><time>2026-05-02T09:06:45Z</time></trkpt><trkpt lat="44.842517475705975" lon="1.5547914446931597"><ele>138.0</ele><time>2026-05-02T09:06:46Z</time></trkpt><trkpt lat="44.842563008742346" lon="1.5545780462756766"><ele>135.0</ele><time>2026-05-02T09:06:47Z</time></trkpt><trkpt lat="44.842607337850964" lon="1.5543692197096501"><ele>132.0</ele><time>2026-05-02T09:06:48Z</time></trkpt><trkpt lat="44.842639687881025" lon="1.5541543926487378"><ele>129.0</ele><time>2026-05-02T09:06:49Z</time></trkpt><trkpt lat="44.84266681344139" lon="1.5539382535101116"><ele>128.0</ele><time>2026-05-02T09:06:50Z</time></trkpt><trkpt lat="44.842713112210966" lon="1.5537438380682018"><ele>127.0</ele><time>2026-05-02T09:06:51Z</time></trkpt><trkpt lat="44.842759247843254" lon="1.5535360286433573"><ele>126.0</ele><time>2026-05-02T09:06:52Z</time></trkpt><trkpt lat="44.84280334266725" lon="1.553332023041685"><ele>126.0</ele><time>2026-05-02T09:06:53Z</time></trkpt><trkpt lat="44.84286696024167" lon="1.5531395848589726"><ele>126.0</ele><time>2026-05-02T09:06:54Z</time></trkpt><trkpt lat="44.842936381183904" lon="1.5529715163781135"><ele>126.0</ele><time>2026-05-02T09:06:55Z</time></trkpt><trkpt lat="44.84302005039745" lon="1.5528478002576238"><ele>126.0</ele><time>2026-05-02T09:06:56Z</time></trkpt><trkpt lat="44.84312871199369" lon="1.552763492829475"><ele>126.0</ele><time>2026-05-02T09:06:57Z</time></trkpt><trkpt lat="44.84324869987512" lon="1.5527263312764983"><ele>126.0</ele><time>2026-05-02T09:06:58Z</time></trkpt><trkpt lat="44.84334742174591" lon="1.5527462758284898"><ele>126.0</ele><time>2026-05-02T09:06:59Z</time></trkpt><trkpt lat="44.84341479103343" lon="1.5528110231689882"><ele>126.0</ele><time>2026-05-02T09:07:00Z</time></trkpt><trkpt lat="44.84345838194496" lon="1.5529336424325164"><ele>126.0</ele><time>2026-05-02T09:07:01Z</time></trkpt><trkpt lat="44.84347392378573" lon="1.5530912787465319"><ele>126.0</ele><time>2026-05-02T09:07:02Z</time></trkpt><trkpt lat="44.843467170014414" lon="1.5532619921518878"><ele>126.0</ele><time>2026-05-02T09:07:03Z</time></trkpt><trkpt lat="44.84346304747865" lon="1.5534319404442256"><ele>126.0</ele><time>2026-05-02T09:07:04Z</time></trkpt><trkpt lat="44.8434570103428" lon="1.5536031683790903"><ele>126.0</ele><time>2026-05-02T09:07:05Z</time></trkpt><trkpt lat="44.8434344632134" lon="1.553788557031544"><ele>125.25</ele><time>2026-05-02T09:07:06Z</time></trkpt><trkpt lat="44.84337618034181" lon="1.5539683211520632"><ele>124.5</ele><time>2026-05-02T09:07:07Z</time></trkpt><trkpt lat="44.84336659712883" lon="1.554154743188124"><ele>123.75</ele><time>2026-05-02T09:07:08Z</time></trkpt><trkpt lat="44.843365917053085" lon="1.554335562484462"><ele>123.0</ele><time>2026-05-02T09:07:09Z</time></trkpt><trkpt lat="44.84337309301127" lon="1.554529737183291"><ele>123.5</ele><time>2026-05-02T09:07:10Z</time></trkpt><trkpt lat="44.84338615968743" lon="1.5547265927793181"><ele>124.0</ele><time>2026-05-02T09:07:11Z</time></trkpt><trkpt lat="44.843416255578525" lon="1.5549075086512198"><ele>124.5</ele><time>2026-05-02T09:07:12Z</time></trkpt><trkpt lat="44.843429599642896" lon="1.5550938945603947"><ele>125.0</ele><time>2026-05-02T09:07:13Z</time></trkpt><trkpt lat="44.84344412834404" lon="1.5552577218124193"><ele>120.8</ele><time>2026-05-02T09:07:14Z</time></trkpt><trkpt lat="44.843468273686746" lon="1.5554137173589058"><ele>116.6</ele><time>2026-05-02T09:07:15Z</time></trkpt><trkpt lat="44.843480028136625" lon="1.5555634398089655"><ele>112.4</ele><time>2026-05-02T09:07:16Z</time></trkpt><trkpt lat="44.843506376396" lon="1.555714275324135"><ele>108.2</ele><time>2026-05-02T09:07:17Z</time></trkpt><trkpt lat="44.84354927616847" lon="1.5558547810736902"><ele>104.0</ele><time>2026-05-02T09:07:18Z</time></trkpt><trkpt lat="44.84358757324301" lon="1.5559887141923878"><ele>104.0</ele><time>2026-05-02T09:07:19Z</time></trkpt><trkpt lat="44.843626001420226" lon="1.5561259042981632"><ele>104.0</ele><time>2026-05-02T09:07:20Z</time></trkpt><trkpt lat="44.84366958395307" lon="1.5562643751461631"><ele>104.0</ele><time>2026-05-02T09:07:21Z</time></trkpt><trkpt lat="44.84371458444408" lon="1.5564053999773397"><ele>104.0</ele><time>2026-05-02T09:07:22Z</time></trkpt><trkpt lat="44.84375901791114" lon="1.556548486989461"><ele>104.0</ele><time>2026-05-02T09:07:23Z</time></trkpt><trkpt lat="44.84380114947503" lon="1.556675553440432"><ele>104.16666666666666</ele><time>2026-05-02T09:07:24Z</time></trkpt><trkpt lat="44.84384477061827" lon="1.5567888971073356"><ele>104.33333333333333</ele><time>2026-05-02T09:07:25Z</time></trkpt><trkpt lat="44.84388364020289" lon="1.5568817039224083"><ele>104.5</ele><time>2026-05-02T09:07:26Z</time></trkpt><trkpt lat="44.84393704079973" lon="1.5569412860564524"><ele>104.66666666666666</ele><time>2026-05-02T09:07:27Z</time></trkpt><trkpt lat="44.8440361214834" lon="1.5569464270535611"><ele>104.83333333333333</ele><time>2026-05-02T09:07:29Z</time></trkpt><trkpt lat="44.844110840839875" lon="1.5569118974910152"><ele>105.0</ele><time>2026-05-02T09:07:42Z</time></trkpt><trkpt lat="44.844192089990834" lon="1.55691268214289"><ele>104.66666666666666</ele><time>2026-05-02T09:07:43Z</time></trkpt><trkpt lat="44.84431718551038" lon="1.5569160356884788"><ele>104.33333333333333</ele><time>2026-05-02T09:07:44Z</time></trkpt><trkpt lat="44.84447580709199" lon="1.5568907683484488"><ele>104.0</ele><time>2026-05-02T09:07:45Z</time></trkpt><trkpt lat="44.844644762155674" lon="1.5568478813209772"><ele>104.0</ele><time>2026-05-02T09:07:46Z</time></trkpt><trkpt lat="44.844775906751714" lon="1.5568226211350291"><ele>104.0</ele><time>2026-05-02T09:07:47Z</time></trkpt><trkpt lat="44.844888198843435" lon="1.5568382465919683"><ele>104.0</ele><time>2026-05-02T09:07:48Z</time></trkpt><trkpt lat="44.84498442949241" lon="1.5569287559702902"><ele>104.0</ele><time>2026-05-02T09:07:49Z</time></trkpt><trkpt lat="44.8450945207861" lon="1.5569926717268925"><ele>105.25</ele><time>2026-05-02T09:07:50Z</time></trkpt><trkpt lat="44.84520386968048" lon="1.5570881537686168"><ele>106.5</ele><time>2026-05-02T09:07:50.999Z</time></trkpt><trkpt lat="44.84532164175225" lon="1.5571776593366053"><ele>107.75</ele><time>2026-05-02T09:07:51.999Z</time></trkpt><trkpt lat="44.84542986536605" lon="1.5572700763118623"><ele>109.0</ele><time>2026-05-02T09:07:52.999Z</time></trkpt><trkpt lat="44.845525717816166" lon="1.557376708486848"><ele>109.0</ele><time>2026-05-02T09:07:53.999Z</time></trkpt><trkpt lat="44.84558831492799" lon="1.5575096756175106"><ele>109.0</ele><time>2026-05-02T09:07:54.999Z</time></trkpt><trkpt lat="44.845670678014095" lon="1.5576318273007468"><ele>109.0</ele><time>2026-05-02T09:07:55.999Z</time></trkpt><trkpt lat="44.84576327634958" lon="1.557735570439436"><ele>109.0</ele><time>2026-05-02T09:07:56.999Z</time></trkpt><trkpt lat="44.845843430710865" lon="1.5578272572668876"><ele>107.66666666666667</ele><time>2026-05-02T09:07:57.999Z</time></trkpt><trkpt lat="44.84591590520143" lon="1.557901851406015"><ele>106.33333333333334</ele><time>2026-05-02T09:07:58.999Z</time></trkpt><trkpt lat="44.84596538592347" lon="1.5580034455653335"><ele>105.0</ele><time>2026-05-02T09:07:59.999Z</time></trkpt><trkpt lat="44.84601659922929" lon="1.5580957492192549"><ele>103.66666666666666</ele><time>2026-05-02T09:08:00.999Z</time></trkpt><trkpt lat="44.846061429644244" lon="1.5581974030702512"><ele>102.33333333333333</ele><time>2026-05-02T09:08:02Z</time></trkpt><trkpt lat="44.846112925081" lon="1.5583018213581248"><ele>101.0</ele><time>2026-05-02T09:08:03Z</time></trkpt><trkpt lat="44.84613576766523" lon="1.5584416212869268"><ele>101.0</ele><time>2026-05-02T09:08:04Z</time></trkpt><trkpt lat="44.84616024414524" lon="1.5585878848934689"><ele>101.0</ele><time>2026-05-02T09:08:05Z</time></trkpt><trkpt lat="44.846174560050436" lon="1.5587418743863306"><ele>101.0</ele><time>2026-05-02T09:08:06Z</time></trkpt><trkpt lat="44.84619397831959" lon="1.5589022721042904"><ele>101.0</ele><time>2026-05-02T09:08:07Z</time></trkpt><trkpt lat="44.846201346499555" lon="1.559077688657309"><ele>101.5</ele><time>2026-05-02T09:08:08Z</time></trkpt><trkpt lat="44.84623388469023" lon="1.559264810727229"><ele>102.0</ele><time>2026-05-02T09:08:09Z</time></trkpt><trkpt lat="44.846290085627956" lon="1.5594511777505293"><ele>102.5</ele><time>2026-05-02T09:08:10Z</time></trkpt><trkpt lat="44.84634777718232" lon="1.5596344878654715"><ele>103.0</ele><time>2026-05-02T09:08:11Z</time></trkpt><trkpt lat="44.84635756077007" lon="1.5598468468579005"><ele>105.0</ele><time>2026-05-02T09:08:12Z</time></trkpt><trkpt lat="44.84641636438661" lon="1.5600409898845073"><ele>107.0</ele><time>2026-05-02T09:08:13Z</time></trkpt><trkpt lat="44.84647355456014" lon="1.5602480679001247"><ele>109.0</ele><time>2026-05-02T09:08:14Z</time></trkpt><trkpt lat="44.846556031555025" lon="1.5604556109935879"><ele>113.33333333333334</ele><time>2026-05-02T09:08:15Z</time></trkpt><trkpt lat="44.84664134423751" lon="1.5606692507868352"><ele>117.66666666666666</ele><time>2026-05-02T09:08:16Z</time></trkpt><trkpt lat="44.8467137401588" lon="1.560888693718818"><ele>122.0</ele><time>2026-05-02T09:08:17Z</time></trkpt><trkpt lat="44.84678992451335" lon="1.5611115836569474"><ele>115.33333333333333</ele><time>2026-05-02T09:08:18Z</time></trkpt><trkpt lat="44.84686968318164" lon="1.5613283401534483"><ele>108.66666666666666</ele><time>2026-05-02T09:08:19Z</time></trkpt><trkpt lat="44.84693086568112" lon="1.561563199053873"><ele>102.0</ele><time>2026-05-02T09:08:20Z</time></trkpt><trkpt lat="44.847001632888706" lon="1.5618027666319403"><ele>102.0</ele><time>2026-05-02T09:08:21Z</time></trkpt><trkpt lat="44.84710203518345" lon="1.562027975405794"><ele>102.0</ele><time>2026-05-02T09:08:22Z</time></trkpt><trkpt lat="44.84719186175975" lon="1.562218681140674"><ele>102.0</ele><time>2026-05-02T09:08:23Z</time></trkpt><trkpt lat="44.847254738410975" lon="1.5623721527537002"><ele>103.0</ele><time>2026-05-02T09:08:24Z</time></trkpt><trkpt lat="44.8472990854329" lon="1.5625234676258186"><ele>104.0</ele><time>2026-05-02T09:08:25Z</time></trkpt><trkpt lat="44.84732264581557" lon="1.5626943755624225"><ele>105.0</ele><time>2026-05-02T09:08:26Z</time></trkpt><trkpt lat="44.84726804571636" lon="1.5628598013167692"><ele>106.0</ele><time>2026-05-02T09:08:27Z</time></trkpt><trkpt lat="44.84726073111731" lon="1.5630307141025224"><ele>108.0</ele><time>2026-05-02T09:08:28Z</time></trkpt><trkpt lat="44.84727014862239" lon="1.563142103775721"><ele>110.0</ele><time>2026-05-02T09:08:29Z</time></trkpt><trkpt lat="44.84731861972912" lon="1.5632527614527496"><ele>112.0</ele><time>2026-05-02T09:08:30Z</time></trkpt><trkpt lat="44.84742619144652" lon="1.5633273013936917"><ele>114.0</ele><time>2026-05-02T09:08:31Z</time></trkpt><trkpt lat="44.84756224371882" lon="1.563327249293015"><ele>116.0</ele><time>2026-05-02T09:08:32Z</time></trkpt><trkpt lat="44.8477174919413" lon="1.5632559858468202"><ele>117.33333333333333</ele><time>2026-05-02T09:08:33Z</time></trkpt><trkpt lat="44.8479166312225" lon="1.5631450908077613"><ele>118.66666666666666</ele><time>2026-05-02T09:08:34Z</time></trkpt><trkpt lat="44.84812039651518" lon="1.5631934609494502"><ele>120.0</ele><time>2026-05-02T09:08:35Z</time></trkpt><trkpt lat="44.84833574377349" lon="1.5632631827068766"><ele>114.5</ele><time>2026-05-02T09:08:36Z</time></trkpt><trkpt lat="44.84857537635242" lon="1.5633191416529326"><ele>109.0</ele><time>2026-05-02T09:08:37Z</time></trkpt><trkpt lat="44.84878306705338" lon="1.5634354098853314"><ele>109.0</ele><time>2026-05-02T09:08:38Z</time></trkpt><trkpt lat="44.84899010841627" lon="1.5635342469006515"><ele>109.0</ele><time>2026-05-02T09:08:39Z</time></trkpt><trkpt lat="44.849226019019156" lon="1.563629697849648"><ele>122.5</ele><time>2026-05-02T09:08:40Z</time></trkpt><trkpt lat="44.84946951236964" lon="1.5637404874036194"><ele>136.0</ele><time>2026-05-02T09:08:41Z</time></trkpt><trkpt lat="44.849713603329924" lon="1.5638790577259158"><ele>136.0</ele><time>2026-05-02T09:08:42Z</time></trkpt><trkpt lat="44.84992829045236" lon="1.563988276990493"><ele>136.0</ele><time>2026-05-02T09:08:43Z</time></trkpt><trkpt lat="44.850127685112845" lon="1.5641077102241145"><ele>136.0</ele><time>2026-05-02T09:08:44Z</time></trkpt><trkpt lat="44.85031755599552" lon="1.5642222992014565"><ele>128.0</ele><time>2026-05-02T09:08:45Z</time></trkpt><trkpt lat="44.850497801326256" lon="1.5643034134060818"><ele>120.0</ele><time>2026-05-02T09:08:46Z</time></trkpt><trkpt lat="44.8506648708028" lon="1.564401373533149"><ele>112.0</ele><time>2026-05-02T09:08:47Z</time></trkpt><trkpt lat="44.850812850476714" lon="1.5645122232879372"><ele>116.33333333333334</ele><time>2026-05-02T09:08:48Z</time></trkpt><trkpt lat="44.850962026395024" lon="1.5646054498057327"><ele>120.66666666666666</ele><time>2026-05-02T09:08:49Z</time></trkpt><trkpt lat="44.85110921498019" lon="1.5647089922669764"><ele>125.0</ele><time>2026-05-02T09:08:50Z</time></trkpt><trkpt lat="44.8512612661683" lon="1.5648316211275781"><ele>125.0</ele><time>2026-05-02T09:08:51Z</time></trkpt><trkpt lat="44.85141324008864" lon="1.5649548565712645"><ele>125.0</ele><time>2026-05-02T09:08:52Z</time></trkpt><trkpt lat="44.851561849784424" lon="1.5650467587983234"><ele>125.0</ele><time>2026-05-02T09:08:53Z</time></trkpt><trkpt lat="44.85171001770684" lon="1.5651392199526835"><ele>125.66666666666666</ele><time>2026-05-02T09:08:54Z</time></trkpt><trkpt lat="44.85186686527453" lon="1.5652231047229248"><ele>126.33333333333334</ele><time>2026-05-02T09:08:55Z</time></trkpt><trkpt lat="44.85201400640915" lon="1.5653213919691054"><ele>127.0</ele><time>2026-05-02T09:08:56Z</time></trkpt><trkpt lat="44.85215494512884" lon="1.5653935411353448"><ele>127.0</ele><time>2026-05-02T09:08:57Z</time></trkpt><trkpt lat="44.852297163332416" lon="1.5654405893331156"><ele>127.0</ele><time>2026-05-02T09:08:58Z</time></trkpt><trkpt lat="44.852436556001216" lon="1.565510424523868"><ele>127.0</ele><time>2026-05-02T09:08:59Z</time></trkpt><trkpt lat="44.85256954595927" lon="1.5655632023539523"><ele>127.0</ele><time>2026-05-02T09:09:00Z</time></trkpt><trkpt lat="44.85269765615741" lon="1.5656000208992236"><ele>125.0</ele><time>2026-05-02T09:09:01Z</time></trkpt><trkpt lat="44.85283823561157" lon="1.5656348267198013"><ele>123.0</ele><time>2026-05-02T09:09:02Z</time></trkpt><trkpt lat="44.852987380254305" lon="1.5656695235154998"><ele>121.0</ele><time>2026-05-02T09:09:03Z</time></trkpt><trkpt lat="44.85314571878621" lon="1.565700223436069"><ele>121.0</ele><time>2026-05-02T09:09:04Z</time></trkpt><trkpt lat="44.85329499058359" lon="1.5657313325881328"><ele>121.0</ele><time>2026-05-02T09:09:05Z</time></trkpt><trkpt lat="44.85344637194439" lon="1.5657547667761147"><ele>121.0</ele><time>2026-05-02T09:09:06Z</time></trkpt><trkpt lat="44.85359529897194" lon="1.5657798002666807"><ele>119.33333333333334</ele><time>2026-05-02T09:09:07Z</time></trkpt><trkpt lat="44.85375972024606" lon="1.565800596704318"><ele>117.66666666666666</ele><time>2026-05-02T09:09:08Z</time></trkpt><trkpt lat="44.85392315058408" lon="1.565848934704287"><ele>116.0</ele><time>2026-05-02T09:09:09Z</time></trkpt><trkpt lat="44.85409742135038" lon="1.565857793579961"><ele>116.0</ele><time>2026-05-02T09:09:10Z</time></trkpt><trkpt lat="44.85427397003146" lon="1.5658898863070851"><ele>116.0</ele><time>2026-05-02T09:09:11Z</time></trkpt><trkpt lat="44.85445309447853" lon="1.5659182980615605"><ele>116.0</ele><time>2026-05-02T09:09:12Z</time></trkpt><trkpt lat="44.85463526022225" lon="1.5659438987411236"><ele>114.33333333333333</ele><time>2026-05-02T09:09:13Z</time></trkpt><trkpt lat="44.85483926625171" lon="1.5659951530867249"><ele>112.66666666666666</ele><time>2026-05-02T09:09:14Z</time></trkpt><trkpt lat="44.8550715660508" lon="1.566030978943558"><ele>111.0</ele><time>2026-05-02T09:09:15Z</time></trkpt><trkpt lat="44.85532160441728" lon="1.5660659391698737"><ele>108.0</ele><time>2026-05-02T09:09:16Z</time></trkpt><trkpt lat="44.855598368954944" lon="1.5660919237007145"><ele>105.0</ele><time>2026-05-02T09:09:17Z</time></trkpt><trkpt lat="44.8558884888271" lon="1.5661145075686962"><ele>104.5</ele><time>2026-05-02T09:09:18Z</time></trkpt><trkpt lat="44.856194858429916" lon="1.5661477186077282"><ele>104.0</ele><time>2026-05-02T09:09:19Z</time></trkpt><trkpt lat="44.85651314705609" lon="1.5661822216970929"><ele>121.0</ele><time>2026-05-02T09:09:20Z</time></trkpt><trkpt lat="44.85683409224448" lon="1.5662133731546755"><ele>138.0</ele><time>2026-05-02T09:09:21Z</time></trkpt><trkpt lat="44.85713809218849" lon="1.5662542304165785"><ele>138.0</ele><time>2026-05-02T09:09:22Z</time></trkpt><trkpt lat="44.85742557411028" lon="1.5662908495042853"><ele>138.0</ele><time>2026-05-02T09:09:23Z</time></trkpt><trkpt lat="44.85771836029754" lon="1.5663066642017633"><ele>134.0</ele><time>2026-05-02T09:09:24Z</time></trkpt><trkpt lat="44.858012324379644" lon="1.5663014347672553"><ele>130.0</ele><time>2026-05-02T09:09:25Z</time></trkpt><trkpt lat="44.85831198583192" lon="1.5662737760616592"><ele>129.5</ele><time>2026-05-02T09:09:26Z</time></trkpt><trkpt lat="44.858590150720055" lon="1.5662308078706904"><ele>129.0</ele><time>2026-05-02T09:09:27Z</time></trkpt><trkpt lat="44.85882604687891" lon="1.5661921703764103"><ele>122.33333333333334</ele><time>2026-05-02T09:09:28Z</time></trkpt><trkpt lat="44.85904430059093" lon="1.5661568265002042"><ele>115.66666666666667</ele><time>2026-05-02T09:09:29Z</time></trkpt><trkpt lat="44.85925757356478" lon="1.5661232092555213"><ele>109.0</ele><time>2026-05-02T09:09:30Z</time></trkpt><trkpt lat="44.859455179766826" lon="1.566089270484963"><ele>109.0</ele><time>2026-05-02T09:09:31Z</time></trkpt><trkpt lat="44.85964958723345" lon="1.5660162321497675"><ele>109.0</ele><time>2026-05-02T09:09:32Z</time></trkpt><trkpt lat="44.8598477844011" lon="1.565958942122982"><ele>109.0</ele><time>2026-05-02T09:09:33Z</time></trkpt><trkpt lat="44.86004260722182" lon="1.5658434138801762"><ele>113.5</ele><time>2026-05-02T09:09:34Z</time></trkpt><trkpt lat="44.860231502789105" lon="1.5656635639615275"><ele>118.0</ele><time>2026-05-02T09:09:35Z</time></trkpt><trkpt lat="44.860430844406416" lon="1.5654607341626248"><ele>113.0</ele><time>2026-05-02T09:09:36Z</time></trkpt><trkpt lat="44.86064740365454" lon="1.565239203427182"><ele>108.0</ele><time>2026-05-02T09:09:37Z</time></trkpt><trkpt lat="44.860849428752914" lon="1.5650312498327312"><ele>109.33333333333334</ele><time>2026-05-02T09:09:38Z</time></trkpt><trkpt lat="44.86102496088213" lon="1.5648505665256134"><ele>110.66666666666667</ele><time>2026-05-02T09:09:39Z</time></trkpt><trkpt lat="44.861181053649716" lon="1.5646860054568548"><ele>112.0</ele><time>2026-05-02T09:09:40Z</time></trkpt><trkpt lat="44.86132566434642" lon="1.5645343878047706"><ele>109.33333333333334</ele><time>2026-05-02T09:09:41Z</time></trkpt><trkpt lat="44.86146979799465" lon="1.5643893819741994"><ele>106.66666666666666</ele><time>2026-05-02T09:09:42Z</time></trkpt><trkpt lat="44.86161549110048" lon="1.56426633612382"><ele>104.0</ele><time>2026-05-02T09:09:43Z</time></trkpt><trkpt lat="44.861759356984685" lon="1.564168515073601"><ele>104.0</ele><time>2026-05-02T09:09:44Z</time></trkpt><trkpt lat="44.86191715660771" lon="1.5640755648297795"><ele>104.0</ele><time>2026-05-02T09:09:45Z</time></trkpt><trkpt lat="44.8620849320525" lon="1.5640168367079628"><ele>104.0</ele><time>2026-05-02T09:09:46Z</time></trkpt><trkpt lat="44.862243706393556" lon="1.5639507445061491"><ele>104.0</ele><time>2026-05-02T09:09:47Z</time></trkpt><trkpt lat="44.862414065357996" lon="1.5638668149822978"><ele>104.0</ele><time>2026-05-02T09:09:48Z</time></trkpt><trkpt lat="44.862571100646385" lon="1.563763141900045"><ele>104.0</ele><time>2026-05-02T09:09:49Z</time></trkpt><trkpt lat="44.86271059801184" lon="1.5636418922034816"><ele>106.33333333333333</ele><time>2026-05-02T09:09:50Z</time></trkpt><trkpt lat="44.86283608059315" lon="1.5634783341333853"><ele>108.66666666666666</ele><time>2026-05-02T09:09:50.999Z</time></trkpt><trkpt lat="44.86295923935534" lon="1.5632783101196013"><ele>111.0</ele><time>2026-05-02T09:09:51.999Z</time></trkpt><trkpt lat="44.863077874614966" lon="1.5630546617253829"><ele>110.0</ele><time>2026-05-02T09:09:52.999Z</time></trkpt><trkpt lat="44.86316681628122" lon="1.5628338821746581"><ele>109.0</ele><time>2026-05-02T09:09:53.999Z</time></trkpt><trkpt lat="44.86325294443434" lon="1.5626442954268545"><ele>108.0</ele><time>2026-05-02T09:09:54.999Z</time></trkpt><trkpt lat="44.86334391867863" lon="1.5624681591304275"><ele>108.0</ele><time>2026-05-02T09:09:55.999Z</time></trkpt><trkpt lat="44.863441908601196" lon="1.5622780983616316"><ele>108.0</ele><time>2026-05-02T09:09:56.999Z</time></trkpt><trkpt lat="44.863558957409126" lon="1.5621146072550203"><ele>108.0</ele><time>2026-05-02T09:09:57.999Z</time></trkpt><trkpt lat="44.86370582584058" lon="1.5619880537368214"><ele>106.66666666666666</ele><time>2026-05-02T09:09:58.999Z</time></trkpt><trkpt lat="44.86386621771486" lon="1.561909504622567"><ele>105.33333333333333</ele><time>2026-05-02T09:09:59.999Z</time></trkpt><trkpt lat="44.86403423716181" lon="1.561882414797306"><ele>104.0</ele><time>2026-05-02T09:10:00.999Z</time></trkpt><trkpt lat="44.86422735462086" lon="1.561856715004529"><ele>104.33333333333333</ele><time>2026-05-02T09:10:01.999Z</time></trkpt><trkpt lat="44.86441521020747" lon="1.5618288393516062"><ele>104.66666666666666</ele><time>2026-05-02T09:10:02.999Z</time></trkpt><trkpt lat="44.864594565550235" lon="1.5618067830098945"><ele>105.0</ele><time>2026-05-02T09:10:03.999Z</time></trkpt><trkpt lat="44.86478111016682" lon="1.5618135135841096"><ele>105.0</ele><time>2026-05-02T09:10:04.999Z</time></trkpt><trkpt lat="44.8649818237831" lon="1.5618429762473338"><ele>105.0</ele><time>2026-05-02T09:10:05.999Z</time></trkpt><trkpt lat="44.865175048318434" lon="1.5618929103461268"><ele>105.0</ele><time>2026-05-02T09:10:06.999Z</time></trkpt><trkpt lat="44.86535797791691" lon="1.5619632523144777"><ele>107.0</ele><time>2026-05-02T09:10:08Z</time></trkpt><trkpt lat="44.86554037835629" lon="1.5620621712767393"><ele>109.0</ele><time>2026-05-02T09:10:09Z</time></trkpt><trkpt lat="44.86570412775071" lon="1.5621785026887778"><ele>111.0</ele><time>2026-05-02T09:10:10Z</time></trkpt><trkpt lat="44.86587182133958" lon="1.562312482701847"><ele>107.66666666666666</ele><time>2026-05-02T09:10:11Z</time></trkpt><trkpt lat="44.86603855662262" lon="1.5624691660416579"><ele>104.33333333333333</ele><time>2026-05-02T09:10:12Z</time></trkpt><trkpt lat="44.866184637990514" lon="1.5626476171084351"><ele>101.0</ele><time>2026-05-02T09:10:13Z</time></trkpt><trkpt lat="44.866320178965125" lon="1.5628468873232497"><ele>104.0</ele><time>2026-05-02T09:10:14Z</time></trkpt><trkpt lat="44.86645693906133" lon="1.5630533566507296"><ele>107.0</ele><time>2026-05-02T09:10:15Z</time></trkpt><trkpt lat="44.866605835929334" lon="1.5632483518286937"><ele>110.0</ele><time>2026-05-02T09:10:16Z</time></trkpt><trkpt lat="44.866747890785106" lon="1.563452455182946"><ele>107.66666666666666</ele><time>2026-05-02T09:10:17Z</time></trkpt><trkpt lat="44.86689095269699" lon="1.563691960610253"><ele>105.33333333333334</ele><time>2026-05-02T09:10:18Z</time></trkpt><trkpt lat="44.86701310942341" lon="1.5639305930394463"><ele>103.0</ele><time>2026-05-02T09:10:19Z</time></trkpt><trkpt lat="44.8671443982389" lon="1.5641499386445197"><ele>103.0</ele><time>2026-05-02T09:10:20Z</time></trkpt><trkpt lat="44.86727205004168" lon="1.5643740516621882"><ele>103.0</ele><time>2026-05-02T09:10:21Z</time></trkpt><trkpt lat="44.8673958818521" lon="1.5646040510910266"><ele>103.0</ele><time>2026-05-02T09:10:22Z</time></trkpt><trkpt lat="44.86751124812959" lon="1.56483304245677"><ele>103.0</ele><time>2026-05-02T09:10:23Z</time></trkpt><trkpt lat="44.867616842904525" lon="1.5650560280001786"><ele>103.0</ele><time>2026-05-02T09:10:24Z</time></trkpt><trkpt lat="44.86772325689315" lon="1.565292739947633"><ele>103.0</ele><time>2026-05-02T09:10:25Z</time></trkpt><trkpt lat="44.86783155238731" lon="1.565532539104875"><ele>103.0</ele><time>2026-05-02T09:10:26Z</time></trkpt><trkpt lat="44.867925210934175" lon="1.565763308929788"><ele>103.0</ele><time>2026-05-02T09:10:27Z</time></trkpt><trkpt lat="44.86802448217358" lon="1.5660023764397486"><ele>103.0</ele><time>2026-05-02T09:10:28Z</time></trkpt><trkpt lat="44.868106448931826" lon="1.5662652019152956"><ele>105.0</ele><time>2026-05-02T09:10:29Z</time></trkpt><trkpt lat="44.868189398290525" lon="1.5665499015385502"><ele>107.0</ele><time>2026-05-02T09:10:30Z</time></trkpt><trkpt lat="44.86825267435421" lon="1.5668257887243509"><ele>109.0</ele><time>2026-05-02T09:10:31Z</time></trkpt><trkpt lat="44.86833099417935" lon="1.567076404538372"><ele>106.33333333333334</ele><time>2026-05-02T09:10:32Z</time></trkpt><trkpt lat="44.86840312409309" lon="1.567310490707564"><ele>103.66666666666666</ele><time>2026-05-02T09:10:33Z</time></trkpt><trkpt lat="44.868470277966345" lon="1.5675497444567232"><ele>101.0</ele><time>2026-05-02T09:10:34Z</time></trkpt><trkpt lat="44.86853439286529" lon="1.567780904452429"><ele>102.0</ele><time>2026-05-02T09:10:35Z</time></trkpt><trkpt lat="44.86858894141193" lon="1.5680303156430855"><ele>103.0</ele><time>2026-05-02T09:10:36Z</time></trkpt><trkpt lat="44.86861008137643" lon="1.5682906637793312"><ele>104.0</ele><time>2026-05-02T09:10:37Z</time></trkpt><trkpt lat="44.86859697197356" lon="1.5685779560719584"><ele>105.0</ele><time>2026-05-02T09:10:38Z</time></trkpt><trkpt lat="44.86858556191278" lon="1.568924181518744"><ele>106.0</ele><time>2026-05-02T09:10:39Z</time></trkpt><trkpt lat="44.86857432498896" lon="1.5693011824456515"><ele>107.0</ele><time>2026-05-02T09:10:40Z</time></trkpt><trkpt lat="44.868561544619254" lon="1.5697010216311764"><ele>108.0</ele><time>2026-05-02T09:10:41Z</time></trkpt><trkpt lat="44.86853274136651" lon="1.570093218810681"><ele>107.5</ele><time>2026-05-02T09:10:42Z</time></trkpt><trkpt lat="44.8684808161283" lon="1.5705213838289702"><ele>107.0</ele><time>2026-05-02T09:10:43Z</time></trkpt><trkpt lat="44.86846080342985" lon="1.5709646150471384"><ele>107.0</ele><time>2026-05-02T09:10:44Z</time></trkpt><trkpt lat="44.868460752391286" lon="1.5714005667471547"><ele>107.0</ele><time>2026-05-02T09:10:45Z</time></trkpt><trkpt lat="44.86845711530235" lon="1.5717972235381485"><ele>108.5</ele><time>2026-05-02T09:10:46Z</time></trkpt><trkpt lat="44.86845226557005" lon="1.5721511734849243"><ele>110.0</ele><time>2026-05-02T09:10:47Z</time></trkpt><trkpt lat="44.8684654829421" lon="1.5724680495808439"><ele>110.0</ele><time>2026-05-02T09:10:48Z</time></trkpt><trkpt lat="44.86847576784965" lon="1.572762976791617"><ele>110.0</ele><time>2026-05-02T09:10:49Z</time></trkpt><trkpt lat="44.86845232028565" lon="1.57306492126292"><ele>110.0</ele><time>2026-05-02T09:10:50Z</time></trkpt><trkpt lat="44.86844446406117" lon="1.5733500468028099"><ele>108.0</ele><time>2026-05-02T09:10:51Z</time></trkpt><trkpt lat="44.86847253404306" lon="1.5736025819283586"><ele>106.0</ele><time>2026-05-02T09:10:52Z</time></trkpt><trkpt lat="44.86846932133264" lon="1.5738339278114848"><ele>104.0</ele><time>2026-05-02T09:10:53Z</time></trkpt><trkpt lat="44.86843658838399" lon="1.5740649289467836"><ele>115.33333333333333</ele><time>2026-05-02T09:10:54Z</time></trkpt><trkpt lat="44.86839835477562" lon="1.5743483008420873"><ele>126.66666666666666</ele><time>2026-05-02T09:10:55Z</time></trkpt><trkpt lat="44.86837204026563" lon="1.5746433037944911"><ele>138.0</ele><time>2026-05-02T09:10:56Z</time></trkpt><trkpt lat="44.86835014986704" lon="1.574908606546666"><ele>138.0</ele><time>2026-05-02T09:10:57Z</time></trkpt><trkpt lat="44.86833348730857" lon="1.5751274098719765"><ele>138.0</ele><time>2026-05-02T09:10:58Z</time></trkpt><trkpt lat="44.86830389790833" lon="1.575341749225291"><ele>138.0</ele><time>2026-05-02T09:10:59Z</time></trkpt><trkpt lat="44.86824616491575" lon="1.5755757976867104"><ele>130.33333333333334</ele><time>2026-05-02T09:11:00Z</time></trkpt><trkpt lat="44.868181639736555" lon="1.575848832683708"><ele>122.66666666666667</ele><time>2026-05-02T09:11:01Z</time></trkpt><trkpt lat="44.868120566159774" lon="1.5761463708744683"><ele>115.0</ele><time>2026-05-02T09:11:02Z</time></trkpt><trkpt lat="44.86803848780925" lon="1.5764497709048946"><ele>110.0</ele><time>2026-05-02T09:11:03Z</time></trkpt><trkpt lat="44.867929920718026" lon="1.5767403298511846"><ele>105.0</ele><time>2026-05-02T09:11:04Z</time></trkpt><trkpt lat="44.867818574700614" lon="1.5770369822861345"><ele>103.5</ele><time>2026-05-02T09:11:05Z</time></trkpt><trkpt lat="44.86773295420399" lon="1.577352558428901"><ele>102.0</ele><time>2026-05-02T09:11:06Z</time></trkpt><trkpt lat="44.86764087502093" lon="1.5776888619219214"><ele>106.5</ele><time>2026-05-02T09:11:07Z</time></trkpt><trkpt lat="44.86752610261694" lon="1.5780333619117115"><ele>111.0</ele><time>2026-05-02T09:11:08Z</time></trkpt><trkpt lat="44.867424678908655" lon="1.578349568570759"><ele>111.0</ele><time>2026-05-02T09:11:09Z</time></trkpt><trkpt lat="44.86732793781007" lon="1.578640748027161"><ele>111.0</ele><time>2026-05-02T09:11:10Z</time></trkpt><trkpt lat="44.86724620462163" lon="1.5788883926345183"><ele>111.0</ele><time>2026-05-02T09:11:11Z</time></trkpt><trkpt lat="44.86717433597509" lon="1.579109896609756"><ele>109.25</ele><time>2026-05-02T09:11:12Z</time></trkpt><trkpt lat="44.86710902194755" lon="1.5793111988165853"><ele>107.5</ele><time>2026-05-02T09:11:13Z</time></trkpt><trkpt lat="44.867048148610806" lon="1.5794872964725286"><ele>105.75</ele><time>2026-05-02T09:11:14Z</time></trkpt><trkpt lat="44.866987481188154" lon="1.5796532005841843"><ele>104.0</ele><time>2026-05-02T09:11:15Z</time></trkpt><trkpt lat="44.86695174280931" lon="1.5798048716851671"><ele>103.75</ele><time>2026-05-02T09:11:16Z</time></trkpt><trkpt lat="44.86691686733823" lon="1.5799378916312121"><ele>103.5</ele><time>2026-05-02T09:11:17Z</time></trkpt><trkpt lat="44.86690794145145" lon="1.5801114089355306"><ele>103.25</ele><time>2026-05-02T09:11:18Z</time></trkpt><trkpt lat="44.866959087173676" lon="1.5803293599825066"><ele>103.0</ele><time>2026-05-02T09:11:19Z</time></trkpt><trkpt lat="44.86705117534845" lon="1.5805045005950253"><ele>102.66666666666667</ele><time>2026-05-02T09:11:20Z</time></trkpt><trkpt lat="44.86719266962076" lon="1.5806047043839417"><ele>102.33333333333334</ele><time>2026-05-02T09:11:21Z</time></trkpt><trkpt lat="44.86739677562924" lon="1.5807010072370211"><ele>102.0</ele><time>2026-05-02T09:11:22Z</time></trkpt><trkpt lat="44.86760179277453" lon="1.5808476778140015"><ele>102.5</ele><time>2026-05-02T09:11:23Z</time></trkpt><trkpt lat="44.86782689132054" lon="1.581012398054506"><ele>103.0</ele><time>2026-05-02T09:11:24Z</time></trkpt><trkpt lat="44.868050216458286" lon="1.5811689754918645"><ele>102.5</ele><time>2026-05-02T09:11:25Z</time></trkpt><trkpt lat="44.86826080910154" lon="1.5813208636555987"><ele>102.0</ele><time>2026-05-02T09:11:26Z</time></trkpt><trkpt lat="44.868460961339444" lon="1.5814627426318897"><ele>102.0</ele><time>2026-05-02T09:11:27Z</time></trkpt><trkpt lat="44.86865029953505" lon="1.5815944703917988"><ele>102.0</ele><time>2026-05-02T09:11:28Z</time></trkpt><trkpt lat="44.86882755642949" lon="1.581717653726194"><ele>102.0</ele><time>2026-05-02T09:11:29Z</time></trkpt><trkpt lat="44.86899495667167" lon="1.5818330794251065"><ele>102.0</ele><time>2026-05-02T09:11:30Z</time></trkpt><trkpt lat="44.86916216110989" lon="1.5819271707364915"><ele>102.0</ele><time>2026-05-02T09:11:31Z</time></trkpt><trkpt lat="44.869332628933385" lon="1.5820545536783635"><ele>102.0</ele><time>2026-05-02T09:11:32Z</time></trkpt><trkpt lat="44.86950562392855" lon="1.5821800755238888"><ele>103.0</ele><time>2026-05-02T09:11:33Z</time></trkpt><trkpt lat="44.86966833192893" lon="1.5822894843968969"><ele>104.0</ele><time>2026-05-02T09:11:34Z</time></trkpt><trkpt lat="44.869811387022274" lon="1.5823916384187415"><ele>105.0</ele><time>2026-05-02T09:11:35Z</time></trkpt><trkpt lat="44.86994417953187" lon="1.5824846046904089"><ele>105.0</ele><time>2026-05-02T09:11:36Z</time></trkpt><trkpt lat="44.87007467861736" lon="1.5825720210852048"><ele>105.0</ele><time>2026-05-02T09:11:37Z</time></trkpt><trkpt lat="44.87019458168449" lon="1.5826396917393437"><ele>105.0</ele><time>2026-05-02T09:11:38Z</time></trkpt><trkpt lat="44.87029822971936" lon="1.5826569109567066"><ele>105.0</ele><time>2026-05-02T09:11:39Z</time></trkpt><trkpt lat="44.87040390536968" lon="1.582634780867279"><ele>105.66666666666666</ele><time>2026-05-02T09:11:40Z</time></trkpt><trkpt lat="44.870526104814864" lon="1.5825410863363438"><ele>106.33333333333333</ele><time>2026-05-02T09:11:41Z</time></trkpt><trkpt lat="44.87067345836207" lon="1.5824077799762342"><ele>107.0</ele><time>2026-05-02T09:11:42Z</time></trkpt><trkpt lat="44.87081891605556" lon="1.5822708628047462"><ele>107.0</ele><time>2026-05-02T09:11:43Z</time></trkpt><trkpt lat="44.87093785345406" lon="1.5821497623250245"><ele>107.0</ele><time>2026-05-02T09:11:44Z</time></trkpt><trkpt lat="44.87104303249499" lon="1.5820503407421076"><ele>107.0</ele><time>2026-05-02T09:11:44.999Z</time></trkpt><trkpt lat="44.8711489007103" lon="1.5819490576383128"><ele>107.0</ele><time>2026-05-02T09:11:45.999Z</time></trkpt><trkpt lat="44.871255277305806" lon="1.5818515584933606"><ele>107.25</ele><time>2026-05-02T09:11:46.999Z</time></trkpt><trkpt lat="44.87136486277211" lon="1.5817570176781024"><ele>107.5</ele><time>2026-05-02T09:11:47.999Z</time></trkpt><trkpt lat="44.87147553502212" lon="1.5816554692946843"><ele>107.75</ele><time>2026-05-02T09:11:48.999Z</time></trkpt><trkpt lat="44.87159119604221" lon="1.581559763936493"><ele>108.0</ele><time>2026-05-02T09:11:49.999Z</time></trkpt><trkpt lat="44.87171068164316" lon="1.5814740225857529"><ele>108.5</ele><time>2026-05-02T09:11:50.999Z</time></trkpt><trkpt lat="44.87183318189082" lon="1.5814138032336424"><ele>109.0</ele><time>2026-05-02T09:11:51.999Z</time></trkpt><trkpt lat="44.87196666533731" lon="1.5813746461924874"><ele>109.5</ele><time>2026-05-02T09:11:52.999Z</time></trkpt><trkpt lat="44.87210073002262" lon="1.5813501154883105"><ele>110.0</ele><time>2026-05-02T09:11:53.999Z</time></trkpt><trkpt lat="44.872225481769036" lon="1.5813323902724257"><ele>110.0</ele><time>2026-05-02T09:11:54.999Z</time></trkpt><trkpt lat="44.87235133125816" lon="1.5813364535345658"><ele>110.0</ele><time>2026-05-02T09:11:55.999Z</time></trkpt><trkpt lat="44.8724621386028" lon="1.5814122417235885"><ele>110.0</ele><time>2026-05-02T09:11:56.999Z</time></trkpt><trkpt lat="44.87258132296009" lon="1.5814809552931715"><ele>110.0</ele><time>2026-05-02T09:11:57.999Z</time></trkpt><trkpt lat="44.87269233646531" lon="1.581596226984414"><ele>110.25</ele><time>2026-05-02T09:11:58.999Z</time></trkpt><trkpt lat="44.872810078073634" lon="1.5817192909747426"><ele>110.5</ele><time>2026-05-02T09:11:59.999Z</time></trkpt><trkpt lat="44.872927582284184" lon="1.5818258850868008"><ele>110.75</ele><time>2026-05-02T09:12:00.999Z</time></trkpt><trkpt lat="44.873031520242584" lon="1.5819241505015094"><ele>111.0</ele><time>2026-05-02T09:12:01.999Z</time></trkpt><trkpt lat="44.87312868413008" lon="1.5820210715224805"><ele>111.19999999999999</ele><time>2026-05-02T09:12:02.999Z</time></trkpt><trkpt lat="44.87322659126039" lon="1.5820984641814473"><ele>111.39999999999999</ele><time>2026-05-02T09:12:03.999Z</time></trkpt><trkpt lat="44.873325690977985" lon="1.5821738972179864"><ele>111.6</ele><time>2026-05-02T09:12:04.999Z</time></trkpt><trkpt lat="44.873403198636574" lon="1.5822466243280557"><ele>111.8</ele><time>2026-05-02T09:12:05.999Z</time></trkpt><trkpt lat="44.87345910991739" lon="1.5823084904757767"><ele>112.0</ele><time>2026-05-02T09:12:06.999Z</time></trkpt><trkpt lat="44.873534960065825" lon="1.582379923064629"><ele>111.5</ele><time>2026-05-02T09:12:08.999Z</time></trkpt><trkpt lat="44.87360917816456" lon="1.5824187316511436"><ele>111.0</ele><time>2026-05-02T09:12:18Z</time></trkpt><trkpt lat="44.87370072825146" lon="1.5821599923819138"><ele>110.5</ele><time>2026-05-02T09:12:19Z</time></trkpt><trkpt lat="44.8737671835864" lon="1.5820359940745565"><ele>110.0</ele><time>2026-05-02T09:12:20Z</time></trkpt><trkpt lat="44.87386621543213" lon="1.5818683820574784"><ele>110.0</ele><time>2026-05-02T09:12:21Z</time></trkpt><trkpt lat="44.87396259859803" lon="1.5816725781885759"><ele>110.0</ele><time>2026-05-02T09:12:22Z</time></trkpt><trkpt lat="44.87404750917703" lon="1.5814967427319244"><ele>110.0</ele><time>2026-05-02T09:12:23Z</time></trkpt><trkpt lat="44.874126723701835" lon="1.5813248553637633"><ele>110.25</ele><time>2026-05-02T09:12:24Z</time></trkpt><trkpt lat="44.87420809146094" lon="1.581153569229665"><ele>110.5</ele><time>2026-05-02T09:12:25Z</time></trkpt><trkpt lat="44.874292533560826" lon="1.58098437898082"><ele>110.75</ele><time>2026-05-02T09:12:26Z</time></trkpt><trkpt lat="44.87436829875229" lon="1.5808306972486037"><ele>111.0</ele><time>2026-05-02T09:12:27Z</time></trkpt><trkpt lat="44.874436649100915" lon="1.5806822562135792"><ele>111.25</ele><time>2026-05-02T09:12:28Z</time></trkpt><trkpt lat="44.87450193166928" lon="1.5805296074442354"><ele>111.5</ele><time>2026-05-02T09:12:29Z</time></trkpt><trkpt lat="44.87456826594257" lon="1.58037697862707"><ele>111.75</ele><time>2026-05-02T09:12:30Z</time></trkpt><trkpt lat="44.87465177008391" lon="1.5802392193964396"><ele>112.0</ele><time>2026-05-02T09:12:31Z</time></trkpt><trkpt lat="44.874734870347766" lon="1.5800854030431395"><ele>112.0</ele><time>2026-05-02T09:12:32Z</time></trkpt><trkpt lat="44.87481261992578" lon="1.5799255875538294"><ele>112.0</ele><time>2026-05-02T09:12:33Z</time></trkpt><trkpt lat="44.87488327559418" lon="1.579778261207995"><ele>112.0</ele><time>2026-05-02T09:12:34Z</time></trkpt><trkpt lat="44.874951213396976" lon="1.5796396874924035"><ele>112.0</ele><time>2026-05-02T09:12:35Z</time></trkpt><trkpt lat="44.87502462891852" lon="1.5794922051802052"><ele>112.0</ele><time>2026-05-02T09:12:36Z</time></trkpt><trkpt lat="44.875096329361" lon="1.5793310576060426"><ele>112.0</ele><time>2026-05-02T09:12:37Z</time></trkpt><trkpt lat="44.87518993955934" lon="1.5791540174382361"><ele>112.0</ele><time>2026-05-02T09:12:38Z</time></trkpt><trkpt lat="44.875285992292405" lon="1.5789743445274416"><ele>112.0</ele><time>2026-05-02T09:12:39Z</time></trkpt><trkpt lat="44.875385883207365" lon="1.5788398046231176"><ele>112.0</ele><time>2026-05-02T09:12:40Z</time></trkpt><trkpt lat="44.87548329736424" lon="1.578710927359628"><ele>112.0</ele><time>2026-05-02T09:12:41Z</time></trkpt><trkpt lat="44.875583610940815" lon="1.5785766118080493"><ele>112.0</ele><time>2026-05-02T09:12:42Z</time></trkpt><trkpt lat="44.87569149759178" lon="1.5784207589137784"><ele>112.0</ele><time>2026-05-02T09:12:43Z</time></trkpt><trkpt lat="44.87577536769322" lon="1.5782299951910455"><ele>112.0</ele><time>2026-05-02T09:12:44Z</time></trkpt><trkpt lat="44.87586925721881" lon="1.5780398065848213"><ele>112.0</ele><time>2026-05-02T09:12:45Z</time></trkpt><trkpt lat="44.87598214185676" lon="1.5778550226020154"><ele>112.0</ele><time>2026-05-02T09:12:46Z</time></trkpt><trkpt lat="44.87608189148565" lon="1.5776769668040704"><ele>112.0</ele><time>2026-05-02T09:12:47Z</time></trkpt><trkpt lat="44.87618957312653" lon="1.5774897919559534"><ele>112.0</ele><time>2026-05-02T09:12:48Z</time></trkpt><trkpt lat="44.8763030221284" lon="1.5772922339864648"><ele>112.0</ele><time>2026-05-02T09:12:49Z</time></trkpt><trkpt lat="44.87640863189111" lon="1.5771136641933432"><ele>112.0</ele><time>2026-05-02T09:12:50Z</time></trkpt><trkpt lat="44.87650706490832" lon="1.5769481134456917"><ele>112.0</ele><time>2026-05-02T09:12:51Z</time></trkpt><trkpt lat="44.8765979771187" lon="1.576804438733154"><ele>112.0</ele><time>2026-05-02T09:12:52Z</time></trkpt><trkpt lat="44.87666927200387" lon="1.576685100736853"><ele>111.99999999999999</ele><time>2026-05-02T09:12:53Z</time></trkpt><trkpt lat="44.876728397919614" lon="1.5765657628981478"><ele>111.99999999999999</ele><time>2026-05-02T09:12:54Z</time></trkpt><trkpt lat="44.876768092590424" lon="1.5764316843126167"><ele>112.0</ele><time>2026-05-02T09:12:55Z</time></trkpt><trkpt lat="44.8767791639148" lon="1.5762901382433132"><ele>112.0</ele><time>2026-05-02T09:12:56Z</time></trkpt><trkpt lat="44.87677751848017" lon="1.5761343061000008"><ele>112.0</ele><time>2026-05-02T09:12:57Z</time></trkpt><trkpt lat="44.876788003578284" lon="1.575972040703938"><ele>112.0</ele><time>2026-05-02T09:12:58Z</time></trkpt><trkpt lat="44.87676862197382" lon="1.5758068714576259"><ele>112.0</ele><time>2026-05-02T09:12:59Z</time></trkpt><trkpt lat="44.8767679559301" lon="1.5756332607167765"><ele>112.0</ele><time>2026-05-02T09:13:00Z</time></trkpt><trkpt lat="44.87676604794061" lon="1.5754454718970932"><ele>109.5</ele><time>2026-05-02T09:13:01Z</time></trkpt><trkpt lat="44.876760388715546" lon="1.5752544697566113"><ele>107.0</ele><time>2026-05-02T09:13:02Z</time></trkpt><trkpt lat="44.87675440074602" lon="1.5750518554212676"><ele>104.5</ele><time>2026-05-02T09:13:03Z</time></trkpt><trkpt lat="44.876747887043656" lon="1.574840772296753"><ele>102.0</ele><time>2026-05-02T09:13:04Z</time></trkpt><trkpt lat="44.87673997639403" lon="1.5746351062168547"><ele>102.25</ele><time>2026-05-02T09:13:05Z</time></trkpt><trkpt lat="44.876735046125205" lon="1.5744489756371918"><ele>102.5</ele><time>2026-05-02T09:13:06Z</time></trkpt><trkpt lat="44.876730405745256" lon="1.5742712827042442"><ele>102.75</ele><time>2026-05-02T09:13:07Z</time></trkpt><trkpt lat="44.87672728938874" lon="1.57409985016061"><ele>103.0</ele><time>2026-05-02T09:13:08Z</time></trkpt><trkpt lat="44.87673199968227" lon="1.5739249092990557"><ele>103.0</ele><time>2026-05-02T09:13:09Z</time></trkpt><trkpt lat="44.87673565071162" lon="1.5737394269566394"><ele>103.0</ele><time>2026-05-02T09:13:10Z</time></trkpt><trkpt lat="44.87674623733652" lon="1.5735526178334063"><ele>103.0</ele><time>2026-05-02T09:13:11Z</time></trkpt><trkpt lat="44.87678310218787" lon="1.573381492510162"><ele>103.0</ele><time>2026-05-02T09:13:12Z</time></trkpt><trkpt lat="44.87683339592003" lon="1.5732208089276183"><ele>102.75</ele><time>2026-05-02T09:13:13Z</time></trkpt><trkpt lat="44.87688714665067" lon="1.5730513395930723"><ele>102.5</ele><time>2026-05-02T09:13:14Z</time></trkpt><trkpt lat="44.876950655970205" lon="1.572876798430505"><ele>102.25</ele><time>2026-05-02T09:13:15Z</time></trkpt><trkpt lat="44.87701690094068" lon="1.5726899557535579"><ele>102.0</ele><time>2026-05-02T09:13:16Z</time></trkpt><trkpt lat="44.87708462589326" lon="1.5725155042260965"><ele>102.5</ele><time>2026-05-02T09:13:17Z</time></trkpt><trkpt lat="44.87714456614964" lon="1.5723534413448887"><ele>103.0</ele><time>2026-05-02T09:13:18Z</time></trkpt><trkpt lat="44.87720295945326" lon="1.5721989237137248"><ele>103.5</ele><time>2026-05-02T09:13:19Z</time></trkpt><trkpt lat="44.877256011941704" lon="1.5720518532659407"><ele>104.0</ele><time>2026-05-02T09:13:20Z</time></trkpt><trkpt lat="44.87731141655175" lon="1.5719080040499207"><ele>104.25</ele><time>2026-05-02T09:13:21Z</time></trkpt><trkpt lat="44.87736900060056" lon="1.5717591436478566"><ele>104.5</ele><time>2026-05-02T09:13:22Z</time></trkpt><trkpt lat="44.87741941174816" lon="1.57161876587542"><ele>104.75</ele><time>2026-05-02T09:13:23Z</time></trkpt><trkpt lat="44.87747066059218" lon="1.571479112395185"><ele>105.0</ele><time>2026-05-02T09:13:24Z</time></trkpt><trkpt lat="44.87751674551248" lon="1.5713348962502531"><ele>105.0</ele><time>2026-05-02T09:13:25Z</time></trkpt><trkpt lat="44.87756547521468" lon="1.5711974128519397"><ele>105.0</ele><time>2026-05-02T09:13:26Z</time></trkpt><trkpt lat="44.87760747403681" lon="1.5710836762231635"><ele>105.0</ele><time>2026-05-02T09:13:27Z</time></trkpt><trkpt lat="44.87765141002196" lon="1.5709746255393517"><ele>105.0</ele><time>2026-05-02T09:13:28Z</time></trkpt><trkpt lat="44.87769819746461" lon="1.5708599418692224"><ele>105.0</ele><time>2026-05-02T09:13:29Z</time></trkpt><trkpt lat="44.877745486280894" lon="1.5707394536388144"><ele>105.0</ele><time>2026-05-02T09:13:30Z</time></trkpt><trkpt lat="44.877790357621535" lon="1.5706105306299087"><ele>105.0</ele><time>2026-05-02T09:13:31Z</time></trkpt><trkpt lat="44.87782550150955" lon="1.5705011258030024"><ele>105.0</ele><time>2026-05-02T09:13:32Z</time></trkpt><trkpt lat="44.877880768390895" lon="1.5703998265886987"><ele>105.0</ele><time>2026-05-02T09:13:34Z</time></trkpt><trkpt lat="44.87792270438606" lon="1.5702600120048495"><ele>105.0</ele><time>2026-05-02T09:13:36Z</time></trkpt><trkpt lat="44.87796924956544" lon="1.5701645323083508"><ele>105.2</ele><time>2026-05-02T09:13:37Z</time></trkpt><trkpt lat="44.87801421735798" lon="1.570046631499113"><ele>105.4</ele><time>2026-05-02T09:13:38Z</time></trkpt><trkpt lat="44.87806401224508" lon="1.5699019654908015"><ele>105.6</ele><time>2026-05-02T09:13:39Z</time></trkpt><trkpt lat="44.878112130819176" lon="1.5697616001723484"><ele>105.8</ele><time>2026-05-02T09:13:40Z</time></trkpt><trkpt lat="44.87817370869352" lon="1.5696010855012361"><ele>106.0</ele><time>2026-05-02T09:13:41Z</time></trkpt><trkpt lat="44.878248081761505" lon="1.5694170002399785"><ele>106.0</ele><time>2026-05-02T09:13:42Z</time></trkpt><trkpt lat="44.87831554360926" lon="1.569235653243725"><ele>106.0</ele><time>2026-05-02T09:13:43Z</time></trkpt><trkpt lat="44.87837895814123" lon="1.5690544480550854"><ele>106.0</ele><time>2026-05-02T09:13:44Z</time></trkpt><trkpt lat="44.87844747718435" lon="1.5688724937186842"><ele>106.0</ele><time>2026-05-02T09:13:45Z</time></trkpt><trkpt lat="44.87851776467878" lon="1.568694657162647"><ele>106.25</ele><time>2026-05-02T09:13:46Z</time></trkpt><trkpt lat="44.87858943077558" lon="1.568509117954458"><ele>106.5</ele><time>2026-05-02T09:13:47Z</time></trkpt><trkpt lat="44.87865505117842" lon="1.568334536002145"><ele>106.75</ele><time>2026-05-02T09:13:48Z</time></trkpt><trkpt lat="44.87872341958391" lon="1.5681717263704198"><ele>107.0</ele><time>2026-05-02T09:13:49Z</time></trkpt><trkpt lat="44.878788967425166" lon="1.5680118172525126"><ele>106.8</ele><time>2026-05-02T09:13:49.999Z</time></trkpt><trkpt lat="44.878835260414704" lon="1.56785706633174"><ele>106.6</ele><time>2026-05-02T09:13:50.999Z</time></trkpt><trkpt lat="44.87887805749759" lon="1.5677223764393684"><ele>106.39999999999999</ele><time>2026-05-02T09:13:51.999Z</time></trkpt><trkpt lat="44.87891695667126" lon="1.5676022842258797"><ele>106.19999999999999</ele><time>2026-05-02T09:13:52.999Z</time></trkpt><trkpt lat="44.87895570288126" lon="1.5675001374545574"><ele>106.0</ele><time>2026-05-02T09:13:53.999Z</time></trkpt><trkpt lat="44.8789954331369" lon="1.5674005664122455"><ele>106.0</ele><time>2026-05-02T09:13:54.999Z</time></trkpt><trkpt lat="44.87903758147624" lon="1.5673124975098247"><ele>106.0</ele><time>2026-05-02T09:13:55.999Z</time></trkpt><trkpt lat="44.87908513019949" lon="1.5671655417532477"><ele>106.0</ele><time>2026-05-02T09:13:57.999Z</time></trkpt><trkpt lat="44.879137667447395" lon="1.5670268702512047"><ele>106.0</ele><time>2026-05-02T09:13:59.999Z</time></trkpt><trkpt lat="44.87918240612033" lon="1.5669314675098602"><ele>106.0</ele><time>2026-05-02T09:14:00.999Z</time></trkpt><trkpt lat="44.87922653978287" lon="1.5668225204216504"><ele>106.19999999999999</ele><time>2026-05-02T09:14:01.999Z</time></trkpt><trkpt lat="44.879273421799766" lon="1.5666932487850647"><ele>106.39999999999999</ele><time>2026-05-02T09:14:02.999Z</time></trkpt><trkpt lat="44.87931461057071" lon="1.5665785609128215"><ele>106.6</ele><time>2026-05-02T09:14:03.999Z</time></trkpt><trkpt lat="44.879358344767695" lon="1.566461750735152"><ele>106.8</ele><time>2026-05-02T09:14:04.999Z</time></trkpt><trkpt lat="44.879409023853796" lon="1.566342434368557"><ele>107.0</ele><time>2026-05-02T09:14:05.999Z</time></trkpt><trkpt lat="44.87946528907848" lon="1.566220059577794"><ele>107.0</ele><time>2026-05-02T09:14:06.999Z</time></trkpt><trkpt lat="44.879511282014754" lon="1.566093161918842"><ele>106.99999999999999</ele><time>2026-05-02T09:14:07.999Z</time></trkpt><trkpt lat="44.87955565740298" lon="1.5659599213554478"><ele>106.99999999999999</ele><time>2026-05-02T09:14:08.999Z</time></trkpt><trkpt lat="44.879609442344396" lon="1.565831427311735"><ele>107.0</ele><time>2026-05-02T09:14:09.999Z</time></trkpt><trkpt lat="44.879661427810255" lon="1.5656804685285588"><ele>107.0</ele><time>2026-05-02T09:14:10.999Z</time></trkpt><trkpt lat="44.879732698243714" lon="1.5654838219158427"><ele>107.0</ele><time>2026-05-02T09:14:11.999Z</time></trkpt><trkpt lat="44.879822214157706" lon="1.56528303474105"><ele>107.0</ele><time>2026-05-02T09:14:12.999Z</time></trkpt><trkpt lat="44.87989884316195" lon="1.565092795628405"><ele>107.0</ele><time>2026-05-02T09:14:13.999Z</time></trkpt><trkpt lat="44.87996743305913" lon="1.5649225592524312"><ele>107.0</ele><time>2026-05-02T09:14:14.999Z</time></trkpt><trkpt lat="44.880040570544615" lon="1.5647744022682029"><ele>106.99999999999999</ele><time>2026-05-02T09:14:15.999Z</time></trkpt><trkpt lat="44.88009189148355" lon="1.5646253074207888"><ele>106.99999999999999</ele><time>2026-05-02T09:14:16.999Z</time></trkpt><trkpt lat="44.88012376190538" lon="1.564500265709747"><ele>107.0</ele><time>2026-05-02T09:14:17.999Z</time></trkpt><trkpt lat="44.880168033107054" lon="1.5643727493323243"><ele>107.0</ele><time>2026-05-02T09:14:18.999Z</time></trkpt><trkpt lat="44.88022809198123" lon="1.5641976997494995"><ele>107.0</ele><time>2026-05-02T09:14:20Z</time></trkpt><trkpt lat="44.88029468264516" lon="1.563992248662645"><ele>107.0</ele><time>2026-05-02T09:14:21Z</time></trkpt><trkpt lat="44.88039249630519" lon="1.563742055838276"><ele>107.0</ele><time>2026-05-02T09:14:22Z</time></trkpt><trkpt lat="44.88049441721353" lon="1.5634683507236689"><ele>107.0</ele><time>2026-05-02T09:14:23Z</time></trkpt><trkpt lat="44.880582751032705" lon="1.5632259163464544"><ele>107.0</ele><time>2026-05-02T09:14:24Z</time></trkpt><trkpt lat="44.880646564342385" lon="1.563050869639415"><ele>107.0</ele><time>2026-05-02T09:14:25Z</time></trkpt><trkpt lat="44.88069381268068" lon="1.5629197883369321"><ele>107.0</ele><time>2026-05-02T09:14:26Z</time></trkpt><trkpt lat="44.88072868568885" lon="1.562822580304983"><ele>107.33333333333333</ele><time>2026-05-02T09:14:27Z</time></trkpt><trkpt lat="44.88078682072554" lon="1.5626818415946933"><ele>107.66666666666666</ele><time>2026-05-02T09:14:28Z</time></trkpt><trkpt lat="44.88085711158327" lon="1.562479427922913"><ele>108.0</ele><time>2026-05-02T09:14:29Z</time></trkpt><trkpt lat="44.88095087875004" lon="1.5622396581456337"><ele>112.33333333333334</ele><time>2026-05-02T09:14:30Z</time></trkpt><trkpt lat="44.88105103310958" lon="1.5619735590977653"><ele>116.66666666666667</ele><time>2026-05-02T09:14:31Z</time></trkpt><trkpt lat="44.8811526364934" lon="1.561699762253261"><ele>121.0</ele><time>2026-05-02T09:14:32Z</time></trkpt><trkpt lat="44.881242078636646" lon="1.5614607981690216"><ele>121.0</ele><time>2026-05-02T09:14:33Z</time></trkpt><trkpt lat="44.88131049027912" lon="1.5612911596894579"><ele>121.0</ele><time>2026-05-02T09:14:34Z</time></trkpt><trkpt lat="44.88137998291006" lon="1.5611611585035337"><ele>121.0</ele><time>2026-05-02T09:14:35Z</time></trkpt><trkpt lat="44.88147921906219" lon="1.5610616610004158"><ele>121.0</ele><time>2026-05-02T09:14:36Z</time></trkpt><trkpt lat="44.881602412765865" lon="1.5610122716851207"><ele>121.0</ele><time>2026-05-02T09:14:37Z</time></trkpt><trkpt lat="44.88171242060912" lon="1.5610554610854066"><ele>121.0</ele><time>2026-05-02T09:14:38Z</time></trkpt><trkpt lat="44.88178273084315" lon="1.5611974439461513"><ele>121.0</ele><time>2026-05-02T09:14:39Z</time></trkpt><trkpt lat="44.88180408871531" lon="1.561360753462903"><ele>121.0</ele><time>2026-05-02T09:14:40Z</time></trkpt><trkpt lat="44.881763293151025" lon="1.5615912163479053"><ele>128.66666666666669</ele><time>2026-05-02T09:14:41Z</time></trkpt><trkpt lat="44.88177434269124" lon="1.5618568896804306"><ele>136.33333333333334</ele><time>2026-05-02T09:14:42Z</time></trkpt><trkpt lat="44.88182643853887" lon="1.56210724141233"><ele>144.0</ele><time>2026-05-02T09:14:43Z</time></trkpt><trkpt lat="44.881938878117815" lon="1.562366391680729"><ele>144.0</ele><time>2026-05-02T09:14:44Z</time></trkpt><trkpt lat="44.88198809158231" lon="1.5626663369287155"><ele>144.0</ele><time>2026-05-02T09:14:45Z</time></trkpt><trkpt lat="44.88202599560329" lon="1.5629996564552124"><ele>144.0</ele><time>2026-05-02T09:14:46Z</time></trkpt><trkpt lat="44.88205720905946" lon="1.5633143794297395"><ele>144.0</ele><time>2026-05-02T09:14:47Z</time></trkpt><trkpt lat="44.882043102934745" lon="1.5635652559276636"><ele>144.0</ele><time>2026-05-02T09:14:48Z</time></trkpt><trkpt lat="44.881990008885204" lon="1.5638275866520945"><ele>144.0</ele><time>2026-05-02T09:14:49Z</time></trkpt><trkpt lat="44.881956496158296" lon="1.5641451841787806"><ele>144.0</ele><time>2026-05-02T09:14:50Z</time></trkpt><trkpt lat="44.88194113238446" lon="1.5644277575407386"><ele>144.0</ele><time>2026-05-02T09:14:51Z</time></trkpt><trkpt lat="44.88191659230572" lon="1.5646420035643709"><ele>143.5</ele><time>2026-05-02T09:14:52Z</time></trkpt><trkpt lat="44.88188803691373" lon="1.564826733409281"><ele>143.0</ele><time>2026-05-02T09:14:53Z</time></trkpt><trkpt lat="44.881877238338475" lon="1.5650037826589769"><ele>142.5</ele><time>2026-05-02T09:14:54Z</time></trkpt><trkpt lat="44.88190632011226" lon="1.5651737849180016"><ele>142.0</ele><time>2026-05-02T09:14:55Z</time></trkpt><trkpt lat="44.88199084139797" lon="1.5653114690274057"><ele>138.66666666666669</ele><time>2026-05-02T09:14:56Z</time></trkpt><trkpt lat="44.882122382024114" lon="1.5654521833389132"><ele>135.33333333333334</ele><time>2026-05-02T09:14:57Z</time></trkpt><trkpt lat="44.8823223249382" lon="1.5655394052481977"><ele>132.0</ele><time>2026-05-02T09:14:58Z</time></trkpt><trkpt lat="44.882524232906725" lon="1.5655574013394786"><ele>133.5</ele><time>2026-05-02T09:14:59Z</time></trkpt><trkpt lat="44.88274482285679" lon="1.5655458120233328"><ele>135.0</ele><time>2026-05-02T09:15:00Z</time></trkpt><trkpt lat="44.882996870723034" lon="1.5654975238332571"><ele>135.0</ele><time>2026-05-02T09:15:01Z</time></trkpt><trkpt lat="44.88325080497223" lon="1.5653966102377326"><ele>135.0</ele><time>2026-05-02T09:15:02Z</time></trkpt><trkpt lat="44.88350581404939" lon="1.5652674676653393"><ele>138.66666666666666</ele><time>2026-05-02T09:15:03Z</time></trkpt><trkpt lat="44.88370572879289" lon="1.565121109575665"><ele>142.33333333333331</ele><time>2026-05-02T09:15:04Z</time></trkpt><trkpt lat="44.883910512096165" lon="1.5650765961960207"><ele>146.0</ele><time>2026-05-02T09:15:05Z</time></trkpt><trkpt lat="44.88409917061465" lon="1.5649601973677958"><ele>144.33333333333331</ele><time>2026-05-02T09:15:06Z</time></trkpt><trkpt lat="44.88427887800279" lon="1.5648183814449546"><ele>142.66666666666666</ele><time>2026-05-02T09:15:07Z</time></trkpt><trkpt lat="44.884451782959076" lon="1.564639548453552"><ele>141.0</ele><time>2026-05-02T09:15:08Z</time></trkpt><trkpt lat="44.88460921183917" lon="1.5644562514107228"><ele>142.0</ele><time>2026-05-02T09:15:09Z</time></trkpt><trkpt lat="44.88477306183902" lon="1.5642736630345064"><ele>143.0</ele><time>2026-05-02T09:15:10Z</time></trkpt><trkpt lat="44.88494002035871" lon="1.5641041198698495"><ele>144.0</ele><time>2026-05-02T09:15:11Z</time></trkpt><trkpt lat="44.88512055157747" lon="1.5639523304023746"><ele>144.0</ele><time>2026-05-02T09:15:12Z</time></trkpt><trkpt lat="44.88528757119285" lon="1.563767590401167"><ele>144.0</ele><time>2026-05-02T09:15:13Z</time></trkpt><trkpt lat="44.88546069591329" lon="1.5636076360431983"><ele>144.0</ele><time>2026-05-02T09:15:14Z</time></trkpt><trkpt lat="44.885612101965975" lon="1.563442698479573"><ele>147.66666666666666</ele><time>2026-05-02T09:15:15Z</time></trkpt><trkpt lat="44.88574833235966" lon="1.5632505470432654"><ele>151.33333333333331</ele><time>2026-05-02T09:15:16Z</time></trkpt><trkpt lat="44.88587631071422" lon="1.563026584592411"><ele>155.0</ele><time>2026-05-02T09:15:17Z</time></trkpt><trkpt lat="44.886016960996415" lon="1.5627903197630206"><ele>155.0</ele><time>2026-05-02T09:15:18Z</time></trkpt><trkpt lat="44.8861350597239" lon="1.5625310763609561"><ele>155.0</ele><time>2026-05-02T09:15:19Z</time></trkpt><trkpt lat="44.88627371817893" lon="1.5622822543806487"><ele>155.0</ele><time>2026-05-02T09:15:20Z</time></trkpt><trkpt lat="44.88640954234911" lon="1.562032564851395"><ele>154.66666666666666</ele><time>2026-05-02T09:15:21Z</time></trkpt><trkpt lat="44.88656247046604" lon="1.5618011675955787"><ele>154.33333333333334</ele><time>2026-05-02T09:15:22Z</time></trkpt><trkpt lat="44.886704674729415" lon="1.561555597918847"><ele>154.0</ele><time>2026-05-02T09:15:23Z</time></trkpt><trkpt lat="44.886844990537824" lon="1.5613100419899997"><ele>160.0</ele><time>2026-05-02T09:15:24Z</time></trkpt><trkpt lat="44.886974457739456" lon="1.5610513457745652"><ele>166.0</ele><time>2026-05-02T09:15:25Z</time></trkpt><trkpt lat="44.88709041362393" lon="1.5607751816994606"><ele>166.0</ele><time>2026-05-02T09:15:26Z</time></trkpt><trkpt lat="44.88720531045741" lon="1.5604910132146943"><ele>166.0</ele><time>2026-05-02T09:15:27Z</time></trkpt><trkpt lat="44.887340497349484" lon="1.560178650327011"><ele>162.5</ele><time>2026-05-02T09:15:28Z</time></trkpt><trkpt lat="44.88748393005774" lon="1.5598575778158625"><ele>159.0</ele><time>2026-05-02T09:15:29Z</time></trkpt><trkpt lat="44.887620649878116" lon="1.5595454309161567"><ele>161.0</ele><time>2026-05-02T09:15:30Z</time></trkpt><trkpt lat="44.88773467731591" lon="1.5592019418363332"><ele>163.0</ele><time>2026-05-02T09:15:31Z</time></trkpt><trkpt lat="44.887840094453644" lon="1.5588239381709517"><ele>166.5</ele><time>2026-05-02T09:15:32Z</time></trkpt><trkpt lat="44.88792855131043" lon="1.5584154465418272"><ele>170.0</ele><time>2026-05-02T09:15:33Z</time></trkpt><trkpt lat="44.88804343413793" lon="1.558014288646986"><ele>177.0</ele><time>2026-05-02T09:15:33.999Z</time></trkpt><trkpt lat="44.88814396825827" lon="1.5575887041106609"><ele>184.0</ele><time>2026-05-02T09:15:34.999Z</time></trkpt><trkpt lat="44.88823456813666" lon="1.557165450460856"><ele>186.5</ele><time>2026-05-02T09:15:35.999Z</time></trkpt><trkpt lat="44.88828974010966" lon="1.5567844591394524"><ele>189.0</ele><time>2026-05-02T09:15:36.999Z</time></trkpt><trkpt lat="44.8883465103041" lon="1.5564701191420451"><ele>191.33333333333331</ele><time>2026-05-02T09:15:37.999Z</time></trkpt><trkpt lat="44.88835490229468" lon="1.5561951817073594"><ele>193.66666666666666</ele><time>2026-05-02T09:15:38.999Z</time></trkpt><trkpt lat="44.888332663147125" lon="1.5559085685690122"><ele>196.0</ele><time>2026-05-02T09:15:39.999Z</time></trkpt><trkpt lat="44.88834648891024" lon="1.5556793747976085"><ele>196.0</ele><time>2026-05-02T09:15:40.999Z</time></trkpt><trkpt lat="44.88840520460397" lon="1.5555205160230994"><ele>196.0</ele><time>2026-05-02T09:15:41.999Z</time></trkpt><trkpt lat="44.88851415941862" lon="1.5554112008185508"><ele>196.0</ele><time>2026-05-02T09:15:42.999Z</time></trkpt><trkpt lat="44.88865176932459" lon="1.5552113178301965"><ele>195.66666666666666</ele><time>2026-05-02T09:15:43.999Z</time></trkpt><trkpt lat="44.888792557226594" lon="1.5550014253046551"><ele>195.33333333333331</ele><time>2026-05-02T09:15:44.999Z</time></trkpt><trkpt lat="44.88890267670899" lon="1.5547847814957916"><ele>195.0</ele><time>2026-05-02T09:15:45.999Z</time></trkpt><trkpt lat="44.889076815674336" lon="1.5546624530783564"><ele>195.0</ele><time>2026-05-02T09:15:46.999Z</time></trkpt><trkpt lat="44.889297678691236" lon="1.5545430093460266"><ele>195.0</ele><time>2026-05-02T09:15:47.999Z</time></trkpt><trkpt lat="44.88952532787391" lon="1.5544174436331952"><ele>200.5</ele><time>2026-05-02T09:15:48.999Z</time></trkpt><trkpt lat="44.88975731765759" lon="1.5543099646655933"><ele>206.0</ele><time>2026-05-02T09:15:49.999Z</time></trkpt><trkpt lat="44.88994873764834" lon="1.5541891098589105"><ele>210.0</ele><time>2026-05-02T09:15:50.999Z</time></trkpt><trkpt lat="44.89011198237669" lon="1.5540470026913211"><ele>214.0</ele><time>2026-05-02T09:15:51.999Z</time></trkpt><trkpt lat="44.890225860270846" lon="1.5538404578238125"><ele>218.0</ele><time>2026-05-02T09:15:52.999Z</time></trkpt><trkpt lat="44.89028722049777" lon="1.5535941962754307"><ele>218.0</ele><time>2026-05-02T09:15:53.999Z</time></trkpt><trkpt lat="44.89031223372572" lon="1.5533236140994557"><ele>218.0</ele><time>2026-05-02T09:15:54.999Z</time></trkpt><trkpt lat="44.89033191645113" lon="1.5529799806831655"><ele>218.0</ele><time>2026-05-02T09:15:55.999Z</time></trkpt><trkpt lat="44.8903677075464" lon="1.5526263687787805"><ele>218.0</ele><time>2026-05-02T09:15:56.999Z</time></trkpt><trkpt lat="44.890442227311965" lon="1.55228729621785"><ele>218.0</ele><time>2026-05-02T09:15:57.999Z</time></trkpt><trkpt lat="44.89056321571968" lon="1.5519603887452886"><ele>218.0</ele><time>2026-05-02T09:15:58.999Z</time></trkpt><trkpt lat="44.890700727107784" lon="1.551614909459552"><ele>218.0</ele><time>2026-05-02T09:15:59.999Z</time></trkpt><trkpt lat="44.89085739575951" lon="1.551288544658574"><ele>222.5</ele><time>2026-05-02T09:16:00.999Z</time></trkpt><trkpt lat="44.89101635918524" lon="1.5510255086091662"><ele>227.0</ele><time>2026-05-02T09:16:01.999Z</time></trkpt><trkpt lat="44.891119942971486" lon="1.5507752417099754"><ele>227.0</ele><time>2026-05-02T09:16:02.999Z</time></trkpt><trkpt lat="44.89121579644806" lon="1.5505208139723528"><ele>227.0</ele><time>2026-05-02T09:16:03.999Z</time></trkpt><trkpt lat="44.891286899291806" lon="1.550200075550338"><ele>227.0</ele><time>2026-05-02T09:16:04.999Z</time></trkpt><trkpt lat="44.89133188517674" lon="1.5498400509337957"><ele>226.5</ele><time>2026-05-02T09:16:05.999Z</time></trkpt><trkpt lat="44.891349681242914" lon="1.549517732430815"><ele>226.0</ele><time>2026-05-02T09:16:06.999Z</time></trkpt><trkpt lat="44.8913446821579" lon="1.549174973846606"><ele>226.0</ele><time>2026-05-02T09:16:07.999Z</time></trkpt><trkpt lat="44.89132332776635" lon="1.5487882804407758"><ele>226.0</ele><time>2026-05-02T09:16:08.999Z</time></trkpt><trkpt lat="44.891298647517466" lon="1.5484006958919385"><ele>226.0</ele><time>2026-05-02T09:16:09.999Z</time></trkpt><trkpt lat="44.891284524543174" lon="1.5480626302290788"><ele>226.0</ele><time>2026-05-02T09:16:10.999Z</time></trkpt><trkpt lat="44.891331765322555" lon="1.5477558270304856"><ele>226.0</ele><time>2026-05-02T09:16:11.999Z</time></trkpt><trkpt lat="44.89142663660473" lon="1.5474302192988894"><ele>226.0</ele><time>2026-05-02T09:16:12.999Z</time></trkpt><trkpt lat="44.891547728342815" lon="1.5470842754518124"><ele>229.0</ele><time>2026-05-02T09:16:13.999Z</time></trkpt><trkpt lat="44.8916694820177" lon="1.546740193299639"><ele>232.0</ele><time>2026-05-02T09:16:14.999Z</time></trkpt><trkpt lat="44.891773957516065" lon="1.546447787503029"><ele>232.66666666666666</ele><time>2026-05-02T09:16:15.999Z</time></trkpt><trkpt lat="44.89186662553638" lon="1.546179511355298"><ele>233.33333333333331</ele><time>2026-05-02T09:16:16.999Z</time></trkpt><trkpt lat="44.891948474672006" lon="1.5459350839434667"><ele>234.0</ele><time>2026-05-02T09:16:17.999Z</time></trkpt><trkpt lat="44.89201962834707" lon="1.5457360670687446"><ele>234.0</ele><time>2026-05-02T09:16:18.999Z</time></trkpt><trkpt lat="44.892107552046696" lon="1.545590890347818"><ele>234.0</ele><time>2026-05-02T09:16:19.999Z</time></trkpt><trkpt lat="44.89222377255012" lon="1.545502162209779"><ele>234.0</ele><time>2026-05-02T09:16:20.999Z</time></trkpt><trkpt lat="44.89237074682662" lon="1.545441599431749"><ele>234.0</ele><time>2026-05-02T09:16:21.999Z</time></trkpt><trkpt lat="44.89256536224512" lon="1.5454080729831756"><ele>233.0</ele><time>2026-05-02T09:16:22.999Z</time></trkpt><trkpt lat="44.89276163053708" lon="1.5453912094745488"><ele>232.0</ele><time>2026-05-02T09:16:23.999Z</time></trkpt><trkpt lat="44.8929286107881" lon="1.545379374137886"><ele>231.0</ele><time>2026-05-02T09:16:24.999Z</time></trkpt><trkpt lat="44.89307726772209" lon="1.5453660910737772"><ele>229.66666666666669</ele><time>2026-05-02T09:16:26Z</time></trkpt><trkpt lat="44.89323037813819" lon="1.545345041767035"><ele>228.33333333333334</ele><time>2026-05-02T09:16:27Z</time></trkpt><trkpt lat="44.89342246360853" lon="1.5453234077968443"><ele>227.0</ele><time>2026-05-02T09:16:28Z</time></trkpt><trkpt lat="44.89363396815545" lon="1.545285155653885"><ele>226.5</ele><time>2026-05-02T09:16:29Z</time></trkpt><trkpt lat="44.89386808446217" lon="1.5452498788259692"><ele>226.0</ele><time>2026-05-02T09:16:30Z</time></trkpt><trkpt lat="44.894115745242416" lon="1.5452393446626553"><ele>228.0</ele><time>2026-05-02T09:16:31Z</time></trkpt><trkpt lat="44.89437355458486" lon="1.5452311404233252"><ele>230.0</ele><time>2026-05-02T09:16:32Z</time></trkpt><trkpt lat="44.894635366990265" lon="1.545215909992205"><ele>230.0</ele><time>2026-05-02T09:16:33Z</time></trkpt><trkpt lat="44.894910187796945" lon="1.5451949408011487"><ele>230.0</ele><time>2026-05-02T09:16:34Z</time></trkpt><trkpt lat="44.89520077855515" lon="1.5451697521802636"><ele>228.0</ele><time>2026-05-02T09:16:35Z</time></trkpt><trkpt lat="44.89550082477134" lon="1.5451326696310903"><ele>226.0</ele><time>2026-05-02T09:16:36Z</time></trkpt><trkpt lat="44.89580202074434" lon="1.5451042863680575"><ele>225.0</ele><time>2026-05-02T09:16:37Z</time></trkpt><trkpt lat="44.896117391930815" lon="1.545078829896175"><ele>224.0</ele><time>2026-05-02T09:16:38Z</time></trkpt><trkpt lat="44.89640920413273" lon="1.5450503068197656"><ele>224.0</ele><time>2026-05-02T09:16:39Z</time></trkpt><trkpt lat="44.896677040833346" lon="1.5450234960659606"><ele>224.0</ele><time>2026-05-02T09:16:40Z</time></trkpt><trkpt lat="44.89692631591938" lon="1.5449946542067485"><ele>221.5</ele><time>2026-05-02T09:16:41Z</time></trkpt><trkpt lat="44.89715767592031" lon="1.5449565577722257"><ele>219.0</ele><time>2026-05-02T09:16:42Z</time></trkpt><trkpt lat="44.89738693581354" lon="1.5448972141561175"><ele>217.0</ele><time>2026-05-02T09:16:43Z</time></trkpt><trkpt lat="44.89763677433857" lon="1.5447808677970838"><ele>215.0</ele><time>2026-05-02T09:16:44Z</time></trkpt><trkpt lat="44.897882576145236" lon="1.5446171890897133"><ele>216.0</ele><time>2026-05-02T09:16:45Z</time></trkpt><trkpt lat="44.89812212605193" lon="1.5444261441644673"><ele>217.0</ele><time>2026-05-02T09:16:46Z</time></trkpt><trkpt lat="44.898342447667375" lon="1.5442589547432448"><ele>217.0</ele><time>2026-05-02T09:16:47Z</time></trkpt><trkpt lat="44.898552468640695" lon="1.5441088502296711"><ele>217.0</ele><time>2026-05-02T09:16:48Z</time></trkpt><trkpt lat="44.8987621696682" lon="1.5439593406874352"><ele>217.0</ele><time>2026-05-02T09:16:49Z</time></trkpt><trkpt lat="44.89896660776298" lon="1.5438026875315691"><ele>217.0</ele><time>2026-05-02T09:16:50Z</time></trkpt><trkpt lat="44.89914941495982" lon="1.5436572635536867"><ele>217.0</ele><time>2026-05-02T09:16:51Z</time></trkpt><trkpt lat="44.899325370834205" lon="1.5435292573912598"><ele>217.33333333333331</ele><time>2026-05-02T09:16:52Z</time></trkpt><trkpt lat="44.89949940528479" lon="1.5434038022437417"><ele>217.66666666666669</ele><time>2026-05-02T09:16:53Z</time></trkpt><trkpt lat="44.8996665020121" lon="1.543286605456829"><ele>218.0</ele><time>2026-05-02T09:16:54Z</time></trkpt><trkpt lat="44.89981694276119" lon="1.5431818298522968"><ele>218.0</ele><time>2026-05-02T09:16:55Z</time></trkpt><trkpt lat="44.89996003645945" lon="1.5430787929997114"><ele>218.0</ele><time>2026-05-02T09:16:56Z</time></trkpt><trkpt lat="44.900089534338136" lon="1.5429891607965336"><ele>218.0</ele><time>2026-05-02T09:16:57Z</time></trkpt><trkpt lat="44.900216057733665" lon="1.5428921636801731"><ele>218.0</ele><time>2026-05-02T09:16:58Z</time></trkpt><trkpt lat="44.900339512229564" lon="1.5428045981525773"><ele>217.75</ele><time>2026-05-02T09:16:59Z</time></trkpt><trkpt lat="44.90045933541876" lon="1.5427165911489218"><ele>217.5</ele><time>2026-05-02T09:17:00Z</time></trkpt><trkpt lat="44.90057623395198" lon="1.542633271643613"><ele>217.25</ele><time>2026-05-02T09:17:01Z</time></trkpt><trkpt lat="44.900693544957576" lon="1.5425425369013073"><ele>217.0</ele><time>2026-05-02T09:17:02Z</time></trkpt><trkpt lat="44.90080828634826" lon="1.5424460696682445"><ele>217.0</ele><time>2026-05-02T09:17:03Z</time></trkpt><trkpt lat="44.900912168861744" lon="1.5423465252800794"><ele>217.0</ele><time>2026-05-02T09:17:04Z</time></trkpt><trkpt lat="44.90100893563936" lon="1.542229010211717"><ele>217.0</ele><time>2026-05-02T09:17:05Z</time></trkpt><trkpt lat="44.901091112266684" lon="1.542038928897037"><ele>217.0</ele><time>2026-05-02T09:17:06Z</time></trkpt><trkpt lat="44.90120267260134" lon="1.5418055804128379"><ele>217.5</ele><time>2026-05-02T09:17:07Z</time></trkpt><trkpt lat="44.901299545597816" lon="1.541522319470814"><ele>218.0</ele><time>2026-05-02T09:17:08Z</time></trkpt><trkpt lat="44.90140559635273" lon="1.5412239662257539"><ele>218.5</ele><time>2026-05-02T09:17:09Z</time></trkpt><trkpt lat="44.901553701414684" lon="1.5409141712893195"><ele>219.0</ele><time>2026-05-02T09:17:10Z</time></trkpt><trkpt lat="44.9017046064135" lon="1.5406055571622954"><ele>220.0</ele><time>2026-05-02T09:17:11Z</time></trkpt><trkpt lat="44.901845763841806" lon="1.540264256192898"><ele>221.0</ele><time>2026-05-02T09:17:12Z</time></trkpt><trkpt lat="44.9019939217065" lon="1.5399076080609215"><ele>221.0</ele><time>2026-05-02T09:17:13Z</time></trkpt><trkpt lat="44.90215255000985" lon="1.539544399532246"><ele>221.0</ele><time>2026-05-02T09:17:14Z</time></trkpt><trkpt lat="44.9023108613779" lon="1.5391613624253324"><ele>221.0</ele><time>2026-05-02T09:17:15Z</time></trkpt><trkpt lat="44.90247608668457" lon="1.53877267022815"><ele>221.0</ele><time>2026-05-02T09:17:16Z</time></trkpt><trkpt lat="44.90263881388674" lon="1.5383602417972482"><ele>222.5</ele><time>2026-05-02T09:17:17Z</time></trkpt><trkpt lat="44.902795289217046" lon="1.5379720064945026"><ele>224.0</ele><time>2026-05-02T09:17:18Z</time></trkpt><trkpt lat="44.90293953458094" lon="1.53761818967347"><ele>224.0</ele><time>2026-05-02T09:17:19Z</time></trkpt><trkpt lat="44.90307905366616" lon="1.537310541189671"><ele>224.0</ele><time>2026-05-02T09:17:20Z</time></trkpt><trkpt lat="44.903205885708" lon="1.5370149537146731"><ele>224.5</ele><time>2026-05-02T09:17:21Z</time></trkpt><trkpt lat="44.903349147581444" lon="1.536721105265591"><ele>225.0</ele><time>2026-05-02T09:17:22Z</time></trkpt><trkpt lat="44.90352963088677" lon="1.5364534014896447"><ele>224.0</ele><time>2026-05-02T09:17:23Z</time></trkpt><trkpt lat="44.90373603788352" lon="1.5362018005293858"><ele>223.0</ele><time>2026-05-02T09:17:24Z</time></trkpt><trkpt lat="44.90395149514707" lon="1.5359568736254703"><ele>223.0</ele><time>2026-05-02T09:17:25Z</time></trkpt><trkpt lat="44.90414905045006" lon="1.5357335167920316"><ele>223.0</ele><time>2026-05-02T09:17:26Z</time></trkpt><trkpt lat="44.90433786722554" lon="1.535526020790306"><ele>222.0</ele><time>2026-05-02T09:17:27Z</time></trkpt><trkpt lat="44.904529247017535" lon="1.5353429878455933"><ele>221.0</ele><time>2026-05-02T09:17:28Z</time></trkpt><trkpt lat="44.90474794654415" lon="1.5351749498237246"><ele>221.0</ele><time>2026-05-02T09:17:29Z</time></trkpt><trkpt lat="44.90496502265581" lon="1.535002695340362"><ele>221.0</ele><time>2026-05-02T09:17:29.999Z</time></trkpt><trkpt lat="44.90516189318789" lon="1.5348773135426508"><ele>221.0</ele><time>2026-05-02T09:17:30.999Z</time></trkpt><trkpt lat="44.90534784028865" lon="1.5347513067613956"><ele>221.0</ele><time>2026-05-02T09:17:31.999Z</time></trkpt><trkpt lat="44.90550411787233" lon="1.5346399054855455"><ele>221.0</ele><time>2026-05-02T09:17:32.999Z</time></trkpt><trkpt lat="44.905633859449495" lon="1.5345423264072442"><ele>221.00000000000003</ele><time>2026-05-02T09:17:33.999Z</time></trkpt><trkpt lat="44.9057467237356" lon="1.534462127769361"><ele>221.0</ele><time>2026-05-02T09:17:34.999Z</time></trkpt><trkpt lat="44.90583773034397" lon="1.534405613502267"><ele>221.0</ele><time>2026-05-02T09:17:35.999Z</time></trkpt><trkpt lat="44.90590621358939" lon="1.5343712293547085"><ele>221.0</ele><time>2026-05-02T09:17:36.999Z</time></trkpt><trkpt lat="44.90597194136561" lon="1.534407525902093"><ele>221.00000000000003</ele><time>2026-05-02T09:17:38.999Z</time></trkpt><trkpt lat="44.90601425257304" lon="1.5344943448458654"><ele>221.0</ele><time>2026-05-02T09:17:43.999Z</time></trkpt><trkpt lat="44.90605094176619" lon="1.5346360192153539"><ele>221.66666666666669</ele><time>2026-05-02T09:17:44.999Z</time></trkpt><trkpt lat="44.906104066699015" lon="1.5348582666996953"><ele>222.33333333333331</ele><time>2026-05-02T09:17:45.999Z</time></trkpt><trkpt lat="44.90616986129399" lon="1.5351174629514464"><ele>223.0</ele><time>2026-05-02T09:17:46.999Z</time></trkpt><trkpt lat="44.90625184754684" lon="1.5354042208369145"><ele>220.5</ele><time>2026-05-02T09:17:47.999Z</time></trkpt><trkpt lat="44.9063410807167" lon="1.535719344964541"><ele>218.0</ele><time>2026-05-02T09:17:48.999Z</time></trkpt><trkpt lat="44.90642549451175" lon="1.5360547188549396"><ele>215.5</ele><time>2026-05-02T09:17:49.999Z</time></trkpt><trkpt lat="44.90652866915359" lon="1.5364168157298839"><ele>213.0</ele><time>2026-05-02T09:17:50.999Z</time></trkpt><trkpt lat="44.90663657469372" lon="1.5368052261339944"><ele>213.5</ele><time>2026-05-02T09:17:51.999Z</time></trkpt><trkpt lat="44.90674264849241" lon="1.5371957679810895"><ele>214.0</ele><time>2026-05-02T09:17:52.999Z</time></trkpt><trkpt lat="44.90684509294746" lon="1.5375687245319547"><ele>215.5</ele><time>2026-05-02T09:17:53.999Z</time></trkpt><trkpt lat="44.90694068869503" lon="1.5379006200738845"><ele>217.0</ele><time>2026-05-02T09:17:54.999Z</time></trkpt><trkpt lat="44.9070399513598" lon="1.5382065210462368"><ele>217.0</ele><time>2026-05-02T09:17:55.999Z</time></trkpt><trkpt lat="44.90716927583736" lon="1.5385025249750142"><ele>217.0</ele><time>2026-05-02T09:17:56.999Z</time></trkpt><trkpt lat="44.90733932736731" lon="1.5387980478336474"><ele>217.0</ele><time>2026-05-02T09:17:57.999Z</time></trkpt><trkpt lat="44.90754839287331" lon="1.539096110848542"><ele>217.0</ele><time>2026-05-02T09:17:58.999Z</time></trkpt><trkpt lat="44.90775634178258" lon="1.539387351448925"><ele>217.5</ele><time>2026-05-02T09:17:59.999Z</time></trkpt><trkpt lat="44.90797176464279" lon="1.5396919312786101"><ele>218.0</ele><time>2026-05-02T09:18:00.999Z</time></trkpt><trkpt lat="44.908192241801245" lon="1.540016776771038"><ele>217.0</ele><time>2026-05-02T09:18:01.999Z</time></trkpt><trkpt lat="44.908412665661885" lon="1.5403485395297245"><ele>216.0</ele><time>2026-05-02T09:18:02.999Z</time></trkpt><trkpt lat="44.908641396656776" lon="1.5406855873691057"><ele>216.0</ele><time>2026-05-02T09:18:03.999Z</time></trkpt><trkpt lat="44.908871193212825" lon="1.5410342112506923"><ele>216.0</ele><time>2026-05-02T09:18:04.999Z</time></trkpt><trkpt lat="44.90909626983411" lon="1.5413772948668296"><ele>217.5</ele><time>2026-05-02T09:18:05.999Z</time></trkpt><trkpt lat="44.90930594631198" lon="1.5416760089499033"><ele>219.0</ele><time>2026-05-02T09:18:06.999Z</time></trkpt><trkpt lat="44.909499359550544" lon="1.5419530224941316"><ele>219.0</ele><time>2026-05-02T09:18:07.999Z</time></trkpt><trkpt lat="44.90967034996306" lon="1.5422131797722707"><ele>219.0</ele><time>2026-05-02T09:18:08.999Z</time></trkpt><trkpt lat="44.909829483083975" lon="1.542460636264437"><ele>219.0</ele><time>2026-05-02T09:18:09.999Z</time></trkpt><trkpt lat="44.90998883409024" lon="1.542700829032013"><ele>219.0</ele><time>2026-05-02T09:18:10.999Z</time></trkpt><trkpt lat="44.91016475122209" lon="1.5429494213415849"><ele>220.5</ele><time>2026-05-02T09:18:11.999Z</time></trkpt><trkpt lat="44.91034076481611" lon="1.543202769763317"><ele>222.0</ele><time>2026-05-02T09:18:12.999Z</time></trkpt><trkpt lat="44.91051400773519" lon="1.5434592132405052"><ele>222.0</ele><time>2026-05-02T09:18:13.999Z</time></trkpt><trkpt lat="44.910688981993395" lon="1.5437147181998252"><ele>222.0</ele><time>2026-05-02T09:18:14.999Z</time></trkpt><trkpt lat="44.91087176368565" lon="1.5439745516522074"><ele>221.5</ele><time>2026-05-02T09:18:15.999Z</time></trkpt><trkpt lat="44.91104150754559" lon="1.5442317345244794"><ele>221.0</ele><time>2026-05-02T09:18:16.999Z</time></trkpt><trkpt lat="44.911165583246415" lon="1.54450550849797"><ele>222.0</ele><time>2026-05-02T09:18:17.999Z</time></trkpt><trkpt lat="44.91129262882909" lon="1.5447810202667185"><ele>223.0</ele><time>2026-05-02T09:18:18.999Z</time></trkpt><trkpt lat="44.911405451820556" lon="1.5450766732771062"><ele>223.5</ele><time>2026-05-02T09:18:19.999Z</time></trkpt><trkpt lat="44.91152120629436" lon="1.54538435057135"><ele>224.0</ele><time>2026-05-02T09:18:20.999Z</time></trkpt><trkpt lat="44.91164133644087" lon="1.5456914890056634"><ele>226.5</ele><time>2026-05-02T09:18:21.999Z</time></trkpt><trkpt lat="44.91176937830778" lon="1.5459915489398974"><ele>229.0</ele><time>2026-05-02T09:18:22.999Z</time></trkpt><trkpt lat="44.91189149022009" lon="1.5462953388750016"><ele>229.33333333333331</ele><time>2026-05-02T09:18:23.999Z</time></trkpt><trkpt lat="44.91199496856528" lon="1.546573359938539"><ele>229.66666666666669</ele><time>2026-05-02T09:18:24.999Z</time></trkpt><trkpt lat="44.91208784608514" lon="1.5468275214977125"><ele>230.0</ele><time>2026-05-02T09:18:25.999Z</time></trkpt><trkpt lat="44.9121742383026" lon="1.5470475502340653"><ele>230.0</ele><time>2026-05-02T09:18:26.999Z</time></trkpt><trkpt lat="44.91225583192448" lon="1.5472552026725181"><ele>230.0</ele><time>2026-05-02T09:18:27.999Z</time></trkpt><trkpt lat="44.91234512298117" lon="1.5474545902047496"><ele>230.0</ele><time>2026-05-02T09:18:28.999Z</time></trkpt><trkpt lat="44.91247154496625" lon="1.5476534007087004"><ele>229.0</ele><time>2026-05-02T09:18:29.999Z</time></trkpt><trkpt lat="44.912633035441466" lon="1.5478351349439101"><ele>228.0</ele><time>2026-05-02T09:18:30.999Z</time></trkpt><trkpt lat="44.91283849744832" lon="1.5480055296470023"><ele>227.0</ele><time>2026-05-02T09:18:32Z</time></trkpt><trkpt lat="44.91307049006524" lon="1.5481496781585338"><ele>225.0</ele><time>2026-05-02T09:18:33Z</time></trkpt><trkpt lat="44.91330785857227" lon="1.548285832819993"><ele>223.0</ele><time>2026-05-02T09:18:34Z</time></trkpt><trkpt lat="44.913520120244065" lon="1.5484032755089612"><ele>222.0</ele><time>2026-05-02T09:18:35Z</time></trkpt><trkpt lat="44.913710340421204" lon="1.5485179730532181"><ele>221.0</ele><time>2026-05-02T09:18:36Z</time></trkpt><trkpt lat="44.91392967386203" lon="1.5485765302268624"><ele>220.0</ele><time>2026-05-02T09:18:37Z</time></trkpt><trkpt lat="44.914158075760746" lon="1.548595359178598"><ele>221.66666666666666</ele><time>2026-05-02T09:18:38Z</time></trkpt><trkpt lat="44.91432338063794" lon="1.5487512118262332"><ele>223.33333333333331</ele><time>2026-05-02T09:18:39Z</time></trkpt><trkpt lat="44.91450670244478" lon="1.5489401147306057"><ele>225.0</ele><time>2026-05-02T09:18:40Z</time></trkpt><trkpt lat="44.914712382097484" lon="1.549128320190628"><ele>225.0</ele><time>2026-05-02T09:18:41Z</time></trkpt><trkpt lat="44.91491875833455" lon="1.5493570147392022"><ele>225.0</ele><time>2026-05-02T09:18:42Z</time></trkpt><trkpt lat="44.915130192272336" lon="1.549584709672948"><ele>226.0</ele><time>2026-05-02T09:18:43Z</time></trkpt><trkpt lat="44.91532813958889" lon="1.5497954526248647"><ele>227.0</ele><time>2026-05-02T09:18:44Z</time></trkpt><trkpt lat="44.91551307471277" lon="1.549988532096184"><ele>227.0</ele><time>2026-05-02T09:18:45Z</time></trkpt><trkpt lat="44.91569091017599" lon="1.5501819137813797"><ele>227.0</ele><time>2026-05-02T09:18:46Z</time></trkpt><trkpt lat="44.915871133041925" lon="1.5503855351105882"><ele>225.5</ele><time>2026-05-02T09:18:47Z</time></trkpt><trkpt lat="44.91606523788013" lon="1.5505876110014989"><ele>224.0</ele><time>2026-05-02T09:18:48Z</time></trkpt><trkpt lat="44.91627954929574" lon="1.5507883126232227"><ele>224.0</ele><time>2026-05-02T09:18:49Z</time></trkpt><trkpt lat="44.91652755233032" lon="1.5509561723264003"><ele>224.0</ele><time>2026-05-02T09:18:50Z</time></trkpt><trkpt lat="44.916805974214626" lon="1.5510926741267237"><ele>222.0</ele><time>2026-05-02T09:18:51Z</time></trkpt><trkpt lat="44.91709213124116" lon="1.5512219496718291"><ele>220.0</ele><time>2026-05-02T09:18:52Z</time></trkpt><trkpt lat="44.91735608490303" lon="1.5513477160258948"><ele>225.0</ele><time>2026-05-02T09:18:53Z</time></trkpt><trkpt lat="44.91760256779182" lon="1.5514671721963769"><ele>230.0</ele><time>2026-05-02T09:18:54Z</time></trkpt><trkpt lat="44.91784961430515" lon="1.5515897743107758"><ele>230.0</ele><time>2026-05-02T09:18:55Z</time></trkpt><trkpt lat="44.91809230264213" lon="1.5517225778337274"><ele>230.0</ele><time>2026-05-02T09:18:56Z</time></trkpt><trkpt lat="44.918323825561764" lon="1.5518773733238487"><ele>234.0</ele><time>2026-05-02T09:18:57Z</time></trkpt><trkpt lat="44.918545357370164" lon="1.552052356660398"><ele>238.0</ele><time>2026-05-02T09:18:58Z</time></trkpt><trkpt lat="44.91871548981707" lon="1.5523052658661263"><ele>238.0</ele><time>2026-05-02T09:18:59Z</time></trkpt><trkpt lat="44.91887703844737" lon="1.552554303119496"><ele>238.0</ele><time>2026-05-02T09:19:00Z</time></trkpt><trkpt lat="44.919018892927355" lon="1.5528229569562544"><ele>236.5</ele><time>2026-05-02T09:19:01Z</time></trkpt><trkpt lat="44.91914709503773" lon="1.5531054856961006"><ele>235.0</ele><time>2026-05-02T09:19:02Z</time></trkpt><trkpt lat="44.919257464527924" lon="1.5534110407318458"><ele>232.0</ele><time>2026-05-02T09:19:03Z</time></trkpt><trkpt lat="44.919361929295505" lon="1.553721093813895"><ele>229.0</ele><time>2026-05-02T09:19:04Z</time></trkpt><trkpt lat="44.919449877760044" lon="1.554059682375298"><ele>229.0</ele><time>2026-05-02T09:19:05Z</time></trkpt><trkpt lat="44.919554704066634" lon="1.5543727221872332"><ele>229.0</ele><time>2026-05-02T09:19:06Z</time></trkpt><trkpt lat="44.91966206306548" lon="1.5546479160903024"><ele>228.66666666666666</ele><time>2026-05-02T09:19:07Z</time></trkpt><trkpt lat="44.91978524094209" lon="1.5548951621035136"><ele>228.33333333333331</ele><time>2026-05-02T09:19:08Z</time></trkpt><trkpt lat="44.9199290113872" lon="1.5551239503551413"><ele>228.0</ele><time>2026-05-02T09:19:09Z</time></trkpt><trkpt lat="44.92008687145766" lon="1.5553350717532888"><ele>229.33333333333331</ele><time>2026-05-02T09:19:10Z</time></trkpt><trkpt lat="44.92024667215332" lon="1.5555344280677483"><ele>230.66666666666666</ele><time>2026-05-02T09:19:11Z</time></trkpt><trkpt lat="44.92039970705797" lon="1.555705237153426"><ele>232.0</ele><time>2026-05-02T09:19:12Z</time></trkpt><trkpt lat="44.92053970203232" lon="1.555816298228982"><ele>232.0</ele><time>2026-05-02T09:19:13Z</time></trkpt><trkpt lat="44.9206730486748" lon="1.5558909390475282"><ele>232.0</ele><time>2026-05-02T09:19:14Z</time></trkpt><trkpt lat="44.92079031769112" lon="1.55597660717323"><ele>232.0</ele><time>2026-05-02T09:19:15Z</time></trkpt><trkpt lat="44.92090420978224" lon="1.5561255283347315"><ele>232.0</ele><time>2026-05-02T09:19:16Z</time></trkpt><trkpt lat="44.92101708039343" lon="1.556352961388179"><ele>235.0</ele><time>2026-05-02T09:19:17Z</time></trkpt><trkpt lat="44.92114497487856" lon="1.5566018894266307"><ele>238.0</ele><time>2026-05-02T09:19:18Z</time></trkpt><trkpt lat="44.92127747049404" lon="1.5568658422332513"><ele>241.0</ele><time>2026-05-02T09:19:19Z</time></trkpt><trkpt lat="44.92139128664089" lon="1.557104386058336"><ele>242.66666666666666</ele><time>2026-05-02T09:19:20Z</time></trkpt><trkpt lat="44.921466594745624" lon="1.5573488093558556"><ele>244.33333333333331</ele><time>2026-05-02T09:19:21Z</time></trkpt><trkpt lat="44.92149847631498" lon="1.5576331162045343"><ele>246.0</ele><time>2026-05-02T09:19:22Z</time></trkpt><trkpt lat="44.92150618710297" lon="1.5579638874932422"><ele>246.5</ele><time>2026-05-02T09:19:23Z</time></trkpt><trkpt lat="44.92153715087668" lon="1.5582811430315735"><ele>247.0</ele><time>2026-05-02T09:19:24Z</time></trkpt><trkpt lat="44.92159776864215" lon="1.5586030862737719"><ele>247.0</ele><time>2026-05-02T09:19:25Z</time></trkpt><trkpt lat="44.921705767893314" lon="1.5589310300047265"><ele>247.0</ele><time>2026-05-02T09:19:26Z</time></trkpt><trkpt lat="44.9218383361638" lon="1.559249355696554"><ele>247.0</ele><time>2026-05-02T09:19:27Z</time></trkpt><trkpt lat="44.921993294019174" lon="1.5595822239329409"><ele>247.0</ele><time>2026-05-02T09:19:28Z</time></trkpt><trkpt lat="44.922155569792466" lon="1.559927343078824"><ele>247.0</ele><time>2026-05-02T09:19:29Z</time></trkpt><trkpt lat="44.922326427494156" lon="1.5602846266784989"><ele>247.0</ele><time>2026-05-02T09:19:30Z</time></trkpt><trkpt lat="44.922498567537744" lon="1.5606534427098084"><ele>249.0</ele><time>2026-05-02T09:19:31Z</time></trkpt><trkpt lat="44.92265365789341" lon="1.5609932807182882"><ele>251.0</ele><time>2026-05-02T09:19:32Z</time></trkpt><trkpt lat="44.9227816717599" lon="1.5613038168977516"><ele>252.5</ele><time>2026-05-02T09:19:33Z</time></trkpt><trkpt lat="44.92291184816612" lon="1.5616004447055114"><ele>254.0</ele><time>2026-05-02T09:19:34Z</time></trkpt><trkpt lat="44.92305050079133" lon="1.561901659278388"><ele>255.0</ele><time>2026-05-02T09:19:35Z</time></trkpt><trkpt lat="44.9231868477737" lon="1.5622077128194025"><ele>256.0</ele><time>2026-05-02T09:19:36Z</time></trkpt><trkpt lat="44.92332610318327" lon="1.5625311707278533"><ele>256.0</ele><time>2026-05-02T09:19:37Z</time></trkpt><trkpt lat="44.92346948758903" lon="1.5628581896372256"><ele>256.0</ele><time>2026-05-02T09:19:38Z</time></trkpt><trkpt lat="44.92361450753398" lon="1.5631824803934684"><ele>257.0</ele><time>2026-05-02T09:19:39Z</time></trkpt><trkpt lat="44.92376768995634" lon="1.5635187253543692"><ele>258.0</ele><time>2026-05-02T09:19:40Z</time></trkpt><trkpt lat="44.92392169563117" lon="1.563869230143247"><ele>258.0</ele><time>2026-05-02T09:19:41Z</time></trkpt><trkpt lat="44.924081626977646" lon="1.5642294505038903"><ele>258.0</ele><time>2026-05-02T09:19:42Z</time></trkpt><trkpt lat="44.92422552294999" lon="1.5645480802071516"><ele>259.6666666666667</ele><time>2026-05-02T09:19:43Z</time></trkpt><trkpt lat="44.92434267507983" lon="1.5648091913417956"><ele>261.33333333333337</ele><time>2026-05-02T09:19:44Z</time></trkpt><trkpt lat="44.9244513054745" lon="1.5650591046026643"><ele>263.0</ele><time>2026-05-02T09:19:45Z</time></trkpt><trkpt lat="44.92456456464886" lon="1.5653086495245854"><ele>263.0</ele><time>2026-05-02T09:19:46Z</time></trkpt><trkpt lat="44.92468235674697" lon="1.5655896622055026"><ele>263.0</ele><time>2026-05-02T09:19:47Z</time></trkpt><trkpt lat="44.92478932057997" lon="1.56590680297974"><ele>262.5</ele><time>2026-05-02T09:19:47.999Z</time></trkpt><trkpt lat="44.924854354910835" lon="1.5662728979744516"><ele>262.0</ele><time>2026-05-02T09:19:48.999Z</time></trkpt><trkpt lat="44.924891147307854" lon="1.566661224018128"><ele>262.0</ele><time>2026-05-02T09:19:49.999Z</time></trkpt><trkpt lat="44.92492826121178" lon="1.5669749911487376"><ele>262.0</ele><time>2026-05-02T09:19:50.999Z</time></trkpt><trkpt lat="44.92496388407564" lon="1.5672168834666795"><ele>262.0</ele><time>2026-05-02T09:19:51.999Z</time></trkpt><trkpt lat="44.924985066683696" lon="1.5674285465308009"><ele>261.75</ele><time>2026-05-02T09:19:52.999Z</time></trkpt><trkpt lat="44.92501060390224" lon="1.567598472464804"><ele>261.5</ele><time>2026-05-02T09:19:53.999Z</time></trkpt><trkpt lat="44.92506965763043" lon="1.567777093685817"><ele>261.25</ele><time>2026-05-02T09:19:54.999Z</time></trkpt><trkpt lat="44.92519543964978" lon="1.5679598511434174"><ele>261.0</ele><time>2026-05-02T09:19:55.999Z</time></trkpt><trkpt lat="44.925376103453836" lon="1.5681609662848812"><ele>260.0</ele><time>2026-05-02T09:19:56.999Z</time></trkpt><trkpt lat="44.92556147381253" lon="1.568383107382804"><ele>259.0</ele><time>2026-05-02T09:19:57.999Z</time></trkpt><trkpt lat="44.92572582759096" lon="1.5686519251686146"><ele>259.66666666666663</ele><time>2026-05-02T09:19:58.999Z</time></trkpt><trkpt lat="44.92585669262434" lon="1.568922584061749"><ele>260.3333333333333</ele><time>2026-05-02T09:19:59.999Z</time></trkpt><trkpt lat="44.925929920627304" lon="1.569185974625195"><ele>261.0</ele><time>2026-05-02T09:20:00.999Z</time></trkpt><trkpt lat="44.925961533360564" lon="1.5694319051621772"><ele>262.25</ele><time>2026-05-02T09:20:01.999Z</time></trkpt><trkpt lat="44.92597585075483" lon="1.5696740428163"><ele>263.5</ele><time>2026-05-02T09:20:02.999Z</time></trkpt><trkpt lat="44.926012560543" lon="1.569864639808975"><ele>264.75</ele><time>2026-05-02T09:20:03.999Z</time></trkpt><trkpt lat="44.92608157614095" lon="1.5699988292008507"><ele>266.0</ele><time>2026-05-02T09:20:04.999Z</time></trkpt><trkpt lat="44.92619739697988" lon="1.5701161862667656"><ele>266.0</ele><time>2026-05-02T09:20:05.999Z</time></trkpt><trkpt lat="44.926394555612326" lon="1.570196556529938"><ele>266.0</ele><time>2026-05-02T09:20:06.999Z</time></trkpt><trkpt lat="44.926630649240195" lon="1.5702548560069063"><ele>266.0</ele><time>2026-05-02T09:20:07.999Z</time></trkpt><trkpt lat="44.92681343156075" lon="1.5703760103848217"><ele>265.33333333333337</ele><time>2026-05-02T09:20:08.999Z</time></trkpt><trkpt lat="44.92694841733534" lon="1.5705075289302883"><ele>264.6666666666667</ele><time>2026-05-02T09:20:09.999Z</time></trkpt><trkpt lat="44.92704306596975" lon="1.5706726034373752"><ele>264.0</ele><time>2026-05-02T09:20:10.999Z</time></trkpt><trkpt lat="44.927085880872205" lon="1.5708899896259032"><ele>264.0</ele><time>2026-05-02T09:20:11.999Z</time></trkpt><trkpt lat="44.92705996076398" lon="1.571113190633609"><ele>264.0</ele><time>2026-05-02T09:20:12.999Z</time></trkpt><trkpt lat="44.92704783593713" lon="1.571405773071484"><ele>264.0</ele><time>2026-05-02T09:20:13.999Z</time></trkpt><trkpt lat="44.927023870869384" lon="1.571678081875745"><ele>262.6666666666667</ele><time>2026-05-02T09:20:14.999Z</time></trkpt><trkpt lat="44.92708075605037" lon="1.5719309608622671"><ele>261.33333333333337</ele><time>2026-05-02T09:20:15.999Z</time></trkpt><trkpt lat="44.927198426080814" lon="1.572180653899932"><ele>260.0</ele><time>2026-05-02T09:20:16.999Z</time></trkpt><trkpt lat="44.92735646375858" lon="1.572426477612276"><ele>258.6666666666667</ele><time>2026-05-02T09:20:17.999Z</time></trkpt><trkpt lat="44.9275267016874" lon="1.5726535733035358"><ele>257.3333333333333</ele><time>2026-05-02T09:20:18.999Z</time></trkpt><trkpt lat="44.92766869174467" lon="1.5728645509594397"><ele>256.0</ele><time>2026-05-02T09:20:19.999Z</time></trkpt><trkpt lat="44.927833772487446" lon="1.5730764317724557"><ele>254.5</ele><time>2026-05-02T09:20:20.999Z</time></trkpt><trkpt lat="44.928041619856025" lon="1.5732435702938814"><ele>253.0</ele><time>2026-05-02T09:20:21.999Z</time></trkpt><trkpt lat="44.92826731574372" lon="1.573363952564795"><ele>252.33333333333331</ele><time>2026-05-02T09:20:22.999Z</time></trkpt><trkpt lat="44.928420451146" lon="1.5735608236912162"><ele>251.66666666666669</ele><time>2026-05-02T09:20:23.999Z</time></trkpt><trkpt lat="44.92855000572908" lon="1.5738178173608803"><ele>251.0</ele><time>2026-05-02T09:20:24.999Z</time></trkpt><trkpt lat="44.928664384905225" lon="1.574126998468975"><ele>251.0</ele><time>2026-05-02T09:20:25.999Z</time></trkpt><trkpt lat="44.92873374913867" lon="1.574456008758036"><ele>251.0</ele><time>2026-05-02T09:20:26.999Z</time></trkpt><trkpt lat="44.928773709310654" lon="1.5747827902955414"><ele>249.0</ele><time>2026-05-02T09:20:27.999Z</time></trkpt><trkpt lat="44.928821990764355" lon="1.5750939229480756"><ele>247.0</ele><time>2026-05-02T09:20:28.999Z</time></trkpt><trkpt lat="44.92885053088521" lon="1.575383928501449"><ele>245.0</ele><time>2026-05-02T09:20:29.999Z</time></trkpt><trkpt lat="44.928894229715794" lon="1.5756595006982244"><ele>245.0</ele><time>2026-05-02T09:20:30.999Z</time></trkpt><trkpt lat="44.9289429929706" lon="1.575940570269937"><ele>245.0</ele><time>2026-05-02T09:20:31.999Z</time></trkpt><trkpt lat="44.928982725941815" lon="1.576235762419327"><ele>245.0</ele><time>2026-05-02T09:20:32.999Z</time></trkpt><trkpt lat="44.92902283486386" lon="1.576510775408661"><ele>245.33333333333334</ele><time>2026-05-02T09:20:33.999Z</time></trkpt><trkpt lat="44.92906167537338" lon="1.576765763826296"><ele>245.66666666666669</ele><time>2026-05-02T09:20:34.999Z</time></trkpt><trkpt lat="44.929097465563004" lon="1.577025123273205"><ele>246.0</ele><time>2026-05-02T09:20:35.999Z</time></trkpt><trkpt lat="44.92913497244589" lon="1.5772936389478966"><ele>244.0</ele><time>2026-05-02T09:20:36.999Z</time></trkpt><trkpt lat="44.92917719663595" lon="1.577578922974914"><ele>242.0</ele><time>2026-05-02T09:20:38Z</time></trkpt><trkpt lat="44.929217715385285" lon="1.577863614685798"><ele>240.0</ele><time>2026-05-02T09:20:39Z</time></trkpt><trkpt lat="44.92925467103819" lon="1.57816583937513"><ele>239.0</ele><time>2026-05-02T09:20:40Z</time></trkpt><trkpt lat="44.929284093722" lon="1.578491417129575"><ele>238.0</ele><time>2026-05-02T09:20:41Z</time></trkpt><trkpt lat="44.92930964736624" lon="1.578793158743497"><ele>237.0</ele><time>2026-05-02T09:20:42Z</time></trkpt><trkpt lat="44.92932514881568" lon="1.5790856335947396"><ele>235.66666666666669</ele><time>2026-05-02T09:20:43Z</time></trkpt><trkpt lat="44.92939209413752" lon="1.5793694796720283"><ele>234.33333333333334</ele><time>2026-05-02T09:20:44Z</time></trkpt><trkpt lat="44.929475442480886" lon="1.5796645683510881"><ele>233.0</ele><time>2026-05-02T09:20:45Z</time></trkpt><trkpt lat="44.929582619894944" lon="1.579906333252406"><ele>233.0</ele><time>2026-05-02T09:20:46Z</time></trkpt><trkpt lat="44.92969849418477" lon="1.5800885378434897"><ele>233.0</ele><time>2026-05-02T09:20:47Z</time></trkpt><trkpt lat="44.929840909809684" lon="1.5802273253837003"><ele>233.0</ele><time>2026-05-02T09:20:48Z</time></trkpt><trkpt lat="44.93002502538884" lon="1.5803079046415878"><ele>232.66666666666669</ele><time>2026-05-02T09:20:49Z</time></trkpt><trkpt lat="44.93019971857493" lon="1.5803931639580189"><ele>232.33333333333331</ele><time>2026-05-02T09:20:50Z</time></trkpt><trkpt lat="44.93032839208417" lon="1.5804970808375425"><ele>232.0</ele><time>2026-05-02T09:20:51Z</time></trkpt><trkpt lat="44.93041113960913" lon="1.5806333928579583"><ele>232.0</ele><time>2026-05-02T09:20:52Z</time></trkpt><trkpt lat="44.93045499651142" lon="1.5808055421416987"><ele>232.0</ele><time>2026-05-02T09:20:53Z</time></trkpt><trkpt lat="44.93045505349502" lon="1.58099737642175"><ele>232.0</ele><time>2026-05-02T09:20:54Z</time></trkpt><trkpt lat="44.93043340426157" lon="1.5812507784429841"><ele>232.0</ele><time>2026-05-02T09:20:55Z</time></trkpt><trkpt lat="44.93037291710069" lon="1.5815089704350906"><ele>231.0</ele><time>2026-05-02T09:20:56Z</time></trkpt><trkpt lat="44.93028488075586" lon="1.5817652737846202"><ele>230.0</ele><time>2026-05-02T09:20:57Z</time></trkpt><trkpt lat="44.93021987663363" lon="1.582038103273109"><ele>229.0</ele><time>2026-05-02T09:20:58Z</time></trkpt><trkpt lat="44.93015147270503" lon="1.5822652275594284"><ele>228.66666666666666</ele><time>2026-05-02T09:20:59Z</time></trkpt><trkpt lat="44.930119446777645" lon="1.5824919967774904"><ele>228.33333333333331</ele><time>2026-05-02T09:21:00Z</time></trkpt><trkpt lat="44.930133165031755" lon="1.5826969350823719"><ele>228.0</ele><time>2026-05-02T09:21:01Z</time></trkpt><trkpt lat="44.930184528886215" lon="1.582902493895995"><ele>228.0</ele><time>2026-05-02T09:21:02Z</time></trkpt><trkpt lat="44.93029054300045" lon="1.583088177879686"><ele>228.0</ele><time>2026-05-02T09:21:03Z</time></trkpt><trkpt lat="44.93041542464218" lon="1.5832708925496801"><ele>228.0</ele><time>2026-05-02T09:21:04Z</time></trkpt><trkpt lat="44.93049862655383" lon="1.583454429754637"><ele>228.0</ele><time>2026-05-02T09:21:05Z</time></trkpt><trkpt lat="44.9305914903104" lon="1.5836076468718834"><ele>228.0</ele><time>2026-05-02T09:21:06Z</time></trkpt><trkpt lat="44.93066430593604" lon="1.5837511363124586"><ele>228.0</ele><time>2026-05-02T09:21:07Z</time></trkpt><trkpt lat="44.93073927770173" lon="1.5838660415122323"><ele>228.0</ele><time>2026-05-02T09:21:08Z</time></trkpt><trkpt lat="44.93082572958257" lon="1.583968183402795"><ele>227.60000000000002</ele><time>2026-05-02T09:21:09Z</time></trkpt><trkpt lat="44.930920557923386" lon="1.5840662560665701"><ele>227.20000000000002</ele><time>2026-05-02T09:21:10Z</time></trkpt><trkpt lat="44.93101440724634" lon="1.5841489547392507"><ele>226.8</ele><time>2026-05-02T09:21:11Z</time></trkpt><trkpt lat="44.931112713903744" lon="1.5842265235766437"><ele>226.4</ele><time>2026-05-02T09:21:12Z</time></trkpt><trkpt lat="44.93117493054005" lon="1.5843368749207773"><ele>226.0</ele><time>2026-05-02T09:21:13Z</time></trkpt><trkpt lat="44.93122502622208" lon="1.584446293423641"><ele>226.25</ele><time>2026-05-02T09:21:14Z</time></trkpt><trkpt lat="44.93125583925266" lon="1.5845748928272263"><ele>226.5</ele><time>2026-05-02T09:21:15Z</time></trkpt><trkpt lat="44.931278025384515" lon="1.584735386137653"><ele>226.75</ele><time>2026-05-02T09:21:16Z</time></trkpt><trkpt lat="44.931310804300566" lon="1.5849391061609739"><ele>227.0</ele><time>2026-05-02T09:21:17Z</time></trkpt><trkpt lat="44.93133270923211" lon="1.5851615382483593"><ele>226.66666666666669</ele><time>2026-05-02T09:21:18Z</time></trkpt><trkpt lat="44.93135954561458" lon="1.5853697389941335"><ele>226.33333333333331</ele><time>2026-05-02T09:21:19Z</time></trkpt><trkpt lat="44.93138954891965" lon="1.5855928378192037"><ele>226.0</ele><time>2026-05-02T09:21:20Z</time></trkpt><trkpt lat="44.93142282179238" lon="1.585812508174444"><ele>226.0</ele><time>2026-05-02T09:21:21Z</time></trkpt><trkpt lat="44.93146304444836" lon="1.5860141011812738"><ele>226.0</ele><time>2026-05-02T09:21:22Z</time></trkpt><trkpt lat="44.93151411066219" lon="1.5862043781316728"><ele>226.0</ele><time>2026-05-02T09:21:23Z</time></trkpt><trkpt lat="44.93157158463625" lon="1.5863960526459597"><ele>226.0</ele><time>2026-05-02T09:21:24Z</time></trkpt><trkpt lat="44.931635287022495" lon="1.5865963465913735"><ele>226.33333333333331</ele><time>2026-05-02T09:21:25Z</time></trkpt><trkpt lat="44.93171107033715" lon="1.5867989208421864"><ele>226.66666666666669</ele><time>2026-05-02T09:21:26Z</time></trkpt><trkpt lat="44.93178544081212" lon="1.5870137596259373"><ele>227.0</ele><time>2026-05-02T09:21:27Z</time></trkpt><trkpt lat="44.931849977838056" lon="1.5872095619448636"><ele>228.0</ele><time>2026-05-02T09:21:28Z</time></trkpt><trkpt lat="44.931907760610095" lon="1.587407310538562"><ele>229.0</ele><time>2026-05-02T09:21:29Z</time></trkpt><trkpt lat="44.931969873559986" lon="1.5876001727982811"><ele>230.0</ele><time>2026-05-02T09:21:30Z</time></trkpt><trkpt lat="44.93203612424322" lon="1.5877863245775046"><ele>231.0</ele><time>2026-05-02T09:21:31Z</time></trkpt><trkpt lat="44.93210097491129" lon="1.5879685077264563"><ele>232.0</ele><time>2026-05-02T09:21:32Z</time></trkpt><trkpt lat="44.932158701200976" lon="1.5881548401319714"><ele>233.0</ele><time>2026-05-02T09:21:33Z</time></trkpt><trkpt lat="44.93221391878037" lon="1.5883531535787268"><ele>234.0</ele><time>2026-05-02T09:21:34Z</time></trkpt><trkpt lat="44.93227839166674" lon="1.5885704574257353"><ele>234.25</ele><time>2026-05-02T09:21:35Z</time></trkpt><trkpt lat="44.93233787416953" lon="1.5887640627705737"><ele>234.5</ele><time>2026-05-02T09:21:36Z</time></trkpt><trkpt lat="44.9323901825212" lon="1.5889436609713887"><ele>234.75</ele><time>2026-05-02T09:21:37Z</time></trkpt><trkpt lat="44.932437476644" lon="1.589123587664296"><ele>235.0</ele><time>2026-05-02T09:21:38Z</time></trkpt><trkpt lat="44.93250578397973" lon="1.5892844805527149"><ele>235.5</ele><time>2026-05-02T09:21:39Z</time></trkpt><trkpt lat="44.9325811226102" lon="1.5894371004447132"><ele>236.0</ele><time>2026-05-02T09:21:40Z</time></trkpt><trkpt lat="44.93265299109248" lon="1.5895931652428745"><ele>236.5</ele><time>2026-05-02T09:21:41Z</time></trkpt><trkpt lat="44.932732354169545" lon="1.5897493116048353"><ele>237.0</ele><time>2026-05-02T09:21:42Z</time></trkpt><trkpt lat="44.9328160758609" lon="1.5899202627636373"><ele>237.0</ele><time>2026-05-02T09:21:43Z</time></trkpt><trkpt lat="44.932905878616246" lon="1.5900982707479698"><ele>237.0</ele><time>2026-05-02T09:21:44Z</time></trkpt><trkpt lat="44.93298740601891" lon="1.5902627733780905"><ele>237.0</ele><time>2026-05-02T09:21:45Z</time></trkpt><trkpt lat="44.933067604588224" lon="1.5904324386844628"><ele>237.0</ele><time>2026-05-02T09:21:46Z</time></trkpt><trkpt lat="44.93316299619956" lon="1.5906177301614552"><ele>235.0</ele><time>2026-05-02T09:21:47Z</time></trkpt><trkpt lat="44.93326878844334" lon="1.5908188056250894"><ele>233.0</ele><time>2026-05-02T09:21:48Z</time></trkpt><trkpt lat="44.933365795567404" lon="1.591024323266172"><ele>231.0</ele><time>2026-05-02T09:21:49Z</time></trkpt><trkpt lat="44.93345497835451" lon="1.591220570139762"><ele>230.66666666666669</ele><time>2026-05-02T09:21:50Z</time></trkpt><trkpt lat="44.93354741494392" lon="1.5914156704881477"><ele>230.33333333333334</ele><time>2026-05-02T09:21:51Z</time></trkpt><trkpt lat="44.93363740674234" lon="1.5916169963141407"><ele>230.0</ele><time>2026-05-02T09:21:52Z</time></trkpt><trkpt lat="44.93372007603486" lon="1.591827952273014"><ele>228.66666666666669</ele><time>2026-05-02T09:21:53Z</time></trkpt><trkpt lat="44.93380476491901" lon="1.5920439374336888"><ele>227.33333333333331</ele><time>2026-05-02T09:21:54Z</time></trkpt><trkpt lat="44.933887867772526" lon="1.5922610405339794"><ele>226.0</ele><time>2026-05-02T09:21:55Z</time></trkpt><trkpt lat="44.93396863425173" lon="1.5924855806624003"><ele>226.0</ele><time>2026-05-02T09:21:56Z</time></trkpt><trkpt lat="44.934048190759015" lon="1.5927178922491463"><ele>226.0</ele><time>2026-05-02T09:21:57Z</time></trkpt><trkpt lat="44.934118524168476" lon="1.5929608325270204"><ele>226.0</ele><time>2026-05-02T09:21:57.999Z</time></trkpt><trkpt lat="44.93417286808036" lon="1.5932056541327624"><ele>227.33333333333331</ele><time>2026-05-02T09:21:58.999Z</time></trkpt><trkpt lat="44.93422297266003" lon="1.593452256581634"><ele>228.66666666666669</ele><time>2026-05-02T09:21:59.999Z</time></trkpt><trkpt lat="44.93426306016694" lon="1.5936758836025948"><ele>230.0</ele><time>2026-05-02T09:22:00.999Z</time></trkpt><trkpt lat="44.93430188449776" lon="1.5938847674920276"><ele>230.0</ele><time>2026-05-02T09:22:01.999Z</time></trkpt><trkpt lat="44.93433968353064" lon="1.5940735606963623"><ele>230.0</ele><time>2026-05-02T09:22:02.999Z</time></trkpt><trkpt lat="44.934374448972584" lon="1.594244937543375"><ele>230.0</ele><time>2026-05-02T09:22:03.999Z</time></trkpt><trkpt lat="44.934384159002434" lon="1.5944122504416196"><ele>230.0</ele><time>2026-05-02T09:22:04.999Z</time></trkpt><trkpt lat="44.93438527774054" lon="1.5945625311490008"><ele>231.0</ele><time>2026-05-02T09:22:05.999Z</time></trkpt><trkpt lat="44.93435632792241" lon="1.5947208735679057"><ele>232.0</ele><time>2026-05-02T09:22:06.999Z</time></trkpt><trkpt lat="44.934287313859535" lon="1.594867999510298"><ele>233.0</ele><time>2026-05-02T09:22:07.999Z</time></trkpt><trkpt lat="44.93422503762301" lon="1.5950085665207174"><ele>234.0</ele><time>2026-05-02T09:22:08.999Z</time></trkpt><trkpt lat="44.93416631130652" lon="1.5951402058190292"><ele>234.0</ele><time>2026-05-02T09:22:09.999Z</time></trkpt><trkpt lat="44.93410552105976" lon="1.5952784643303886"><ele>234.0</ele><time>2026-05-02T09:22:10.999Z</time></trkpt><trkpt lat="44.934042100872574" lon="1.5954245105032183"><ele>234.0</ele><time>2026-05-02T09:22:11.999Z</time></trkpt><trkpt lat="44.93399083456193" lon="1.5955870032851882"><ele>234.0</ele><time>2026-05-02T09:22:12.999Z</time></trkpt><trkpt lat="44.93391757399523" lon="1.5957181122515496"><ele>234.83333333333334</ele><time>2026-05-02T09:22:13.999Z</time></trkpt><trkpt lat="44.93388264249617" lon="1.5958538517321792"><ele>235.66666666666669</ele><time>2026-05-02T09:22:14.999Z</time></trkpt><trkpt lat="44.93384033402942" lon="1.5959670741183245"><ele>236.5</ele><time>2026-05-02T09:22:15.999Z</time></trkpt><trkpt lat="44.93382361542873" lon="1.5960682179250745"><ele>237.33333333333334</ele><time>2026-05-02T09:22:16.999Z</time></trkpt><trkpt lat="44.93383163996552" lon="1.5961793048942665"><ele>238.16666666666669</ele><time>2026-05-02T09:22:17.999Z</time></trkpt><trkpt lat="44.93387578566884" lon="1.5962916063018733"><ele>239.0</ele><time>2026-05-02T09:22:18.999Z</time></trkpt><trkpt lat="44.93394919433027" lon="1.5963867106821161"><ele>239.6</ele><time>2026-05-02T09:22:19.999Z</time></trkpt><trkpt lat="44.934058968625294" lon="1.596447329731058"><ele>240.2</ele><time>2026-05-02T09:22:20.999Z</time></trkpt><trkpt lat="44.934151578496106" lon="1.5965217041878323"><ele>240.79999999999998</ele><time>2026-05-02T09:22:21.999Z</time></trkpt><trkpt lat="44.934245237529595" lon="1.5965889442279122"><ele>241.39999999999998</ele><time>2026-05-02T09:22:22.999Z</time></trkpt><trkpt lat="44.9343393876621" lon="1.596664563891823"><ele>242.0</ele><time>2026-05-02T09:22:23.999Z</time></trkpt><trkpt lat="44.934443845539484" lon="1.5967473856291436"><ele>242.5</ele><time>2026-05-02T09:22:24.999Z</time></trkpt><trkpt lat="44.93456758190423" lon="1.596843260967024"><ele>243.0</ele><time>2026-05-02T09:22:25.999Z</time></trkpt><trkpt lat="44.93471417074815" lon="1.5969487898215313"><ele>243.5</ele><time>2026-05-02T09:22:26.999Z</time></trkpt><trkpt lat="44.9348371648167" lon="1.5970392789063"><ele>244.0</ele><time>2026-05-02T09:22:27.999Z</time></trkpt><trkpt lat="44.93496799022782" lon="1.5971347022259175"><ele>243.25</ele><time>2026-05-02T09:22:28.999Z</time></trkpt><trkpt lat="44.93509684346087" lon="1.5972369642343769"><ele>242.5</ele><time>2026-05-02T09:22:29.999Z</time></trkpt><trkpt lat="44.93521140594348" lon="1.5973308310632088"><ele>241.75</ele><time>2026-05-02T09:22:30.999Z</time></trkpt><trkpt lat="44.93532370305349" lon="1.5974124895922241"><ele>241.0</ele><time>2026-05-02T09:22:31.999Z</time></trkpt><trkpt lat="44.935435888849675" lon="1.5974883893984964"><ele>241.0</ele><time>2026-05-02T09:22:32.999Z</time></trkpt><trkpt lat="44.93554303296363" lon="1.5975750427845952"><ele>241.0</ele><time>2026-05-02T09:22:33.999Z</time></trkpt><trkpt lat="44.93564005852281" lon="1.5976606739798598"><ele>241.0</ele><time>2026-05-02T09:22:34.999Z</time></trkpt><trkpt lat="44.935722196018496" lon="1.5977710689551585"><ele>241.0</ele><time>2026-05-02T09:22:35.999Z</time></trkpt><trkpt lat="44.935784767173594" lon="1.5979009739112786"><ele>240.4</ele><time>2026-05-02T09:22:36.999Z</time></trkpt><trkpt lat="44.935822434780945" lon="1.5980406442800927"><ele>239.8</ele><time>2026-05-02T09:22:37.999Z</time></trkpt><trkpt lat="44.93585432287913" lon="1.5981725049601911"><ele>239.20000000000002</ele><time>2026-05-02T09:22:38.999Z</time></trkpt><trkpt lat="44.9358773586079" lon="1.598306720437264"><ele>238.60000000000002</ele><time>2026-05-02T09:22:39.999Z</time></trkpt><trkpt lat="44.935901997700846" lon="1.598460969772299"><ele>238.0</ele><time>2026-05-02T09:22:40.999Z</time></trkpt><trkpt lat="44.935924173131504" lon="1.598631856637897"><ele>237.4</ele><time>2026-05-02T09:22:41.999Z</time></trkpt><trkpt lat="44.93593443260201" lon="1.5987924149583452"><ele>236.8</ele><time>2026-05-02T09:22:42.999Z</time></trkpt><trkpt lat="44.93594697675774" lon="1.5989326686600815"><ele>236.2</ele><time>2026-05-02T09:22:44Z</time></trkpt><trkpt lat="44.93595730486124" lon="1.5990675271506039"><ele>235.6</ele><time>2026-05-02T09:22:45Z</time></trkpt><trkpt lat="44.935964728936845" lon="1.599198281722046"><ele>235.0</ele><time>2026-05-02T09:22:46Z</time></trkpt><trkpt lat="44.93596868051262" lon="1.5993283817331827"><ele>235.0</ele><time>2026-05-02T09:22:47Z</time></trkpt><trkpt lat="44.935975763490376" lon="1.5994662597750042"><ele>235.0</ele><time>2026-05-02T09:22:48Z</time></trkpt><trkpt lat="44.935986501939155" lon="1.5996056157048544"><ele>235.0</ele><time>2026-05-02T09:22:49Z</time></trkpt><trkpt lat="44.9359973832617" lon="1.599734181048495"><ele>235.0</ele><time>2026-05-02T09:22:50Z</time></trkpt><trkpt lat="44.93600359113179" lon="1.5998557420654251"><ele>235.0</ele><time>2026-05-02T09:22:51Z</time></trkpt><trkpt lat="44.93601225980921" lon="1.599970659334684"><ele>234.85714285714283</ele><time>2026-05-02T09:22:52Z</time></trkpt><trkpt lat="44.93602126430465" lon="1.6000806953652162"><ele>234.7142857142857</ele><time>2026-05-02T09:22:53Z</time></trkpt><trkpt lat="44.93602804321431" lon="1.600190764119669"><ele>234.57142857142856</ele><time>2026-05-02T09:22:54Z</time></trkpt><trkpt lat="44.93603382320896" lon="1.6002958813513948"><ele>234.42857142857144</ele><time>2026-05-02T09:22:55Z</time></trkpt><trkpt lat="44.93604117360342" lon="1.6003886525234614"><ele>234.2857142857143</ele><time>2026-05-02T09:22:56Z</time></trkpt><trkpt lat="44.93604863005631" lon="1.6004788805459287"><ele>234.14285714285717</ele><time>2026-05-02T09:22:57Z</time></trkpt><trkpt lat="44.93605379729883" lon="1.600570323522626"><ele>234.0</ele><time>2026-05-02T09:22:58Z</time></trkpt><trkpt lat="44.93606262437086" lon="1.6006679773287833"><ele>233.57142857142858</ele><time>2026-05-02T09:22:59Z</time></trkpt><trkpt lat="44.93606970163358" lon="1.600769654443989"><ele>233.14285714285717</ele><time>2026-05-02T09:23:00Z</time></trkpt><trkpt lat="44.93607740925182" lon="1.600877600652747"><ele>232.71428571428572</ele><time>2026-05-02T09:23:01Z</time></trkpt><trkpt lat="44.936082076007885" lon="1.6009851306579213"><ele>232.28571428571428</ele><time>2026-05-02T09:23:02Z</time></trkpt><trkpt lat="44.93608775831559" lon="1.6010940647282057"><ele>231.85714285714286</ele><time>2026-05-02T09:23:03Z</time></trkpt><trkpt lat="44.93609468622232" lon="1.6011948722511002"><ele>231.42857142857144</ele><time>2026-05-02T09:23:04Z</time></trkpt><trkpt lat="44.93610224236381" lon="1.6012954000996449"><ele>231.0</ele><time>2026-05-02T09:23:05Z</time></trkpt><trkpt lat="44.936105980922974" lon="1.6013920025770203"><ele>230.83333333333334</ele><time>2026-05-02T09:23:06Z</time></trkpt><trkpt lat="44.93610715181464" lon="1.6015113381552166"><ele>230.66666666666669</ele><time>2026-05-02T09:23:08Z</time></trkpt><trkpt lat="44.936111613776085" lon="1.6016205994812847"><ele>230.5</ele><time>2026-05-02T09:23:10Z</time></trkpt><trkpt lat="44.93609761881615" lon="1.6017239301138428"><ele>230.33333333333334</ele><time>2026-05-02T09:23:12Z</time></trkpt><trkpt lat="44.93609172200905" lon="1.6018589410933997"><ele>230.16666666666669</ele><time>2026-05-02T09:23:14Z</time></trkpt><trkpt lat="44.93612194713014" lon="1.6019672927319444"><ele>230.0</ele><time>2026-05-02T09:23:15Z</time></trkpt><trkpt lat="44.93614478745149" lon="1.6020834909321222"><ele>230.00000000000003</ele><time>2026-05-02T09:23:16Z</time></trkpt><trkpt lat="44.9361446195306" lon="1.6022137905448242"><ele>230.0</ele><time>2026-05-02T09:23:17Z</time></trkpt><trkpt lat="44.936154883222535" lon="1.6023303330834866"><ele>230.0</ele><time>2026-05-02T09:23:18Z</time></trkpt><trkpt lat="44.93616394212796" lon="1.6024331944804855"><ele>230.0</ele><time>2026-05-02T09:23:19Z</time></trkpt><trkpt lat="44.93617147603" lon="1.602523903396142"><ele>230.00000000000003</ele><time>2026-05-02T09:23:20Z</time></trkpt><trkpt lat="44.93618880324912" lon="1.6026973890948566"><ele>230.0</ele><time>2026-05-02T09:23:22Z</time></trkpt><trkpt lat="44.936203851779396" lon="1.6027870745843746"><ele>229.8</ele><time>2026-05-02T09:23:23Z</time></trkpt><trkpt lat="44.93622352622552" lon="1.6029029346934818"><ele>229.6</ele><time>2026-05-02T09:23:24Z</time></trkpt><trkpt lat="44.93625456719021" lon="1.603064135701244"><ele>229.39999999999998</ele><time>2026-05-02T09:23:25Z</time></trkpt><trkpt lat="44.93628183868501" lon="1.603209714675279"><ele>229.2</ele><time>2026-05-02T09:23:26Z</time></trkpt><trkpt lat="44.936304805650316" lon="1.6033315947553795"><ele>229.0</ele><time>2026-05-02T09:23:27Z</time></trkpt><trkpt lat="44.93632158556199" lon="1.6034261933729406"><ele>228.99999999999997</ele><time>2026-05-02T09:23:28Z</time></trkpt><trkpt lat="44.93633519885888" lon="1.60355310791607"><ele>229.0</ele><time>2026-05-02T09:23:30Z</time></trkpt><trkpt lat="44.93639555655448" lon="1.603669952308273"><ele>229.0</ele><time>2026-05-02T09:23:32Z</time></trkpt><trkpt lat="44.936403049001676" lon="1.6037640588723365"><ele>229.0</ele><time>2026-05-02T09:23:33Z</time></trkpt><trkpt lat="44.936421776245616" lon="1.6038626277445478"><ele>228.99999999999997</ele><time>2026-05-02T09:23:34Z</time></trkpt><trkpt lat="44.93643955048346" lon="1.603961892767764"><ele>229.0</ele><time>2026-05-02T09:23:35Z</time></trkpt><trkpt lat="44.936452396163105" lon="1.604064722152849"><ele>228.99999999999997</ele><time>2026-05-02T09:23:36Z</time></trkpt><trkpt lat="44.936459299354674" lon="1.604156107663013"><ele>229.0</ele><time>2026-05-02T09:23:37Z</time></trkpt><trkpt lat="44.93647684452005" lon="1.6042542177786614"><ele>229.0</ele><time>2026-05-02T09:23:38Z</time></trkpt><trkpt lat="44.93645731489148" lon="1.604354650286814"><ele>229.0</ele><time>2026-05-02T09:23:39Z</time></trkpt><trkpt lat="44.93643722521014" lon="1.6045235099561395"><ele>228.99999999999997</ele><time>2026-05-02T09:23:41Z</time></trkpt><trkpt lat="44.93644098130843" lon="1.6046263281560338"><ele>229.0</ele><time>2026-05-02T09:23:42Z</time></trkpt><trkpt lat="44.93642119169311" lon="1.6047433670859694"><ele>229.0</ele><time>2026-05-02T09:23:43Z</time></trkpt><trkpt lat="44.936393910203" lon="1.604869397831812"><ele>228.99999999999997</ele><time>2026-05-02T09:23:44Z</time></trkpt><trkpt lat="44.936361886359286" lon="1.6050246364581242"><ele>228.99999999999997</ele><time>2026-05-02T09:23:45Z</time></trkpt><trkpt lat="44.93635215102781" lon="1.6051610061167565"><ele>229.0</ele><time>2026-05-02T09:23:46Z</time></trkpt><trkpt lat="44.93632278891614" lon="1.6052920554691534"><ele>229.0</ele><time>2026-05-02T09:23:47Z</time></trkpt><trkpt lat="44.936308421508876" lon="1.6054366801975164"><ele>229.39999999999998</ele><time>2026-05-02T09:23:48Z</time></trkpt><trkpt lat="44.936288180817414" lon="1.6055720394018296"><ele>229.79999999999998</ele><time>2026-05-02T09:23:49Z</time></trkpt><trkpt lat="44.93626758314929" lon="1.6057137219733384"><ele>230.20000000000002</ele><time>2026-05-02T09:23:50Z</time></trkpt><trkpt lat="44.936238206523065" lon="1.6058566374945866"><ele>230.60000000000002</ele><time>2026-05-02T09:23:51Z</time></trkpt><trkpt lat="44.936211140268" lon="1.6059822638883743"><ele>231.0</ele><time>2026-05-02T09:23:52Z</time></trkpt><trkpt lat="44.93619281462337" lon="1.6061176951593468"><ele>231.0</ele><time>2026-05-02T09:23:53Z</time></trkpt><trkpt lat="44.936182846315695" lon="1.606250456066579"><ele>231.0</ele><time>2026-05-02T09:23:54Z</time></trkpt><trkpt lat="44.93616493557707" lon="1.606354077384376"><ele>231.0</ele><time>2026-05-02T09:23:55Z</time></trkpt><trkpt lat="44.936151119322425" lon="1.6064467422636854"><ele>231.0</ele><time>2026-05-02T09:23:56Z</time></trkpt><trkpt lat="44.936111582669504" lon="1.6065866952220764"><ele>231.0</ele><time>2026-05-02T09:23:58Z</time></trkpt><trkpt lat="44.93608686755768" lon="1.6067104091553652"><ele>231.0</ele><time>2026-05-02T09:24:01Z</time></trkpt><trkpt lat="44.93605217520764" lon="1.6067994389492017"><ele>231.0</ele><time>2026-05-02T09:24:03Z</time></trkpt><trkpt lat="44.93599038743368" lon="1.6069093062225017"><ele>231.00000000000003</ele><time>2026-05-02T09:24:05Z</time></trkpt><trkpt lat="44.93597538616998" lon="1.6070014126912713"><ele>231.00000000000003</ele><time>2026-05-02T09:24:06Z</time></trkpt><trkpt lat="44.9359767790485" lon="1.607195363279547"><ele>231.0</ele><time>2026-05-02T09:24:08Z</time></trkpt><trkpt lat="44.935956529877025" lon="1.607312939346813"><ele>231.0</ele><time>2026-05-02T09:24:09Z</time></trkpt><trkpt lat="44.93592131142878" lon="1.607428141081267"><ele>231.4</ele><time>2026-05-02T09:24:10Z</time></trkpt><trkpt lat="44.935886695541015" lon="1.6075389644508589"><ele>231.8</ele><time>2026-05-02T09:24:11Z</time></trkpt><trkpt lat="44.93585086091618" lon="1.607660280649361"><ele>232.20000000000002</ele><time>2026-05-02T09:24:12Z</time></trkpt><trkpt lat="44.93580732102357" lon="1.607788580615538"><ele>232.60000000000002</ele><time>2026-05-02T09:24:13Z</time></trkpt><trkpt lat="44.93576463419188" lon="1.6079288005510302"><ele>233.0</ele><time>2026-05-02T09:24:14Z</time></trkpt><trkpt lat="44.93572446032956" lon="1.6080853097662113"><ele>233.0</ele><time>2026-05-02T09:24:15Z</time></trkpt><trkpt lat="44.93569445709758" lon="1.6082473344351857"><ele>233.0</ele><time>2026-05-02T09:24:16Z</time></trkpt><trkpt lat="44.93567170053226" lon="1.6084251896657953"><ele>233.0</ele><time>2026-05-02T09:24:17Z</time></trkpt><trkpt lat="44.935663582354174" lon="1.6086156058680756"><ele>233.0</ele><time>2026-05-02T09:24:18Z</time></trkpt><trkpt lat="44.9356541834275" lon="1.6087980975229534"><ele>233.0</ele><time>2026-05-02T09:24:19Z</time></trkpt><trkpt lat="44.93566100919431" lon="1.608962603207379"><ele>233.0</ele><time>2026-05-02T09:24:20Z</time></trkpt><trkpt lat="44.935674922901235" lon="1.6091303997505197"><ele>233.0</ele><time>2026-05-02T09:24:21Z</time></trkpt><trkpt lat="44.935713722411094" lon="1.609297308342566"><ele>233.0</ele><time>2026-05-02T09:24:22Z</time></trkpt><trkpt lat="44.93572342043214" lon="1.6094519038895585"><ele>232.66666666666669</ele><time>2026-05-02T09:24:23Z</time></trkpt><trkpt lat="44.93574358702733" lon="1.6095882329792157"><ele>232.33333333333334</ele><time>2026-05-02T09:24:24Z</time></trkpt><trkpt lat="44.9357654277126" lon="1.6097117403229155"><ele>232.0</ele><time>2026-05-02T09:24:25Z</time></trkpt><trkpt lat="44.93579607979264" lon="1.609811735084467"><ele>231.66666666666669</ele><time>2026-05-02T09:24:26Z</time></trkpt><trkpt lat="44.93583675334959" lon="1.6099120088313394"><ele>231.33333333333334</ele><time>2026-05-02T09:24:26.999Z</time></trkpt><trkpt lat="44.93588654665175" lon="1.610020635506138"><ele>231.0</ele><time>2026-05-02T09:24:27.999Z</time></trkpt><trkpt lat="44.935932926783366" lon="1.6101341328195236"><ele>231.20000000000002</ele><time>2026-05-02T09:24:28.999Z</time></trkpt><trkpt lat="44.935991442003875" lon="1.6102426289927976"><ele>231.40000000000003</ele><time>2026-05-02T09:24:29.999Z</time></trkpt><trkpt lat="44.93604042383614" lon="1.6103436782835785"><ele>231.6</ele><time>2026-05-02T09:24:30.999Z</time></trkpt><trkpt lat="44.93609346619767" lon="1.610453408267834"><ele>231.8</ele><time>2026-05-02T09:24:31.999Z</time></trkpt><trkpt lat="44.936148091454285" lon="1.6105775470642192"><ele>232.0</ele><time>2026-05-02T09:24:32.999Z</time></trkpt><trkpt lat="44.93619924664674" lon="1.61071385623814"><ele>232.0</ele><time>2026-05-02T09:24:33.999Z</time></trkpt><trkpt lat="44.9362392029919" lon="1.6108442084130812"><ele>232.0</ele><time>2026-05-02T09:24:34.999Z</time></trkpt><trkpt lat="44.93628028172486" lon="1.6109736848280782"><ele>232.0</ele><time>2026-05-02T09:24:35.999Z</time></trkpt><trkpt lat="44.93632398769022" lon="1.6110927270706876"><ele>232.0</ele><time>2026-05-02T09:24:36.999Z</time></trkpt><trkpt lat="44.93637871342148" lon="1.6112178769191656"><ele>232.0</ele><time>2026-05-02T09:24:37.999Z</time></trkpt><trkpt lat="44.93643634623474" lon="1.611332841322338"><ele>231.42857142857144</ele><time>2026-05-02T09:24:38.999Z</time></trkpt><trkpt lat="44.936489082953194" lon="1.6114259051416995"><ele>230.85714285714286</ele><time>2026-05-02T09:24:39.999Z</time></trkpt><trkpt lat="44.936540021160276" lon="1.611510578035762"><ele>230.28571428571428</ele><time>2026-05-02T09:24:40.999Z</time></trkpt><trkpt lat="44.9365930246054" lon="1.6115734378138713"><ele>229.71428571428572</ele><time>2026-05-02T09:24:41.999Z</time></trkpt><trkpt lat="44.93664899621822" lon="1.6116184690140478"><ele>229.1428571428571</ele><time>2026-05-02T09:24:42.999Z</time></trkpt><trkpt lat="44.93671263149773" lon="1.6116547200845417"><ele>228.57142857142856</ele><time>2026-05-02T09:24:43.999Z</time></trkpt><trkpt lat="44.93678142844957" lon="1.6116805882430543"><ele>228.0</ele><time>2026-05-02T09:24:44.999Z</time></trkpt><trkpt lat="44.93689201611998" lon="1.6117151714023359"><ele>227.66666666666666</ele><time>2026-05-02T09:24:46.999Z</time></trkpt><trkpt lat="44.93699063291083" lon="1.6117314377074723"><ele>227.33333333333331</ele><time>2026-05-02T09:24:48.999Z</time></trkpt><trkpt lat="44.937053567048636" lon="1.6117435422145345"><ele>227.0</ele><time>2026-05-02T09:24:51Z</time></trkpt><trkpt lat="44.93712905172422" lon="1.6117995962729275"><ele>226.66666666666666</ele><time>2026-05-02T09:24:54Z</time></trkpt><trkpt lat="44.93717984339194" lon="1.6118774417049258"><ele>226.33333333333331</ele><time>2026-05-02T09:24:56Z</time></trkpt><trkpt lat="44.93718106894134" lon="1.612038434790087"><ele>226.0</ele><time>2026-05-02T09:24:57Z</time></trkpt><trkpt lat="44.93719437728276" lon="1.6121424334538086"><ele>226.0</ele><time>2026-05-02T09:24:58Z</time></trkpt><trkpt lat="44.937224391028025" lon="1.612257716610956"><ele>226.00000000000003</ele><time>2026-05-02T09:24:59Z</time></trkpt><trkpt lat="44.93726037262939" lon="1.6123611978844306"><ele>226.00000000000003</ele><time>2026-05-02T09:25:00Z</time></trkpt><trkpt lat="44.93728076936589" lon="1.612491327756744"><ele>226.0</ele><time>2026-05-02T09:25:01Z</time></trkpt><trkpt lat="44.93731813082289" lon="1.612628387461981"><ele>226.0</ele><time>2026-05-02T09:25:02Z</time></trkpt><trkpt lat="44.93735103074593" lon="1.6127551108072693"><ele>226.33333333333331</ele><time>2026-05-02T09:25:03Z</time></trkpt><trkpt lat="44.9373819691657" lon="1.6128760020856148"><ele>226.66666666666666</ele><time>2026-05-02T09:25:04Z</time></trkpt><trkpt lat="44.93741169578163" lon="1.6129921582539468"><ele>227.0</ele><time>2026-05-02T09:25:05Z</time></trkpt><trkpt lat="44.93744247924511" lon="1.6131127155718812"><ele>227.33333333333331</ele><time>2026-05-02T09:25:06Z</time></trkpt><trkpt lat="44.937472745095086" lon="1.6132356112071955"><ele>227.66666666666666</ele><time>2026-05-02T09:25:07Z</time></trkpt><trkpt lat="44.93750969841772" lon="1.6133368384927085"><ele>228.0</ele><time>2026-05-02T09:25:08Z</time></trkpt><trkpt lat="44.93750600099145" lon="1.6134264518109067"><ele>228.0</ele><time>2026-05-02T09:25:09Z</time></trkpt><trkpt lat="44.937458010626244" lon="1.6135677404583988"><ele>228.0</ele><time>2026-05-02T09:25:11Z</time></trkpt><trkpt lat="44.93742773068321" lon="1.613656604009119"><ele>228.0</ele><time>2026-05-02T09:25:14Z</time></trkpt><trkpt lat="44.93746513204858" lon="1.6137843548210236"><ele>228.0</ele><time>2026-05-02T09:25:16Z</time></trkpt><trkpt lat="44.93755756121226" lon="1.613862044538345"><ele>228.0</ele><time>2026-05-02T09:25:17Z</time></trkpt><trkpt lat="44.937612190795484" lon="1.6139982266750648"><ele>228.33333333333331</ele><time>2026-05-02T09:25:18Z</time></trkpt><trkpt lat="44.937671220546335" lon="1.614183185756091"><ele>228.66666666666666</ele><time>2026-05-02T09:25:19Z</time></trkpt><trkpt lat="44.93775859941449" lon="1.614418682695234"><ele>229.0</ele><time>2026-05-02T09:25:20Z</time></trkpt><trkpt lat="44.937822938610246" lon="1.614636823968376"><ele>230.0</ele><time>2026-05-02T09:25:21Z</time></trkpt><trkpt lat="44.93786981665427" lon="1.6148299339387255"><ele>231.0</ele><time>2026-05-02T09:25:22Z</time></trkpt><trkpt lat="44.9379257478715" lon="1.6150595614391248"><ele>232.0</ele><time>2026-05-02T09:25:23Z</time></trkpt><trkpt lat="44.937984462515246" lon="1.6152882697005442"><ele>233.33333333333331</ele><time>2026-05-02T09:25:24Z</time></trkpt><trkpt lat="44.93803625934804" lon="1.6155100684480816"><ele>234.66666666666669</ele><time>2026-05-02T09:25:25Z</time></trkpt><trkpt lat="44.938080881507496" lon="1.6157191029587845"><ele>236.0</ele><time>2026-05-02T09:25:26Z</time></trkpt><trkpt lat="44.93812475717937" lon="1.6159147485051113"><ele>236.0</ele><time>2026-05-02T09:25:27Z</time></trkpt><trkpt lat="44.93815876685047" lon="1.616089345362951"><ele>236.00000000000003</ele><time>2026-05-02T09:25:28Z</time></trkpt><trkpt lat="44.93818698683813" lon="1.6162339743424001"><ele>236.00000000000003</ele><time>2026-05-02T09:25:29Z</time></trkpt><trkpt lat="44.93821225603241" lon="1.6163732218693618"><ele>236.0</ele><time>2026-05-02T09:25:30Z</time></trkpt><trkpt lat="44.9382322372195" lon="1.6164890998410615"><ele>236.0</ele><time>2026-05-02T09:25:31Z</time></trkpt><trkpt lat="44.93821177046311" lon="1.6165801153932213"><ele>237.0</ele><time>2026-05-02T09:25:33Z</time></trkpt><trkpt lat="44.93798918631006" lon="1.6166674593358172"><ele>238.0</ele><time>2026-05-02T09:25:36Z</time></trkpt><trkpt lat="44.93788049797107" lon="1.6167291705129354"><ele>239.0</ele><time>2026-05-02T09:25:37Z</time></trkpt><trkpt lat="44.93777112447649" lon="1.6167960327283428"><ele>239.0</ele><time>2026-05-02T09:25:38Z</time></trkpt><trkpt lat="44.9376763903385" lon="1.6168611117042357"><ele>238.99999999999997</ele><time>2026-05-02T09:25:39Z</time></trkpt><trkpt lat="44.937589434151356" lon="1.61692875764993"><ele>238.99999999999997</ele><time>2026-05-02T09:25:40Z</time></trkpt><trkpt lat="44.93750151126259" lon="1.6169843117582545"><ele>239.0</ele><time>2026-05-02T09:25:41Z</time></trkpt><trkpt lat="44.93740930169978" lon="1.6170227640913561"><ele>239.0</ele><time>2026-05-02T09:25:42Z</time></trkpt><trkpt lat="44.937326209322464" lon="1.6170509289360422"><ele>238.79999999999998</ele><time>2026-05-02T09:25:43Z</time></trkpt><trkpt lat="44.93725091601087" lon="1.6170789357987276"><ele>238.59999999999997</ele><time>2026-05-02T09:25:44Z</time></trkpt><trkpt lat="44.93715548126114" lon="1.617113041521376"><ele>238.4</ele><time>2026-05-02T09:25:46Z</time></trkpt><trkpt lat="44.937105023794075" lon="1.616865267128039"><ele>238.2</ele><time>2026-05-02T09:25:51Z</time></trkpt><trkpt lat="44.93709720065075" lon="1.6167463076974207"><ele>238.0</ele><time>2026-05-02T09:25:52Z</time></trkpt><trkpt lat="44.93710067665934" lon="1.6166305692451062"><ele>237.99999999999997</ele><time>2026-05-02T09:25:53Z</time></trkpt><trkpt lat="44.93710922824046" lon="1.6165128542891607"><ele>238.0</ele><time>2026-05-02T09:25:54Z</time></trkpt><trkpt lat="44.93713739074737" lon="1.6163895548419436"><ele>238.0</ele><time>2026-05-02T09:25:55Z</time></trkpt><trkpt lat="44.93715849429372" lon="1.61627668944207"><ele>238.0</ele><time>2026-05-02T09:25:56Z</time></trkpt><trkpt lat="44.93716387489853" lon="1.6161667151291066"><ele>237.99999999999997</ele><time>2026-05-02T09:25:57Z</time></trkpt><trkpt lat="44.93718947793877" lon="1.6160757362638365"><ele>238.0</ele><time>2026-05-02T09:25:58Z</time></trkpt><trkpt lat="44.93720845956486" lon="1.6159780786624955"><ele>235.0</ele><time>2026-05-02T09:25:59Z</time></trkpt><trkpt lat="44.93723477967407" lon="1.6158913189111608"><ele>235.0</ele><time>2026-05-02T09:26:00Z</time></trkpt><trkpt lat="44.93725645302438" lon="1.6158069160594977"><ele>235.0</ele><time>2026-05-02T09:26:01Z</time></trkpt><trkpt lat="44.93729002920403" lon="1.6156910558660003"><ele>235.0</ele><time>2026-05-02T09:26:03Z</time></trkpt><trkpt lat="44.937325025414246" lon="1.615603873668678"><ele>235.0</ele><time>2026-05-02T09:26:06Z</time></trkpt><trkpt lat="44.937358116081526" lon="1.615523108943512"><ele>235.0</ele><time>2026-05-02T09:27:30Z</time></trkpt></trkseg></trk></gpx>